<?xml version="1.0" encoding="UTF-8" standalone="no" ?>
<gpx xmlns="http://www.topografix.com/GPX/1/1" xmlns:xsi="http://www.w3.org/2001/XMLSchema-instance" xsi:schemaLocation="http://www.topografix.com/GPX/1/1 http://www.topografix.com/GPX/1/1/gpx.xsd" version="1.1" creator="VisuGPX - https://www.visugpx.com">
  <metadata>
    <name>Pornichet 21/10/2021</name>
    <desc><![CDATA[Sortie VTT jeudi 21 octobre 2021]]></desc>
  </metadata>
  <trk>
    <name><![CDATA[Pornichet Cyclisme]]></name>
    <trkseg>
      <trkpt lat="47.2641" lon="-2.3159">
        <ele>9.8</ele>
        <time>2021-10-21T06:45:55.000Z</time>
      </trkpt>
      <trkpt lat="47.26409" lon="-2.31593">
        <ele>9.7</ele>
        <time>2021-10-21T06:45:56.000Z</time>
      </trkpt>
      <trkpt lat="47.26409" lon="-2.31603">
        <ele>9.7</ele>
        <time>2021-10-21T06:45:58.000Z</time>
      </trkpt>
      <trkpt lat="47.2641" lon="-2.31608">
        <ele>0.40000000596046</ele>
        <time>2021-10-21T06:45:59.000Z</time>
      </trkpt>
      <trkpt lat="47.26411" lon="-2.31619">
        <ele>0.40000000596046</ele>
        <time>2021-10-21T06:46:01.000Z</time>
      </trkpt>
      <trkpt lat="47.26412" lon="-2.31642">
        <ele>0.40000000596046</ele>
        <time>2021-10-21T06:46:05.000Z</time>
      </trkpt>
      <trkpt lat="47.26411" lon="-2.31661">
        <ele>0.40000000596046</ele>
        <time>2021-10-21T06:46:09.000Z</time>
      </trkpt>
      <trkpt lat="47.26398" lon="-2.31668">
        <ele>0.40000000596046</ele>
        <time>2021-10-21T06:46:13.000Z</time>
      </trkpt>
      <trkpt lat="47.26395" lon="-2.31669">
        <ele>7.9</ele>
        <time>2021-10-21T06:46:14.000Z</time>
      </trkpt>
      <trkpt lat="47.2639" lon="-2.31671">
        <ele>-0.60000002384186</ele>
        <time>2021-10-21T06:46:15.000Z</time>
      </trkpt>
      <trkpt lat="47.26386" lon="-2.31674">
        <ele>-1</ele>
        <time>2021-10-21T06:46:16.000Z</time>
      </trkpt>
      <trkpt lat="47.26381" lon="-2.31677">
        <ele>-1.3999999761581</ele>
        <time>2021-10-21T06:46:17.000Z</time>
      </trkpt>
      <trkpt lat="47.26371" lon="-2.31683">
        <ele>-1.7999999523163</ele>
        <time>2021-10-21T06:46:18.000Z</time>
      </trkpt>
      <trkpt lat="47.26343" lon="-2.31699">
        <ele>-1.7999999523163</ele>
        <time>2021-10-21T06:46:25.000Z</time>
      </trkpt>
      <trkpt lat="47.26338" lon="-2.31702">
        <ele>-1.7999999523163</ele>
        <time>2021-10-21T06:46:26.000Z</time>
      </trkpt>
      <trkpt lat="47.26333" lon="-2.31705">
        <ele>-1.7999999523163</ele>
        <time>2021-10-21T06:46:27.000Z</time>
      </trkpt>
      <trkpt lat="47.26313" lon="-2.31715">
        <ele>-2.2000000476837</ele>
        <time>2021-10-21T06:46:31.000Z</time>
      </trkpt>
      <trkpt lat="47.26309" lon="-2.31718">
        <ele>-2.5999999046326</ele>
        <time>2021-10-21T06:46:32.000Z</time>
      </trkpt>
      <trkpt lat="47.26305" lon="-2.31722">
        <ele>-3</ele>
        <time>2021-10-21T06:46:33.000Z</time>
      </trkpt>
      <trkpt lat="47.26303" lon="-2.31726">
        <ele>-3.5999999046326</ele>
        <time>2021-10-21T06:46:34.000Z</time>
      </trkpt>
      <trkpt lat="47.26302" lon="-2.31732">
        <ele>-4</ele>
        <time>2021-10-21T06:46:35.000Z</time>
      </trkpt>
      <trkpt lat="47.26303" lon="-2.31744">
        <ele>-4</ele>
        <time>2021-10-21T06:46:37.000Z</time>
      </trkpt>
      <trkpt lat="47.26305" lon="-2.3176">
        <ele>-4</ele>
        <time>2021-10-21T06:46:40.000Z</time>
      </trkpt>
      <trkpt lat="47.26306" lon="-2.318">
        <ele>-4</ele>
        <time>2021-10-21T06:46:47.000Z</time>
      </trkpt>
      <trkpt lat="47.26304" lon="-2.31835">
        <ele>-4</ele>
        <time>2021-10-21T06:46:53.000Z</time>
      </trkpt>
      <trkpt lat="47.26302" lon="-2.31871">
        <ele>-4</ele>
        <time>2021-10-21T06:47:00.000Z</time>
      </trkpt>
      <trkpt lat="47.26301" lon="-2.31874">
        <ele>-4</ele>
        <time>2021-10-21T06:47:01.000Z</time>
      </trkpt>
      <trkpt lat="47.26297" lon="-2.31882">
        <ele>-4</ele>
        <time>2021-10-21T06:47:05.000Z</time>
      </trkpt>
      <trkpt lat="47.26286" lon="-2.31895">
        <ele>-4</ele>
        <time>2021-10-21T06:47:10.000Z</time>
      </trkpt>
      <trkpt lat="47.26269" lon="-2.31917">
        <ele>-4</ele>
        <time>2021-10-21T06:47:17.000Z</time>
      </trkpt>
      <trkpt lat="47.26257" lon="-2.31937">
        <ele>-4.4000000953674</ele>
        <time>2021-10-21T06:47:22.000Z</time>
      </trkpt>
      <trkpt lat="47.26255" lon="-2.3194">
        <ele>-4.8000001907349</ele>
        <time>2021-10-21T06:47:23.000Z</time>
      </trkpt>
      <trkpt lat="47.26253" lon="-2.31943">
        <ele>-5.1999998092651</ele>
        <time>2021-10-21T06:47:24.000Z</time>
      </trkpt>
      <trkpt lat="47.26252" lon="-2.31946">
        <ele>-6</ele>
        <time>2021-10-21T06:47:25.000Z</time>
      </trkpt>
      <trkpt lat="47.26246" lon="-2.31961">
        <ele>-6</ele>
        <time>2021-10-21T06:47:29.000Z</time>
      </trkpt>
      <trkpt lat="47.26236" lon="-2.31968">
        <ele>-6</ele>
        <time>2021-10-21T06:47:34.000Z</time>
      </trkpt>
      <trkpt lat="47.26233" lon="-2.3197">
        <ele>-6</ele>
        <time>2021-10-21T06:47:35.000Z</time>
      </trkpt>
      <trkpt lat="47.26227" lon="-2.31978">
        <ele>-6</ele>
        <time>2021-10-21T06:47:39.000Z</time>
      </trkpt>
      <trkpt lat="47.26211" lon="-2.31993">
        <ele>-6</ele>
        <time>2021-10-21T06:47:45.000Z</time>
      </trkpt>
      <trkpt lat="47.26205" lon="-2.31999">
        <ele>-6</ele>
        <time>2021-10-21T06:47:48.000Z</time>
      </trkpt>
      <trkpt lat="47.26205" lon="-2.32005">
        <ele>-6</ele>
        <time>2021-10-21T06:47:50.000Z</time>
      </trkpt>
      <trkpt lat="47.26204" lon="-2.3201">
        <ele>-6</ele>
        <time>2021-10-21T06:47:52.000Z</time>
      </trkpt>
      <trkpt lat="47.26202" lon="-2.32012">
        <ele>-6</ele>
        <time>2021-10-21T06:47:54.000Z</time>
      </trkpt>
      <trkpt lat="47.26187" lon="-2.32015">
        <ele>-6</ele>
        <time>2021-10-21T06:48:01.000Z</time>
      </trkpt>
      <trkpt lat="47.2617" lon="-2.32028">
        <ele>-6</ele>
        <time>2021-10-21T06:48:06.000Z</time>
      </trkpt>
      <trkpt lat="47.26156" lon="-2.3205">
        <ele>-6</ele>
        <time>2021-10-21T06:48:11.000Z</time>
      </trkpt>
      <trkpt lat="47.26146" lon="-2.32085">
        <ele>-6</ele>
        <time>2021-10-21T06:48:17.000Z</time>
      </trkpt>
      <trkpt lat="47.26129" lon="-2.32134">
        <ele>-6</ele>
        <time>2021-10-21T06:48:26.000Z</time>
      </trkpt>
      <trkpt lat="47.26118" lon="-2.32164">
        <ele>-6</ele>
        <time>2021-10-21T06:48:32.000Z</time>
      </trkpt>
      <trkpt lat="47.26103" lon="-2.322">
        <ele>-6</ele>
        <time>2021-10-21T06:48:39.000Z</time>
      </trkpt>
      <trkpt lat="47.261" lon="-2.32205">
        <ele>-6</ele>
        <time>2021-10-21T06:48:40.000Z</time>
      </trkpt>
      <trkpt lat="47.26085" lon="-2.32228">
        <ele>-6</ele>
        <time>2021-10-21T06:48:45.000Z</time>
      </trkpt>
      <trkpt lat="47.26061" lon="-2.32256">
        <ele>-6</ele>
        <time>2021-10-21T06:48:52.000Z</time>
      </trkpt>
      <trkpt lat="47.26033" lon="-2.32288">
        <ele>-6</ele>
        <time>2021-10-21T06:49:00.000Z</time>
      </trkpt>
      <trkpt lat="47.2601" lon="-2.32317">
        <ele>-6</ele>
        <time>2021-10-21T06:49:07.000Z</time>
      </trkpt>
      <trkpt lat="47.25987" lon="-2.32349">
        <ele>-6</ele>
        <time>2021-10-21T06:49:14.000Z</time>
      </trkpt>
      <trkpt lat="47.25968" lon="-2.32374">
        <ele>-6</ele>
        <time>2021-10-21T06:49:20.000Z</time>
      </trkpt>
      <trkpt lat="47.25939" lon="-2.32411">
        <ele>-6</ele>
        <time>2021-10-21T06:49:29.000Z</time>
      </trkpt>
      <trkpt lat="47.25917" lon="-2.32439">
        <ele>-6</ele>
        <time>2021-10-21T06:49:36.000Z</time>
      </trkpt>
      <trkpt lat="47.25904" lon="-2.32461">
        <ele>-6</ele>
        <time>2021-10-21T06:49:42.000Z</time>
      </trkpt>
      <trkpt lat="47.25907" lon="-2.32465">
        <ele>-6</ele>
        <time>2021-10-21T06:49:45.000Z</time>
      </trkpt>
      <trkpt lat="47.25912" lon="-2.32467">
        <ele>-6</ele>
        <time>2021-10-21T06:49:47.000Z</time>
      </trkpt>
      <trkpt lat="47.25917" lon="-2.32472">
        <ele>-6</ele>
        <time>2021-10-21T06:49:49.000Z</time>
      </trkpt>
      <trkpt lat="47.25928" lon="-2.32499">
        <ele>-6</ele>
        <time>2021-10-21T06:49:54.000Z</time>
      </trkpt>
      <trkpt lat="47.25944" lon="-2.32546">
        <ele>-6</ele>
        <time>2021-10-21T06:50:02.000Z</time>
      </trkpt>
      <trkpt lat="47.25957" lon="-2.32597">
        <ele>-6</ele>
        <time>2021-10-21T06:50:10.000Z</time>
      </trkpt>
      <trkpt lat="47.25958" lon="-2.32604">
        <ele>-6</ele>
        <time>2021-10-21T06:50:11.000Z</time>
      </trkpt>
      <trkpt lat="47.25963" lon="-2.32636">
        <ele>-6</ele>
        <time>2021-10-21T06:50:16.000Z</time>
      </trkpt>
      <trkpt lat="47.25963" lon="-2.32643">
        <ele>-6</ele>
        <time>2021-10-21T06:50:17.000Z</time>
      </trkpt>
      <trkpt lat="47.25968" lon="-2.32659">
        <ele>-6</ele>
        <time>2021-10-21T06:50:21.000Z</time>
      </trkpt>
      <trkpt lat="47.25979" lon="-2.32659">
        <ele>-6</ele>
        <time>2021-10-21T06:50:24.000Z</time>
      </trkpt>
      <trkpt lat="47.25983" lon="-2.32659">
        <ele>-6</ele>
        <time>2021-10-21T06:50:25.000Z</time>
      </trkpt>
      <trkpt lat="47.25995" lon="-2.3266">
        <ele>-6</ele>
        <time>2021-10-21T06:50:28.000Z</time>
      </trkpt>
      <trkpt lat="47.26007" lon="-2.32657">
        <ele>-6</ele>
        <time>2021-10-21T06:50:31.000Z</time>
      </trkpt>
      <trkpt lat="47.26039" lon="-2.32654">
        <ele>-6</ele>
        <time>2021-10-21T06:50:39.000Z</time>
      </trkpt>
      <trkpt lat="47.26077" lon="-2.32645">
        <ele>-6</ele>
        <time>2021-10-21T06:50:48.000Z</time>
      </trkpt>
      <trkpt lat="47.26112" lon="-2.3264">
        <ele>-6</ele>
        <time>2021-10-21T06:50:56.000Z</time>
      </trkpt>
      <trkpt lat="47.26132" lon="-2.3264">
        <ele>-5.5999999046326</ele>
        <time>2021-10-21T06:51:01.000Z</time>
      </trkpt>
      <trkpt lat="47.26137" lon="-2.32641">
        <ele>-5.1999998092651</ele>
        <time>2021-10-21T06:51:02.000Z</time>
      </trkpt>
      <trkpt lat="47.26141" lon="-2.32642">
        <ele>-4.8000001907349</ele>
        <time>2021-10-21T06:51:03.000Z</time>
      </trkpt>
      <trkpt lat="47.26145" lon="-2.32643">
        <ele>-4.4000000953674</ele>
        <time>2021-10-21T06:51:04.000Z</time>
      </trkpt>
      <trkpt lat="47.2615" lon="-2.32645">
        <ele>-4</ele>
        <time>2021-10-21T06:51:05.000Z</time>
      </trkpt>
      <trkpt lat="47.26154" lon="-2.32647">
        <ele>-4</ele>
        <time>2021-10-21T06:51:06.000Z</time>
      </trkpt>
      <trkpt lat="47.26175" lon="-2.32658">
        <ele>-4</ele>
        <time>2021-10-21T06:51:11.000Z</time>
      </trkpt>
      <trkpt lat="47.26202" lon="-2.32681">
        <ele>-4</ele>
        <time>2021-10-21T06:51:18.000Z</time>
      </trkpt>
      <trkpt lat="47.26232" lon="-2.32718">
        <ele>-4</ele>
        <time>2021-10-21T06:51:26.000Z</time>
      </trkpt>
      <trkpt lat="47.26266" lon="-2.32768">
        <ele>-4</ele>
        <time>2021-10-21T06:51:35.000Z</time>
      </trkpt>
      <trkpt lat="47.26282" lon="-2.32803">
        <ele>-4</ele>
        <time>2021-10-21T06:51:41.000Z</time>
      </trkpt>
      <trkpt lat="47.26289" lon="-2.32841">
        <ele>-4</ele>
        <time>2021-10-21T06:51:47.000Z</time>
      </trkpt>
      <trkpt lat="47.26291" lon="-2.32847">
        <ele>-4</ele>
        <time>2021-10-21T06:51:48.000Z</time>
      </trkpt>
      <trkpt lat="47.263" lon="-2.32859">
        <ele>-4</ele>
        <time>2021-10-21T06:51:51.000Z</time>
      </trkpt>
      <trkpt lat="47.26309" lon="-2.32863">
        <ele>-4</ele>
        <time>2021-10-21T06:51:53.000Z</time>
      </trkpt>
      <trkpt lat="47.26313" lon="-2.32866">
        <ele>-4</ele>
        <time>2021-10-21T06:51:54.000Z</time>
      </trkpt>
      <trkpt lat="47.2632" lon="-2.32875">
        <ele>-4</ele>
        <time>2021-10-21T06:51:56.000Z</time>
      </trkpt>
      <trkpt lat="47.26329" lon="-2.329">
        <ele>-4</ele>
        <time>2021-10-21T06:52:00.000Z</time>
      </trkpt>
      <trkpt lat="47.26344" lon="-2.3295">
        <ele>-4</ele>
        <time>2021-10-21T06:52:08.000Z</time>
      </trkpt>
      <trkpt lat="47.26353" lon="-2.32971">
        <ele>-4</ele>
        <time>2021-10-21T06:52:12.000Z</time>
      </trkpt>
      <trkpt lat="47.26359" lon="-2.32979">
        <ele>-4</ele>
        <time>2021-10-21T06:52:14.000Z</time>
      </trkpt>
      <trkpt lat="47.26367" lon="-2.33">
        <ele>-4</ele>
        <time>2021-10-21T06:52:18.000Z</time>
      </trkpt>
      <trkpt lat="47.26367" lon="-2.33006">
        <ele>-4</ele>
        <time>2021-10-21T06:52:19.000Z</time>
      </trkpt>
      <trkpt lat="47.26368" lon="-2.33012">
        <ele>-4</ele>
        <time>2021-10-21T06:52:20.000Z</time>
      </trkpt>
      <trkpt lat="47.26369" lon="-2.33043">
        <ele>-4</ele>
        <time>2021-10-21T06:52:25.000Z</time>
      </trkpt>
      <trkpt lat="47.26372" lon="-2.33099">
        <ele>-4</ele>
        <time>2021-10-21T06:52:34.000Z</time>
      </trkpt>
      <trkpt lat="47.26375" lon="-2.33149">
        <ele>-4</ele>
        <time>2021-10-21T06:52:42.000Z</time>
      </trkpt>
      <trkpt lat="47.26378" lon="-2.332">
        <ele>-4</ele>
        <time>2021-10-21T06:52:50.000Z</time>
      </trkpt>
      <trkpt lat="47.26385" lon="-2.33256">
        <ele>-4</ele>
        <time>2021-10-21T06:52:59.000Z</time>
      </trkpt>
      <trkpt lat="47.264" lon="-2.33266">
        <ele>-4</ele>
        <time>2021-10-21T06:53:03.000Z</time>
      </trkpt>
      <trkpt lat="47.26404" lon="-2.33267">
        <ele>-4</ele>
        <time>2021-10-21T06:53:04.000Z</time>
      </trkpt>
      <trkpt lat="47.2643" lon="-2.3327">
        <ele>-4</ele>
        <time>2021-10-21T06:53:10.000Z</time>
      </trkpt>
      <trkpt lat="47.26451" lon="-2.33272">
        <ele>-4</ele>
        <time>2021-10-21T06:53:15.000Z</time>
      </trkpt>
      <trkpt lat="47.26459" lon="-2.33276">
        <ele>-4</ele>
        <time>2021-10-21T06:53:17.000Z</time>
      </trkpt>
      <trkpt lat="47.26468" lon="-2.33278">
        <ele>-4</ele>
        <time>2021-10-21T06:53:19.000Z</time>
      </trkpt>
      <trkpt lat="47.26481" lon="-2.33278">
        <ele>-4</ele>
        <time>2021-10-21T06:53:22.000Z</time>
      </trkpt>
      <trkpt lat="47.26502" lon="-2.33283">
        <ele>-4</ele>
        <time>2021-10-21T06:53:27.000Z</time>
      </trkpt>
      <trkpt lat="47.26507" lon="-2.33285">
        <ele>-4</ele>
        <time>2021-10-21T06:53:28.000Z</time>
      </trkpt>
      <trkpt lat="47.26514" lon="-2.33288">
        <ele>-4</ele>
        <time>2021-10-21T06:53:30.000Z</time>
      </trkpt>
      <trkpt lat="47.26529" lon="-2.33289">
        <ele>-4</ele>
        <time>2021-10-21T06:53:34.000Z</time>
      </trkpt>
      <trkpt lat="47.26533" lon="-2.33292">
        <ele>-4</ele>
        <time>2021-10-21T06:53:36.000Z</time>
      </trkpt>
      <trkpt lat="47.26538" lon="-2.33297">
        <ele>-4</ele>
        <time>2021-10-21T06:53:38.000Z</time>
      </trkpt>
      <trkpt lat="47.26546" lon="-2.33292">
        <ele>-4</ele>
        <time>2021-10-21T06:53:41.000Z</time>
      </trkpt>
      <trkpt lat="47.26549" lon="-2.33289">
        <ele>-4</ele>
        <time>2021-10-21T06:53:42.000Z</time>
      </trkpt>
      <trkpt lat="47.26561" lon="-2.33275">
        <ele>-4</ele>
        <time>2021-10-21T06:53:46.000Z</time>
      </trkpt>
      <trkpt lat="47.26565" lon="-2.33271">
        <ele>-4</ele>
        <time>2021-10-21T06:53:47.000Z</time>
      </trkpt>
      <trkpt lat="47.26588" lon="-2.33248">
        <ele>-4</ele>
        <time>2021-10-21T06:53:53.000Z</time>
      </trkpt>
      <trkpt lat="47.26619" lon="-2.33217">
        <ele>-4</ele>
        <time>2021-10-21T06:54:01.000Z</time>
      </trkpt>
      <trkpt lat="47.26647" lon="-2.3319">
        <ele>-4</ele>
        <time>2021-10-21T06:54:08.000Z</time>
      </trkpt>
      <trkpt lat="47.2665" lon="-2.33187">
        <ele>-4</ele>
        <time>2021-10-21T06:54:09.000Z</time>
      </trkpt>
      <trkpt lat="47.26669" lon="-2.33169">
        <ele>-4</ele>
        <time>2021-10-21T06:54:14.000Z</time>
      </trkpt>
      <trkpt lat="47.267" lon="-2.33137">
        <ele>-4</ele>
        <time>2021-10-21T06:54:22.000Z</time>
      </trkpt>
      <trkpt lat="47.26707" lon="-2.33129">
        <ele>-4</ele>
        <time>2021-10-21T06:54:24.000Z</time>
      </trkpt>
      <trkpt lat="47.26727" lon="-2.33109">
        <ele>-4</ele>
        <time>2021-10-21T06:54:29.000Z</time>
      </trkpt>
      <trkpt lat="47.26748" lon="-2.33088">
        <ele>-4</ele>
        <time>2021-10-21T06:54:35.000Z</time>
      </trkpt>
      <trkpt lat="47.2676" lon="-2.33091">
        <ele>-4</ele>
        <time>2021-10-21T06:54:38.000Z</time>
      </trkpt>
      <trkpt lat="47.26765" lon="-2.3311">
        <ele>-4</ele>
        <time>2021-10-21T06:54:41.000Z</time>
      </trkpt>
      <trkpt lat="47.26763" lon="-2.33141">
        <ele>-4</ele>
        <time>2021-10-21T06:54:46.000Z</time>
      </trkpt>
      <trkpt lat="47.26761" lon="-2.33146">
        <ele>-4</ele>
        <time>2021-10-21T06:54:47.000Z</time>
      </trkpt>
      <trkpt lat="47.2676" lon="-2.33152">
        <ele>-4</ele>
        <time>2021-10-21T06:54:48.000Z</time>
      </trkpt>
      <trkpt lat="47.26757" lon="-2.3317">
        <ele>-4</ele>
        <time>2021-10-21T06:54:51.000Z</time>
      </trkpt>
      <trkpt lat="47.26754" lon="-2.33181">
        <ele>-4</ele>
        <time>2021-10-21T06:54:53.000Z</time>
      </trkpt>
      <trkpt lat="47.26749" lon="-2.33198">
        <ele>-4</ele>
        <time>2021-10-21T06:54:56.000Z</time>
      </trkpt>
      <trkpt lat="47.26747" lon="-2.33204">
        <ele>-4</ele>
        <time>2021-10-21T06:54:57.000Z</time>
      </trkpt>
      <trkpt lat="47.26735" lon="-2.33247">
        <ele>-4</ele>
        <time>2021-10-21T06:55:04.000Z</time>
      </trkpt>
      <trkpt lat="47.26732" lon="-2.33269">
        <ele>-4</ele>
        <time>2021-10-21T06:55:07.000Z</time>
      </trkpt>
      <trkpt lat="47.26733" lon="-2.33284">
        <ele>-4</ele>
        <time>2021-10-21T06:55:09.000Z</time>
      </trkpt>
      <trkpt lat="47.26736" lon="-2.33299">
        <ele>-4</ele>
        <time>2021-10-21T06:55:11.000Z</time>
      </trkpt>
      <trkpt lat="47.26742" lon="-2.3332">
        <ele>-4</ele>
        <time>2021-10-21T06:55:14.000Z</time>
      </trkpt>
      <trkpt lat="47.26752" lon="-2.33369">
        <ele>-4</ele>
        <time>2021-10-21T06:55:21.000Z</time>
      </trkpt>
      <trkpt lat="47.26755" lon="-2.33404">
        <ele>-4</ele>
        <time>2021-10-21T06:55:26.000Z</time>
      </trkpt>
      <trkpt lat="47.2676" lon="-2.3345">
        <ele>-4</ele>
        <time>2021-10-21T06:55:33.000Z</time>
      </trkpt>
      <trkpt lat="47.26769" lon="-2.33502">
        <ele>-4</ele>
        <time>2021-10-21T06:55:41.000Z</time>
      </trkpt>
      <trkpt lat="47.26776" lon="-2.33542">
        <ele>-4</ele>
        <time>2021-10-21T06:55:47.000Z</time>
      </trkpt>
      <trkpt lat="47.26778" lon="-2.33555">
        <ele>-4</ele>
        <time>2021-10-21T06:55:49.000Z</time>
      </trkpt>
      <trkpt lat="47.26779" lon="-2.33568">
        <ele>-4</ele>
        <time>2021-10-21T06:55:51.000Z</time>
      </trkpt>
      <trkpt lat="47.26781" lon="-2.33601">
        <ele>-3.5999999046326</ele>
        <time>2021-10-21T06:55:56.000Z</time>
      </trkpt>
      <trkpt lat="47.2678" lon="-2.33607">
        <ele>-3.2000000476837</ele>
        <time>2021-10-21T06:55:57.000Z</time>
      </trkpt>
      <trkpt lat="47.2678" lon="-2.33614">
        <ele>-2.7999999523163</ele>
        <time>2021-10-21T06:55:58.000Z</time>
      </trkpt>
      <trkpt lat="47.2678" lon="-2.3362">
        <ele>-2.4000000953674</ele>
        <time>2021-10-21T06:55:59.000Z</time>
      </trkpt>
      <trkpt lat="47.2678" lon="-2.33627">
        <ele>-2</ele>
        <time>2021-10-21T06:56:00.000Z</time>
      </trkpt>
      <trkpt lat="47.26779" lon="-2.33657">
        <ele>-2</ele>
        <time>2021-10-21T06:56:05.000Z</time>
      </trkpt>
      <trkpt lat="47.26779" lon="-2.33685">
        <ele>-1.3999999761581</ele>
        <time>2021-10-21T06:56:10.000Z</time>
      </trkpt>
      <trkpt lat="47.2678" lon="-2.3369">
        <ele>-1</ele>
        <time>2021-10-21T06:56:11.000Z</time>
      </trkpt>
      <trkpt lat="47.26781" lon="-2.33695">
        <ele>-0.60000002384186</ele>
        <time>2021-10-21T06:56:12.000Z</time>
      </trkpt>
      <trkpt lat="47.26782" lon="-2.33699">
        <ele>-0.20000000298023</ele>
        <time>2021-10-21T06:56:13.000Z</time>
      </trkpt>
      <trkpt lat="47.26784" lon="-2.33703">
        <ele>0.20000000298023</ele>
        <time>2021-10-21T06:56:14.000Z</time>
      </trkpt>
      <trkpt lat="47.26789" lon="-2.33712">
        <ele>0.20000000298023</ele>
        <time>2021-10-21T06:56:16.000Z</time>
      </trkpt>
      <trkpt lat="47.26811" lon="-2.33738">
        <ele>0.20000000298023</ele>
        <time>2021-10-21T06:56:23.000Z</time>
      </trkpt>
      <trkpt lat="47.26831" lon="-2.33762">
        <ele>0.20000000298023</ele>
        <time>2021-10-21T06:56:29.000Z</time>
      </trkpt>
      <trkpt lat="47.26837" lon="-2.3377">
        <ele>0.20000000298023</ele>
        <time>2021-10-21T06:56:31.000Z</time>
      </trkpt>
      <trkpt lat="47.26844" lon="-2.33776">
        <ele>0.20000000298023</ele>
        <time>2021-10-21T06:56:33.000Z</time>
      </trkpt>
      <trkpt lat="47.26857" lon="-2.33781">
        <ele>0.20000000298023</ele>
        <time>2021-10-21T06:56:36.000Z</time>
      </trkpt>
      <trkpt lat="47.2686" lon="-2.33783">
        <ele>0.20000000298023</ele>
        <time>2021-10-21T06:56:37.000Z</time>
      </trkpt>
      <trkpt lat="47.26887" lon="-2.33794">
        <ele>0.20000000298023</ele>
        <time>2021-10-21T06:56:44.000Z</time>
      </trkpt>
      <trkpt lat="47.26897" lon="-2.3381">
        <ele>0.20000000298023</ele>
        <time>2021-10-21T06:56:48.000Z</time>
      </trkpt>
      <trkpt lat="47.26906" lon="-2.33846">
        <ele>0.20000000298023</ele>
        <time>2021-10-21T06:56:55.000Z</time>
      </trkpt>
      <trkpt lat="47.26908" lon="-2.3385">
        <ele>0.60000002384186</ele>
        <time>2021-10-21T06:56:56.000Z</time>
      </trkpt>
      <trkpt lat="47.26909" lon="-2.33855">
        <ele>1</ele>
        <time>2021-10-21T06:56:57.000Z</time>
      </trkpt>
      <trkpt lat="47.2691" lon="-2.33861">
        <ele>1.3999999761581</ele>
        <time>2021-10-21T06:56:58.000Z</time>
      </trkpt>
      <trkpt lat="47.26911" lon="-2.33867">
        <ele>1.7999999523163</ele>
        <time>2021-10-21T06:56:59.000Z</time>
      </trkpt>
      <trkpt lat="47.26912" lon="-2.33872">
        <ele>2.2000000476837</ele>
        <time>2021-10-21T06:57:00.000Z</time>
      </trkpt>
      <trkpt lat="47.26913" lon="-2.33878">
        <ele>2.2000000476837</ele>
        <time>2021-10-21T06:57:01.000Z</time>
      </trkpt>
      <trkpt lat="47.26916" lon="-2.3389">
        <ele>2.2000000476837</ele>
        <time>2021-10-21T06:57:03.000Z</time>
      </trkpt>
      <trkpt lat="47.26923" lon="-2.33914">
        <ele>2.2000000476837</ele>
        <time>2021-10-21T06:57:07.000Z</time>
      </trkpt>
      <trkpt lat="47.26935" lon="-2.33971">
        <ele>2.2000000476837</ele>
        <time>2021-10-21T06:57:16.000Z</time>
      </trkpt>
      <trkpt lat="47.26947" lon="-2.3402">
        <ele>2.2000000476837</ele>
        <time>2021-10-21T06:57:24.000Z</time>
      </trkpt>
      <trkpt lat="47.26955" lon="-2.34056">
        <ele>2.5999999046326</ele>
        <time>2021-10-21T06:57:30.000Z</time>
      </trkpt>
      <trkpt lat="47.26957" lon="-2.34062">
        <ele>3</ele>
        <time>2021-10-21T06:57:31.000Z</time>
      </trkpt>
      <trkpt lat="47.26958" lon="-2.34069">
        <ele>3.4000000953674</ele>
        <time>2021-10-21T06:57:32.000Z</time>
      </trkpt>
      <trkpt lat="47.26959" lon="-2.34075">
        <ele>3.7999999523163</ele>
        <time>2021-10-21T06:57:33.000Z</time>
      </trkpt>
      <trkpt lat="47.26961" lon="-2.34081">
        <ele>4.1999998092651</ele>
        <time>2021-10-21T06:57:34.000Z</time>
      </trkpt>
      <trkpt lat="47.26967" lon="-2.34103">
        <ele>4.1999998092651</ele>
        <time>2021-10-21T06:57:38.000Z</time>
      </trkpt>
      <trkpt lat="47.2697" lon="-2.34115">
        <ele>4.1999998092651</ele>
        <time>2021-10-21T06:57:40.000Z</time>
      </trkpt>
      <trkpt lat="47.26971" lon="-2.34127">
        <ele>4.1999998092651</ele>
        <time>2021-10-21T06:57:42.000Z</time>
      </trkpt>
      <trkpt lat="47.26977" lon="-2.34151">
        <ele>4.1999998092651</ele>
        <time>2021-10-21T06:57:46.000Z</time>
      </trkpt>
      <trkpt lat="47.26988" lon="-2.34201">
        <ele>4.1999998092651</ele>
        <time>2021-10-21T06:57:54.000Z</time>
      </trkpt>
      <trkpt lat="47.27001" lon="-2.34256">
        <ele>4.1999998092651</ele>
        <time>2021-10-21T06:58:03.000Z</time>
      </trkpt>
      <trkpt lat="47.27007" lon="-2.34297">
        <ele>4.1999998092651</ele>
        <time>2021-10-21T06:58:10.000Z</time>
      </trkpt>
      <trkpt lat="47.27011" lon="-2.34317">
        <ele>4.1999998092651</ele>
        <time>2021-10-21T06:58:15.000Z</time>
      </trkpt>
      <trkpt lat="47.27014" lon="-2.34318">
        <ele>4.1999998092651</ele>
        <time>2021-10-21T06:58:17.000Z</time>
      </trkpt>
      <trkpt lat="47.27019" lon="-2.3432">
        <ele>4.1999998092651</ele>
        <time>2021-10-21T06:58:19.000Z</time>
      </trkpt>
      <trkpt lat="47.27028" lon="-2.3432">
        <ele>4.1999998092651</ele>
        <time>2021-10-21T06:58:22.000Z</time>
      </trkpt>
      <trkpt lat="47.27034" lon="-2.3432">
        <ele>4.1999998092651</ele>
        <time>2021-10-21T06:58:24.000Z</time>
      </trkpt>
      <trkpt lat="47.27039" lon="-2.34323">
        <ele>4.1999998092651</ele>
        <time>2021-10-21T06:58:26.000Z</time>
      </trkpt>
      <trkpt lat="47.2704" lon="-2.34328">
        <ele>4.1999998092651</ele>
        <time>2021-10-21T06:58:27.000Z</time>
      </trkpt>
      <trkpt lat="47.27047" lon="-2.34359">
        <ele>4.1999998092651</ele>
        <time>2021-10-21T06:58:32.000Z</time>
      </trkpt>
      <trkpt lat="47.27062" lon="-2.3442">
        <ele>4.1999998092651</ele>
        <time>2021-10-21T06:58:41.000Z</time>
      </trkpt>
      <trkpt lat="47.27072" lon="-2.34464">
        <ele>4.5999999046326</ele>
        <time>2021-10-21T06:58:48.000Z</time>
      </trkpt>
      <trkpt lat="47.27074" lon="-2.3447">
        <ele>5</ele>
        <time>2021-10-21T06:58:49.000Z</time>
      </trkpt>
      <trkpt lat="47.27075" lon="-2.34476">
        <ele>5.4000000953674</ele>
        <time>2021-10-21T06:58:50.000Z</time>
      </trkpt>
      <trkpt lat="47.27077" lon="-2.34482">
        <ele>5.8000001907349</ele>
        <time>2021-10-21T06:58:51.000Z</time>
      </trkpt>
      <trkpt lat="47.27078" lon="-2.34488">
        <ele>6.1999998092651</ele>
        <time>2021-10-21T06:58:52.000Z</time>
      </trkpt>
      <trkpt lat="47.27079" lon="-2.34494">
        <ele>6.1999998092651</ele>
        <time>2021-10-21T06:58:53.000Z</time>
      </trkpt>
      <trkpt lat="47.27087" lon="-2.3453">
        <ele>6.1999998092651</ele>
        <time>2021-10-21T06:58:59.000Z</time>
      </trkpt>
      <trkpt lat="47.27089" lon="-2.34543">
        <ele>6.1999998092651</ele>
        <time>2021-10-21T06:59:01.000Z</time>
      </trkpt>
      <trkpt lat="47.271" lon="-2.3459">
        <ele>6.1999998092651</ele>
        <time>2021-10-21T06:59:09.000Z</time>
      </trkpt>
      <trkpt lat="47.2711" lon="-2.34634">
        <ele>6.1999998092651</ele>
        <time>2021-10-21T06:59:16.000Z</time>
      </trkpt>
      <trkpt lat="47.27123" lon="-2.3469">
        <ele>6.1999998092651</ele>
        <time>2021-10-21T06:59:25.000Z</time>
      </trkpt>
      <trkpt lat="47.27134" lon="-2.34738">
        <ele>6.1999998092651</ele>
        <time>2021-10-21T06:59:33.000Z</time>
      </trkpt>
      <trkpt lat="47.2714" lon="-2.34772">
        <ele>6.1999998092651</ele>
        <time>2021-10-21T06:59:39.000Z</time>
      </trkpt>
      <trkpt lat="47.2715" lon="-2.34823">
        <ele>6.1999998092651</ele>
        <time>2021-10-21T06:59:47.000Z</time>
      </trkpt>
      <trkpt lat="47.2716" lon="-2.34869">
        <ele>6.1999998092651</ele>
        <time>2021-10-21T06:59:55.000Z</time>
      </trkpt>
      <trkpt lat="47.27175" lon="-2.34916">
        <ele>6.1999998092651</ele>
        <time>2021-10-21T07:00:03.000Z</time>
      </trkpt>
      <trkpt lat="47.2718" lon="-2.34932">
        <ele>6.1999998092651</ele>
        <time>2021-10-21T07:00:06.000Z</time>
      </trkpt>
      <trkpt lat="47.27187" lon="-2.34955">
        <ele>6.1999998092651</ele>
        <time>2021-10-21T07:00:10.000Z</time>
      </trkpt>
      <trkpt lat="47.27202" lon="-2.34997">
        <ele>6.1999998092651</ele>
        <time>2021-10-21T07:00:18.000Z</time>
      </trkpt>
      <trkpt lat="47.27207" lon="-2.35012">
        <ele>6.8000001907349</ele>
        <time>2021-10-21T07:00:21.000Z</time>
      </trkpt>
      <trkpt lat="47.27209" lon="-2.35017">
        <ele>7.1999998092651</ele>
        <time>2021-10-21T07:00:22.000Z</time>
      </trkpt>
      <trkpt lat="47.27211" lon="-2.35023">
        <ele>7.5999999046326</ele>
        <time>2021-10-21T07:00:23.000Z</time>
      </trkpt>
      <trkpt lat="47.27213" lon="-2.35028">
        <ele>8</ele>
        <time>2021-10-21T07:00:24.000Z</time>
      </trkpt>
      <trkpt lat="47.27215" lon="-2.35033">
        <ele>8.6000003814697</ele>
        <time>2021-10-21T07:00:25.000Z</time>
      </trkpt>
      <trkpt lat="47.27217" lon="-2.3504">
        <ele>8.6000003814697</ele>
        <time>2021-10-21T07:00:26.000Z</time>
      </trkpt>
      <trkpt lat="47.27234" lon="-2.35086">
        <ele>8.6000003814697</ele>
        <time>2021-10-21T07:00:34.000Z</time>
      </trkpt>
      <trkpt lat="47.27256" lon="-2.35123">
        <ele>8.6000003814697</ele>
        <time>2021-10-21T07:00:42.000Z</time>
      </trkpt>
      <trkpt lat="47.27259" lon="-2.35124">
        <ele>8.6000003814697</ele>
        <time>2021-10-21T07:00:43.000Z</time>
      </trkpt>
      <trkpt lat="47.27267" lon="-2.35122">
        <ele>8.6000003814697</ele>
        <time>2021-10-21T07:00:45.000Z</time>
      </trkpt>
      <trkpt lat="47.27275" lon="-2.35118">
        <ele>8.6000003814697</ele>
        <time>2021-10-21T07:00:47.000Z</time>
      </trkpt>
      <trkpt lat="47.2729" lon="-2.35111">
        <ele>8.6000003814697</ele>
        <time>2021-10-21T07:00:51.000Z</time>
      </trkpt>
      <trkpt lat="47.27303" lon="-2.35103">
        <ele>8.6000003814697</ele>
        <time>2021-10-21T07:00:56.000Z</time>
      </trkpt>
      <trkpt lat="47.27324" lon="-2.3509">
        <ele>8.6000003814697</ele>
        <time>2021-10-21T07:01:02.000Z</time>
      </trkpt>
      <trkpt lat="47.27328" lon="-2.35089">
        <ele>9</ele>
        <time>2021-10-21T07:01:03.000Z</time>
      </trkpt>
      <trkpt lat="47.27331" lon="-2.35088">
        <ele>9.3999996185303</ele>
        <time>2021-10-21T07:01:04.000Z</time>
      </trkpt>
      <trkpt lat="47.27335" lon="-2.35087">
        <ele>9.8000001907349</ele>
        <time>2021-10-21T07:01:05.000Z</time>
      </trkpt>
      <trkpt lat="47.27338" lon="-2.35086">
        <ele>10.199999809265</ele>
        <time>2021-10-21T07:01:06.000Z</time>
      </trkpt>
      <trkpt lat="47.27341" lon="-2.35084">
        <ele>10.60000038147</ele>
        <time>2021-10-21T07:01:07.000Z</time>
      </trkpt>
      <trkpt lat="47.27347" lon="-2.35081">
        <ele>10.60000038147</ele>
        <time>2021-10-21T07:01:09.000Z</time>
      </trkpt>
      <trkpt lat="47.27356" lon="-2.35075">
        <ele>11</ele>
        <time>2021-10-21T07:01:12.000Z</time>
      </trkpt>
      <trkpt lat="47.2736" lon="-2.35073">
        <ele>11.60000038147</ele>
        <time>2021-10-21T07:01:13.000Z</time>
      </trkpt>
      <trkpt lat="47.27364" lon="-2.35072">
        <ele>12</ele>
        <time>2021-10-21T07:01:14.000Z</time>
      </trkpt>
      <trkpt lat="47.27367" lon="-2.3507">
        <ele>12.39999961853</ele>
        <time>2021-10-21T07:01:15.000Z</time>
      </trkpt>
      <trkpt lat="47.2737" lon="-2.35068">
        <ele>12.800000190735</ele>
        <time>2021-10-21T07:01:16.000Z</time>
      </trkpt>
      <trkpt lat="47.27374" lon="-2.35067">
        <ele>12.800000190735</ele>
        <time>2021-10-21T07:01:17.000Z</time>
      </trkpt>
      <trkpt lat="47.27386" lon="-2.35061">
        <ele>13.199999809265</ele>
        <time>2021-10-21T07:01:21.000Z</time>
      </trkpt>
      <trkpt lat="47.27389" lon="-2.3506">
        <ele>13.60000038147</ele>
        <time>2021-10-21T07:01:22.000Z</time>
      </trkpt>
      <trkpt lat="47.27393" lon="-2.35059">
        <ele>14</ele>
        <time>2021-10-21T07:01:23.000Z</time>
      </trkpt>
      <trkpt lat="47.27396" lon="-2.35058">
        <ele>14.800000190735</ele>
        <time>2021-10-21T07:01:24.000Z</time>
      </trkpt>
      <trkpt lat="47.27404" lon="-2.35066">
        <ele>14.800000190735</ele>
        <time>2021-10-21T07:01:28.000Z</time>
      </trkpt>
      <trkpt lat="47.27413" lon="-2.35096">
        <ele>14.800000190735</ele>
        <time>2021-10-21T07:01:34.000Z</time>
      </trkpt>
      <trkpt lat="47.27422" lon="-2.35138">
        <ele>14.800000190735</ele>
        <time>2021-10-21T07:01:42.000Z</time>
      </trkpt>
      <trkpt lat="47.27429" lon="-2.35171">
        <ele>14.800000190735</ele>
        <time>2021-10-21T07:01:48.000Z</time>
      </trkpt>
      <trkpt lat="47.27432" lon="-2.35173">
        <ele>14.800000190735</ele>
        <time>2021-10-21T07:01:49.000Z</time>
      </trkpt>
      <trkpt lat="47.27439" lon="-2.35171">
        <ele>14.800000190735</ele>
        <time>2021-10-21T07:01:51.000Z</time>
      </trkpt>
      <trkpt lat="47.27449" lon="-2.35165">
        <ele>14.800000190735</ele>
        <time>2021-10-21T07:01:54.000Z</time>
      </trkpt>
      <trkpt lat="47.27459" lon="-2.3516">
        <ele>14.800000190735</ele>
        <time>2021-10-21T07:01:57.000Z</time>
      </trkpt>
      <trkpt lat="47.27473" lon="-2.35151">
        <ele>15.39999961853</ele>
        <time>2021-10-21T07:02:01.000Z</time>
      </trkpt>
      <trkpt lat="47.27476" lon="-2.35149">
        <ele>15.800000190735</ele>
        <time>2021-10-21T07:02:02.000Z</time>
      </trkpt>
      <trkpt lat="47.2748" lon="-2.35147">
        <ele>16.200000762939</ele>
        <time>2021-10-21T07:02:03.000Z</time>
      </trkpt>
      <trkpt lat="47.27483" lon="-2.35146">
        <ele>16.799999237061</ele>
        <time>2021-10-21T07:02:04.000Z</time>
      </trkpt>
      <trkpt lat="47.27487" lon="-2.35144">
        <ele>17.200000762939</ele>
        <time>2021-10-21T07:02:05.000Z</time>
      </trkpt>
      <trkpt lat="47.27491" lon="-2.35143">
        <ele>17.200000762939</ele>
        <time>2021-10-21T07:02:06.000Z</time>
      </trkpt>
      <trkpt lat="47.27506" lon="-2.3513">
        <ele>17.200000762939</ele>
        <time>2021-10-21T07:02:11.000Z</time>
      </trkpt>
      <trkpt lat="47.27512" lon="-2.35127">
        <ele>17.200000762939</ele>
        <time>2021-10-21T07:02:13.000Z</time>
      </trkpt>
      <trkpt lat="47.27519" lon="-2.3513">
        <ele>17.200000762939</ele>
        <time>2021-10-21T07:02:15.000Z</time>
      </trkpt>
      <trkpt lat="47.27533" lon="-2.35138">
        <ele>17.60000038147</ele>
        <time>2021-10-21T07:02:19.000Z</time>
      </trkpt>
      <trkpt lat="47.27536" lon="-2.35139">
        <ele>18</ele>
        <time>2021-10-21T07:02:20.000Z</time>
      </trkpt>
      <trkpt lat="47.2754" lon="-2.35139">
        <ele>18.39999961853</ele>
        <time>2021-10-21T07:02:21.000Z</time>
      </trkpt>
      <trkpt lat="47.27544" lon="-2.35138">
        <ele>18.799999237061</ele>
        <time>2021-10-21T07:02:22.000Z</time>
      </trkpt>
      <trkpt lat="47.27548" lon="-2.35137">
        <ele>19.200000762939</ele>
        <time>2021-10-21T07:02:23.000Z</time>
      </trkpt>
      <trkpt lat="47.27567" lon="-2.35134">
        <ele>19.200000762939</ele>
        <time>2021-10-21T07:02:28.000Z</time>
      </trkpt>
      <trkpt lat="47.27597" lon="-2.35131">
        <ele>19.200000762939</ele>
        <time>2021-10-21T07:02:35.000Z</time>
      </trkpt>
      <trkpt lat="47.27601" lon="-2.35134">
        <ele>19.200000762939</ele>
        <time>2021-10-21T07:02:36.000Z</time>
      </trkpt>
      <trkpt lat="47.27609" lon="-2.35151">
        <ele>19.200000762939</ele>
        <time>2021-10-21T07:02:39.000Z</time>
      </trkpt>
      <trkpt lat="47.27617" lon="-2.35173">
        <ele>19.200000762939</ele>
        <time>2021-10-21T07:02:43.000Z</time>
      </trkpt>
      <trkpt lat="47.27632" lon="-2.35175">
        <ele>19.200000762939</ele>
        <time>2021-10-21T07:02:46.000Z</time>
      </trkpt>
      <trkpt lat="47.27637" lon="-2.35175">
        <ele>19.200000762939</ele>
        <time>2021-10-21T07:02:47.000Z</time>
      </trkpt>
      <trkpt lat="47.27663" lon="-2.35172">
        <ele>18.799999237061</ele>
        <time>2021-10-21T07:02:52.000Z</time>
      </trkpt>
      <trkpt lat="47.27668" lon="-2.35174">
        <ele>18.39999961853</ele>
        <time>2021-10-21T07:02:53.000Z</time>
      </trkpt>
      <trkpt lat="47.27672" lon="-2.35179">
        <ele>18</ele>
        <time>2021-10-21T07:02:54.000Z</time>
      </trkpt>
      <trkpt lat="47.27674" lon="-2.35187">
        <ele>17.39999961853</ele>
        <time>2021-10-21T07:02:55.000Z</time>
      </trkpt>
      <trkpt lat="47.27675" lon="-2.35195">
        <ele>17</ele>
        <time>2021-10-21T07:02:56.000Z</time>
      </trkpt>
      <trkpt lat="47.27674" lon="-2.3521">
        <ele>17</ele>
        <time>2021-10-21T07:02:58.000Z</time>
      </trkpt>
      <trkpt lat="47.27675" lon="-2.35216">
        <ele>17</ele>
        <time>2021-10-21T07:02:59.000Z</time>
      </trkpt>
      <trkpt lat="47.27678" lon="-2.35221">
        <ele>16.60000038147</ele>
        <time>2021-10-21T07:03:00.000Z</time>
      </trkpt>
      <trkpt lat="47.27681" lon="-2.35223">
        <ele>16.200000762939</ele>
        <time>2021-10-21T07:03:01.000Z</time>
      </trkpt>
      <trkpt lat="47.27685" lon="-2.35223">
        <ele>15.800000190735</ele>
        <time>2021-10-21T07:03:02.000Z</time>
      </trkpt>
      <trkpt lat="47.27689" lon="-2.35221">
        <ele>15</ele>
        <time>2021-10-21T07:03:03.000Z</time>
      </trkpt>
      <trkpt lat="47.27694" lon="-2.35219">
        <ele>15</ele>
        <time>2021-10-21T07:03:04.000Z</time>
      </trkpt>
      <trkpt lat="47.27726" lon="-2.3521">
        <ele>15</ele>
        <time>2021-10-21T07:03:10.000Z</time>
      </trkpt>
      <trkpt lat="47.2776" lon="-2.35202">
        <ele>14.60000038147</ele>
        <time>2021-10-21T07:03:16.000Z</time>
      </trkpt>
      <trkpt lat="47.27765" lon="-2.35202">
        <ele>14.199999809265</ele>
        <time>2021-10-21T07:03:17.000Z</time>
      </trkpt>
      <trkpt lat="47.27768" lon="-2.35203">
        <ele>13.800000190735</ele>
        <time>2021-10-21T07:03:18.000Z</time>
      </trkpt>
      <trkpt lat="47.27771" lon="-2.35208">
        <ele>13.39999961853</ele>
        <time>2021-10-21T07:03:19.000Z</time>
      </trkpt>
      <trkpt lat="47.27773" lon="-2.35212">
        <ele>12.800000190735</ele>
        <time>2021-10-21T07:03:20.000Z</time>
      </trkpt>
      <trkpt lat="47.27775" lon="-2.35217">
        <ele>12.800000190735</ele>
        <time>2021-10-21T07:03:21.000Z</time>
      </trkpt>
      <trkpt lat="47.27777" lon="-2.35223">
        <ele>12.800000190735</ele>
        <time>2021-10-21T07:03:22.000Z</time>
      </trkpt>
      <trkpt lat="47.27778" lon="-2.35229">
        <ele>12.800000190735</ele>
        <time>2021-10-21T07:03:23.000Z</time>
      </trkpt>
      <trkpt lat="47.27782" lon="-2.35248">
        <ele>12.800000190735</ele>
        <time>2021-10-21T07:03:26.000Z</time>
      </trkpt>
      <trkpt lat="47.27791" lon="-2.35294">
        <ele>12.800000190735</ele>
        <time>2021-10-21T07:03:33.000Z</time>
      </trkpt>
      <trkpt lat="47.27802" lon="-2.35342">
        <ele>12.800000190735</ele>
        <time>2021-10-21T07:03:40.000Z</time>
      </trkpt>
      <trkpt lat="47.27807" lon="-2.35355">
        <ele>12.800000190735</ele>
        <time>2021-10-21T07:03:42.000Z</time>
      </trkpt>
      <trkpt lat="47.27819" lon="-2.35363">
        <ele>12.800000190735</ele>
        <time>2021-10-21T07:03:45.000Z</time>
      </trkpt>
      <trkpt lat="47.27828" lon="-2.35362">
        <ele>12.800000190735</ele>
        <time>2021-10-21T07:03:47.000Z</time>
      </trkpt>
      <trkpt lat="47.27842" lon="-2.35361">
        <ele>12.800000190735</ele>
        <time>2021-10-21T07:03:50.000Z</time>
      </trkpt>
      <trkpt lat="47.27851" lon="-2.35361">
        <ele>12.800000190735</ele>
        <time>2021-10-21T07:03:52.000Z</time>
      </trkpt>
      <trkpt lat="47.27869" lon="-2.35363">
        <ele>12.800000190735</ele>
        <time>2021-10-21T07:03:56.000Z</time>
      </trkpt>
      <trkpt lat="47.27877" lon="-2.35366">
        <ele>12.800000190735</ele>
        <time>2021-10-21T07:03:58.000Z</time>
      </trkpt>
      <trkpt lat="47.27888" lon="-2.35377">
        <ele>12.800000190735</ele>
        <time>2021-10-21T07:04:01.000Z</time>
      </trkpt>
      <trkpt lat="47.27911" lon="-2.35409">
        <ele>12.800000190735</ele>
        <time>2021-10-21T07:04:08.000Z</time>
      </trkpt>
      <trkpt lat="47.27943" lon="-2.35451">
        <ele>12.800000190735</ele>
        <time>2021-10-21T07:04:17.000Z</time>
      </trkpt>
      <trkpt lat="47.27948" lon="-2.35455">
        <ele>12.800000190735</ele>
        <time>2021-10-21T07:04:18.000Z</time>
      </trkpt>
      <trkpt lat="47.27962" lon="-2.35464">
        <ele>12.800000190735</ele>
        <time>2021-10-21T07:04:21.000Z</time>
      </trkpt>
      <trkpt lat="47.27975" lon="-2.35474">
        <ele>12.800000190735</ele>
        <time>2021-10-21T07:04:24.000Z</time>
      </trkpt>
      <trkpt lat="47.27991" lon="-2.35503">
        <ele>12.800000190735</ele>
        <time>2021-10-21T07:04:29.000Z</time>
      </trkpt>
      <trkpt lat="47.28004" lon="-2.35531">
        <ele>13.39999961853</ele>
        <time>2021-10-21T07:04:35.000Z</time>
      </trkpt>
      <trkpt lat="47.28005" lon="-2.35536">
        <ele>13.800000190735</ele>
        <time>2021-10-21T07:04:36.000Z</time>
      </trkpt>
      <trkpt lat="47.28005" lon="-2.35541">
        <ele>14.199999809265</ele>
        <time>2021-10-21T07:04:37.000Z</time>
      </trkpt>
      <trkpt lat="47.28006" lon="-2.35546">
        <ele>14.800000190735</ele>
        <time>2021-10-21T07:04:38.000Z</time>
      </trkpt>
      <trkpt lat="47.28007" lon="-2.35549">
        <ele>15.199999809265</ele>
        <time>2021-10-21T07:04:39.000Z</time>
      </trkpt>
      <trkpt lat="47.28009" lon="-2.35558">
        <ele>15.199999809265</ele>
        <time>2021-10-21T07:04:41.000Z</time>
      </trkpt>
      <trkpt lat="47.28016" lon="-2.35566">
        <ele>15.199999809265</ele>
        <time>2021-10-21T07:04:44.000Z</time>
      </trkpt>
      <trkpt lat="47.2802" lon="-2.35565">
        <ele>15.199999809265</ele>
        <time>2021-10-21T07:04:45.000Z</time>
      </trkpt>
      <trkpt lat="47.2804" lon="-2.35572">
        <ele>15.199999809265</ele>
        <time>2021-10-21T07:04:50.000Z</time>
      </trkpt>
      <trkpt lat="47.28044" lon="-2.35574">
        <ele>15.60000038147</ele>
        <time>2021-10-21T07:04:51.000Z</time>
      </trkpt>
      <trkpt lat="47.28047" lon="-2.35576">
        <ele>16</ele>
        <time>2021-10-21T07:04:52.000Z</time>
      </trkpt>
      <trkpt lat="47.28051" lon="-2.35577">
        <ele>16.39999961853</ele>
        <time>2021-10-21T07:04:53.000Z</time>
      </trkpt>
      <trkpt lat="47.28054" lon="-2.35579">
        <ele>16.799999237061</ele>
        <time>2021-10-21T07:04:54.000Z</time>
      </trkpt>
      <trkpt lat="47.28057" lon="-2.3558">
        <ele>17.200000762939</ele>
        <time>2021-10-21T07:04:55.000Z</time>
      </trkpt>
      <trkpt lat="47.2806" lon="-2.35581">
        <ele>17.200000762939</ele>
        <time>2021-10-21T07:04:56.000Z</time>
      </trkpt>
      <trkpt lat="47.28074" lon="-2.35593">
        <ele>17.200000762939</ele>
        <time>2021-10-21T07:05:02.000Z</time>
      </trkpt>
      <trkpt lat="47.28081" lon="-2.35605">
        <ele>18</ele>
        <time>2021-10-21T07:05:06.000Z</time>
      </trkpt>
      <trkpt lat="47.28083" lon="-2.35608">
        <ele>18.39999961853</ele>
        <time>2021-10-21T07:05:07.000Z</time>
      </trkpt>
      <trkpt lat="47.28084" lon="-2.35611">
        <ele>19</ele>
        <time>2021-10-21T07:05:08.000Z</time>
      </trkpt>
      <trkpt lat="47.28085" lon="-2.35613">
        <ele>19.39999961853</ele>
        <time>2021-10-21T07:05:09.000Z</time>
      </trkpt>
      <trkpt lat="47.28086" lon="-2.35616">
        <ele>19.39999961853</ele>
        <time>2021-10-21T07:05:12.000Z</time>
      </trkpt>
      <trkpt lat="47.28085" lon="-2.35617">
        <ele>19.39999961853</ele>
        <time>2021-10-21T07:05:14.000Z</time>
      </trkpt>
      <trkpt lat="47.28088" lon="-2.35614">
        <ele>21.39999961853</ele>
        <time>2021-10-21T07:13:01.000Z</time>
      </trkpt>
      <trkpt lat="47.28085" lon="-2.35611">
        <ele>21.39999961853</ele>
        <time>2021-10-21T07:13:03.000Z</time>
      </trkpt>
      <trkpt lat="47.28081" lon="-2.35606">
        <ele>21.39999961853</ele>
        <time>2021-10-21T07:13:05.000Z</time>
      </trkpt>
      <trkpt lat="47.28072" lon="-2.35596">
        <ele>21.39999961853</ele>
        <time>2021-10-21T07:13:09.000Z</time>
      </trkpt>
      <trkpt lat="47.28069" lon="-2.35583">
        <ele>21.39999961853</ele>
        <time>2021-10-21T07:13:12.000Z</time>
      </trkpt>
      <trkpt lat="47.2807" lon="-2.35578">
        <ele>21.39999961853</ele>
        <time>2021-10-21T07:13:13.000Z</time>
      </trkpt>
      <trkpt lat="47.28073" lon="-2.35567">
        <ele>21.39999961853</ele>
        <time>2021-10-21T07:13:16.000Z</time>
      </trkpt>
      <trkpt lat="47.28075" lon="-2.35564">
        <ele>21</ele>
        <time>2021-10-21T07:13:17.000Z</time>
      </trkpt>
      <trkpt lat="47.28077" lon="-2.35562">
        <ele>20.60000038147</ele>
        <time>2021-10-21T07:13:18.000Z</time>
      </trkpt>
      <trkpt lat="47.28079" lon="-2.3556">
        <ele>19.799999237061</ele>
        <time>2021-10-21T07:13:19.000Z</time>
      </trkpt>
      <trkpt lat="47.28082" lon="-2.35559">
        <ele>19.39999961853</ele>
        <time>2021-10-21T07:13:20.000Z</time>
      </trkpt>
      <trkpt lat="47.28091" lon="-2.35559">
        <ele>19.39999961853</ele>
        <time>2021-10-21T07:13:22.000Z</time>
      </trkpt>
      <trkpt lat="47.28109" lon="-2.3556">
        <ele>19.39999961853</ele>
        <time>2021-10-21T07:13:28.000Z</time>
      </trkpt>
      <trkpt lat="47.2812" lon="-2.35561">
        <ele>19.39999961853</ele>
        <time>2021-10-21T07:13:34.000Z</time>
      </trkpt>
      <trkpt lat="47.28123" lon="-2.35562">
        <ele>19.799999237061</ele>
        <time>2021-10-21T07:13:37.000Z</time>
      </trkpt>
      <trkpt lat="47.28125" lon="-2.35561">
        <ele>20.200000762939</ele>
        <time>2021-10-21T07:13:38.000Z</time>
      </trkpt>
      <trkpt lat="47.28126" lon="-2.3556">
        <ele>20.799999237061</ele>
        <time>2021-10-21T07:13:39.000Z</time>
      </trkpt>
      <trkpt lat="47.28128" lon="-2.3556">
        <ele>21.200000762939</ele>
        <time>2021-10-21T07:13:40.000Z</time>
      </trkpt>
      <trkpt lat="47.2813" lon="-2.3556">
        <ele>21.60000038147</ele>
        <time>2021-10-21T07:13:41.000Z</time>
      </trkpt>
      <trkpt lat="47.28146" lon="-2.3556">
        <ele>21.60000038147</ele>
        <time>2021-10-21T07:13:48.000Z</time>
      </trkpt>
      <trkpt lat="47.28161" lon="-2.35566">
        <ele>21.60000038147</ele>
        <time>2021-10-21T07:13:54.000Z</time>
      </trkpt>
      <trkpt lat="47.28183" lon="-2.35586">
        <ele>21.60000038147</ele>
        <time>2021-10-21T07:14:01.000Z</time>
      </trkpt>
      <trkpt lat="47.28202" lon="-2.35609">
        <ele>21.60000038147</ele>
        <time>2021-10-21T07:14:08.000Z</time>
      </trkpt>
      <trkpt lat="47.28204" lon="-2.35612">
        <ele>22</ele>
        <time>2021-10-21T07:14:09.000Z</time>
      </trkpt>
      <trkpt lat="47.28207" lon="-2.35615">
        <ele>22.39999961853</ele>
        <time>2021-10-21T07:14:10.000Z</time>
      </trkpt>
      <trkpt lat="47.28209" lon="-2.35618">
        <ele>22.799999237061</ele>
        <time>2021-10-21T07:14:11.000Z</time>
      </trkpt>
      <trkpt lat="47.28211" lon="-2.35621">
        <ele>23.200000762939</ele>
        <time>2021-10-21T07:14:12.000Z</time>
      </trkpt>
      <trkpt lat="47.28213" lon="-2.35624">
        <ele>23.799999237061</ele>
        <time>2021-10-21T07:14:13.000Z</time>
      </trkpt>
      <trkpt lat="47.28217" lon="-2.3563">
        <ele>23.799999237061</ele>
        <time>2021-10-21T07:14:15.000Z</time>
      </trkpt>
      <trkpt lat="47.28234" lon="-2.35651">
        <ele>23.799999237061</ele>
        <time>2021-10-21T07:14:22.000Z</time>
      </trkpt>
      <trkpt lat="47.28249" lon="-2.35672">
        <ele>23.799999237061</ele>
        <time>2021-10-21T07:14:28.000Z</time>
      </trkpt>
      <trkpt lat="47.28256" lon="-2.35685">
        <ele>24.200000762939</ele>
        <time>2021-10-21T07:14:31.000Z</time>
      </trkpt>
      <trkpt lat="47.28261" lon="-2.35692">
        <ele>25</ele>
        <time>2021-10-21T07:14:33.000Z</time>
      </trkpt>
      <trkpt lat="47.28263" lon="-2.35695">
        <ele>25.39999961853</ele>
        <time>2021-10-21T07:14:34.000Z</time>
      </trkpt>
      <trkpt lat="47.28266" lon="-2.35698">
        <ele>25.799999237061</ele>
        <time>2021-10-21T07:14:35.000Z</time>
      </trkpt>
      <trkpt lat="47.28283" lon="-2.35714">
        <ele>25.799999237061</ele>
        <time>2021-10-21T07:14:41.000Z</time>
      </trkpt>
      <trkpt lat="47.28298" lon="-2.35729">
        <ele>25.799999237061</ele>
        <time>2021-10-21T07:14:47.000Z</time>
      </trkpt>
      <trkpt lat="47.28314" lon="-2.35742">
        <ele>25.799999237061</ele>
        <time>2021-10-21T07:14:53.000Z</time>
      </trkpt>
      <trkpt lat="47.28325" lon="-2.35751">
        <ele>26.200000762939</ele>
        <time>2021-10-21T07:14:57.000Z</time>
      </trkpt>
      <trkpt lat="47.28329" lon="-2.35753">
        <ele>26.60000038147</ele>
        <time>2021-10-21T07:14:58.000Z</time>
      </trkpt>
      <trkpt lat="47.28332" lon="-2.35755">
        <ele>27</ele>
        <time>2021-10-21T07:14:59.000Z</time>
      </trkpt>
      <trkpt lat="47.28335" lon="-2.35757">
        <ele>27.39999961853</ele>
        <time>2021-10-21T07:15:00.000Z</time>
      </trkpt>
      <trkpt lat="47.28339" lon="-2.35759">
        <ele>27.799999237061</ele>
        <time>2021-10-21T07:15:01.000Z</time>
      </trkpt>
      <trkpt lat="47.28356" lon="-2.35768">
        <ele>27.799999237061</ele>
        <time>2021-10-21T07:15:06.000Z</time>
      </trkpt>
      <trkpt lat="47.28377" lon="-2.35779">
        <ele>27.799999237061</ele>
        <time>2021-10-21T07:15:12.000Z</time>
      </trkpt>
      <trkpt lat="47.28401" lon="-2.3579">
        <ele>27.799999237061</ele>
        <time>2021-10-21T07:15:19.000Z</time>
      </trkpt>
      <trkpt lat="47.28427" lon="-2.358">
        <ele>27.799999237061</ele>
        <time>2021-10-21T07:15:27.000Z</time>
      </trkpt>
      <trkpt lat="47.28447" lon="-2.35807">
        <ele>27.799999237061</ele>
        <time>2021-10-21T07:15:32.000Z</time>
      </trkpt>
      <trkpt lat="47.28473" lon="-2.35815">
        <ele>27.799999237061</ele>
        <time>2021-10-21T07:15:39.000Z</time>
      </trkpt>
      <trkpt lat="47.28498" lon="-2.35815">
        <ele>27.799999237061</ele>
        <time>2021-10-21T07:15:45.000Z</time>
      </trkpt>
      <trkpt lat="47.28507" lon="-2.35819">
        <ele>28.200000762939</ele>
        <time>2021-10-21T07:15:47.000Z</time>
      </trkpt>
      <trkpt lat="47.28511" lon="-2.35822">
        <ele>28.60000038147</ele>
        <time>2021-10-21T07:15:48.000Z</time>
      </trkpt>
      <trkpt lat="47.28516" lon="-2.35824">
        <ele>29</ele>
        <time>2021-10-21T07:15:49.000Z</time>
      </trkpt>
      <trkpt lat="47.2852" lon="-2.35826">
        <ele>29.39999961853</ele>
        <time>2021-10-21T07:15:50.000Z</time>
      </trkpt>
      <trkpt lat="47.28525" lon="-2.35827">
        <ele>29.799999237061</ele>
        <time>2021-10-21T07:15:51.000Z</time>
      </trkpt>
      <trkpt lat="47.28552" lon="-2.35843">
        <ele>29.799999237061</ele>
        <time>2021-10-21T07:15:57.000Z</time>
      </trkpt>
      <trkpt lat="47.28561" lon="-2.3585">
        <ele>29.799999237061</ele>
        <time>2021-10-21T07:15:59.000Z</time>
      </trkpt>
      <trkpt lat="47.28572" lon="-2.35864">
        <ele>29.799999237061</ele>
        <time>2021-10-21T07:16:02.000Z</time>
      </trkpt>
      <trkpt lat="47.28575" lon="-2.3587">
        <ele>29.799999237061</ele>
        <time>2021-10-21T07:16:03.000Z</time>
      </trkpt>
      <trkpt lat="47.28587" lon="-2.35899">
        <ele>30.39999961853</ele>
        <time>2021-10-21T07:16:08.000Z</time>
      </trkpt>
      <trkpt lat="47.28589" lon="-2.35905">
        <ele>30.799999237061</ele>
        <time>2021-10-21T07:16:09.000Z</time>
      </trkpt>
      <trkpt lat="47.28591" lon="-2.35911">
        <ele>31.200000762939</ele>
        <time>2021-10-21T07:16:10.000Z</time>
      </trkpt>
      <trkpt lat="47.28593" lon="-2.35916">
        <ele>31.60000038147</ele>
        <time>2021-10-21T07:16:11.000Z</time>
      </trkpt>
      <trkpt lat="47.28595" lon="-2.35922">
        <ele>32</ele>
        <time>2021-10-21T07:16:12.000Z</time>
      </trkpt>
      <trkpt lat="47.28598" lon="-2.35927">
        <ele>32</ele>
        <time>2021-10-21T07:16:13.000Z</time>
      </trkpt>
      <trkpt lat="47.28601" lon="-2.35932">
        <ele>32</ele>
        <time>2021-10-21T07:16:14.000Z</time>
      </trkpt>
      <trkpt lat="47.28604" lon="-2.35936">
        <ele>32</ele>
        <time>2021-10-21T07:16:15.000Z</time>
      </trkpt>
      <trkpt lat="47.28617" lon="-2.3595">
        <ele>32</ele>
        <time>2021-10-21T07:16:19.000Z</time>
      </trkpt>
      <trkpt lat="47.28624" lon="-2.35954">
        <ele>32</ele>
        <time>2021-10-21T07:16:21.000Z</time>
      </trkpt>
      <trkpt lat="47.28637" lon="-2.35957">
        <ele>32</ele>
        <time>2021-10-21T07:16:24.000Z</time>
      </trkpt>
      <trkpt lat="47.28652" lon="-2.35951">
        <ele>32</ele>
        <time>2021-10-21T07:16:28.000Z</time>
      </trkpt>
      <trkpt lat="47.28655" lon="-2.35948">
        <ele>32</ele>
        <time>2021-10-21T07:16:29.000Z</time>
      </trkpt>
      <trkpt lat="47.28674" lon="-2.35924">
        <ele>32</ele>
        <time>2021-10-21T07:16:34.000Z</time>
      </trkpt>
      <trkpt lat="47.28716" lon="-2.35871">
        <ele>32</ele>
        <time>2021-10-21T07:16:45.000Z</time>
      </trkpt>
      <trkpt lat="47.28737" lon="-2.35832">
        <ele>32</ele>
        <time>2021-10-21T07:16:52.000Z</time>
      </trkpt>
      <trkpt lat="47.28768" lon="-2.35773">
        <ele>32</ele>
        <time>2021-10-21T07:17:02.000Z</time>
      </trkpt>
      <trkpt lat="47.28797" lon="-2.35719">
        <ele>32</ele>
        <time>2021-10-21T07:17:11.000Z</time>
      </trkpt>
      <trkpt lat="47.28825" lon="-2.35669">
        <ele>32</ele>
        <time>2021-10-21T07:17:19.000Z</time>
      </trkpt>
      <trkpt lat="47.28859" lon="-2.3563">
        <ele>32</ele>
        <time>2021-10-21T07:17:27.000Z</time>
      </trkpt>
      <trkpt lat="47.28897" lon="-2.35587">
        <ele>32</ele>
        <time>2021-10-21T07:17:36.000Z</time>
      </trkpt>
      <trkpt lat="47.28915" lon="-2.35568">
        <ele>32</ele>
        <time>2021-10-21T07:17:41.000Z</time>
      </trkpt>
      <trkpt lat="47.28927" lon="-2.35557">
        <ele>32</ele>
        <time>2021-10-21T07:17:46.000Z</time>
      </trkpt>
      <trkpt lat="47.28935" lon="-2.3557">
        <ele>32</ele>
        <time>2021-10-21T07:17:50.000Z</time>
      </trkpt>
      <trkpt lat="47.28937" lon="-2.35575">
        <ele>32</ele>
        <time>2021-10-21T07:17:51.000Z</time>
      </trkpt>
      <trkpt lat="47.28946" lon="-2.356">
        <ele>32</ele>
        <time>2021-10-21T07:17:55.000Z</time>
      </trkpt>
      <trkpt lat="47.28951" lon="-2.35613">
        <ele>32.400001525879</ele>
        <time>2021-10-21T07:17:57.000Z</time>
      </trkpt>
      <trkpt lat="47.28954" lon="-2.3562">
        <ele>32.799999237061</ele>
        <time>2021-10-21T07:17:58.000Z</time>
      </trkpt>
      <trkpt lat="47.28956" lon="-2.35626">
        <ele>33.200000762939</ele>
        <time>2021-10-21T07:17:59.000Z</time>
      </trkpt>
      <trkpt lat="47.28959" lon="-2.35633">
        <ele>33.599998474121</ele>
        <time>2021-10-21T07:18:00.000Z</time>
      </trkpt>
      <trkpt lat="47.28961" lon="-2.35639">
        <ele>34</ele>
        <time>2021-10-21T07:18:01.000Z</time>
      </trkpt>
      <trkpt lat="47.28964" lon="-2.35645">
        <ele>34</ele>
        <time>2021-10-21T07:18:02.000Z</time>
      </trkpt>
      <trkpt lat="47.28966" lon="-2.35652">
        <ele>34</ele>
        <time>2021-10-21T07:18:03.000Z</time>
      </trkpt>
      <trkpt lat="47.28971" lon="-2.35664">
        <ele>34</ele>
        <time>2021-10-21T07:18:05.000Z</time>
      </trkpt>
      <trkpt lat="47.28982" lon="-2.35686">
        <ele>34</ele>
        <time>2021-10-21T07:18:09.000Z</time>
      </trkpt>
      <trkpt lat="47.29001" lon="-2.35705">
        <ele>34</ele>
        <time>2021-10-21T07:18:14.000Z</time>
      </trkpt>
      <trkpt lat="47.29025" lon="-2.35702">
        <ele>34</ele>
        <time>2021-10-21T07:18:19.000Z</time>
      </trkpt>
      <trkpt lat="47.29034" lon="-2.35696">
        <ele>34</ele>
        <time>2021-10-21T07:18:21.000Z</time>
      </trkpt>
      <trkpt lat="47.29051" lon="-2.35679">
        <ele>34</ele>
        <time>2021-10-21T07:18:25.000Z</time>
      </trkpt>
      <trkpt lat="47.2908" lon="-2.35647">
        <ele>34</ele>
        <time>2021-10-21T07:18:33.000Z</time>
      </trkpt>
      <trkpt lat="47.29091" lon="-2.3564">
        <ele>34</ele>
        <time>2021-10-21T07:18:37.000Z</time>
      </trkpt>
      <trkpt lat="47.29105" lon="-2.35626">
        <ele>34</ele>
        <time>2021-10-21T07:18:43.000Z</time>
      </trkpt>
      <trkpt lat="47.29115" lon="-2.35613">
        <ele>34</ele>
        <time>2021-10-21T07:18:49.000Z</time>
      </trkpt>
      <trkpt lat="47.29125" lon="-2.356">
        <ele>34</ele>
        <time>2021-10-21T07:18:52.000Z</time>
      </trkpt>
      <trkpt lat="47.29127" lon="-2.35594">
        <ele>34</ele>
        <time>2021-10-21T07:18:53.000Z</time>
      </trkpt>
      <trkpt lat="47.29129" lon="-2.35567">
        <ele>34</ele>
        <time>2021-10-21T07:18:57.000Z</time>
      </trkpt>
      <trkpt lat="47.29126" lon="-2.35546">
        <ele>34</ele>
        <time>2021-10-21T07:19:00.000Z</time>
      </trkpt>
      <trkpt lat="47.29124" lon="-2.35533">
        <ele>34</ele>
        <time>2021-10-21T07:19:02.000Z</time>
      </trkpt>
      <trkpt lat="47.29123" lon="-2.35526">
        <ele>34</ele>
        <time>2021-10-21T07:19:03.000Z</time>
      </trkpt>
      <trkpt lat="47.29122" lon="-2.35497">
        <ele>34</ele>
        <time>2021-10-21T07:19:07.000Z</time>
      </trkpt>
      <trkpt lat="47.29121" lon="-2.35474">
        <ele>34</ele>
        <time>2021-10-21T07:19:12.000Z</time>
      </trkpt>
      <trkpt lat="47.29132" lon="-2.35465">
        <ele>34</ele>
        <time>2021-10-21T07:19:16.000Z</time>
      </trkpt>
      <trkpt lat="47.29149" lon="-2.35455">
        <ele>34</ele>
        <time>2021-10-21T07:19:21.000Z</time>
      </trkpt>
      <trkpt lat="47.29171" lon="-2.35446">
        <ele>34</ele>
        <time>2021-10-21T07:19:27.000Z</time>
      </trkpt>
      <trkpt lat="47.29206" lon="-2.35432">
        <ele>34</ele>
        <time>2021-10-21T07:19:36.000Z</time>
      </trkpt>
      <trkpt lat="47.29234" lon="-2.3542">
        <ele>34</ele>
        <time>2021-10-21T07:19:43.000Z</time>
      </trkpt>
      <trkpt lat="47.29268" lon="-2.35405">
        <ele>34</ele>
        <time>2021-10-21T07:19:51.000Z</time>
      </trkpt>
      <trkpt lat="47.29281" lon="-2.35395">
        <ele>34</ele>
        <time>2021-10-21T07:19:54.000Z</time>
      </trkpt>
      <trkpt lat="47.29293" lon="-2.35384">
        <ele>34</ele>
        <time>2021-10-21T07:19:57.000Z</time>
      </trkpt>
      <trkpt lat="47.29327" lon="-2.35351">
        <ele>34</ele>
        <time>2021-10-21T07:20:05.000Z</time>
      </trkpt>
      <trkpt lat="47.29347" lon="-2.35329">
        <ele>34</ele>
        <time>2021-10-21T07:20:10.000Z</time>
      </trkpt>
      <trkpt lat="47.29377" lon="-2.35293">
        <ele>34</ele>
        <time>2021-10-21T07:20:17.000Z</time>
      </trkpt>
      <trkpt lat="47.29405" lon="-2.35257">
        <ele>34</ele>
        <time>2021-10-21T07:20:24.000Z</time>
      </trkpt>
      <trkpt lat="47.29416" lon="-2.35241">
        <ele>33.599998474121</ele>
        <time>2021-10-21T07:20:27.000Z</time>
      </trkpt>
      <trkpt lat="47.2942" lon="-2.35235">
        <ele>33</ele>
        <time>2021-10-21T07:20:28.000Z</time>
      </trkpt>
      <trkpt lat="47.29424" lon="-2.35229">
        <ele>32.599998474121</ele>
        <time>2021-10-21T07:20:29.000Z</time>
      </trkpt>
      <trkpt lat="47.29427" lon="-2.35222">
        <ele>32</ele>
        <time>2021-10-21T07:20:30.000Z</time>
      </trkpt>
      <trkpt lat="47.2943" lon="-2.35216">
        <ele>31.60000038147</ele>
        <time>2021-10-21T07:20:31.000Z</time>
      </trkpt>
      <trkpt lat="47.29445" lon="-2.35181">
        <ele>31.60000038147</ele>
        <time>2021-10-21T07:20:36.000Z</time>
      </trkpt>
      <trkpt lat="47.29448" lon="-2.35174">
        <ele>31.60000038147</ele>
        <time>2021-10-21T07:20:37.000Z</time>
      </trkpt>
      <trkpt lat="47.29467" lon="-2.35122">
        <ele>31.60000038147</ele>
        <time>2021-10-21T07:20:45.000Z</time>
      </trkpt>
      <trkpt lat="47.29483" lon="-2.35076">
        <ele>31.60000038147</ele>
        <time>2021-10-21T07:20:53.000Z</time>
      </trkpt>
      <trkpt lat="47.29497" lon="-2.35035">
        <ele>31.60000038147</ele>
        <time>2021-10-21T07:20:59.000Z</time>
      </trkpt>
      <trkpt lat="47.29507" lon="-2.35008">
        <ele>31.200000762939</ele>
        <time>2021-10-21T07:21:02.000Z</time>
      </trkpt>
      <trkpt lat="47.29511" lon="-2.34998">
        <ele>30.60000038147</ele>
        <time>2021-10-21T07:21:03.000Z</time>
      </trkpt>
      <trkpt lat="47.29515" lon="-2.34989">
        <ele>30.200000762939</ele>
        <time>2021-10-21T07:21:04.000Z</time>
      </trkpt>
      <trkpt lat="47.2952" lon="-2.3498">
        <ele>29.799999237061</ele>
        <time>2021-10-21T07:21:05.000Z</time>
      </trkpt>
      <trkpt lat="47.29524" lon="-2.34972">
        <ele>29.39999961853</ele>
        <time>2021-10-21T07:21:06.000Z</time>
      </trkpt>
      <trkpt lat="47.29542" lon="-2.3494">
        <ele>29.39999961853</ele>
        <time>2021-10-21T07:21:10.000Z</time>
      </trkpt>
      <trkpt lat="47.29547" lon="-2.34934">
        <ele>29.39999961853</ele>
        <time>2021-10-21T07:21:11.000Z</time>
      </trkpt>
      <trkpt lat="47.29567" lon="-2.34907">
        <ele>29.39999961853</ele>
        <time>2021-10-21T07:21:16.000Z</time>
      </trkpt>
      <trkpt lat="47.29571" lon="-2.34901">
        <ele>29.39999961853</ele>
        <time>2021-10-21T07:21:17.000Z</time>
      </trkpt>
      <trkpt lat="47.29597" lon="-2.34864">
        <ele>29.39999961853</ele>
        <time>2021-10-21T07:21:24.000Z</time>
      </trkpt>
      <trkpt lat="47.29611" lon="-2.34845">
        <ele>29.39999961853</ele>
        <time>2021-10-21T07:21:28.000Z</time>
      </trkpt>
      <trkpt lat="47.29615" lon="-2.3484">
        <ele>29.39999961853</ele>
        <time>2021-10-21T07:21:29.000Z</time>
      </trkpt>
      <trkpt lat="47.29619" lon="-2.34837">
        <ele>29.39999961853</ele>
        <time>2021-10-21T07:21:30.000Z</time>
      </trkpt>
      <trkpt lat="47.2963" lon="-2.34836">
        <ele>29.39999961853</ele>
        <time>2021-10-21T07:21:32.000Z</time>
      </trkpt>
      <trkpt lat="47.29644" lon="-2.34846">
        <ele>29.39999961853</ele>
        <time>2021-10-21T07:21:35.000Z</time>
      </trkpt>
      <trkpt lat="47.29648" lon="-2.34851">
        <ele>29.39999961853</ele>
        <time>2021-10-21T07:21:36.000Z</time>
      </trkpt>
      <trkpt lat="47.29672" lon="-2.34885">
        <ele>29.39999961853</ele>
        <time>2021-10-21T07:21:42.000Z</time>
      </trkpt>
      <trkpt lat="47.29681" lon="-2.34894">
        <ele>29.39999961853</ele>
        <time>2021-10-21T07:21:44.000Z</time>
      </trkpt>
      <trkpt lat="47.29691" lon="-2.34898">
        <ele>29.39999961853</ele>
        <time>2021-10-21T07:21:46.000Z</time>
      </trkpt>
      <trkpt lat="47.29713" lon="-2.34893">
        <ele>29.39999961853</ele>
        <time>2021-10-21T07:21:50.000Z</time>
      </trkpt>
      <trkpt lat="47.29718" lon="-2.3489">
        <ele>29.39999961853</ele>
        <time>2021-10-21T07:21:51.000Z</time>
      </trkpt>
      <trkpt lat="47.29749" lon="-2.34875">
        <ele>29.39999961853</ele>
        <time>2021-10-21T07:21:57.000Z</time>
      </trkpt>
      <trkpt lat="47.29784" lon="-2.34865">
        <ele>29.39999961853</ele>
        <time>2021-10-21T07:22:04.000Z</time>
      </trkpt>
      <trkpt lat="47.29795" lon="-2.34861">
        <ele>29.39999961853</ele>
        <time>2021-10-21T07:22:06.000Z</time>
      </trkpt>
      <trkpt lat="47.29817" lon="-2.34856">
        <ele>29.39999961853</ele>
        <time>2021-10-21T07:22:10.000Z</time>
      </trkpt>
      <trkpt lat="47.29848" lon="-2.34849">
        <ele>29.39999961853</ele>
        <time>2021-10-21T07:22:16.000Z</time>
      </trkpt>
      <trkpt lat="47.29889" lon="-2.34837">
        <ele>29.39999961853</ele>
        <time>2021-10-21T07:22:24.000Z</time>
      </trkpt>
      <trkpt lat="47.29904" lon="-2.34835">
        <ele>29.799999237061</ele>
        <time>2021-10-21T07:22:27.000Z</time>
      </trkpt>
      <trkpt lat="47.29908" lon="-2.34835">
        <ele>30.200000762939</ele>
        <time>2021-10-21T07:22:28.000Z</time>
      </trkpt>
      <trkpt lat="47.29913" lon="-2.34833">
        <ele>30.60000038147</ele>
        <time>2021-10-21T07:22:29.000Z</time>
      </trkpt>
      <trkpt lat="47.29917" lon="-2.34832">
        <ele>31</ele>
        <time>2021-10-21T07:22:30.000Z</time>
      </trkpt>
      <trkpt lat="47.29922" lon="-2.34832">
        <ele>31.39999961853</ele>
        <time>2021-10-21T07:22:31.000Z</time>
      </trkpt>
      <trkpt lat="47.29953" lon="-2.34825">
        <ele>31.39999961853</ele>
        <time>2021-10-21T07:22:38.000Z</time>
      </trkpt>
      <trkpt lat="47.29957" lon="-2.34825">
        <ele>31.39999961853</ele>
        <time>2021-10-21T07:22:39.000Z</time>
      </trkpt>
      <trkpt lat="47.29973" lon="-2.34821">
        <ele>31.39999961853</ele>
        <time>2021-10-21T07:22:43.000Z</time>
      </trkpt>
      <trkpt lat="47.29984" lon="-2.34823">
        <ele>31.39999961853</ele>
        <time>2021-10-21T07:22:47.000Z</time>
      </trkpt>
      <trkpt lat="47.29988" lon="-2.34838">
        <ele>31.39999961853</ele>
        <time>2021-10-21T07:22:50.000Z</time>
      </trkpt>
      <trkpt lat="47.29989" lon="-2.34844">
        <ele>31.39999961853</ele>
        <time>2021-10-21T07:22:51.000Z</time>
      </trkpt>
      <trkpt lat="47.2999" lon="-2.3485">
        <ele>31.799999237061</ele>
        <time>2021-10-21T07:22:52.000Z</time>
      </trkpt>
      <trkpt lat="47.29991" lon="-2.34857">
        <ele>32.200000762939</ele>
        <time>2021-10-21T07:22:53.000Z</time>
      </trkpt>
      <trkpt lat="47.29991" lon="-2.34863">
        <ele>32.599998474121</ele>
        <time>2021-10-21T07:22:54.000Z</time>
      </trkpt>
      <trkpt lat="47.29992" lon="-2.34869">
        <ele>33</ele>
        <time>2021-10-21T07:22:55.000Z</time>
      </trkpt>
      <trkpt lat="47.29993" lon="-2.34875">
        <ele>33.400001525879</ele>
        <time>2021-10-21T07:22:56.000Z</time>
      </trkpt>
      <trkpt lat="47.29998" lon="-2.34923">
        <ele>33.400001525879</ele>
        <time>2021-10-21T07:23:04.000Z</time>
      </trkpt>
      <trkpt lat="47.29998" lon="-2.34964">
        <ele>33.400001525879</ele>
        <time>2021-10-21T07:23:10.000Z</time>
      </trkpt>
      <trkpt lat="47.29994" lon="-2.35017">
        <ele>33.400001525879</ele>
        <time>2021-10-21T07:23:18.000Z</time>
      </trkpt>
      <trkpt lat="47.2999" lon="-2.35064">
        <ele>33.400001525879</ele>
        <time>2021-10-21T07:23:25.000Z</time>
      </trkpt>
      <trkpt lat="47.29985" lon="-2.35139">
        <ele>33.400001525879</ele>
        <time>2021-10-21T07:23:35.000Z</time>
      </trkpt>
      <trkpt lat="47.29986" lon="-2.35181">
        <ele>33.400001525879</ele>
        <time>2021-10-21T07:23:41.000Z</time>
      </trkpt>
      <trkpt lat="47.29993" lon="-2.35212">
        <ele>33.400001525879</ele>
        <time>2021-10-21T07:23:46.000Z</time>
      </trkpt>
      <trkpt lat="47.30004" lon="-2.35241">
        <ele>33.400001525879</ele>
        <time>2021-10-21T07:23:52.000Z</time>
      </trkpt>
      <trkpt lat="47.30012" lon="-2.35255">
        <ele>33.400001525879</ele>
        <time>2021-10-21T07:23:57.000Z</time>
      </trkpt>
      <trkpt lat="47.30014" lon="-2.35255">
        <ele>33.400001525879</ele>
        <time>2021-10-21T07:23:58.000Z</time>
      </trkpt>
      <trkpt lat="47.3002" lon="-2.35249">
        <ele>32.599998474121</ele>
        <time>2021-10-21T07:24:01.000Z</time>
      </trkpt>
      <trkpt lat="47.30021" lon="-2.35248">
        <ele>32.200000762939</ele>
        <time>2021-10-21T07:24:02.000Z</time>
      </trkpt>
      <trkpt lat="47.30023" lon="-2.35247">
        <ele>31.799999237061</ele>
        <time>2021-10-21T07:24:03.000Z</time>
      </trkpt>
      <trkpt lat="47.30024" lon="-2.35247">
        <ele>31.39999961853</ele>
        <time>2021-10-21T07:24:04.000Z</time>
      </trkpt>
      <trkpt lat="47.30031" lon="-2.35245">
        <ele>31.39999961853</ele>
        <time>2021-10-21T07:24:08.000Z</time>
      </trkpt>
      <trkpt lat="47.30043" lon="-2.35236">
        <ele>31.39999961853</ele>
        <time>2021-10-21T07:24:12.000Z</time>
      </trkpt>
      <trkpt lat="47.30046" lon="-2.35234">
        <ele>31.39999961853</ele>
        <time>2021-10-21T07:24:13.000Z</time>
      </trkpt>
      <trkpt lat="47.30055" lon="-2.35229">
        <ele>31.39999961853</ele>
        <time>2021-10-21T07:24:18.000Z</time>
      </trkpt>
      <trkpt lat="47.30055" lon="-2.35229">
        <ele>31.39999961853</ele>
        <time>2021-10-21T07:24:19.000Z</time>
      </trkpt>
      <trkpt lat="47.30061" lon="-2.35225">
        <ele>31.39999961853</ele>
        <time>2021-10-21T07:24:31.000Z</time>
      </trkpt>
      <trkpt lat="47.30065" lon="-2.35222">
        <ele>31.39999961853</ele>
        <time>2021-10-21T07:24:33.000Z</time>
      </trkpt>
      <trkpt lat="47.30082" lon="-2.35216">
        <ele>31.39999961853</ele>
        <time>2021-10-21T07:24:38.000Z</time>
      </trkpt>
      <trkpt lat="47.30103" lon="-2.35209">
        <ele>31.39999961853</ele>
        <time>2021-10-21T07:24:43.000Z</time>
      </trkpt>
      <trkpt lat="47.30128" lon="-2.35198">
        <ele>31.39999961853</ele>
        <time>2021-10-21T07:24:48.000Z</time>
      </trkpt>
      <trkpt lat="47.30148" lon="-2.35196">
        <ele>31.39999961853</ele>
        <time>2021-10-21T07:24:53.000Z</time>
      </trkpt>
      <trkpt lat="47.30162" lon="-2.35187">
        <ele>31.39999961853</ele>
        <time>2021-10-21T07:24:58.000Z</time>
      </trkpt>
      <trkpt lat="47.30171" lon="-2.35181">
        <ele>31.39999961853</ele>
        <time>2021-10-21T07:25:00.000Z</time>
      </trkpt>
      <trkpt lat="47.30181" lon="-2.35178">
        <ele>31.39999961853</ele>
        <time>2021-10-21T07:25:02.000Z</time>
      </trkpt>
      <trkpt lat="47.30197" lon="-2.35173">
        <ele>31.39999961853</ele>
        <time>2021-10-21T07:25:05.000Z</time>
      </trkpt>
      <trkpt lat="47.30206" lon="-2.35165">
        <ele>31.39999961853</ele>
        <time>2021-10-21T07:25:07.000Z</time>
      </trkpt>
      <trkpt lat="47.30211" lon="-2.35146">
        <ele>31.39999961853</ele>
        <time>2021-10-21T07:25:10.000Z</time>
      </trkpt>
      <trkpt lat="47.3021" lon="-2.35131">
        <ele>31.39999961853</ele>
        <time>2021-10-21T07:25:12.000Z</time>
      </trkpt>
      <trkpt lat="47.3021" lon="-2.35124">
        <ele>31.799999237061</ele>
        <time>2021-10-21T07:25:13.000Z</time>
      </trkpt>
      <trkpt lat="47.3021" lon="-2.35116">
        <ele>32.200000762939</ele>
        <time>2021-10-21T07:25:14.000Z</time>
      </trkpt>
      <trkpt lat="47.30211" lon="-2.35109">
        <ele>32.599998474121</ele>
        <time>2021-10-21T07:25:15.000Z</time>
      </trkpt>
      <trkpt lat="47.30211" lon="-2.35102">
        <ele>33.400001525879</ele>
        <time>2021-10-21T07:25:16.000Z</time>
      </trkpt>
      <trkpt lat="47.30211" lon="-2.3508">
        <ele>33.400001525879</ele>
        <time>2021-10-21T07:25:19.000Z</time>
      </trkpt>
      <trkpt lat="47.30211" lon="-2.35065">
        <ele>33.400001525879</ele>
        <time>2021-10-21T07:25:21.000Z</time>
      </trkpt>
      <trkpt lat="47.30211" lon="-2.35019">
        <ele>34</ele>
        <time>2021-10-21T07:25:27.000Z</time>
      </trkpt>
      <trkpt lat="47.3021" lon="-2.35012">
        <ele>34.400001525879</ele>
        <time>2021-10-21T07:25:28.000Z</time>
      </trkpt>
      <trkpt lat="47.30209" lon="-2.35004">
        <ele>34.799999237061</ele>
        <time>2021-10-21T07:25:29.000Z</time>
      </trkpt>
      <trkpt lat="47.30209" lon="-2.34997">
        <ele>35.200000762939</ele>
        <time>2021-10-21T07:25:30.000Z</time>
      </trkpt>
      <trkpt lat="47.30209" lon="-2.3499">
        <ele>35.599998474121</ele>
        <time>2021-10-21T07:25:31.000Z</time>
      </trkpt>
      <trkpt lat="47.3021" lon="-2.34969">
        <ele>35.599998474121</ele>
        <time>2021-10-21T07:25:34.000Z</time>
      </trkpt>
      <trkpt lat="47.3021" lon="-2.34927">
        <ele>36</ele>
        <time>2021-10-21T07:25:40.000Z</time>
      </trkpt>
      <trkpt lat="47.3021" lon="-2.34921">
        <ele>36.400001525879</ele>
        <time>2021-10-21T07:25:41.000Z</time>
      </trkpt>
      <trkpt lat="47.3021" lon="-2.34914">
        <ele>36.799999237061</ele>
        <time>2021-10-21T07:25:42.000Z</time>
      </trkpt>
      <trkpt lat="47.30211" lon="-2.34908">
        <ele>37.200000762939</ele>
        <time>2021-10-21T07:25:43.000Z</time>
      </trkpt>
      <trkpt lat="47.30212" lon="-2.34903">
        <ele>37.599998474121</ele>
        <time>2021-10-21T07:25:44.000Z</time>
      </trkpt>
      <trkpt lat="47.30215" lon="-2.34898">
        <ele>37.599998474121</ele>
        <time>2021-10-21T07:25:45.000Z</time>
      </trkpt>
      <trkpt lat="47.30219" lon="-2.34895">
        <ele>37.599998474121</ele>
        <time>2021-10-21T07:25:46.000Z</time>
      </trkpt>
      <trkpt lat="47.30236" lon="-2.3488">
        <ele>37.599998474121</ele>
        <time>2021-10-21T07:25:50.000Z</time>
      </trkpt>
      <trkpt lat="47.3024" lon="-2.34877">
        <ele>37.599998474121</ele>
        <time>2021-10-21T07:25:51.000Z</time>
      </trkpt>
      <trkpt lat="47.3026" lon="-2.34865">
        <ele>37.599998474121</ele>
        <time>2021-10-21T07:25:56.000Z</time>
      </trkpt>
      <trkpt lat="47.30264" lon="-2.34862">
        <ele>37.599998474121</ele>
        <time>2021-10-21T07:25:57.000Z</time>
      </trkpt>
      <trkpt lat="47.30273" lon="-2.34857">
        <ele>37.599998474121</ele>
        <time>2021-10-21T07:25:59.000Z</time>
      </trkpt>
      <trkpt lat="47.30282" lon="-2.34853">
        <ele>37.599998474121</ele>
        <time>2021-10-21T07:26:01.000Z</time>
      </trkpt>
      <trkpt lat="47.30287" lon="-2.3485">
        <ele>37.599998474121</ele>
        <time>2021-10-21T07:26:02.000Z</time>
      </trkpt>
      <trkpt lat="47.30304" lon="-2.34831">
        <ele>37.599998474121</ele>
        <time>2021-10-21T07:26:06.000Z</time>
      </trkpt>
      <trkpt lat="47.30325" lon="-2.34796">
        <ele>37.599998474121</ele>
        <time>2021-10-21T07:26:12.000Z</time>
      </trkpt>
      <trkpt lat="47.30335" lon="-2.3478">
        <ele>37.599998474121</ele>
        <time>2021-10-21T07:26:15.000Z</time>
      </trkpt>
      <trkpt lat="47.30343" lon="-2.34772">
        <ele>37.599998474121</ele>
        <time>2021-10-21T07:26:17.000Z</time>
      </trkpt>
      <trkpt lat="47.30358" lon="-2.34763">
        <ele>38</ele>
        <time>2021-10-21T07:26:20.000Z</time>
      </trkpt>
      <trkpt lat="47.30362" lon="-2.34761">
        <ele>38.400001525879</ele>
        <time>2021-10-21T07:26:21.000Z</time>
      </trkpt>
      <trkpt lat="47.30367" lon="-2.34759">
        <ele>38.799999237061</ele>
        <time>2021-10-21T07:26:22.000Z</time>
      </trkpt>
      <trkpt lat="47.30372" lon="-2.34756">
        <ele>39.200000762939</ele>
        <time>2021-10-21T07:26:23.000Z</time>
      </trkpt>
      <trkpt lat="47.30377" lon="-2.34753">
        <ele>39.599998474121</ele>
        <time>2021-10-21T07:26:24.000Z</time>
      </trkpt>
      <trkpt lat="47.30387" lon="-2.34747">
        <ele>39.599998474121</ele>
        <time>2021-10-21T07:26:26.000Z</time>
      </trkpt>
      <trkpt lat="47.30418" lon="-2.34727">
        <ele>39.599998474121</ele>
        <time>2021-10-21T07:26:32.000Z</time>
      </trkpt>
      <trkpt lat="47.30423" lon="-2.34723">
        <ele>39.599998474121</ele>
        <time>2021-10-21T07:26:33.000Z</time>
      </trkpt>
      <trkpt lat="47.30447" lon="-2.34701">
        <ele>39.599998474121</ele>
        <time>2021-10-21T07:26:38.000Z</time>
      </trkpt>
      <trkpt lat="47.30452" lon="-2.34698">
        <ele>39.599998474121</ele>
        <time>2021-10-21T07:26:39.000Z</time>
      </trkpt>
      <trkpt lat="47.30476" lon="-2.34673">
        <ele>39.599998474121</ele>
        <time>2021-10-21T07:26:44.000Z</time>
      </trkpt>
      <trkpt lat="47.30494" lon="-2.34652">
        <ele>39.599998474121</ele>
        <time>2021-10-21T07:26:48.000Z</time>
      </trkpt>
      <trkpt lat="47.30497" lon="-2.34647">
        <ele>39.599998474121</ele>
        <time>2021-10-21T07:26:49.000Z</time>
      </trkpt>
      <trkpt lat="47.30512" lon="-2.3462">
        <ele>39.599998474121</ele>
        <time>2021-10-21T07:26:54.000Z</time>
      </trkpt>
      <trkpt lat="47.30516" lon="-2.34616">
        <ele>39.599998474121</ele>
        <time>2021-10-21T07:26:55.000Z</time>
      </trkpt>
      <trkpt lat="47.30528" lon="-2.34601">
        <ele>39.599998474121</ele>
        <time>2021-10-21T07:26:58.000Z</time>
      </trkpt>
      <trkpt lat="47.30535" lon="-2.34591">
        <ele>39.599998474121</ele>
        <time>2021-10-21T07:27:00.000Z</time>
      </trkpt>
      <trkpt lat="47.30563" lon="-2.34553">
        <ele>39.599998474121</ele>
        <time>2021-10-21T07:27:07.000Z</time>
      </trkpt>
      <trkpt lat="47.30577" lon="-2.34528">
        <ele>39.599998474121</ele>
        <time>2021-10-21T07:27:11.000Z</time>
      </trkpt>
      <trkpt lat="47.30583" lon="-2.34518">
        <ele>39.599998474121</ele>
        <time>2021-10-21T07:27:13.000Z</time>
      </trkpt>
      <trkpt lat="47.30594" lon="-2.345">
        <ele>39.599998474121</ele>
        <time>2021-10-21T07:27:16.000Z</time>
      </trkpt>
      <trkpt lat="47.30609" lon="-2.34479">
        <ele>40</ele>
        <time>2021-10-21T07:27:20.000Z</time>
      </trkpt>
      <trkpt lat="47.30612" lon="-2.34474">
        <ele>40.400001525879</ele>
        <time>2021-10-21T07:27:21.000Z</time>
      </trkpt>
      <trkpt lat="47.30616" lon="-2.34468">
        <ele>40.799999237061</ele>
        <time>2021-10-21T07:27:22.000Z</time>
      </trkpt>
      <trkpt lat="47.3062" lon="-2.34463">
        <ele>41.200000762939</ele>
        <time>2021-10-21T07:27:23.000Z</time>
      </trkpt>
      <trkpt lat="47.30624" lon="-2.34458">
        <ele>41.799999237061</ele>
        <time>2021-10-21T07:27:24.000Z</time>
      </trkpt>
      <trkpt lat="47.30646" lon="-2.34429">
        <ele>41.799999237061</ele>
        <time>2021-10-21T07:27:30.000Z</time>
      </trkpt>
      <trkpt lat="47.30669" lon="-2.34397">
        <ele>41.799999237061</ele>
        <time>2021-10-21T07:27:36.000Z</time>
      </trkpt>
      <trkpt lat="47.30694" lon="-2.34347">
        <ele>41.799999237061</ele>
        <time>2021-10-21T07:27:43.000Z</time>
      </trkpt>
      <trkpt lat="47.30713" lon="-2.3431">
        <ele>41.799999237061</ele>
        <time>2021-10-21T07:27:49.000Z</time>
      </trkpt>
      <trkpt lat="47.30725" lon="-2.34282">
        <ele>41.799999237061</ele>
        <time>2021-10-21T07:27:53.000Z</time>
      </trkpt>
      <trkpt lat="47.3073" lon="-2.34267">
        <ele>41.799999237061</ele>
        <time>2021-10-21T07:27:55.000Z</time>
      </trkpt>
      <trkpt lat="47.30731" lon="-2.34243">
        <ele>41.799999237061</ele>
        <time>2021-10-21T07:27:58.000Z</time>
      </trkpt>
      <trkpt lat="47.30732" lon="-2.34236">
        <ele>41.799999237061</ele>
        <time>2021-10-21T07:27:59.000Z</time>
      </trkpt>
      <trkpt lat="47.30735" lon="-2.34232">
        <ele>41.799999237061</ele>
        <time>2021-10-21T07:28:00.000Z</time>
      </trkpt>
      <trkpt lat="47.30739" lon="-2.3423">
        <ele>41.799999237061</ele>
        <time>2021-10-21T07:28:01.000Z</time>
      </trkpt>
      <trkpt lat="47.30764" lon="-2.34224">
        <ele>41.200000762939</ele>
        <time>2021-10-21T07:28:06.000Z</time>
      </trkpt>
      <trkpt lat="47.30768" lon="-2.3422">
        <ele>40.799999237061</ele>
        <time>2021-10-21T07:28:07.000Z</time>
      </trkpt>
      <trkpt lat="47.30771" lon="-2.34214">
        <ele>40.400001525879</ele>
        <time>2021-10-21T07:28:08.000Z</time>
      </trkpt>
      <trkpt lat="47.30773" lon="-2.34207">
        <ele>39.599998474121</ele>
        <time>2021-10-21T07:28:09.000Z</time>
      </trkpt>
      <trkpt lat="47.30775" lon="-2.34183">
        <ele>39.599998474121</ele>
        <time>2021-10-21T07:28:12.000Z</time>
      </trkpt>
      <trkpt lat="47.30775" lon="-2.34176">
        <ele>39.599998474121</ele>
        <time>2021-10-21T07:28:13.000Z</time>
      </trkpt>
      <trkpt lat="47.30777" lon="-2.34131">
        <ele>39.599998474121</ele>
        <time>2021-10-21T07:28:18.000Z</time>
      </trkpt>
      <trkpt lat="47.30781" lon="-2.3407">
        <ele>39.599998474121</ele>
        <time>2021-10-21T07:28:25.000Z</time>
      </trkpt>
      <trkpt lat="47.30782" lon="-2.34045">
        <ele>39.599998474121</ele>
        <time>2021-10-21T07:28:28.000Z</time>
      </trkpt>
      <trkpt lat="47.30782" lon="-2.34028">
        <ele>39.599998474121</ele>
        <time>2021-10-21T07:28:30.000Z</time>
      </trkpt>
      <trkpt lat="47.30784" lon="-2.33987">
        <ele>39.599998474121</ele>
        <time>2021-10-21T07:28:35.000Z</time>
      </trkpt>
      <trkpt lat="47.30785" lon="-2.33981">
        <ele>39.599998474121</ele>
        <time>2021-10-21T07:28:36.000Z</time>
      </trkpt>
      <trkpt lat="47.30794" lon="-2.33968">
        <ele>39.599998474121</ele>
        <time>2021-10-21T07:28:39.000Z</time>
      </trkpt>
      <trkpt lat="47.30803" lon="-2.33964">
        <ele>39.599998474121</ele>
        <time>2021-10-21T07:28:41.000Z</time>
      </trkpt>
      <trkpt lat="47.30812" lon="-2.3396">
        <ele>39.599998474121</ele>
        <time>2021-10-21T07:28:43.000Z</time>
      </trkpt>
      <trkpt lat="47.30821" lon="-2.33957">
        <ele>39.599998474121</ele>
        <time>2021-10-21T07:28:45.000Z</time>
      </trkpt>
      <trkpt lat="47.30854" lon="-2.3395">
        <ele>39.599998474121</ele>
        <time>2021-10-21T07:28:52.000Z</time>
      </trkpt>
      <trkpt lat="47.30889" lon="-2.33945">
        <ele>39.599998474121</ele>
        <time>2021-10-21T07:29:00.000Z</time>
      </trkpt>
      <trkpt lat="47.30921" lon="-2.33944">
        <ele>39.599998474121</ele>
        <time>2021-10-21T07:29:08.000Z</time>
      </trkpt>
      <trkpt lat="47.30948" lon="-2.3395">
        <ele>39.599998474121</ele>
        <time>2021-10-21T07:29:15.000Z</time>
      </trkpt>
      <trkpt lat="47.30977" lon="-2.33954">
        <ele>39.599998474121</ele>
        <time>2021-10-21T07:29:22.000Z</time>
      </trkpt>
      <trkpt lat="47.31019" lon="-2.33951">
        <ele>39.599998474121</ele>
        <time>2021-10-21T07:29:31.000Z</time>
      </trkpt>
      <trkpt lat="47.31044" lon="-2.33947">
        <ele>39.200000762939</ele>
        <time>2021-10-21T07:29:36.000Z</time>
      </trkpt>
      <trkpt lat="47.31049" lon="-2.33946">
        <ele>38.799999237061</ele>
        <time>2021-10-21T07:29:37.000Z</time>
      </trkpt>
      <trkpt lat="47.31053" lon="-2.33945">
        <ele>38.400001525879</ele>
        <time>2021-10-21T07:29:38.000Z</time>
      </trkpt>
      <trkpt lat="47.31057" lon="-2.33946">
        <ele>38</ele>
        <time>2021-10-21T07:29:39.000Z</time>
      </trkpt>
      <trkpt lat="47.3106" lon="-2.33949">
        <ele>37.599998474121</ele>
        <time>2021-10-21T07:29:40.000Z</time>
      </trkpt>
      <trkpt lat="47.31062" lon="-2.33951">
        <ele>37.599998474121</ele>
        <time>2021-10-21T07:29:41.000Z</time>
      </trkpt>
      <trkpt lat="47.31064" lon="-2.33956">
        <ele>37.599998474121</ele>
        <time>2021-10-21T07:29:42.000Z</time>
      </trkpt>
      <trkpt lat="47.31065" lon="-2.33969">
        <ele>37.599998474121</ele>
        <time>2021-10-21T07:29:44.000Z</time>
      </trkpt>
      <trkpt lat="47.31067" lon="-2.34025">
        <ele>37.599998474121</ele>
        <time>2021-10-21T07:29:52.000Z</time>
      </trkpt>
      <trkpt lat="47.31076" lon="-2.3408">
        <ele>37.599998474121</ele>
        <time>2021-10-21T07:30:00.000Z</time>
      </trkpt>
      <trkpt lat="47.31094" lon="-2.34123">
        <ele>37.200000762939</ele>
        <time>2021-10-21T07:30:06.000Z</time>
      </trkpt>
      <trkpt lat="47.31098" lon="-2.3413">
        <ele>36.799999237061</ele>
        <time>2021-10-21T07:30:07.000Z</time>
      </trkpt>
      <trkpt lat="47.31102" lon="-2.34137">
        <ele>36.400001525879</ele>
        <time>2021-10-21T07:30:08.000Z</time>
      </trkpt>
      <trkpt lat="47.31106" lon="-2.34145">
        <ele>35.799999237061</ele>
        <time>2021-10-21T07:30:09.000Z</time>
      </trkpt>
      <trkpt lat="47.3111" lon="-2.34154">
        <ele>35.400001525879</ele>
        <time>2021-10-21T07:30:10.000Z</time>
      </trkpt>
      <trkpt lat="47.31119" lon="-2.34171">
        <ele>34.599998474121</ele>
        <time>2021-10-21T07:30:12.000Z</time>
      </trkpt>
      <trkpt lat="47.31123" lon="-2.3418">
        <ele>34.200000762939</ele>
        <time>2021-10-21T07:30:13.000Z</time>
      </trkpt>
      <trkpt lat="47.31128" lon="-2.34189">
        <ele>33.599998474121</ele>
        <time>2021-10-21T07:30:14.000Z</time>
      </trkpt>
      <trkpt lat="47.31133" lon="-2.34198">
        <ele>33.200000762939</ele>
        <time>2021-10-21T07:30:15.000Z</time>
      </trkpt>
      <trkpt lat="47.31139" lon="-2.34208">
        <ele>32.799999237061</ele>
        <time>2021-10-21T07:30:16.000Z</time>
      </trkpt>
      <trkpt lat="47.31144" lon="-2.34218">
        <ele>32.200000762939</ele>
        <time>2021-10-21T07:30:17.000Z</time>
      </trkpt>
      <trkpt lat="47.31149" lon="-2.34229">
        <ele>31.60000038147</ele>
        <time>2021-10-21T07:30:18.000Z</time>
      </trkpt>
      <trkpt lat="47.31154" lon="-2.3424">
        <ele>31.200000762939</ele>
        <time>2021-10-21T07:30:19.000Z</time>
      </trkpt>
      <trkpt lat="47.31159" lon="-2.34251">
        <ele>30.60000038147</ele>
        <time>2021-10-21T07:30:20.000Z</time>
      </trkpt>
      <trkpt lat="47.31169" lon="-2.34271">
        <ele>30.200000762939</ele>
        <time>2021-10-21T07:30:22.000Z</time>
      </trkpt>
      <trkpt lat="47.31173" lon="-2.34279">
        <ele>29.799999237061</ele>
        <time>2021-10-21T07:30:23.000Z</time>
      </trkpt>
      <trkpt lat="47.31177" lon="-2.34289">
        <ele>29.39999961853</ele>
        <time>2021-10-21T07:30:24.000Z</time>
      </trkpt>
      <trkpt lat="47.31182" lon="-2.34297">
        <ele>29</ele>
        <time>2021-10-21T07:30:25.000Z</time>
      </trkpt>
      <trkpt lat="47.31186" lon="-2.34306">
        <ele>28.60000038147</ele>
        <time>2021-10-21T07:30:26.000Z</time>
      </trkpt>
      <trkpt lat="47.31198" lon="-2.34326">
        <ele>28.60000038147</ele>
        <time>2021-10-21T07:30:29.000Z</time>
      </trkpt>
      <trkpt lat="47.31218" lon="-2.34344">
        <ele>28.60000038147</ele>
        <time>2021-10-21T07:30:33.000Z</time>
      </trkpt>
      <trkpt lat="47.31245" lon="-2.34355">
        <ele>28.60000038147</ele>
        <time>2021-10-21T07:30:38.000Z</time>
      </trkpt>
      <trkpt lat="47.3125" lon="-2.34357">
        <ele>28.60000038147</ele>
        <time>2021-10-21T07:30:39.000Z</time>
      </trkpt>
      <trkpt lat="47.31261" lon="-2.34373">
        <ele>28.60000038147</ele>
        <time>2021-10-21T07:30:42.000Z</time>
      </trkpt>
      <trkpt lat="47.31266" lon="-2.34396">
        <ele>28.60000038147</ele>
        <time>2021-10-21T07:30:45.000Z</time>
      </trkpt>
      <trkpt lat="47.31267" lon="-2.34404">
        <ele>28.60000038147</ele>
        <time>2021-10-21T07:30:46.000Z</time>
      </trkpt>
      <trkpt lat="47.31269" lon="-2.34413">
        <ele>29</ele>
        <time>2021-10-21T07:30:47.000Z</time>
      </trkpt>
      <trkpt lat="47.3127" lon="-2.34421">
        <ele>29.39999961853</ele>
        <time>2021-10-21T07:30:48.000Z</time>
      </trkpt>
      <trkpt lat="47.31271" lon="-2.34429">
        <ele>29.799999237061</ele>
        <time>2021-10-21T07:30:49.000Z</time>
      </trkpt>
      <trkpt lat="47.31272" lon="-2.34437">
        <ele>30.200000762939</ele>
        <time>2021-10-21T07:30:50.000Z</time>
      </trkpt>
      <trkpt lat="47.31273" lon="-2.34445">
        <ele>30.60000038147</ele>
        <time>2021-10-21T07:30:51.000Z</time>
      </trkpt>
      <trkpt lat="47.31274" lon="-2.34454">
        <ele>30.60000038147</ele>
        <time>2021-10-21T07:30:52.000Z</time>
      </trkpt>
      <trkpt lat="47.31279" lon="-2.34502">
        <ele>30.60000038147</ele>
        <time>2021-10-21T07:30:58.000Z</time>
      </trkpt>
      <trkpt lat="47.3128" lon="-2.3451">
        <ele>31</ele>
        <time>2021-10-21T07:30:59.000Z</time>
      </trkpt>
      <trkpt lat="47.31281" lon="-2.34518">
        <ele>31.60000038147</ele>
        <time>2021-10-21T07:31:00.000Z</time>
      </trkpt>
      <trkpt lat="47.31282" lon="-2.34526">
        <ele>32</ele>
        <time>2021-10-21T07:31:01.000Z</time>
      </trkpt>
      <trkpt lat="47.31283" lon="-2.34534">
        <ele>32.799999237061</ele>
        <time>2021-10-21T07:31:02.000Z</time>
      </trkpt>
      <trkpt lat="47.31285" lon="-2.34558">
        <ele>32.799999237061</ele>
        <time>2021-10-21T07:31:05.000Z</time>
      </trkpt>
      <trkpt lat="47.31288" lon="-2.34589">
        <ele>33.200000762939</ele>
        <time>2021-10-21T07:31:09.000Z</time>
      </trkpt>
      <trkpt lat="47.31289" lon="-2.34596">
        <ele>33.599998474121</ele>
        <time>2021-10-21T07:31:10.000Z</time>
      </trkpt>
      <trkpt lat="47.3129" lon="-2.34603">
        <ele>34</ele>
        <time>2021-10-21T07:31:11.000Z</time>
      </trkpt>
      <trkpt lat="47.31291" lon="-2.34611">
        <ele>34.400001525879</ele>
        <time>2021-10-21T07:31:12.000Z</time>
      </trkpt>
      <trkpt lat="47.31292" lon="-2.34618">
        <ele>34.799999237061</ele>
        <time>2021-10-21T07:31:13.000Z</time>
      </trkpt>
      <trkpt lat="47.31295" lon="-2.34649">
        <ele>34.799999237061</ele>
        <time>2021-10-21T07:31:18.000Z</time>
      </trkpt>
      <trkpt lat="47.31298" lon="-2.34659">
        <ele>35.200000762939</ele>
        <time>2021-10-21T07:31:20.000Z</time>
      </trkpt>
      <trkpt lat="47.31301" lon="-2.34663">
        <ele>35.799999237061</ele>
        <time>2021-10-21T07:31:21.000Z</time>
      </trkpt>
      <trkpt lat="47.31302" lon="-2.34668">
        <ele>36.200000762939</ele>
        <time>2021-10-21T07:31:22.000Z</time>
      </trkpt>
      <trkpt lat="47.31302" lon="-2.34673">
        <ele>36.599998474121</ele>
        <time>2021-10-21T07:31:23.000Z</time>
      </trkpt>
      <trkpt lat="47.31299" lon="-2.34677">
        <ele>37</ele>
        <time>2021-10-21T07:31:24.000Z</time>
      </trkpt>
      <trkpt lat="47.31296" lon="-2.34681">
        <ele>37</ele>
        <time>2021-10-21T07:31:25.000Z</time>
      </trkpt>
      <trkpt lat="47.31285" lon="-2.34693">
        <ele>37</ele>
        <time>2021-10-21T07:31:28.000Z</time>
      </trkpt>
      <trkpt lat="47.31282" lon="-2.34697">
        <ele>37</ele>
        <time>2021-10-21T07:31:29.000Z</time>
      </trkpt>
      <trkpt lat="47.31279" lon="-2.34716">
        <ele>37</ele>
        <time>2021-10-21T07:31:32.000Z</time>
      </trkpt>
      <trkpt lat="47.31281" lon="-2.34731">
        <ele>37</ele>
        <time>2021-10-21T07:31:34.000Z</time>
      </trkpt>
      <trkpt lat="47.31283" lon="-2.34746">
        <ele>37.400001525879</ele>
        <time>2021-10-21T07:31:36.000Z</time>
      </trkpt>
      <trkpt lat="47.31284" lon="-2.34754">
        <ele>37.799999237061</ele>
        <time>2021-10-21T07:31:37.000Z</time>
      </trkpt>
      <trkpt lat="47.31285" lon="-2.34761">
        <ele>38.200000762939</ele>
        <time>2021-10-21T07:31:38.000Z</time>
      </trkpt>
      <trkpt lat="47.31287" lon="-2.34768">
        <ele>38.599998474121</ele>
        <time>2021-10-21T07:31:39.000Z</time>
      </trkpt>
      <trkpt lat="47.31288" lon="-2.34776">
        <ele>39</ele>
        <time>2021-10-21T07:31:40.000Z</time>
      </trkpt>
      <trkpt lat="47.31294" lon="-2.34806">
        <ele>39</ele>
        <time>2021-10-21T07:31:44.000Z</time>
      </trkpt>
      <trkpt lat="47.31306" lon="-2.34865">
        <ele>39</ele>
        <time>2021-10-21T07:31:52.000Z</time>
      </trkpt>
      <trkpt lat="47.31323" lon="-2.34919">
        <ele>39</ele>
        <time>2021-10-21T07:31:59.000Z</time>
      </trkpt>
      <trkpt lat="47.31338" lon="-2.3498">
        <ele>39</ele>
        <time>2021-10-21T07:32:06.000Z</time>
      </trkpt>
      <trkpt lat="47.31343" lon="-2.35013">
        <ele>39</ele>
        <time>2021-10-21T07:32:10.000Z</time>
      </trkpt>
      <trkpt lat="47.31345" lon="-2.3503">
        <ele>39</ele>
        <time>2021-10-21T07:32:12.000Z</time>
      </trkpt>
      <trkpt lat="47.31345" lon="-2.35098">
        <ele>39</ele>
        <time>2021-10-21T07:32:20.000Z</time>
      </trkpt>
      <trkpt lat="47.31343" lon="-2.35158">
        <ele>39</ele>
        <time>2021-10-21T07:32:27.000Z</time>
      </trkpt>
      <trkpt lat="47.31341" lon="-2.3522">
        <ele>39</ele>
        <time>2021-10-21T07:32:35.000Z</time>
      </trkpt>
      <trkpt lat="47.31341" lon="-2.35235">
        <ele>39</ele>
        <time>2021-10-21T07:32:37.000Z</time>
      </trkpt>
      <trkpt lat="47.3134" lon="-2.35258">
        <ele>39</ele>
        <time>2021-10-21T07:32:40.000Z</time>
      </trkpt>
      <trkpt lat="47.3134" lon="-2.35317">
        <ele>39</ele>
        <time>2021-10-21T07:32:47.000Z</time>
      </trkpt>
      <trkpt lat="47.31339" lon="-2.35367">
        <ele>39</ele>
        <time>2021-10-21T07:32:53.000Z</time>
      </trkpt>
      <trkpt lat="47.31339" lon="-2.35415">
        <ele>39</ele>
        <time>2021-10-21T07:32:59.000Z</time>
      </trkpt>
      <trkpt lat="47.31339" lon="-2.35461">
        <ele>39</ele>
        <time>2021-10-21T07:33:05.000Z</time>
      </trkpt>
      <trkpt lat="47.31337" lon="-2.35518">
        <ele>39</ele>
        <time>2021-10-21T07:33:13.000Z</time>
      </trkpt>
      <trkpt lat="47.31336" lon="-2.3554">
        <ele>39</ele>
        <time>2021-10-21T07:33:16.000Z</time>
      </trkpt>
      <trkpt lat="47.31333" lon="-2.35555">
        <ele>39</ele>
        <time>2021-10-21T07:33:18.000Z</time>
      </trkpt>
      <trkpt lat="47.31333" lon="-2.35591">
        <ele>39</ele>
        <time>2021-10-21T07:33:23.000Z</time>
      </trkpt>
      <trkpt lat="47.31334" lon="-2.35598">
        <ele>39</ele>
        <time>2021-10-21T07:33:24.000Z</time>
      </trkpt>
      <trkpt lat="47.31334" lon="-2.35627">
        <ele>39</ele>
        <time>2021-10-21T07:33:28.000Z</time>
      </trkpt>
      <trkpt lat="47.31335" lon="-2.35647">
        <ele>39.400001525879</ele>
        <time>2021-10-21T07:33:31.000Z</time>
      </trkpt>
      <trkpt lat="47.31335" lon="-2.35655">
        <ele>39.799999237061</ele>
        <time>2021-10-21T07:33:32.000Z</time>
      </trkpt>
      <trkpt lat="47.31336" lon="-2.35662">
        <ele>40.400001525879</ele>
        <time>2021-10-21T07:33:33.000Z</time>
      </trkpt>
      <trkpt lat="47.31336" lon="-2.3567">
        <ele>40.799999237061</ele>
        <time>2021-10-21T07:33:34.000Z</time>
      </trkpt>
      <trkpt lat="47.31336" lon="-2.35677">
        <ele>41.200000762939</ele>
        <time>2021-10-21T07:33:35.000Z</time>
      </trkpt>
      <trkpt lat="47.31336" lon="-2.35684">
        <ele>41.200000762939</ele>
        <time>2021-10-21T07:33:36.000Z</time>
      </trkpt>
      <trkpt lat="47.31335" lon="-2.35706">
        <ele>41.200000762939</ele>
        <time>2021-10-21T07:33:39.000Z</time>
      </trkpt>
      <trkpt lat="47.31335" lon="-2.35714">
        <ele>41.200000762939</ele>
        <time>2021-10-21T07:33:40.000Z</time>
      </trkpt>
      <trkpt lat="47.31336" lon="-2.35743">
        <ele>41.200000762939</ele>
        <time>2021-10-21T07:33:44.000Z</time>
      </trkpt>
      <trkpt lat="47.31335" lon="-2.3575">
        <ele>41.200000762939</ele>
        <time>2021-10-21T07:33:45.000Z</time>
      </trkpt>
      <trkpt lat="47.31335" lon="-2.35772">
        <ele>41.200000762939</ele>
        <time>2021-10-21T07:33:48.000Z</time>
      </trkpt>
      <trkpt lat="47.31337" lon="-2.35787">
        <ele>41.200000762939</ele>
        <time>2021-10-21T07:33:50.000Z</time>
      </trkpt>
      <trkpt lat="47.31339" lon="-2.35818">
        <ele>41.200000762939</ele>
        <time>2021-10-21T07:33:54.000Z</time>
      </trkpt>
      <trkpt lat="47.31345" lon="-2.35859">
        <ele>41.200000762939</ele>
        <time>2021-10-21T07:33:59.000Z</time>
      </trkpt>
      <trkpt lat="47.31347" lon="-2.35868">
        <ele>41.200000762939</ele>
        <time>2021-10-21T07:34:00.000Z</time>
      </trkpt>
      <trkpt lat="47.31361" lon="-2.35899">
        <ele>41.200000762939</ele>
        <time>2021-10-21T07:34:04.000Z</time>
      </trkpt>
      <trkpt lat="47.31367" lon="-2.35913">
        <ele>40.799999237061</ele>
        <time>2021-10-21T07:34:06.000Z</time>
      </trkpt>
      <trkpt lat="47.3137" lon="-2.3592">
        <ele>40.400001525879</ele>
        <time>2021-10-21T07:34:07.000Z</time>
      </trkpt>
      <trkpt lat="47.31373" lon="-2.35927">
        <ele>40</ele>
        <time>2021-10-21T07:34:08.000Z</time>
      </trkpt>
      <trkpt lat="47.31377" lon="-2.35934">
        <ele>39.599998474121</ele>
        <time>2021-10-21T07:34:09.000Z</time>
      </trkpt>
      <trkpt lat="47.3138" lon="-2.3594">
        <ele>39.200000762939</ele>
        <time>2021-10-21T07:34:10.000Z</time>
      </trkpt>
      <trkpt lat="47.31388" lon="-2.35952">
        <ele>39.200000762939</ele>
        <time>2021-10-21T07:34:12.000Z</time>
      </trkpt>
      <trkpt lat="47.31394" lon="-2.35963">
        <ele>39.200000762939</ele>
        <time>2021-10-21T07:34:14.000Z</time>
      </trkpt>
      <trkpt lat="47.31396" lon="-2.35969">
        <ele>39.200000762939</ele>
        <time>2021-10-21T07:34:15.000Z</time>
      </trkpt>
      <trkpt lat="47.31397" lon="-2.35976">
        <ele>39.200000762939</ele>
        <time>2021-10-21T07:34:16.000Z</time>
      </trkpt>
      <trkpt lat="47.31403" lon="-2.35995">
        <ele>39.200000762939</ele>
        <time>2021-10-21T07:34:19.000Z</time>
      </trkpt>
      <trkpt lat="47.31405" lon="-2.36001">
        <ele>39.200000762939</ele>
        <time>2021-10-21T07:34:20.000Z</time>
      </trkpt>
      <trkpt lat="47.3141" lon="-2.36014">
        <ele>39.200000762939</ele>
        <time>2021-10-21T07:34:22.000Z</time>
      </trkpt>
      <trkpt lat="47.31415" lon="-2.36026">
        <ele>39.599998474121</ele>
        <time>2021-10-21T07:34:24.000Z</time>
      </trkpt>
      <trkpt lat="47.31416" lon="-2.36032">
        <ele>40</ele>
        <time>2021-10-21T07:34:25.000Z</time>
      </trkpt>
      <trkpt lat="47.31419" lon="-2.36039">
        <ele>40.400001525879</ele>
        <time>2021-10-21T07:34:26.000Z</time>
      </trkpt>
      <trkpt lat="47.31421" lon="-2.36044">
        <ele>40.799999237061</ele>
        <time>2021-10-21T07:34:27.000Z</time>
      </trkpt>
      <trkpt lat="47.31422" lon="-2.3605">
        <ele>41.200000762939</ele>
        <time>2021-10-21T07:34:28.000Z</time>
      </trkpt>
      <trkpt lat="47.31426" lon="-2.36062">
        <ele>41.200000762939</ele>
        <time>2021-10-21T07:34:30.000Z</time>
      </trkpt>
      <trkpt lat="47.31438" lon="-2.36097">
        <ele>41.599998474121</ele>
        <time>2021-10-21T07:34:36.000Z</time>
      </trkpt>
      <trkpt lat="47.3144" lon="-2.36103">
        <ele>42</ele>
        <time>2021-10-21T07:34:37.000Z</time>
      </trkpt>
      <trkpt lat="47.31441" lon="-2.3611">
        <ele>42.400001525879</ele>
        <time>2021-10-21T07:34:38.000Z</time>
      </trkpt>
      <trkpt lat="47.31443" lon="-2.36116">
        <ele>42.799999237061</ele>
        <time>2021-10-21T07:34:39.000Z</time>
      </trkpt>
      <trkpt lat="47.31445" lon="-2.36122">
        <ele>43.200000762939</ele>
        <time>2021-10-21T07:34:40.000Z</time>
      </trkpt>
      <trkpt lat="47.31448" lon="-2.36133">
        <ele>43.200000762939</ele>
        <time>2021-10-21T07:34:42.000Z</time>
      </trkpt>
      <trkpt lat="47.31458" lon="-2.36167">
        <ele>43.200000762939</ele>
        <time>2021-10-21T07:34:49.000Z</time>
      </trkpt>
      <trkpt lat="47.31462" lon="-2.36171">
        <ele>43.200000762939</ele>
        <time>2021-10-21T07:34:51.000Z</time>
      </trkpt>
      <trkpt lat="47.31464" lon="-2.3617">
        <ele>43.200000762939</ele>
        <time>2021-10-21T07:34:52.000Z</time>
      </trkpt>
      <trkpt lat="47.3147" lon="-2.36165">
        <ele>43.200000762939</ele>
        <time>2021-10-21T07:34:55.000Z</time>
      </trkpt>
      <trkpt lat="47.31478" lon="-2.36157">
        <ele>43.200000762939</ele>
        <time>2021-10-21T07:34:58.000Z</time>
      </trkpt>
      <trkpt lat="47.31495" lon="-2.36141">
        <ele>43.200000762939</ele>
        <time>2021-10-21T07:35:04.000Z</time>
      </trkpt>
      <trkpt lat="47.31515" lon="-2.3612">
        <ele>43.200000762939</ele>
        <time>2021-10-21T07:35:11.000Z</time>
      </trkpt>
      <trkpt lat="47.31532" lon="-2.36102">
        <ele>43.200000762939</ele>
        <time>2021-10-21T07:35:16.000Z</time>
      </trkpt>
      <trkpt lat="47.31553" lon="-2.36082">
        <ele>43.200000762939</ele>
        <time>2021-10-21T07:35:21.000Z</time>
      </trkpt>
      <trkpt lat="47.31578" lon="-2.36056">
        <ele>43.200000762939</ele>
        <time>2021-10-21T07:35:27.000Z</time>
      </trkpt>
      <trkpt lat="47.31609" lon="-2.36027">
        <ele>43.200000762939</ele>
        <time>2021-10-21T07:35:33.000Z</time>
      </trkpt>
      <trkpt lat="47.31625" lon="-2.3601">
        <ele>42.799999237061</ele>
        <time>2021-10-21T07:35:36.000Z</time>
      </trkpt>
      <trkpt lat="47.31631" lon="-2.36004">
        <ele>42.400001525879</ele>
        <time>2021-10-21T07:35:37.000Z</time>
      </trkpt>
      <trkpt lat="47.31637" lon="-2.35999">
        <ele>42</ele>
        <time>2021-10-21T07:35:38.000Z</time>
      </trkpt>
      <trkpt lat="47.31642" lon="-2.35993">
        <ele>41.599998474121</ele>
        <time>2021-10-21T07:35:39.000Z</time>
      </trkpt>
      <trkpt lat="47.31647" lon="-2.35989">
        <ele>41.200000762939</ele>
        <time>2021-10-21T07:35:40.000Z</time>
      </trkpt>
      <trkpt lat="47.31658" lon="-2.35982">
        <ele>41.200000762939</ele>
        <time>2021-10-21T07:35:42.000Z</time>
      </trkpt>
      <trkpt lat="47.3167" lon="-2.35975">
        <ele>41.200000762939</ele>
        <time>2021-10-21T07:35:44.000Z</time>
      </trkpt>
      <trkpt lat="47.31708" lon="-2.35954">
        <ele>41.200000762939</ele>
        <time>2021-10-21T07:35:50.000Z</time>
      </trkpt>
      <trkpt lat="47.31714" lon="-2.35951">
        <ele>41.200000762939</ele>
        <time>2021-10-21T07:35:51.000Z</time>
      </trkpt>
      <trkpt lat="47.31733" lon="-2.35938">
        <ele>41.200000762939</ele>
        <time>2021-10-21T07:35:54.000Z</time>
      </trkpt>
      <trkpt lat="47.31745" lon="-2.35929">
        <ele>41.200000762939</ele>
        <time>2021-10-21T07:35:56.000Z</time>
      </trkpt>
      <trkpt lat="47.31762" lon="-2.35916">
        <ele>40.799999237061</ele>
        <time>2021-10-21T07:35:59.000Z</time>
      </trkpt>
      <trkpt lat="47.31768" lon="-2.35912">
        <ele>40.400001525879</ele>
        <time>2021-10-21T07:36:00.000Z</time>
      </trkpt>
      <trkpt lat="47.31775" lon="-2.35909">
        <ele>40</ele>
        <time>2021-10-21T07:36:01.000Z</time>
      </trkpt>
      <trkpt lat="47.3178" lon="-2.35906">
        <ele>39.599998474121</ele>
        <time>2021-10-21T07:36:02.000Z</time>
      </trkpt>
      <trkpt lat="47.31786" lon="-2.35903">
        <ele>39.200000762939</ele>
        <time>2021-10-21T07:36:03.000Z</time>
      </trkpt>
      <trkpt lat="47.3179" lon="-2.359">
        <ele>39.200000762939</ele>
        <time>2021-10-21T07:36:04.000Z</time>
      </trkpt>
      <trkpt lat="47.31798" lon="-2.35895">
        <ele>39.200000762939</ele>
        <time>2021-10-21T07:36:06.000Z</time>
      </trkpt>
      <trkpt lat="47.31812" lon="-2.35888">
        <ele>38.799999237061</ele>
        <time>2021-10-21T07:36:09.000Z</time>
      </trkpt>
      <trkpt lat="47.31816" lon="-2.35885">
        <ele>38.400001525879</ele>
        <time>2021-10-21T07:36:10.000Z</time>
      </trkpt>
      <trkpt lat="47.3182" lon="-2.35882">
        <ele>37.799999237061</ele>
        <time>2021-10-21T07:36:11.000Z</time>
      </trkpt>
      <trkpt lat="47.31824" lon="-2.35878">
        <ele>37.400001525879</ele>
        <time>2021-10-21T07:36:12.000Z</time>
      </trkpt>
      <trkpt lat="47.31826" lon="-2.35873">
        <ele>37</ele>
        <time>2021-10-21T07:36:13.000Z</time>
      </trkpt>
      <trkpt lat="47.31826" lon="-2.35861">
        <ele>37</ele>
        <time>2021-10-21T07:36:15.000Z</time>
      </trkpt>
      <trkpt lat="47.31826" lon="-2.35855">
        <ele>37</ele>
        <time>2021-10-21T07:36:16.000Z</time>
      </trkpt>
      <trkpt lat="47.31824" lon="-2.35852">
        <ele>37</ele>
        <time>2021-10-21T07:36:17.000Z</time>
      </trkpt>
      <trkpt lat="47.31819" lon="-2.35843">
        <ele>37</ele>
        <time>2021-10-21T07:36:19.000Z</time>
      </trkpt>
      <trkpt lat="47.31812" lon="-2.35828">
        <ele>37</ele>
        <time>2021-10-21T07:36:22.000Z</time>
      </trkpt>
      <trkpt lat="47.31809" lon="-2.35825">
        <ele>37</ele>
        <time>2021-10-21T07:36:23.000Z</time>
      </trkpt>
      <trkpt lat="47.31795" lon="-2.35809">
        <ele>37</ele>
        <time>2021-10-21T07:36:27.000Z</time>
      </trkpt>
      <trkpt lat="47.31789" lon="-2.35801">
        <ele>37</ele>
        <time>2021-10-21T07:36:29.000Z</time>
      </trkpt>
      <trkpt lat="47.31787" lon="-2.35795">
        <ele>37</ele>
        <time>2021-10-21T07:36:30.000Z</time>
      </trkpt>
      <trkpt lat="47.31783" lon="-2.3578">
        <ele>37</ele>
        <time>2021-10-21T07:36:33.000Z</time>
      </trkpt>
      <trkpt lat="47.31779" lon="-2.35742">
        <ele>37</ele>
        <time>2021-10-21T07:36:39.000Z</time>
      </trkpt>
      <trkpt lat="47.31778" lon="-2.35717">
        <ele>36.599998474121</ele>
        <time>2021-10-21T07:36:42.000Z</time>
      </trkpt>
      <trkpt lat="47.31779" lon="-2.35708">
        <ele>36.200000762939</ele>
        <time>2021-10-21T07:36:43.000Z</time>
      </trkpt>
      <trkpt lat="47.3178" lon="-2.35697">
        <ele>35.799999237061</ele>
        <time>2021-10-21T07:36:44.000Z</time>
      </trkpt>
      <trkpt lat="47.3178" lon="-2.35685">
        <ele>35.400001525879</ele>
        <time>2021-10-21T07:36:45.000Z</time>
      </trkpt>
      <trkpt lat="47.3178" lon="-2.35676">
        <ele>34.799999237061</ele>
        <time>2021-10-21T07:36:46.000Z</time>
      </trkpt>
      <trkpt lat="47.31781" lon="-2.35666">
        <ele>34.799999237061</ele>
        <time>2021-10-21T07:36:47.000Z</time>
      </trkpt>
      <trkpt lat="47.31786" lon="-2.35649">
        <ele>34.799999237061</ele>
        <time>2021-10-21T07:36:49.000Z</time>
      </trkpt>
      <trkpt lat="47.31793" lon="-2.35632">
        <ele>34.799999237061</ele>
        <time>2021-10-21T07:36:51.000Z</time>
      </trkpt>
      <trkpt lat="47.31796" lon="-2.35624">
        <ele>34.400001525879</ele>
        <time>2021-10-21T07:36:52.000Z</time>
      </trkpt>
      <trkpt lat="47.318" lon="-2.35615">
        <ele>34</ele>
        <time>2021-10-21T07:36:53.000Z</time>
      </trkpt>
      <trkpt lat="47.31804" lon="-2.35606">
        <ele>33.599998474121</ele>
        <time>2021-10-21T07:36:54.000Z</time>
      </trkpt>
      <trkpt lat="47.31808" lon="-2.35597">
        <ele>33.200000762939</ele>
        <time>2021-10-21T07:36:55.000Z</time>
      </trkpt>
      <trkpt lat="47.31813" lon="-2.35591">
        <ele>32.799999237061</ele>
        <time>2021-10-21T07:36:56.000Z</time>
      </trkpt>
      <trkpt lat="47.31828" lon="-2.35577">
        <ele>32.799999237061</ele>
        <time>2021-10-21T07:36:59.000Z</time>
      </trkpt>
      <trkpt lat="47.31832" lon="-2.35571">
        <ele>32.799999237061</ele>
        <time>2021-10-21T07:37:00.000Z</time>
      </trkpt>
      <trkpt lat="47.31839" lon="-2.35553">
        <ele>32.799999237061</ele>
        <time>2021-10-21T07:37:03.000Z</time>
      </trkpt>
      <trkpt lat="47.31833" lon="-2.35533">
        <ele>32.799999237061</ele>
        <time>2021-10-21T07:37:06.000Z</time>
      </trkpt>
      <trkpt lat="47.31831" lon="-2.35527">
        <ele>32.400001525879</ele>
        <time>2021-10-21T07:37:07.000Z</time>
      </trkpt>
      <trkpt lat="47.31828" lon="-2.35522">
        <ele>32</ele>
        <time>2021-10-21T07:37:08.000Z</time>
      </trkpt>
      <trkpt lat="47.31826" lon="-2.35517">
        <ele>31.60000038147</ele>
        <time>2021-10-21T07:37:09.000Z</time>
      </trkpt>
      <trkpt lat="47.31824" lon="-2.35512">
        <ele>31</ele>
        <time>2021-10-21T07:37:10.000Z</time>
      </trkpt>
      <trkpt lat="47.31821" lon="-2.35506">
        <ele>30.60000038147</ele>
        <time>2021-10-21T07:37:11.000Z</time>
      </trkpt>
      <trkpt lat="47.31819" lon="-2.35502">
        <ele>30.60000038147</ele>
        <time>2021-10-21T07:37:12.000Z</time>
      </trkpt>
      <trkpt lat="47.3181" lon="-2.3548">
        <ele>30.60000038147</ele>
        <time>2021-10-21T07:37:16.000Z</time>
      </trkpt>
      <trkpt lat="47.31796" lon="-2.35453">
        <ele>31</ele>
        <time>2021-10-21T07:37:23.000Z</time>
      </trkpt>
      <trkpt lat="47.31794" lon="-2.35449">
        <ele>31.39999961853</ele>
        <time>2021-10-21T07:37:24.000Z</time>
      </trkpt>
      <trkpt lat="47.31792" lon="-2.35444">
        <ele>31.799999237061</ele>
        <time>2021-10-21T07:37:25.000Z</time>
      </trkpt>
      <trkpt lat="47.3179" lon="-2.3544">
        <ele>32.200000762939</ele>
        <time>2021-10-21T07:37:26.000Z</time>
      </trkpt>
      <trkpt lat="47.31788" lon="-2.35436">
        <ele>32.799999237061</ele>
        <time>2021-10-21T07:37:27.000Z</time>
      </trkpt>
      <trkpt lat="47.31783" lon="-2.35429">
        <ele>32.799999237061</ele>
        <time>2021-10-21T07:37:29.000Z</time>
      </trkpt>
      <trkpt lat="47.31763" lon="-2.35399">
        <ele>33.200000762939</ele>
        <time>2021-10-21T07:37:35.000Z</time>
      </trkpt>
      <trkpt lat="47.3176" lon="-2.35395">
        <ele>34</ele>
        <time>2021-10-21T07:37:36.000Z</time>
      </trkpt>
      <trkpt lat="47.31758" lon="-2.3539">
        <ele>34.400001525879</ele>
        <time>2021-10-21T07:37:37.000Z</time>
      </trkpt>
      <trkpt lat="47.31756" lon="-2.35387">
        <ele>34.799999237061</ele>
        <time>2021-10-21T07:37:38.000Z</time>
      </trkpt>
      <trkpt lat="47.31753" lon="-2.35381">
        <ele>34.799999237061</ele>
        <time>2021-10-21T07:37:40.000Z</time>
      </trkpt>
      <trkpt lat="47.31749" lon="-2.35369">
        <ele>34.799999237061</ele>
        <time>2021-10-21T07:37:47.000Z</time>
      </trkpt>
      <trkpt lat="47.31752" lon="-2.35366">
        <ele>34.799999237061</ele>
        <time>2021-10-21T07:39:04.000Z</time>
      </trkpt>
      <trkpt lat="47.31757" lon="-2.35362">
        <ele>34.799999237061</ele>
        <time>2021-10-21T07:39:06.000Z</time>
      </trkpt>
      <trkpt lat="47.31764" lon="-2.35356">
        <ele>34.799999237061</ele>
        <time>2021-10-21T07:39:09.000Z</time>
      </trkpt>
      <trkpt lat="47.31768" lon="-2.35354">
        <ele>34.799999237061</ele>
        <time>2021-10-21T07:39:10.000Z</time>
      </trkpt>
      <trkpt lat="47.31786" lon="-2.35341">
        <ele>34.799999237061</ele>
        <time>2021-10-21T07:39:15.000Z</time>
      </trkpt>
      <trkpt lat="47.31804" lon="-2.3533">
        <ele>34.799999237061</ele>
        <time>2021-10-21T07:39:20.000Z</time>
      </trkpt>
      <trkpt lat="47.31827" lon="-2.35317">
        <ele>34.799999237061</ele>
        <time>2021-10-21T07:39:25.000Z</time>
      </trkpt>
      <trkpt lat="47.31837" lon="-2.3531">
        <ele>34.400001525879</ele>
        <time>2021-10-21T07:39:27.000Z</time>
      </trkpt>
      <trkpt lat="47.31841" lon="-2.35306">
        <ele>34</ele>
        <time>2021-10-21T07:39:28.000Z</time>
      </trkpt>
      <trkpt lat="47.31845" lon="-2.35303">
        <ele>33.599998474121</ele>
        <time>2021-10-21T07:39:29.000Z</time>
      </trkpt>
      <trkpt lat="47.31849" lon="-2.353">
        <ele>33.200000762939</ele>
        <time>2021-10-21T07:39:30.000Z</time>
      </trkpt>
      <trkpt lat="47.31853" lon="-2.35297">
        <ele>32.799999237061</ele>
        <time>2021-10-21T07:39:31.000Z</time>
      </trkpt>
      <trkpt lat="47.31857" lon="-2.35293">
        <ele>32.799999237061</ele>
        <time>2021-10-21T07:39:32.000Z</time>
      </trkpt>
      <trkpt lat="47.31874" lon="-2.35279">
        <ele>32.799999237061</ele>
        <time>2021-10-21T07:39:36.000Z</time>
      </trkpt>
      <trkpt lat="47.31901" lon="-2.35256">
        <ele>32.799999237061</ele>
        <time>2021-10-21T07:39:42.000Z</time>
      </trkpt>
      <trkpt lat="47.31917" lon="-2.3524">
        <ele>32.400001525879</ele>
        <time>2021-10-21T07:39:46.000Z</time>
      </trkpt>
      <trkpt lat="47.31921" lon="-2.35236">
        <ele>32</ele>
        <time>2021-10-21T07:39:47.000Z</time>
      </trkpt>
      <trkpt lat="47.31925" lon="-2.35232">
        <ele>31.60000038147</ele>
        <time>2021-10-21T07:39:48.000Z</time>
      </trkpt>
      <trkpt lat="47.31929" lon="-2.35228">
        <ele>31.200000762939</ele>
        <time>2021-10-21T07:39:49.000Z</time>
      </trkpt>
      <trkpt lat="47.31933" lon="-2.35224">
        <ele>30.799999237061</ele>
        <time>2021-10-21T07:39:50.000Z</time>
      </trkpt>
      <trkpt lat="47.31962" lon="-2.35199">
        <ele>30.799999237061</ele>
        <time>2021-10-21T07:39:56.000Z</time>
      </trkpt>
      <trkpt lat="47.31976" lon="-2.35187">
        <ele>30.799999237061</ele>
        <time>2021-10-21T07:39:59.000Z</time>
      </trkpt>
      <trkpt lat="47.3199" lon="-2.35175">
        <ele>30.799999237061</ele>
        <time>2021-10-21T07:40:02.000Z</time>
      </trkpt>
      <trkpt lat="47.31995" lon="-2.35168">
        <ele>30.799999237061</ele>
        <time>2021-10-21T07:40:03.000Z</time>
      </trkpt>
      <trkpt lat="47.32016" lon="-2.35142">
        <ele>30.799999237061</ele>
        <time>2021-10-21T07:40:07.000Z</time>
      </trkpt>
      <trkpt lat="47.32025" lon="-2.35127">
        <ele>30.799999237061</ele>
        <time>2021-10-21T07:40:09.000Z</time>
      </trkpt>
      <trkpt lat="47.3203" lon="-2.35099">
        <ele>30.799999237061</ele>
        <time>2021-10-21T07:40:13.000Z</time>
      </trkpt>
      <trkpt lat="47.32026" lon="-2.3508">
        <ele>30.39999961853</ele>
        <time>2021-10-21T07:40:16.000Z</time>
      </trkpt>
      <trkpt lat="47.32025" lon="-2.35074">
        <ele>30</ele>
        <time>2021-10-21T07:40:17.000Z</time>
      </trkpt>
      <trkpt lat="47.32027" lon="-2.35068">
        <ele>29.60000038147</ele>
        <time>2021-10-21T07:40:18.000Z</time>
      </trkpt>
      <trkpt lat="47.32032" lon="-2.35064">
        <ele>29.200000762939</ele>
        <time>2021-10-21T07:40:19.000Z</time>
      </trkpt>
      <trkpt lat="47.32035" lon="-2.35064">
        <ele>28.799999237061</ele>
        <time>2021-10-21T07:40:20.000Z</time>
      </trkpt>
      <trkpt lat="47.32055" lon="-2.35063">
        <ele>28.799999237061</ele>
        <time>2021-10-21T07:40:24.000Z</time>
      </trkpt>
      <trkpt lat="47.32081" lon="-2.35063">
        <ele>28.799999237061</ele>
        <time>2021-10-21T07:40:29.000Z</time>
      </trkpt>
      <trkpt lat="47.32087" lon="-2.35063">
        <ele>28.799999237061</ele>
        <time>2021-10-21T07:40:30.000Z</time>
      </trkpt>
      <trkpt lat="47.3213" lon="-2.35059">
        <ele>28.799999237061</ele>
        <time>2021-10-21T07:40:38.000Z</time>
      </trkpt>
      <trkpt lat="47.32134" lon="-2.3506">
        <ele>28.799999237061</ele>
        <time>2021-10-21T07:40:39.000Z</time>
      </trkpt>
      <trkpt lat="47.32153" lon="-2.35061">
        <ele>28.799999237061</ele>
        <time>2021-10-21T07:40:43.000Z</time>
      </trkpt>
      <trkpt lat="47.32193" lon="-2.35058">
        <ele>28.799999237061</ele>
        <time>2021-10-21T07:40:51.000Z</time>
      </trkpt>
      <trkpt lat="47.32218" lon="-2.35052">
        <ele>28.799999237061</ele>
        <time>2021-10-21T07:40:56.000Z</time>
      </trkpt>
      <trkpt lat="47.32237" lon="-2.35049">
        <ele>28.799999237061</ele>
        <time>2021-10-21T07:41:00.000Z</time>
      </trkpt>
      <trkpt lat="47.32246" lon="-2.35047">
        <ele>28.799999237061</ele>
        <time>2021-10-21T07:41:02.000Z</time>
      </trkpt>
      <trkpt lat="47.32259" lon="-2.35043">
        <ele>29.200000762939</ele>
        <time>2021-10-21T07:41:05.000Z</time>
      </trkpt>
      <trkpt lat="47.32263" lon="-2.35043">
        <ele>29.60000038147</ele>
        <time>2021-10-21T07:41:06.000Z</time>
      </trkpt>
      <trkpt lat="47.32268" lon="-2.35043">
        <ele>30</ele>
        <time>2021-10-21T07:41:07.000Z</time>
      </trkpt>
      <trkpt lat="47.32273" lon="-2.35042">
        <ele>30.39999961853</ele>
        <time>2021-10-21T07:41:08.000Z</time>
      </trkpt>
      <trkpt lat="47.32277" lon="-2.35042">
        <ele>30.799999237061</ele>
        <time>2021-10-21T07:41:09.000Z</time>
      </trkpt>
      <trkpt lat="47.32298" lon="-2.35045">
        <ele>30.799999237061</ele>
        <time>2021-10-21T07:41:14.000Z</time>
      </trkpt>
      <trkpt lat="47.32309" lon="-2.35047">
        <ele>30.799999237061</ele>
        <time>2021-10-21T07:41:16.000Z</time>
      </trkpt>
      <trkpt lat="47.32324" lon="-2.35048">
        <ele>30.799999237061</ele>
        <time>2021-10-21T07:41:19.000Z</time>
      </trkpt>
      <trkpt lat="47.32339" lon="-2.35047">
        <ele>31.200000762939</ele>
        <time>2021-10-21T07:41:22.000Z</time>
      </trkpt>
      <trkpt lat="47.32343" lon="-2.35048">
        <ele>31.60000038147</ele>
        <time>2021-10-21T07:41:23.000Z</time>
      </trkpt>
      <trkpt lat="47.32348" lon="-2.35048">
        <ele>32</ele>
        <time>2021-10-21T07:41:24.000Z</time>
      </trkpt>
      <trkpt lat="47.32353" lon="-2.35048">
        <ele>32.400001525879</ele>
        <time>2021-10-21T07:41:25.000Z</time>
      </trkpt>
      <trkpt lat="47.32357" lon="-2.35047">
        <ele>32.799999237061</ele>
        <time>2021-10-21T07:41:26.000Z</time>
      </trkpt>
      <trkpt lat="47.3239" lon="-2.35044">
        <ele>32.799999237061</ele>
        <time>2021-10-21T07:41:33.000Z</time>
      </trkpt>
      <trkpt lat="47.32405" lon="-2.35043">
        <ele>32.799999237061</ele>
        <time>2021-10-21T07:41:36.000Z</time>
      </trkpt>
      <trkpt lat="47.32427" lon="-2.35044">
        <ele>32.799999237061</ele>
        <time>2021-10-21T07:41:40.000Z</time>
      </trkpt>
      <trkpt lat="47.32458" lon="-2.35038">
        <ele>32.799999237061</ele>
        <time>2021-10-21T07:41:47.000Z</time>
      </trkpt>
      <trkpt lat="47.32492" lon="-2.3503">
        <ele>32.799999237061</ele>
        <time>2021-10-21T07:41:54.000Z</time>
      </trkpt>
      <trkpt lat="47.32518" lon="-2.35026">
        <ele>32.799999237061</ele>
        <time>2021-10-21T07:41:59.000Z</time>
      </trkpt>
      <trkpt lat="47.32564" lon="-2.35014">
        <ele>32.799999237061</ele>
        <time>2021-10-21T07:42:07.000Z</time>
      </trkpt>
      <trkpt lat="47.3257" lon="-2.35012">
        <ele>32.799999237061</ele>
        <time>2021-10-21T07:42:08.000Z</time>
      </trkpt>
      <trkpt lat="47.32588" lon="-2.35002">
        <ele>32.799999237061</ele>
        <time>2021-10-21T07:42:11.000Z</time>
      </trkpt>
      <trkpt lat="47.3263" lon="-2.34976">
        <ele>32.799999237061</ele>
        <time>2021-10-21T07:42:19.000Z</time>
      </trkpt>
      <trkpt lat="47.32643" lon="-2.34968">
        <ele>32.799999237061</ele>
        <time>2021-10-21T07:42:23.000Z</time>
      </trkpt>
      <trkpt lat="47.32649" lon="-2.34964">
        <ele>32.799999237061</ele>
        <time>2021-10-21T07:42:28.000Z</time>
      </trkpt>
      <trkpt lat="47.3266" lon="-2.34958">
        <ele>32.799999237061</ele>
        <time>2021-10-21T07:42:33.000Z</time>
      </trkpt>
      <trkpt lat="47.32679" lon="-2.34941">
        <ele>32.799999237061</ele>
        <time>2021-10-21T07:42:39.000Z</time>
      </trkpt>
      <trkpt lat="47.32694" lon="-2.34926">
        <ele>32.799999237061</ele>
        <time>2021-10-21T07:42:43.000Z</time>
      </trkpt>
      <trkpt lat="47.32699" lon="-2.34923">
        <ele>32.799999237061</ele>
        <time>2021-10-21T07:42:44.000Z</time>
      </trkpt>
      <trkpt lat="47.32703" lon="-2.34919">
        <ele>32.400001525879</ele>
        <time>2021-10-21T07:42:45.000Z</time>
      </trkpt>
      <trkpt lat="47.32708" lon="-2.34916">
        <ele>32</ele>
        <time>2021-10-21T07:42:46.000Z</time>
      </trkpt>
      <trkpt lat="47.32712" lon="-2.34913">
        <ele>31.60000038147</ele>
        <time>2021-10-21T07:42:47.000Z</time>
      </trkpt>
      <trkpt lat="47.32717" lon="-2.34909">
        <ele>31.200000762939</ele>
        <time>2021-10-21T07:42:48.000Z</time>
      </trkpt>
      <trkpt lat="47.32722" lon="-2.34906">
        <ele>30.60000038147</ele>
        <time>2021-10-21T07:42:49.000Z</time>
      </trkpt>
      <trkpt lat="47.32731" lon="-2.34899">
        <ele>30.60000038147</ele>
        <time>2021-10-21T07:42:51.000Z</time>
      </trkpt>
      <trkpt lat="47.32765" lon="-2.34876">
        <ele>30.60000038147</ele>
        <time>2021-10-21T07:42:58.000Z</time>
      </trkpt>
      <trkpt lat="47.32804" lon="-2.34847">
        <ele>30.60000038147</ele>
        <time>2021-10-21T07:43:06.000Z</time>
      </trkpt>
      <trkpt lat="47.32836" lon="-2.34825">
        <ele>30.60000038147</ele>
        <time>2021-10-21T07:43:12.000Z</time>
      </trkpt>
      <trkpt lat="47.32857" lon="-2.3481">
        <ele>30.200000762939</ele>
        <time>2021-10-21T07:43:16.000Z</time>
      </trkpt>
      <trkpt lat="47.32862" lon="-2.34807">
        <ele>29.799999237061</ele>
        <time>2021-10-21T07:43:17.000Z</time>
      </trkpt>
      <trkpt lat="47.32867" lon="-2.34804">
        <ele>29.39999961853</ele>
        <time>2021-10-21T07:43:18.000Z</time>
      </trkpt>
      <trkpt lat="47.32872" lon="-2.348">
        <ele>29</ele>
        <time>2021-10-21T07:43:19.000Z</time>
      </trkpt>
      <trkpt lat="47.32876" lon="-2.34797">
        <ele>28.60000038147</ele>
        <time>2021-10-21T07:43:20.000Z</time>
      </trkpt>
      <trkpt lat="47.32891" lon="-2.34788">
        <ele>28.60000038147</ele>
        <time>2021-10-21T07:43:23.000Z</time>
      </trkpt>
      <trkpt lat="47.32898" lon="-2.34784">
        <ele>28.60000038147</ele>
        <time>2021-10-21T07:43:25.000Z</time>
      </trkpt>
      <trkpt lat="47.32902" lon="-2.34784">
        <ele>28.60000038147</ele>
        <time>2021-10-21T07:43:26.000Z</time>
      </trkpt>
      <trkpt lat="47.32906" lon="-2.34788">
        <ele>28.60000038147</ele>
        <time>2021-10-21T07:43:28.000Z</time>
      </trkpt>
      <trkpt lat="47.32913" lon="-2.34798">
        <ele>28.60000038147</ele>
        <time>2021-10-21T07:43:33.000Z</time>
      </trkpt>
      <trkpt lat="47.32922" lon="-2.34817">
        <ele>28.60000038147</ele>
        <time>2021-10-21T07:43:38.000Z</time>
      </trkpt>
      <trkpt lat="47.32925" lon="-2.34823">
        <ele>28.60000038147</ele>
        <time>2021-10-21T07:43:39.000Z</time>
      </trkpt>
      <trkpt lat="47.32932" lon="-2.34839">
        <ele>28.60000038147</ele>
        <time>2021-10-21T07:43:42.000Z</time>
      </trkpt>
      <trkpt lat="47.32937" lon="-2.34851">
        <ele>28.60000038147</ele>
        <time>2021-10-21T07:43:44.000Z</time>
      </trkpt>
      <trkpt lat="47.32943" lon="-2.34866">
        <ele>28.60000038147</ele>
        <time>2021-10-21T07:43:47.000Z</time>
      </trkpt>
      <trkpt lat="47.32952" lon="-2.34893">
        <ele>28.60000038147</ele>
        <time>2021-10-21T07:43:52.000Z</time>
      </trkpt>
      <trkpt lat="47.32958" lon="-2.3491">
        <ele>28.60000038147</ele>
        <time>2021-10-21T07:43:55.000Z</time>
      </trkpt>
      <trkpt lat="47.32968" lon="-2.34933">
        <ele>28.60000038147</ele>
        <time>2021-10-21T07:43:59.000Z</time>
      </trkpt>
      <trkpt lat="47.32971" lon="-2.34939">
        <ele>28.60000038147</ele>
        <time>2021-10-21T07:44:00.000Z</time>
      </trkpt>
      <trkpt lat="47.32975" lon="-2.34956">
        <ele>28.60000038147</ele>
        <time>2021-10-21T07:44:03.000Z</time>
      </trkpt>
      <trkpt lat="47.32984" lon="-2.34977">
        <ele>28.60000038147</ele>
        <time>2021-10-21T07:44:08.000Z</time>
      </trkpt>
      <trkpt lat="47.32991" lon="-2.34992">
        <ele>28.60000038147</ele>
        <time>2021-10-21T07:44:13.000Z</time>
      </trkpt>
      <trkpt lat="47.32999" lon="-2.35012">
        <ele>28.60000038147</ele>
        <time>2021-10-21T07:44:19.000Z</time>
      </trkpt>
      <trkpt lat="47.33005" lon="-2.35039">
        <ele>28.60000038147</ele>
        <time>2021-10-21T07:44:25.000Z</time>
      </trkpt>
      <trkpt lat="47.33006" lon="-2.35043">
        <ele>29.200000762939</ele>
        <time>2021-10-21T07:44:26.000Z</time>
      </trkpt>
      <trkpt lat="47.33006" lon="-2.35048">
        <ele>29.60000038147</ele>
        <time>2021-10-21T07:44:27.000Z</time>
      </trkpt>
      <trkpt lat="47.33007" lon="-2.35053">
        <ele>30</ele>
        <time>2021-10-21T07:44:28.000Z</time>
      </trkpt>
      <trkpt lat="47.33008" lon="-2.35057">
        <ele>30.39999961853</ele>
        <time>2021-10-21T07:44:29.000Z</time>
      </trkpt>
      <trkpt lat="47.3301" lon="-2.35061">
        <ele>30.799999237061</ele>
        <time>2021-10-21T07:44:30.000Z</time>
      </trkpt>
      <trkpt lat="47.33011" lon="-2.35066">
        <ele>30.799999237061</ele>
        <time>2021-10-21T07:44:31.000Z</time>
      </trkpt>
      <trkpt lat="47.33015" lon="-2.35094">
        <ele>30.799999237061</ele>
        <time>2021-10-21T07:44:37.000Z</time>
      </trkpt>
      <trkpt lat="47.33019" lon="-2.35122">
        <ele>30.799999237061</ele>
        <time>2021-10-21T07:44:42.000Z</time>
      </trkpt>
      <trkpt lat="47.33021" lon="-2.35156">
        <ele>30.799999237061</ele>
        <time>2021-10-21T07:44:47.000Z</time>
      </trkpt>
      <trkpt lat="47.33023" lon="-2.35161">
        <ele>30.799999237061</ele>
        <time>2021-10-21T07:44:48.000Z</time>
      </trkpt>
      <trkpt lat="47.33032" lon="-2.35173">
        <ele>30.799999237061</ele>
        <time>2021-10-21T07:44:51.000Z</time>
      </trkpt>
      <trkpt lat="47.33038" lon="-2.35176">
        <ele>30.799999237061</ele>
        <time>2021-10-21T07:44:54.000Z</time>
      </trkpt>
      <trkpt lat="47.33042" lon="-2.35175">
        <ele>30.799999237061</ele>
        <time>2021-10-21T07:45:07.000Z</time>
      </trkpt>
      <trkpt lat="47.33049" lon="-2.35165">
        <ele>30.799999237061</ele>
        <time>2021-10-21T07:45:11.000Z</time>
      </trkpt>
      <trkpt lat="47.3305" lon="-2.35161">
        <ele>31.200000762939</ele>
        <time>2021-10-21T07:45:12.000Z</time>
      </trkpt>
      <trkpt lat="47.33052" lon="-2.35156">
        <ele>31.60000038147</ele>
        <time>2021-10-21T07:45:13.000Z</time>
      </trkpt>
      <trkpt lat="47.33053" lon="-2.35151">
        <ele>32.200000762939</ele>
        <time>2021-10-21T07:45:14.000Z</time>
      </trkpt>
      <trkpt lat="47.33055" lon="-2.35147">
        <ele>32.599998474121</ele>
        <time>2021-10-21T07:45:15.000Z</time>
      </trkpt>
      <trkpt lat="47.33057" lon="-2.35143">
        <ele>33</ele>
        <time>2021-10-21T07:45:16.000Z</time>
      </trkpt>
      <trkpt lat="47.33072" lon="-2.35123">
        <ele>33</ele>
        <time>2021-10-21T07:45:21.000Z</time>
      </trkpt>
      <trkpt lat="47.33092" lon="-2.35097">
        <ele>33</ele>
        <time>2021-10-21T07:45:27.000Z</time>
      </trkpt>
      <trkpt lat="47.33103" lon="-2.35086">
        <ele>33</ele>
        <time>2021-10-21T07:45:31.000Z</time>
      </trkpt>
      <trkpt lat="47.33105" lon="-2.35083">
        <ele>32.599998474121</ele>
        <time>2021-10-21T07:45:32.000Z</time>
      </trkpt>
      <trkpt lat="47.33108" lon="-2.35079">
        <ele>32.200000762939</ele>
        <time>2021-10-21T07:45:33.000Z</time>
      </trkpt>
      <trkpt lat="47.3311" lon="-2.35076">
        <ele>31.799999237061</ele>
        <time>2021-10-21T07:45:34.000Z</time>
      </trkpt>
      <trkpt lat="47.33114" lon="-2.35072">
        <ele>31.39999961853</ele>
        <time>2021-10-21T07:45:35.000Z</time>
      </trkpt>
      <trkpt lat="47.33116" lon="-2.35068">
        <ele>31</ele>
        <time>2021-10-21T07:45:36.000Z</time>
      </trkpt>
      <trkpt lat="47.33118" lon="-2.35063">
        <ele>31</ele>
        <time>2021-10-21T07:45:37.000Z</time>
      </trkpt>
      <trkpt lat="47.33123" lon="-2.35054">
        <ele>31</ele>
        <time>2021-10-21T07:45:39.000Z</time>
      </trkpt>
      <trkpt lat="47.33134" lon="-2.35037">
        <ele>31</ele>
        <time>2021-10-21T07:45:42.000Z</time>
      </trkpt>
      <trkpt lat="47.33145" lon="-2.35017">
        <ele>31</ele>
        <time>2021-10-21T07:45:46.000Z</time>
      </trkpt>
      <trkpt lat="47.3315" lon="-2.35008">
        <ele>31</ele>
        <time>2021-10-21T07:45:48.000Z</time>
      </trkpt>
      <trkpt lat="47.33151" lon="-2.35006">
        <ele>31</ele>
        <time>2021-10-21T07:45:49.000Z</time>
      </trkpt>
      <trkpt lat="47.33156" lon="-2.35007">
        <ele>31</ele>
        <time>2021-10-21T07:45:51.000Z</time>
      </trkpt>
      <trkpt lat="47.33166" lon="-2.35017">
        <ele>31</ele>
        <time>2021-10-21T07:45:56.000Z</time>
      </trkpt>
      <trkpt lat="47.33169" lon="-2.3502">
        <ele>31</ele>
        <time>2021-10-21T07:45:58.000Z</time>
      </trkpt>
      <trkpt lat="47.33172" lon="-2.3502">
        <ele>31</ele>
        <time>2021-10-21T07:46:00.000Z</time>
      </trkpt>
      <trkpt lat="47.33177" lon="-2.35014">
        <ele>31</ele>
        <time>2021-10-21T07:46:02.000Z</time>
      </trkpt>
      <trkpt lat="47.33183" lon="-2.35007">
        <ele>31</ele>
        <time>2021-10-21T07:46:04.000Z</time>
      </trkpt>
      <trkpt lat="47.33196" lon="-2.34992">
        <ele>31</ele>
        <time>2021-10-21T07:46:08.000Z</time>
      </trkpt>
      <trkpt lat="47.33214" lon="-2.34978">
        <ele>31</ele>
        <time>2021-10-21T07:46:13.000Z</time>
      </trkpt>
      <trkpt lat="47.33238" lon="-2.34963">
        <ele>31</ele>
        <time>2021-10-21T07:46:19.000Z</time>
      </trkpt>
      <trkpt lat="47.33257" lon="-2.34955">
        <ele>31</ele>
        <time>2021-10-21T07:46:24.000Z</time>
      </trkpt>
      <trkpt lat="47.33276" lon="-2.34943">
        <ele>31</ele>
        <time>2021-10-21T07:46:29.000Z</time>
      </trkpt>
      <trkpt lat="47.33305" lon="-2.34939">
        <ele>31</ele>
        <time>2021-10-21T07:46:37.000Z</time>
      </trkpt>
      <trkpt lat="47.33311" lon="-2.34941">
        <ele>31</ele>
        <time>2021-10-21T07:46:41.000Z</time>
      </trkpt>
      <trkpt lat="47.33314" lon="-2.3494">
        <ele>31</ele>
        <time>2021-10-21T07:46:44.000Z</time>
      </trkpt>
      <trkpt lat="47.33317" lon="-2.34937">
        <ele>31</ele>
        <time>2021-10-21T07:46:47.000Z</time>
      </trkpt>
      <trkpt lat="47.33319" lon="-2.34936">
        <ele>31</ele>
        <time>2021-10-21T07:46:49.000Z</time>
      </trkpt>
      <trkpt lat="47.33322" lon="-2.34935">
        <ele>31</ele>
        <time>2021-10-21T07:46:52.000Z</time>
      </trkpt>
      <trkpt lat="47.33324" lon="-2.34935">
        <ele>31</ele>
        <time>2021-10-21T07:46:53.000Z</time>
      </trkpt>
      <trkpt lat="47.33331" lon="-2.34935">
        <ele>31</ele>
        <time>2021-10-21T07:46:57.000Z</time>
      </trkpt>
      <trkpt lat="47.33335" lon="-2.34938">
        <ele>31</ele>
        <time>2021-10-21T07:46:59.000Z</time>
      </trkpt>
      <trkpt lat="47.33346" lon="-2.34936">
        <ele>31</ele>
        <time>2021-10-21T07:47:04.000Z</time>
      </trkpt>
      <trkpt lat="47.33363" lon="-2.34931">
        <ele>31</ele>
        <time>2021-10-21T07:47:08.000Z</time>
      </trkpt>
      <trkpt lat="47.33376" lon="-2.34932">
        <ele>31</ele>
        <time>2021-10-21T07:47:13.000Z</time>
      </trkpt>
      <trkpt lat="47.33379" lon="-2.34932">
        <ele>31.39999961853</ele>
        <time>2021-10-21T07:47:14.000Z</time>
      </trkpt>
      <trkpt lat="47.33382" lon="-2.34931">
        <ele>31.799999237061</ele>
        <time>2021-10-21T07:47:15.000Z</time>
      </trkpt>
      <trkpt lat="47.33385" lon="-2.3493">
        <ele>32.200000762939</ele>
        <time>2021-10-21T07:47:16.000Z</time>
      </trkpt>
      <trkpt lat="47.33389" lon="-2.34928">
        <ele>32.599998474121</ele>
        <time>2021-10-21T07:47:17.000Z</time>
      </trkpt>
      <trkpt lat="47.33392" lon="-2.34926">
        <ele>33</ele>
        <time>2021-10-21T07:47:18.000Z</time>
      </trkpt>
      <trkpt lat="47.33395" lon="-2.34925">
        <ele>33</ele>
        <time>2021-10-21T07:47:19.000Z</time>
      </trkpt>
      <trkpt lat="47.33417" lon="-2.34917">
        <ele>33</ele>
        <time>2021-10-21T07:47:25.000Z</time>
      </trkpt>
      <trkpt lat="47.33443" lon="-2.34906">
        <ele>33</ele>
        <time>2021-10-21T07:47:32.000Z</time>
      </trkpt>
      <trkpt lat="47.33467" lon="-2.34898">
        <ele>33</ele>
        <time>2021-10-21T07:47:38.000Z</time>
      </trkpt>
      <trkpt lat="47.33494" lon="-2.3489">
        <ele>33</ele>
        <time>2021-10-21T07:47:45.000Z</time>
      </trkpt>
      <trkpt lat="47.33514" lon="-2.34896">
        <ele>33</ele>
        <time>2021-10-21T07:47:52.000Z</time>
      </trkpt>
      <trkpt lat="47.33538" lon="-2.34907">
        <ele>33</ele>
        <time>2021-10-21T07:47:58.000Z</time>
      </trkpt>
      <trkpt lat="47.33577" lon="-2.34924">
        <ele>33</ele>
        <time>2021-10-21T07:48:05.000Z</time>
      </trkpt>
      <trkpt lat="47.33604" lon="-2.34941">
        <ele>33</ele>
        <time>2021-10-21T07:48:10.000Z</time>
      </trkpt>
      <trkpt lat="47.33608" lon="-2.34945">
        <ele>33</ele>
        <time>2021-10-21T07:48:11.000Z</time>
      </trkpt>
      <trkpt lat="47.33627" lon="-2.34961">
        <ele>33</ele>
        <time>2021-10-21T07:48:16.000Z</time>
      </trkpt>
      <trkpt lat="47.33642" lon="-2.34968">
        <ele>32.599998474121</ele>
        <time>2021-10-21T07:48:20.000Z</time>
      </trkpt>
      <trkpt lat="47.33646" lon="-2.34968">
        <ele>32.200000762939</ele>
        <time>2021-10-21T07:48:21.000Z</time>
      </trkpt>
      <trkpt lat="47.3365" lon="-2.34966">
        <ele>31.799999237061</ele>
        <time>2021-10-21T07:48:22.000Z</time>
      </trkpt>
      <trkpt lat="47.33655" lon="-2.34966">
        <ele>31.200000762939</ele>
        <time>2021-10-21T07:48:23.000Z</time>
      </trkpt>
      <trkpt lat="47.33659" lon="-2.34966">
        <ele>30.799999237061</ele>
        <time>2021-10-21T07:48:24.000Z</time>
      </trkpt>
      <trkpt lat="47.33669" lon="-2.3497">
        <ele>30.799999237061</ele>
        <time>2021-10-21T07:48:26.000Z</time>
      </trkpt>
      <trkpt lat="47.33682" lon="-2.34985">
        <ele>30.799999237061</ele>
        <time>2021-10-21T07:48:30.000Z</time>
      </trkpt>
      <trkpt lat="47.337" lon="-2.35005">
        <ele>30.799999237061</ele>
        <time>2021-10-21T07:48:36.000Z</time>
      </trkpt>
      <trkpt lat="47.33716" lon="-2.3503">
        <ele>30.799999237061</ele>
        <time>2021-10-21T07:48:43.000Z</time>
      </trkpt>
      <trkpt lat="47.33733" lon="-2.35053">
        <ele>30.799999237061</ele>
        <time>2021-10-21T07:48:50.000Z</time>
      </trkpt>
      <trkpt lat="47.33756" lon="-2.35074">
        <ele>30.799999237061</ele>
        <time>2021-10-21T07:48:57.000Z</time>
      </trkpt>
      <trkpt lat="47.33783" lon="-2.35091">
        <ele>30.799999237061</ele>
        <time>2021-10-21T07:49:04.000Z</time>
      </trkpt>
      <trkpt lat="47.33805" lon="-2.35104">
        <ele>30.799999237061</ele>
        <time>2021-10-21T07:49:10.000Z</time>
      </trkpt>
      <trkpt lat="47.33831" lon="-2.35117">
        <ele>30.799999237061</ele>
        <time>2021-10-21T07:49:17.000Z</time>
      </trkpt>
      <trkpt lat="47.3385" lon="-2.35129">
        <ele>30.799999237061</ele>
        <time>2021-10-21T07:49:22.000Z</time>
      </trkpt>
      <trkpt lat="47.33854" lon="-2.35131">
        <ele>31.200000762939</ele>
        <time>2021-10-21T07:49:23.000Z</time>
      </trkpt>
      <trkpt lat="47.33858" lon="-2.35134">
        <ele>31.799999237061</ele>
        <time>2021-10-21T07:49:24.000Z</time>
      </trkpt>
      <trkpt lat="47.33861" lon="-2.35138">
        <ele>32.200000762939</ele>
        <time>2021-10-21T07:49:25.000Z</time>
      </trkpt>
      <trkpt lat="47.33865" lon="-2.35141">
        <ele>32.599998474121</ele>
        <time>2021-10-21T07:49:26.000Z</time>
      </trkpt>
      <trkpt lat="47.33869" lon="-2.35145">
        <ele>33</ele>
        <time>2021-10-21T07:49:27.000Z</time>
      </trkpt>
      <trkpt lat="47.3388" lon="-2.35155">
        <ele>33</ele>
        <time>2021-10-21T07:49:30.000Z</time>
      </trkpt>
      <trkpt lat="47.33884" lon="-2.35158">
        <ele>33</ele>
        <time>2021-10-21T07:49:31.000Z</time>
      </trkpt>
      <trkpt lat="47.33913" lon="-2.35182">
        <ele>33</ele>
        <time>2021-10-21T07:49:38.000Z</time>
      </trkpt>
      <trkpt lat="47.33936" lon="-2.35211">
        <ele>33</ele>
        <time>2021-10-21T07:49:45.000Z</time>
      </trkpt>
      <trkpt lat="47.33942" lon="-2.35222">
        <ele>33</ele>
        <time>2021-10-21T07:49:47.000Z</time>
      </trkpt>
      <trkpt lat="47.33949" lon="-2.3524">
        <ele>33</ele>
        <time>2021-10-21T07:49:50.000Z</time>
      </trkpt>
      <trkpt lat="47.3395" lon="-2.35246">
        <ele>33</ele>
        <time>2021-10-21T07:49:51.000Z</time>
      </trkpt>
      <trkpt lat="47.33958" lon="-2.35262">
        <ele>33</ele>
        <time>2021-10-21T07:49:54.000Z</time>
      </trkpt>
      <trkpt lat="47.33965" lon="-2.35273">
        <ele>33</ele>
        <time>2021-10-21T07:49:56.000Z</time>
      </trkpt>
      <trkpt lat="47.33989" lon="-2.35299">
        <ele>32.599998474121</ele>
        <time>2021-10-21T07:50:01.000Z</time>
      </trkpt>
      <trkpt lat="47.33994" lon="-2.35304">
        <ele>32</ele>
        <time>2021-10-21T07:50:02.000Z</time>
      </trkpt>
      <trkpt lat="47.34" lon="-2.35309">
        <ele>31.60000038147</ele>
        <time>2021-10-21T07:50:03.000Z</time>
      </trkpt>
      <trkpt lat="47.34005" lon="-2.35314">
        <ele>31.200000762939</ele>
        <time>2021-10-21T07:50:04.000Z</time>
      </trkpt>
      <trkpt lat="47.3401" lon="-2.35319">
        <ele>30.799999237061</ele>
        <time>2021-10-21T07:50:05.000Z</time>
      </trkpt>
      <trkpt lat="47.34035" lon="-2.35342">
        <ele>30.799999237061</ele>
        <time>2021-10-21T07:50:10.000Z</time>
      </trkpt>
      <trkpt lat="47.34044" lon="-2.35351">
        <ele>30.39999961853</ele>
        <time>2021-10-21T07:50:12.000Z</time>
      </trkpt>
      <trkpt lat="47.34048" lon="-2.35356">
        <ele>30</ele>
        <time>2021-10-21T07:50:13.000Z</time>
      </trkpt>
      <trkpt lat="47.34052" lon="-2.35362">
        <ele>29.60000038147</ele>
        <time>2021-10-21T07:50:14.000Z</time>
      </trkpt>
      <trkpt lat="47.34056" lon="-2.35368">
        <ele>29</ele>
        <time>2021-10-21T07:50:15.000Z</time>
      </trkpt>
      <trkpt lat="47.3406" lon="-2.35374">
        <ele>28.60000038147</ele>
        <time>2021-10-21T07:50:16.000Z</time>
      </trkpt>
      <trkpt lat="47.34081" lon="-2.35426">
        <ele>28.60000038147</ele>
        <time>2021-10-21T07:50:23.000Z</time>
      </trkpt>
      <trkpt lat="47.34103" lon="-2.35483">
        <ele>28.60000038147</ele>
        <time>2021-10-21T07:50:31.000Z</time>
      </trkpt>
      <trkpt lat="47.3412" lon="-2.35535">
        <ele>28.60000038147</ele>
        <time>2021-10-21T07:50:38.000Z</time>
      </trkpt>
      <trkpt lat="47.34139" lon="-2.35589">
        <ele>28.60000038147</ele>
        <time>2021-10-21T07:50:46.000Z</time>
      </trkpt>
      <trkpt lat="47.3416" lon="-2.3563">
        <ele>28.60000038147</ele>
        <time>2021-10-21T07:50:53.000Z</time>
      </trkpt>
      <trkpt lat="47.3418" lon="-2.35664">
        <ele>28.200000762939</ele>
        <time>2021-10-21T07:50:59.000Z</time>
      </trkpt>
      <trkpt lat="47.34183" lon="-2.35671">
        <ele>27.799999237061</ele>
        <time>2021-10-21T07:51:00.000Z</time>
      </trkpt>
      <trkpt lat="47.34187" lon="-2.35677">
        <ele>27.39999961853</ele>
        <time>2021-10-21T07:51:01.000Z</time>
      </trkpt>
      <trkpt lat="47.3419" lon="-2.35683">
        <ele>27</ele>
        <time>2021-10-21T07:51:02.000Z</time>
      </trkpt>
      <trkpt lat="47.34194" lon="-2.35689">
        <ele>26.60000038147</ele>
        <time>2021-10-21T07:51:03.000Z</time>
      </trkpt>
      <trkpt lat="47.342" lon="-2.35697">
        <ele>26.200000762939</ele>
        <time>2021-10-21T07:51:05.000Z</time>
      </trkpt>
      <trkpt lat="47.34202" lon="-2.357">
        <ele>25.799999237061</ele>
        <time>2021-10-21T07:51:06.000Z</time>
      </trkpt>
      <trkpt lat="47.34204" lon="-2.35702">
        <ele>25.39999961853</ele>
        <time>2021-10-21T07:51:07.000Z</time>
      </trkpt>
      <trkpt lat="47.34205" lon="-2.35703">
        <ele>25</ele>
        <time>2021-10-21T07:51:08.000Z</time>
      </trkpt>
      <trkpt lat="47.34206" lon="-2.35706">
        <ele>24.60000038147</ele>
        <time>2021-10-21T07:51:09.000Z</time>
      </trkpt>
      <trkpt lat="47.34207" lon="-2.35709">
        <ele>24.60000038147</ele>
        <time>2021-10-21T07:51:10.000Z</time>
      </trkpt>
      <trkpt lat="47.34208" lon="-2.35713">
        <ele>24.200000762939</ele>
        <time>2021-10-21T07:51:12.000Z</time>
      </trkpt>
      <trkpt lat="47.34209" lon="-2.35715">
        <ele>23.799999237061</ele>
        <time>2021-10-21T07:51:13.000Z</time>
      </trkpt>
      <trkpt lat="47.3421" lon="-2.35719">
        <ele>23.39999961853</ele>
        <time>2021-10-21T07:51:14.000Z</time>
      </trkpt>
      <trkpt lat="47.34212" lon="-2.35723">
        <ele>22.799999237061</ele>
        <time>2021-10-21T07:51:15.000Z</time>
      </trkpt>
      <trkpt lat="47.34213" lon="-2.35726">
        <ele>22.39999961853</ele>
        <time>2021-10-21T07:51:16.000Z</time>
      </trkpt>
      <trkpt lat="47.34216" lon="-2.35729">
        <ele>22</ele>
        <time>2021-10-21T07:51:17.000Z</time>
      </trkpt>
      <trkpt lat="47.34219" lon="-2.35732">
        <ele>21.39999961853</ele>
        <time>2021-10-21T07:51:18.000Z</time>
      </trkpt>
      <trkpt lat="47.34221" lon="-2.35737">
        <ele>21</ele>
        <time>2021-10-21T07:51:19.000Z</time>
      </trkpt>
      <trkpt lat="47.34223" lon="-2.35743">
        <ele>20.39999961853</ele>
        <time>2021-10-21T07:51:20.000Z</time>
      </trkpt>
      <trkpt lat="47.34225" lon="-2.3575">
        <ele>20</ele>
        <time>2021-10-21T07:51:21.000Z</time>
      </trkpt>
      <trkpt lat="47.34227" lon="-2.35764">
        <ele>20</ele>
        <time>2021-10-21T07:51:23.000Z</time>
      </trkpt>
      <trkpt lat="47.34232" lon="-2.35785">
        <ele>20</ele>
        <time>2021-10-21T07:51:26.000Z</time>
      </trkpt>
      <trkpt lat="47.34239" lon="-2.35804">
        <ele>20</ele>
        <time>2021-10-21T07:51:29.000Z</time>
      </trkpt>
      <trkpt lat="47.34249" lon="-2.35835">
        <ele>20</ele>
        <time>2021-10-21T07:51:34.000Z</time>
      </trkpt>
      <trkpt lat="47.3425" lon="-2.35842">
        <ele>20</ele>
        <time>2021-10-21T07:51:35.000Z</time>
      </trkpt>
      <trkpt lat="47.34252" lon="-2.35869">
        <ele>20</ele>
        <time>2021-10-21T07:51:40.000Z</time>
      </trkpt>
      <trkpt lat="47.34248" lon="-2.35905">
        <ele>20</ele>
        <time>2021-10-21T07:51:46.000Z</time>
      </trkpt>
      <trkpt lat="47.34244" lon="-2.35943">
        <ele>20</ele>
        <time>2021-10-21T07:51:53.000Z</time>
      </trkpt>
      <trkpt lat="47.34254" lon="-2.35949">
        <ele>20</ele>
        <time>2021-10-21T07:51:56.000Z</time>
      </trkpt>
      <trkpt lat="47.34273" lon="-2.35949">
        <ele>20</ele>
        <time>2021-10-21T07:52:01.000Z</time>
      </trkpt>
      <trkpt lat="47.34284" lon="-2.3595">
        <ele>20.39999961853</ele>
        <time>2021-10-21T07:52:04.000Z</time>
      </trkpt>
      <trkpt lat="47.34287" lon="-2.35951">
        <ele>20.799999237061</ele>
        <time>2021-10-21T07:52:05.000Z</time>
      </trkpt>
      <trkpt lat="47.34291" lon="-2.35951">
        <ele>21.200000762939</ele>
        <time>2021-10-21T07:52:06.000Z</time>
      </trkpt>
      <trkpt lat="47.34294" lon="-2.35952">
        <ele>21.799999237061</ele>
        <time>2021-10-21T07:52:07.000Z</time>
      </trkpt>
      <trkpt lat="47.34298" lon="-2.35953">
        <ele>22.200000762939</ele>
        <time>2021-10-21T07:52:08.000Z</time>
      </trkpt>
      <trkpt lat="47.34306" lon="-2.35955">
        <ele>22.200000762939</ele>
        <time>2021-10-21T07:52:10.000Z</time>
      </trkpt>
      <trkpt lat="47.3431" lon="-2.35956">
        <ele>22.60000038147</ele>
        <time>2021-10-21T07:52:11.000Z</time>
      </trkpt>
      <trkpt lat="47.34314" lon="-2.35956">
        <ele>23</ele>
        <time>2021-10-21T07:52:12.000Z</time>
      </trkpt>
      <trkpt lat="47.34318" lon="-2.35957">
        <ele>23.39999961853</ele>
        <time>2021-10-21T07:52:13.000Z</time>
      </trkpt>
      <trkpt lat="47.34322" lon="-2.35958">
        <ele>23.799999237061</ele>
        <time>2021-10-21T07:52:14.000Z</time>
      </trkpt>
      <trkpt lat="47.34326" lon="-2.3596">
        <ele>24.200000762939</ele>
        <time>2021-10-21T07:52:15.000Z</time>
      </trkpt>
      <trkpt lat="47.34337" lon="-2.35965">
        <ele>24.200000762939</ele>
        <time>2021-10-21T07:52:18.000Z</time>
      </trkpt>
      <trkpt lat="47.34365" lon="-2.35979">
        <ele>24.200000762939</ele>
        <time>2021-10-21T07:52:25.000Z</time>
      </trkpt>
      <trkpt lat="47.34386" lon="-2.35989">
        <ele>24.200000762939</ele>
        <time>2021-10-21T07:52:30.000Z</time>
      </trkpt>
      <trkpt lat="47.34395" lon="-2.35993">
        <ele>24.200000762939</ele>
        <time>2021-10-21T07:52:32.000Z</time>
      </trkpt>
      <trkpt lat="47.34399" lon="-2.35995">
        <ele>24.200000762939</ele>
        <time>2021-10-21T07:52:33.000Z</time>
      </trkpt>
      <trkpt lat="47.34413" lon="-2.35993">
        <ele>24.200000762939</ele>
        <time>2021-10-21T07:52:36.000Z</time>
      </trkpt>
      <trkpt lat="47.34424" lon="-2.35984">
        <ele>24.200000762939</ele>
        <time>2021-10-21T07:52:39.000Z</time>
      </trkpt>
      <trkpt lat="47.34436" lon="-2.35974">
        <ele>24.200000762939</ele>
        <time>2021-10-21T07:52:42.000Z</time>
      </trkpt>
      <trkpt lat="47.34463" lon="-2.35951">
        <ele>24.200000762939</ele>
        <time>2021-10-21T07:52:48.000Z</time>
      </trkpt>
      <trkpt lat="47.34501" lon="-2.35931">
        <ele>23.799999237061</ele>
        <time>2021-10-21T07:52:55.000Z</time>
      </trkpt>
      <trkpt lat="47.34507" lon="-2.35928">
        <ele>23.39999961853</ele>
        <time>2021-10-21T07:52:56.000Z</time>
      </trkpt>
      <trkpt lat="47.34513" lon="-2.35926">
        <ele>23</ele>
        <time>2021-10-21T07:52:57.000Z</time>
      </trkpt>
      <trkpt lat="47.34519" lon="-2.35923">
        <ele>22.60000038147</ele>
        <time>2021-10-21T07:52:58.000Z</time>
      </trkpt>
      <trkpt lat="47.34524" lon="-2.35921">
        <ele>22.200000762939</ele>
        <time>2021-10-21T07:52:59.000Z</time>
      </trkpt>
      <trkpt lat="47.34546" lon="-2.35912">
        <ele>22.200000762939</ele>
        <time>2021-10-21T07:53:03.000Z</time>
      </trkpt>
      <trkpt lat="47.34557" lon="-2.35906">
        <ele>22.200000762939</ele>
        <time>2021-10-21T07:53:05.000Z</time>
      </trkpt>
      <trkpt lat="47.34569" lon="-2.35898">
        <ele>21.799999237061</ele>
        <time>2021-10-21T07:53:07.000Z</time>
      </trkpt>
      <trkpt lat="47.34575" lon="-2.35894">
        <ele>21.39999961853</ele>
        <time>2021-10-21T07:53:08.000Z</time>
      </trkpt>
      <trkpt lat="47.34581" lon="-2.3589">
        <ele>21</ele>
        <time>2021-10-21T07:53:09.000Z</time>
      </trkpt>
      <trkpt lat="47.34587" lon="-2.35885">
        <ele>20.60000038147</ele>
        <time>2021-10-21T07:53:10.000Z</time>
      </trkpt>
      <trkpt lat="47.34592" lon="-2.3588">
        <ele>20.200000762939</ele>
        <time>2021-10-21T07:53:11.000Z</time>
      </trkpt>
      <trkpt lat="47.34612" lon="-2.35863">
        <ele>20.200000762939</ele>
        <time>2021-10-21T07:53:15.000Z</time>
      </trkpt>
      <trkpt lat="47.34648" lon="-2.35833">
        <ele>20.200000762939</ele>
        <time>2021-10-21T07:53:23.000Z</time>
      </trkpt>
      <trkpt lat="47.34691" lon="-2.358">
        <ele>20.200000762939</ele>
        <time>2021-10-21T07:53:32.000Z</time>
      </trkpt>
      <trkpt lat="47.34724" lon="-2.35774">
        <ele>20.200000762939</ele>
        <time>2021-10-21T07:53:39.000Z</time>
      </trkpt>
      <trkpt lat="47.34745" lon="-2.35758">
        <ele>20.200000762939</ele>
        <time>2021-10-21T07:53:44.000Z</time>
      </trkpt>
      <trkpt lat="47.34765" lon="-2.35749">
        <ele>20.200000762939</ele>
        <time>2021-10-21T07:53:50.000Z</time>
      </trkpt>
      <trkpt lat="47.34783" lon="-2.35741">
        <ele>20.200000762939</ele>
        <time>2021-10-21T07:53:55.000Z</time>
      </trkpt>
      <trkpt lat="47.34808" lon="-2.35729">
        <ele>20.200000762939</ele>
        <time>2021-10-21T07:54:02.000Z</time>
      </trkpt>
      <trkpt lat="47.34833" lon="-2.35718">
        <ele>20.200000762939</ele>
        <time>2021-10-21T07:54:09.000Z</time>
      </trkpt>
      <trkpt lat="47.34843" lon="-2.35704">
        <ele>20.200000762939</ele>
        <time>2021-10-21T07:54:12.000Z</time>
      </trkpt>
      <trkpt lat="47.34846" lon="-2.35698">
        <ele>20.200000762939</ele>
        <time>2021-10-21T07:54:13.000Z</time>
      </trkpt>
      <trkpt lat="47.34857" lon="-2.35668">
        <ele>20.200000762939</ele>
        <time>2021-10-21T07:54:19.000Z</time>
      </trkpt>
      <trkpt lat="47.34857" lon="-2.35663">
        <ele>20.200000762939</ele>
        <time>2021-10-21T07:54:21.000Z</time>
      </trkpt>
      <trkpt lat="47.34855" lon="-2.35661">
        <ele>20.200000762939</ele>
        <time>2021-10-21T07:54:22.000Z</time>
      </trkpt>
      <trkpt lat="47.34847" lon="-2.35656">
        <ele>20.200000762939</ele>
        <time>2021-10-21T07:54:25.000Z</time>
      </trkpt>
      <trkpt lat="47.34843" lon="-2.35654">
        <ele>20.200000762939</ele>
        <time>2021-10-21T07:54:26.000Z</time>
      </trkpt>
      <trkpt lat="47.34816" lon="-2.35638">
        <ele>20.200000762939</ele>
        <time>2021-10-21T07:54:33.000Z</time>
      </trkpt>
      <trkpt lat="47.34784" lon="-2.35607">
        <ele>20.200000762939</ele>
        <time>2021-10-21T07:54:42.000Z</time>
      </trkpt>
      <trkpt lat="47.34752" lon="-2.35569">
        <ele>20.200000762939</ele>
        <time>2021-10-21T07:54:51.000Z</time>
      </trkpt>
      <trkpt lat="47.34729" lon="-2.35535">
        <ele>20.200000762939</ele>
        <time>2021-10-21T07:54:57.000Z</time>
      </trkpt>
      <trkpt lat="47.34709" lon="-2.35502">
        <ele>20.200000762939</ele>
        <time>2021-10-21T07:55:03.000Z</time>
      </trkpt>
      <trkpt lat="47.34686" lon="-2.35462">
        <ele>20.200000762939</ele>
        <time>2021-10-21T07:55:11.000Z</time>
      </trkpt>
      <trkpt lat="47.34666" lon="-2.35431">
        <ele>20.200000762939</ele>
        <time>2021-10-21T07:55:18.000Z</time>
      </trkpt>
      <trkpt lat="47.34651" lon="-2.35407">
        <ele>20.200000762939</ele>
        <time>2021-10-21T07:55:25.000Z</time>
      </trkpt>
      <trkpt lat="47.34651" lon="-2.35404">
        <ele>19.799999237061</ele>
        <time>2021-10-21T07:55:26.000Z</time>
      </trkpt>
      <trkpt lat="47.34653" lon="-2.35402">
        <ele>19.39999961853</ele>
        <time>2021-10-21T07:55:27.000Z</time>
      </trkpt>
      <trkpt lat="47.34654" lon="-2.35402">
        <ele>18.799999237061</ele>
        <time>2021-10-21T07:55:28.000Z</time>
      </trkpt>
      <trkpt lat="47.34656" lon="-2.35401">
        <ele>18.39999961853</ele>
        <time>2021-10-21T07:55:29.000Z</time>
      </trkpt>
      <trkpt lat="47.34658" lon="-2.35401">
        <ele>18</ele>
        <time>2021-10-21T07:55:30.000Z</time>
      </trkpt>
      <trkpt lat="47.3466" lon="-2.35402">
        <ele>18</ele>
        <time>2021-10-21T07:55:31.000Z</time>
      </trkpt>
      <trkpt lat="47.34662" lon="-2.35401">
        <ele>18</ele>
        <time>2021-10-21T07:55:32.000Z</time>
      </trkpt>
      <trkpt lat="47.34665" lon="-2.35401">
        <ele>18</ele>
        <time>2021-10-21T07:55:33.000Z</time>
      </trkpt>
      <trkpt lat="47.34678" lon="-2.35399">
        <ele>18</ele>
        <time>2021-10-21T07:55:37.000Z</time>
      </trkpt>
      <trkpt lat="47.34682" lon="-2.35399">
        <ele>18</ele>
        <time>2021-10-21T07:55:38.000Z</time>
      </trkpt>
      <trkpt lat="47.34698" lon="-2.35395">
        <ele>18</ele>
        <time>2021-10-21T07:55:43.000Z</time>
      </trkpt>
      <trkpt lat="47.34709" lon="-2.35384">
        <ele>18</ele>
        <time>2021-10-21T07:55:48.000Z</time>
      </trkpt>
      <trkpt lat="47.34714" lon="-2.35377">
        <ele>18.39999961853</ele>
        <time>2021-10-21T07:55:50.000Z</time>
      </trkpt>
      <trkpt lat="47.34716" lon="-2.35374">
        <ele>18.799999237061</ele>
        <time>2021-10-21T07:55:51.000Z</time>
      </trkpt>
      <trkpt lat="47.34719" lon="-2.3537">
        <ele>19.200000762939</ele>
        <time>2021-10-21T07:55:52.000Z</time>
      </trkpt>
      <trkpt lat="47.34721" lon="-2.35366">
        <ele>19.60000038147</ele>
        <time>2021-10-21T07:55:53.000Z</time>
      </trkpt>
      <trkpt lat="47.34722" lon="-2.35362">
        <ele>20</ele>
        <time>2021-10-21T07:55:54.000Z</time>
      </trkpt>
      <trkpt lat="47.34728" lon="-2.35348">
        <ele>20</ele>
        <time>2021-10-21T07:55:59.000Z</time>
      </trkpt>
      <trkpt lat="47.34728" lon="-2.35335">
        <ele>20</ele>
        <time>2021-10-21T07:56:02.000Z</time>
      </trkpt>
      <trkpt lat="47.34734" lon="-2.35305">
        <ele>20</ele>
        <time>2021-10-21T07:56:08.000Z</time>
      </trkpt>
      <trkpt lat="47.34744" lon="-2.35283">
        <ele>20</ele>
        <time>2021-10-21T07:56:12.000Z</time>
      </trkpt>
      <trkpt lat="47.34746" lon="-2.35277">
        <ele>20</ele>
        <time>2021-10-21T07:56:13.000Z</time>
      </trkpt>
      <trkpt lat="47.3475" lon="-2.35264">
        <ele>20</ele>
        <time>2021-10-21T07:56:15.000Z</time>
      </trkpt>
      <trkpt lat="47.34755" lon="-2.35242">
        <ele>20</ele>
        <time>2021-10-21T07:56:18.000Z</time>
      </trkpt>
      <trkpt lat="47.34757" lon="-2.35236">
        <ele>20</ele>
        <time>2021-10-21T07:56:19.000Z</time>
      </trkpt>
      <trkpt lat="47.34761" lon="-2.35222">
        <ele>20</ele>
        <time>2021-10-21T07:56:22.000Z</time>
      </trkpt>
      <trkpt lat="47.3476" lon="-2.35205">
        <ele>20</ele>
        <time>2021-10-21T07:56:27.000Z</time>
      </trkpt>
      <trkpt lat="47.34763" lon="-2.35184">
        <ele>20</ele>
        <time>2021-10-21T07:56:31.000Z</time>
      </trkpt>
      <trkpt lat="47.34764" lon="-2.35172">
        <ele>19.60000038147</ele>
        <time>2021-10-21T07:56:33.000Z</time>
      </trkpt>
      <trkpt lat="47.34763" lon="-2.35167">
        <ele>19.200000762939</ele>
        <time>2021-10-21T07:56:34.000Z</time>
      </trkpt>
      <trkpt lat="47.34761" lon="-2.35162">
        <ele>18.799999237061</ele>
        <time>2021-10-21T07:56:35.000Z</time>
      </trkpt>
      <trkpt lat="47.34759" lon="-2.35159">
        <ele>18.39999961853</ele>
        <time>2021-10-21T07:56:36.000Z</time>
      </trkpt>
      <trkpt lat="47.34757" lon="-2.35154">
        <ele>18</ele>
        <time>2021-10-21T07:56:37.000Z</time>
      </trkpt>
      <trkpt lat="47.34752" lon="-2.35143">
        <ele>18</ele>
        <time>2021-10-21T07:56:40.000Z</time>
      </trkpt>
      <trkpt lat="47.34741" lon="-2.35132">
        <ele>18</ele>
        <time>2021-10-21T07:56:44.000Z</time>
      </trkpt>
      <trkpt lat="47.3473" lon="-2.35107">
        <ele>18</ele>
        <time>2021-10-21T07:56:49.000Z</time>
      </trkpt>
      <trkpt lat="47.34714" lon="-2.35082">
        <ele>18</ele>
        <time>2021-10-21T07:56:54.000Z</time>
      </trkpt>
      <trkpt lat="47.3471" lon="-2.35078">
        <ele>18</ele>
        <time>2021-10-21T07:56:55.000Z</time>
      </trkpt>
      <trkpt lat="47.34697" lon="-2.35062">
        <ele>18</ele>
        <time>2021-10-21T07:56:59.000Z</time>
      </trkpt>
      <trkpt lat="47.34682" lon="-2.35047">
        <ele>18</ele>
        <time>2021-10-21T07:57:04.000Z</time>
      </trkpt>
      <trkpt lat="47.34664" lon="-2.35044">
        <ele>18</ele>
        <time>2021-10-21T07:57:09.000Z</time>
      </trkpt>
      <trkpt lat="47.34649" lon="-2.35033">
        <ele>18</ele>
        <time>2021-10-21T07:57:14.000Z</time>
      </trkpt>
      <trkpt lat="47.34628" lon="-2.35014">
        <ele>18</ele>
        <time>2021-10-21T07:57:22.000Z</time>
      </trkpt>
      <trkpt lat="47.34611" lon="-2.34983">
        <ele>18</ele>
        <time>2021-10-21T07:57:27.000Z</time>
      </trkpt>
      <trkpt lat="47.34608" lon="-2.34978">
        <ele>18</ele>
        <time>2021-10-21T07:57:28.000Z</time>
      </trkpt>
      <trkpt lat="47.34451" lon="-2.34647">
        <ele>18</ele>
        <time>2021-10-21T07:57:36.000Z</time>
      </trkpt>
      <trkpt lat="47.34376" lon="-2.34424">
        <ele>18</ele>
        <time>2021-10-21T07:57:37.000Z</time>
      </trkpt>
      <trkpt lat="47.3438" lon="-2.34409">
        <ele>18</ele>
        <time>2021-10-21T07:57:39.000Z</time>
      </trkpt>
      <trkpt lat="47.34351" lon="-2.34311">
        <ele>18</ele>
        <time>2021-10-21T07:57:41.000Z</time>
      </trkpt>
      <trkpt lat="47.34311" lon="-2.34198">
        <ele>18</ele>
        <time>2021-10-21T07:57:42.000Z</time>
      </trkpt>
      <trkpt lat="47.34317" lon="-2.34171">
        <ele>18</ele>
        <time>2021-10-21T07:57:47.000Z</time>
      </trkpt>
      <trkpt lat="47.34291" lon="-2.34074">
        <ele>18</ele>
        <time>2021-10-21T07:57:52.000Z</time>
      </trkpt>
      <trkpt lat="47.34284" lon="-2.3405">
        <ele>18</ele>
        <time>2021-10-21T07:57:53.000Z</time>
      </trkpt>
      <trkpt lat="47.34182" lon="-2.32277">
        <ele>18</ele>
        <time>2021-10-21T07:58:01.000Z</time>
      </trkpt>
      <trkpt lat="47.34197" lon="-2.32284">
        <ele>18</ele>
        <time>2021-10-21T07:58:05.000Z</time>
      </trkpt>
      <trkpt lat="47.34201" lon="-2.32567">
        <ele>18</ele>
        <time>2021-10-21T07:58:07.000Z</time>
      </trkpt>
      <trkpt lat="47.34135" lon="-2.34717">
        <ele>18</ele>
        <time>2021-10-21T07:59:55.000Z</time>
      </trkpt>
      <trkpt lat="47.34136" lon="-2.34711">
        <ele>18.60000038147</ele>
        <time>2021-10-21T07:59:57.000Z</time>
      </trkpt>
      <trkpt lat="47.34136" lon="-2.34708">
        <ele>19</ele>
        <time>2021-10-21T07:59:58.000Z</time>
      </trkpt>
      <trkpt lat="47.34136" lon="-2.34704">
        <ele>19.60000038147</ele>
        <time>2021-10-21T07:59:59.000Z</time>
      </trkpt>
      <trkpt lat="47.34135" lon="-2.34701">
        <ele>20</ele>
        <time>2021-10-21T08:00:00.000Z</time>
      </trkpt>
      <trkpt lat="47.34135" lon="-2.34696">
        <ele>20.39999961853</ele>
        <time>2021-10-21T08:00:01.000Z</time>
      </trkpt>
      <trkpt lat="47.34133" lon="-2.34692">
        <ele>20.799999237061</ele>
        <time>2021-10-21T08:00:02.000Z</time>
      </trkpt>
      <trkpt lat="47.34131" lon="-2.34689">
        <ele>21.200000762939</ele>
        <time>2021-10-21T08:00:03.000Z</time>
      </trkpt>
      <trkpt lat="47.3413" lon="-2.34684">
        <ele>21.799999237061</ele>
        <time>2021-10-21T08:00:04.000Z</time>
      </trkpt>
      <trkpt lat="47.34128" lon="-2.3468">
        <ele>22.200000762939</ele>
        <time>2021-10-21T08:00:05.000Z</time>
      </trkpt>
      <trkpt lat="47.34127" lon="-2.34675">
        <ele>22.60000038147</ele>
        <time>2021-10-21T08:00:06.000Z</time>
      </trkpt>
      <trkpt lat="47.34124" lon="-2.34668">
        <ele>23</ele>
        <time>2021-10-21T08:00:08.000Z</time>
      </trkpt>
      <trkpt lat="47.34126" lon="-2.34665">
        <ele>23.39999961853</ele>
        <time>2021-10-21T08:00:09.000Z</time>
      </trkpt>
      <trkpt lat="47.34128" lon="-2.34661">
        <ele>23.799999237061</ele>
        <time>2021-10-21T08:00:10.000Z</time>
      </trkpt>
      <trkpt lat="47.3413" lon="-2.34658">
        <ele>24.200000762939</ele>
        <time>2021-10-21T08:00:11.000Z</time>
      </trkpt>
      <trkpt lat="47.34133" lon="-2.34656">
        <ele>24.799999237061</ele>
        <time>2021-10-21T08:00:12.000Z</time>
      </trkpt>
      <trkpt lat="47.34154" lon="-2.34622">
        <ele>24.799999237061</ele>
        <time>2021-10-21T08:00:20.000Z</time>
      </trkpt>
      <trkpt lat="47.34156" lon="-2.34602">
        <ele>24.799999237061</ele>
        <time>2021-10-21T08:00:24.000Z</time>
      </trkpt>
      <trkpt lat="47.34159" lon="-2.3459">
        <ele>24.799999237061</ele>
        <time>2021-10-21T08:00:26.000Z</time>
      </trkpt>
      <trkpt lat="47.34167" lon="-2.34551">
        <ele>24.799999237061</ele>
        <time>2021-10-21T08:00:32.000Z</time>
      </trkpt>
      <trkpt lat="47.34161" lon="-2.34508">
        <ele>24.799999237061</ele>
        <time>2021-10-21T08:00:39.000Z</time>
      </trkpt>
      <trkpt lat="47.34148" lon="-2.34471">
        <ele>25.200000762939</ele>
        <time>2021-10-21T08:00:46.000Z</time>
      </trkpt>
      <trkpt lat="47.34146" lon="-2.34467">
        <ele>25.60000038147</ele>
        <time>2021-10-21T08:00:47.000Z</time>
      </trkpt>
      <trkpt lat="47.34144" lon="-2.34463">
        <ele>26</ele>
        <time>2021-10-21T08:00:48.000Z</time>
      </trkpt>
      <trkpt lat="47.34142" lon="-2.34458">
        <ele>26.39999961853</ele>
        <time>2021-10-21T08:00:49.000Z</time>
      </trkpt>
      <trkpt lat="47.34141" lon="-2.34453">
        <ele>27</ele>
        <time>2021-10-21T08:00:50.000Z</time>
      </trkpt>
      <trkpt lat="47.34138" lon="-2.34444">
        <ele>27.39999961853</ele>
        <time>2021-10-21T08:00:52.000Z</time>
      </trkpt>
      <trkpt lat="47.34138" lon="-2.34439">
        <ele>27.799999237061</ele>
        <time>2021-10-21T08:00:53.000Z</time>
      </trkpt>
      <trkpt lat="47.34138" lon="-2.34433">
        <ele>28.200000762939</ele>
        <time>2021-10-21T08:00:54.000Z</time>
      </trkpt>
      <trkpt lat="47.34138" lon="-2.34428">
        <ele>28.60000038147</ele>
        <time>2021-10-21T08:00:55.000Z</time>
      </trkpt>
      <trkpt lat="47.34138" lon="-2.34423">
        <ele>29</ele>
        <time>2021-10-21T08:00:56.000Z</time>
      </trkpt>
      <trkpt lat="47.34135" lon="-2.34406">
        <ele>29</ele>
        <time>2021-10-21T08:01:00.000Z</time>
      </trkpt>
      <trkpt lat="47.34133" lon="-2.3439">
        <ele>29</ele>
        <time>2021-10-21T08:01:05.000Z</time>
      </trkpt>
      <trkpt lat="47.34135" lon="-2.34386">
        <ele>29</ele>
        <time>2021-10-21T08:01:06.000Z</time>
      </trkpt>
      <trkpt lat="47.34138" lon="-2.34386">
        <ele>29</ele>
        <time>2021-10-21T08:01:07.000Z</time>
      </trkpt>
      <trkpt lat="47.34145" lon="-2.34386">
        <ele>29</ele>
        <time>2021-10-21T08:01:09.000Z</time>
      </trkpt>
      <trkpt lat="47.3417" lon="-2.34384">
        <ele>29</ele>
        <time>2021-10-21T08:01:15.000Z</time>
      </trkpt>
      <trkpt lat="47.342" lon="-2.34378">
        <ele>29</ele>
        <time>2021-10-21T08:01:22.000Z</time>
      </trkpt>
      <trkpt lat="47.34218" lon="-2.34371">
        <ele>29</ele>
        <time>2021-10-21T08:01:28.000Z</time>
      </trkpt>
      <trkpt lat="47.34244" lon="-2.34359">
        <ele>29</ele>
        <time>2021-10-21T08:01:36.000Z</time>
      </trkpt>
      <trkpt lat="47.34261" lon="-2.34346">
        <ele>29</ele>
        <time>2021-10-21T08:01:41.000Z</time>
      </trkpt>
      <trkpt lat="47.34265" lon="-2.34336">
        <ele>28.60000038147</ele>
        <time>2021-10-21T08:01:43.000Z</time>
      </trkpt>
      <trkpt lat="47.34267" lon="-2.34331">
        <ele>28.200000762939</ele>
        <time>2021-10-21T08:01:44.000Z</time>
      </trkpt>
      <trkpt lat="47.34269" lon="-2.34326">
        <ele>27.799999237061</ele>
        <time>2021-10-21T08:01:45.000Z</time>
      </trkpt>
      <trkpt lat="47.34271" lon="-2.34321">
        <ele>27.39999961853</ele>
        <time>2021-10-21T08:01:46.000Z</time>
      </trkpt>
      <trkpt lat="47.34273" lon="-2.34316">
        <ele>27</ele>
        <time>2021-10-21T08:01:47.000Z</time>
      </trkpt>
      <trkpt lat="47.34285" lon="-2.34294">
        <ele>27</ele>
        <time>2021-10-21T08:01:53.000Z</time>
      </trkpt>
      <trkpt lat="47.34304" lon="-2.34269">
        <ele>27</ele>
        <time>2021-10-21T08:02:00.000Z</time>
      </trkpt>
      <trkpt lat="47.34311" lon="-2.34263">
        <ele>27</ele>
        <time>2021-10-21T08:02:02.000Z</time>
      </trkpt>
      <trkpt lat="47.34318" lon="-2.3426">
        <ele>27</ele>
        <time>2021-10-21T08:02:04.000Z</time>
      </trkpt>
      <trkpt lat="47.34325" lon="-2.3426">
        <ele>27.39999961853</ele>
        <time>2021-10-21T08:02:06.000Z</time>
      </trkpt>
      <trkpt lat="47.34329" lon="-2.3426">
        <ele>27.799999237061</ele>
        <time>2021-10-21T08:02:07.000Z</time>
      </trkpt>
      <trkpt lat="47.34333" lon="-2.34259">
        <ele>28.200000762939</ele>
        <time>2021-10-21T08:02:08.000Z</time>
      </trkpt>
      <trkpt lat="47.34337" lon="-2.34259">
        <ele>28.60000038147</ele>
        <time>2021-10-21T08:02:09.000Z</time>
      </trkpt>
      <trkpt lat="47.3434" lon="-2.3426">
        <ele>29</ele>
        <time>2021-10-21T08:02:10.000Z</time>
      </trkpt>
      <trkpt lat="47.3436" lon="-2.34258">
        <ele>29</ele>
        <time>2021-10-21T08:02:16.000Z</time>
      </trkpt>
      <trkpt lat="47.34376" lon="-2.34259">
        <ele>29</ele>
        <time>2021-10-21T08:02:21.000Z</time>
      </trkpt>
      <trkpt lat="47.34401" lon="-2.34257">
        <ele>29</ele>
        <time>2021-10-21T08:02:27.000Z</time>
      </trkpt>
      <trkpt lat="47.34226" lon="-2.34262">
        <ele>29</ele>
        <time>2021-10-21T08:02:33.000Z</time>
      </trkpt>
      <trkpt lat="47.34252" lon="-2.34247">
        <ele>29</ele>
        <time>2021-10-21T08:02:35.000Z</time>
      </trkpt>
      <trkpt lat="47.34018" lon="-2.34212">
        <ele>29</ele>
        <time>2021-10-21T08:02:39.000Z</time>
      </trkpt>
      <trkpt lat="47.34019" lon="-2.3417">
        <ele>29</ele>
        <time>2021-10-21T08:02:41.000Z</time>
      </trkpt>
      <trkpt lat="47.34029" lon="-2.3417">
        <ele>28.60000038147</ele>
        <time>2021-10-21T08:02:42.000Z</time>
      </trkpt>
      <trkpt lat="47.34038" lon="-2.34173">
        <ele>27.60000038147</ele>
        <time>2021-10-21T08:02:43.000Z</time>
      </trkpt>
      <trkpt lat="47.34046" lon="-2.34175">
        <ele>27.200000762939</ele>
        <time>2021-10-21T08:02:44.000Z</time>
      </trkpt>
      <trkpt lat="47.34056" lon="-2.34177">
        <ele>26.60000038147</ele>
        <time>2021-10-21T08:02:45.000Z</time>
      </trkpt>
      <trkpt lat="47.34066" lon="-2.34178">
        <ele>27.200000762939</ele>
        <time>2021-10-21T08:02:46.000Z</time>
      </trkpt>
      <trkpt lat="47.34076" lon="-2.34179">
        <ele>27.60000038147</ele>
        <time>2021-10-21T08:02:47.000Z</time>
      </trkpt>
      <trkpt lat="47.34086" lon="-2.34181">
        <ele>28.200000762939</ele>
        <time>2021-10-21T08:02:48.000Z</time>
      </trkpt>
      <trkpt lat="47.34095" lon="-2.34181">
        <ele>28.60000038147</ele>
        <time>2021-10-21T08:02:49.000Z</time>
      </trkpt>
      <trkpt lat="47.34102" lon="-2.34184">
        <ele>29</ele>
        <time>2021-10-21T08:02:50.000Z</time>
      </trkpt>
      <trkpt lat="47.34106" lon="-2.34186">
        <ele>29.39999961853</ele>
        <time>2021-10-21T08:02:51.000Z</time>
      </trkpt>
      <trkpt lat="47.34111" lon="-2.34185">
        <ele>30</ele>
        <time>2021-10-21T08:02:52.000Z</time>
      </trkpt>
      <trkpt lat="47.35015" lon="-2.34367">
        <ele>31.200000762939</ele>
        <time>2021-10-21T08:02:55.000Z</time>
      </trkpt>
      <trkpt lat="47.3502" lon="-2.34362">
        <ele>31.200000762939</ele>
        <time>2021-10-21T08:02:57.000Z</time>
      </trkpt>
      <trkpt lat="47.34456" lon="-2.34384">
        <ele>31.200000762939</ele>
        <time>2021-10-21T08:03:00.000Z</time>
      </trkpt>
      <trkpt lat="47.34448" lon="-2.34359">
        <ele>31.200000762939</ele>
        <time>2021-10-21T08:03:01.000Z</time>
      </trkpt>
      <trkpt lat="47.34417" lon="-2.34363">
        <ele>31.200000762939</ele>
        <time>2021-10-21T08:03:06.000Z</time>
      </trkpt>
      <trkpt lat="47.34411" lon="-2.34355">
        <ele>31.60000038147</ele>
        <time>2021-10-21T08:03:08.000Z</time>
      </trkpt>
      <trkpt lat="47.34414" lon="-2.34346">
        <ele>32.400001525879</ele>
        <time>2021-10-21T08:03:09.000Z</time>
      </trkpt>
      <trkpt lat="47.3442" lon="-2.34336">
        <ele>32.799999237061</ele>
        <time>2021-10-21T08:03:10.000Z</time>
      </trkpt>
      <trkpt lat="47.34433" lon="-2.34325">
        <ele>33.200000762939</ele>
        <time>2021-10-21T08:03:11.000Z</time>
      </trkpt>
      <trkpt lat="47.34459" lon="-2.34286">
        <ele>33.200000762939</ele>
        <time>2021-10-21T08:03:15.000Z</time>
      </trkpt>
      <trkpt lat="47.34466" lon="-2.34269">
        <ele>33.799999237061</ele>
        <time>2021-10-21T08:03:17.000Z</time>
      </trkpt>
      <trkpt lat="47.34466" lon="-2.34261">
        <ele>34.400001525879</ele>
        <time>2021-10-21T08:03:18.000Z</time>
      </trkpt>
      <trkpt lat="47.34464" lon="-2.34256">
        <ele>34.799999237061</ele>
        <time>2021-10-21T08:03:19.000Z</time>
      </trkpt>
      <trkpt lat="47.34987" lon="-2.34236">
        <ele>37.200000762939</ele>
        <time>2021-10-21T08:03:23.000Z</time>
      </trkpt>
      <trkpt lat="47.34986" lon="-2.34231">
        <ele>37.799999237061</ele>
        <time>2021-10-21T08:03:24.000Z</time>
      </trkpt>
      <trkpt lat="47.34984" lon="-2.34226">
        <ele>38.400001525879</ele>
        <time>2021-10-21T08:03:25.000Z</time>
      </trkpt>
      <trkpt lat="47.34926" lon="-2.34176">
        <ele>38.799999237061</ele>
        <time>2021-10-21T08:03:30.000Z</time>
      </trkpt>
      <trkpt lat="47.34925" lon="-2.34173">
        <ele>39.200000762939</ele>
        <time>2021-10-21T08:03:31.000Z</time>
      </trkpt>
      <trkpt lat="47.34924" lon="-2.34172">
        <ele>39.599998474121</ele>
        <time>2021-10-21T08:03:32.000Z</time>
      </trkpt>
      <trkpt lat="47.34924" lon="-2.34171">
        <ele>40.599998474121</ele>
        <time>2021-10-21T08:03:33.000Z</time>
      </trkpt>
      <trkpt lat="47.34922" lon="-2.34172">
        <ele>40.599998474121</ele>
        <time>2021-10-21T08:03:34.000Z</time>
      </trkpt>
      <trkpt lat="47.34917" lon="-2.34174">
        <ele>40.599998474121</ele>
        <time>2021-10-21T08:03:36.000Z</time>
      </trkpt>
      <trkpt lat="47.34916" lon="-2.34178">
        <ele>41</ele>
        <time>2021-10-21T08:03:37.000Z</time>
      </trkpt>
      <trkpt lat="47.34914" lon="-2.34182">
        <ele>41.400001525879</ele>
        <time>2021-10-21T08:03:38.000Z</time>
      </trkpt>
      <trkpt lat="47.34913" lon="-2.34184">
        <ele>41.799999237061</ele>
        <time>2021-10-21T08:03:39.000Z</time>
      </trkpt>
      <trkpt lat="47.34912" lon="-2.34188">
        <ele>42.200000762939</ele>
        <time>2021-10-21T08:03:40.000Z</time>
      </trkpt>
      <trkpt lat="47.3491" lon="-2.34191">
        <ele>42.599998474121</ele>
        <time>2021-10-21T08:03:41.000Z</time>
      </trkpt>
      <trkpt lat="47.34911" lon="-2.34202">
        <ele>43.200000762939</ele>
        <time>2021-10-21T08:03:46.000Z</time>
      </trkpt>
      <trkpt lat="47.34911" lon="-2.34205">
        <ele>43.599998474121</ele>
        <time>2021-10-21T08:03:47.000Z</time>
      </trkpt>
      <trkpt lat="47.3491" lon="-2.34207">
        <ele>44</ele>
        <time>2021-10-21T08:03:48.000Z</time>
      </trkpt>
      <trkpt lat="47.3491" lon="-2.34206">
        <ele>44.400001525879</ele>
        <time>2021-10-21T08:03:49.000Z</time>
      </trkpt>
      <trkpt lat="47.3491" lon="-2.34206">
        <ele>45</ele>
        <time>2021-10-21T08:03:50.000Z</time>
      </trkpt>
      <trkpt lat="47.34906" lon="-2.34205">
        <ele>45</ele>
        <time>2021-10-21T08:03:54.000Z</time>
      </trkpt>
      <trkpt lat="47.34904" lon="-2.34204">
        <ele>45.400001525879</ele>
        <time>2021-10-21T08:03:55.000Z</time>
      </trkpt>
      <trkpt lat="47.34902" lon="-2.34203">
        <ele>45.799999237061</ele>
        <time>2021-10-21T08:03:56.000Z</time>
      </trkpt>
      <trkpt lat="47.34901" lon="-2.34202">
        <ele>46.200000762939</ele>
        <time>2021-10-21T08:03:57.000Z</time>
      </trkpt>
      <trkpt lat="47.34898" lon="-2.34202">
        <ele>47</ele>
        <time>2021-10-21T08:03:58.000Z</time>
      </trkpt>
      <trkpt lat="47.34893" lon="-2.34202">
        <ele>47</ele>
        <time>2021-10-21T08:04:01.000Z</time>
      </trkpt>
      <trkpt lat="47.34889" lon="-2.34203">
        <ele>47</ele>
        <time>2021-10-21T08:04:04.000Z</time>
      </trkpt>
      <trkpt lat="47.34887" lon="-2.34202">
        <ele>47.400001525879</ele>
        <time>2021-10-21T08:04:06.000Z</time>
      </trkpt>
      <trkpt lat="47.34886" lon="-2.34202">
        <ele>47.799999237061</ele>
        <time>2021-10-21T08:04:07.000Z</time>
      </trkpt>
      <trkpt lat="47.34885" lon="-2.34201">
        <ele>48.200000762939</ele>
        <time>2021-10-21T08:04:08.000Z</time>
      </trkpt>
      <trkpt lat="47.34884" lon="-2.34201">
        <ele>48.599998474121</ele>
        <time>2021-10-21T08:04:09.000Z</time>
      </trkpt>
      <trkpt lat="47.34883" lon="-2.342">
        <ele>49</ele>
        <time>2021-10-21T08:04:10.000Z</time>
      </trkpt>
      <trkpt lat="47.3488" lon="-2.34196">
        <ele>49</ele>
        <time>2021-10-21T08:04:13.000Z</time>
      </trkpt>
      <trkpt lat="47.34878" lon="-2.34196">
        <ele>49</ele>
        <time>2021-10-21T08:04:14.000Z</time>
      </trkpt>
      <trkpt lat="47.34874" lon="-2.34202">
        <ele>49</ele>
        <time>2021-10-21T08:04:17.000Z</time>
      </trkpt>
      <trkpt lat="47.34873" lon="-2.34222">
        <ele>49</ele>
        <time>2021-10-21T08:04:22.000Z</time>
      </trkpt>
      <trkpt lat="47.34872" lon="-2.34225">
        <ele>48.599998474121</ele>
        <time>2021-10-21T08:04:23.000Z</time>
      </trkpt>
      <trkpt lat="47.3487" lon="-2.34229">
        <ele>48.200000762939</ele>
        <time>2021-10-21T08:04:24.000Z</time>
      </trkpt>
      <trkpt lat="47.34868" lon="-2.34233">
        <ele>47.799999237061</ele>
        <time>2021-10-21T08:04:25.000Z</time>
      </trkpt>
      <trkpt lat="47.34864" lon="-2.34237">
        <ele>47.400001525879</ele>
        <time>2021-10-21T08:04:26.000Z</time>
      </trkpt>
      <trkpt lat="47.34862" lon="-2.34239">
        <ele>47</ele>
        <time>2021-10-21T08:04:27.000Z</time>
      </trkpt>
      <trkpt lat="47.34859" lon="-2.34239">
        <ele>46.599998474121</ele>
        <time>2021-10-21T08:04:28.000Z</time>
      </trkpt>
      <trkpt lat="47.34856" lon="-2.34238">
        <ele>46.200000762939</ele>
        <time>2021-10-21T08:04:29.000Z</time>
      </trkpt>
      <trkpt lat="47.34852" lon="-2.34236">
        <ele>45.799999237061</ele>
        <time>2021-10-21T08:04:30.000Z</time>
      </trkpt>
      <trkpt lat="47.34846" lon="-2.34234">
        <ele>45.400001525879</ele>
        <time>2021-10-21T08:04:31.000Z</time>
      </trkpt>
      <trkpt lat="47.34841" lon="-2.34233">
        <ele>45</ele>
        <time>2021-10-21T08:04:32.000Z</time>
      </trkpt>
      <trkpt lat="47.34831" lon="-2.34233">
        <ele>45</ele>
        <time>2021-10-21T08:04:34.000Z</time>
      </trkpt>
      <trkpt lat="47.34819" lon="-2.34233">
        <ele>44.400001525879</ele>
        <time>2021-10-21T08:04:36.000Z</time>
      </trkpt>
      <trkpt lat="47.34813" lon="-2.34234">
        <ele>43.799999237061</ele>
        <time>2021-10-21T08:04:37.000Z</time>
      </trkpt>
      <trkpt lat="47.34807" lon="-2.34235">
        <ele>43.400001525879</ele>
        <time>2021-10-21T08:04:38.000Z</time>
      </trkpt>
      <trkpt lat="47.34801" lon="-2.34235">
        <ele>42.799999237061</ele>
        <time>2021-10-21T08:04:39.000Z</time>
      </trkpt>
      <trkpt lat="47.34795" lon="-2.34236">
        <ele>42.400001525879</ele>
        <time>2021-10-21T08:04:40.000Z</time>
      </trkpt>
      <trkpt lat="47.34784" lon="-2.34239">
        <ele>41.799999237061</ele>
        <time>2021-10-21T08:04:42.000Z</time>
      </trkpt>
      <trkpt lat="47.34779" lon="-2.34241">
        <ele>41.400001525879</ele>
        <time>2021-10-21T08:04:43.000Z</time>
      </trkpt>
      <trkpt lat="47.34773" lon="-2.34242">
        <ele>41</ele>
        <time>2021-10-21T08:04:44.000Z</time>
      </trkpt>
      <trkpt lat="47.34768" lon="-2.34243">
        <ele>40.400001525879</ele>
        <time>2021-10-21T08:04:45.000Z</time>
      </trkpt>
      <trkpt lat="47.34762" lon="-2.34245">
        <ele>40</ele>
        <time>2021-10-21T08:04:46.000Z</time>
      </trkpt>
      <trkpt lat="47.34757" lon="-2.34246">
        <ele>40</ele>
        <time>2021-10-21T08:04:47.000Z</time>
      </trkpt>
      <trkpt lat="47.34738" lon="-2.3425">
        <ele>40</ele>
        <time>2021-10-21T08:04:50.000Z</time>
      </trkpt>
      <trkpt lat="47.34718" lon="-2.34255">
        <ele>39.599998474121</ele>
        <time>2021-10-21T08:04:53.000Z</time>
      </trkpt>
      <trkpt lat="47.34712" lon="-2.34256">
        <ele>39.200000762939</ele>
        <time>2021-10-21T08:04:54.000Z</time>
      </trkpt>
      <trkpt lat="47.34706" lon="-2.34258">
        <ele>38.799999237061</ele>
        <time>2021-10-21T08:04:55.000Z</time>
      </trkpt>
      <trkpt lat="47.347" lon="-2.34259">
        <ele>38.400001525879</ele>
        <time>2021-10-21T08:04:56.000Z</time>
      </trkpt>
      <trkpt lat="47.34694" lon="-2.3426">
        <ele>38</ele>
        <time>2021-10-21T08:04:57.000Z</time>
      </trkpt>
      <trkpt lat="47.3466" lon="-2.34266">
        <ele>38</ele>
        <time>2021-10-21T08:05:03.000Z</time>
      </trkpt>
      <trkpt lat="47.34656" lon="-2.3427">
        <ele>38</ele>
        <time>2021-10-21T08:05:04.000Z</time>
      </trkpt>
      <trkpt lat="47.34634" lon="-2.34292">
        <ele>38</ele>
        <time>2021-10-21T08:05:09.000Z</time>
      </trkpt>
      <trkpt lat="47.3463" lon="-2.34295">
        <ele>38</ele>
        <time>2021-10-21T08:05:10.000Z</time>
      </trkpt>
      <trkpt lat="47.34618" lon="-2.34298">
        <ele>38</ele>
        <time>2021-10-21T08:05:13.000Z</time>
      </trkpt>
      <trkpt lat="47.3461" lon="-2.34298">
        <ele>38</ele>
        <time>2021-10-21T08:05:15.000Z</time>
      </trkpt>
      <trkpt lat="47.34593" lon="-2.343">
        <ele>38</ele>
        <time>2021-10-21T08:05:19.000Z</time>
      </trkpt>
      <trkpt lat="47.34579" lon="-2.34306">
        <ele>38</ele>
        <time>2021-10-21T08:05:22.000Z</time>
      </trkpt>
      <trkpt lat="47.34575" lon="-2.34309">
        <ele>38.400001525879</ele>
        <time>2021-10-21T08:05:23.000Z</time>
      </trkpt>
      <trkpt lat="47.3457" lon="-2.34311">
        <ele>38.799999237061</ele>
        <time>2021-10-21T08:05:24.000Z</time>
      </trkpt>
      <trkpt lat="47.34566" lon="-2.34313">
        <ele>39.400001525879</ele>
        <time>2021-10-21T08:05:25.000Z</time>
      </trkpt>
      <trkpt lat="47.34562" lon="-2.34315">
        <ele>39.799999237061</ele>
        <time>2021-10-21T08:05:26.000Z</time>
      </trkpt>
      <trkpt lat="47.34558" lon="-2.34318">
        <ele>40.200000762939</ele>
        <time>2021-10-21T08:05:27.000Z</time>
      </trkpt>
      <trkpt lat="47.34544" lon="-2.34332">
        <ele>40.200000762939</ele>
        <time>2021-10-21T08:05:31.000Z</time>
      </trkpt>
      <trkpt lat="47.34523" lon="-2.34351">
        <ele>40.200000762939</ele>
        <time>2021-10-21T08:05:36.000Z</time>
      </trkpt>
      <trkpt lat="47.345" lon="-2.34379">
        <ele>40.200000762939</ele>
        <time>2021-10-21T08:05:42.000Z</time>
      </trkpt>
      <trkpt lat="47.34496" lon="-2.34383">
        <ele>40.200000762939</ele>
        <time>2021-10-21T08:05:43.000Z</time>
      </trkpt>
      <trkpt lat="47.34488" lon="-2.3439">
        <ele>40.200000762939</ele>
        <time>2021-10-21T08:05:45.000Z</time>
      </trkpt>
      <trkpt lat="47.34478" lon="-2.34395">
        <ele>40.200000762939</ele>
        <time>2021-10-21T08:05:47.000Z</time>
      </trkpt>
      <trkpt lat="47.34438" lon="-2.34409">
        <ele>40.200000762939</ele>
        <time>2021-10-21T08:05:55.000Z</time>
      </trkpt>
      <trkpt lat="47.34429" lon="-2.34412">
        <ele>40.599998474121</ele>
        <time>2021-10-21T08:05:57.000Z</time>
      </trkpt>
      <trkpt lat="47.34424" lon="-2.34414">
        <ele>41</ele>
        <time>2021-10-21T08:05:58.000Z</time>
      </trkpt>
      <trkpt lat="47.34419" lon="-2.34415">
        <ele>41.599998474121</ele>
        <time>2021-10-21T08:05:59.000Z</time>
      </trkpt>
      <trkpt lat="47.34415" lon="-2.34417">
        <ele>42</ele>
        <time>2021-10-21T08:06:00.000Z</time>
      </trkpt>
      <trkpt lat="47.3441" lon="-2.34419">
        <ele>42.400001525879</ele>
        <time>2021-10-21T08:06:01.000Z</time>
      </trkpt>
      <trkpt lat="47.34405" lon="-2.34421">
        <ele>42.400001525879</ele>
        <time>2021-10-21T08:06:02.000Z</time>
      </trkpt>
      <trkpt lat="47.34383" lon="-2.34433">
        <ele>42.400001525879</ele>
        <time>2021-10-21T08:06:07.000Z</time>
      </trkpt>
      <trkpt lat="47.34347" lon="-2.34455">
        <ele>42.400001525879</ele>
        <time>2021-10-21T08:06:15.000Z</time>
      </trkpt>
      <trkpt lat="47.34318" lon="-2.34464">
        <ele>42.400001525879</ele>
        <time>2021-10-21T08:06:21.000Z</time>
      </trkpt>
      <trkpt lat="47.34307" lon="-2.34466">
        <ele>42.400001525879</ele>
        <time>2021-10-21T08:06:23.000Z</time>
      </trkpt>
      <trkpt lat="47.34292" lon="-2.34468">
        <ele>42.400001525879</ele>
        <time>2021-10-21T08:06:26.000Z</time>
      </trkpt>
      <trkpt lat="47.34275" lon="-2.3447">
        <ele>42.400001525879</ele>
        <time>2021-10-21T08:06:29.000Z</time>
      </trkpt>
      <trkpt lat="47.34264" lon="-2.34473">
        <ele>42.400001525879</ele>
        <time>2021-10-21T08:06:31.000Z</time>
      </trkpt>
      <trkpt lat="47.34239" lon="-2.34485">
        <ele>42.400001525879</ele>
        <time>2021-10-21T08:06:36.000Z</time>
      </trkpt>
      <trkpt lat="47.34234" lon="-2.34486">
        <ele>42.400001525879</ele>
        <time>2021-10-21T08:06:37.000Z</time>
      </trkpt>
      <trkpt lat="47.34226" lon="-2.3449">
        <ele>42.400001525879</ele>
        <time>2021-10-21T08:06:39.000Z</time>
      </trkpt>
      <trkpt lat="47.34209" lon="-2.34499">
        <ele>42.400001525879</ele>
        <time>2021-10-21T08:06:43.000Z</time>
      </trkpt>
      <trkpt lat="47.34181" lon="-2.3451">
        <ele>42.400001525879</ele>
        <time>2021-10-21T08:06:49.000Z</time>
      </trkpt>
      <trkpt lat="47.34176" lon="-2.3451">
        <ele>42.400001525879</ele>
        <time>2021-10-21T08:06:50.000Z</time>
      </trkpt>
      <trkpt lat="47.34164" lon="-2.34515">
        <ele>42.400001525879</ele>
        <time>2021-10-21T08:06:53.000Z</time>
      </trkpt>
      <trkpt lat="47.34147" lon="-2.34524">
        <ele>42.400001525879</ele>
        <time>2021-10-21T08:06:57.000Z</time>
      </trkpt>
      <trkpt lat="47.34142" lon="-2.34526">
        <ele>42.400001525879</ele>
        <time>2021-10-21T08:06:58.000Z</time>
      </trkpt>
      <trkpt lat="47.34127" lon="-2.34533">
        <ele>42.400001525879</ele>
        <time>2021-10-21T08:07:01.000Z</time>
      </trkpt>
      <trkpt lat="47.34123" lon="-2.34535">
        <ele>42.400001525879</ele>
        <time>2021-10-21T08:07:02.000Z</time>
      </trkpt>
      <trkpt lat="47.34089" lon="-2.34556">
        <ele>42.400001525879</ele>
        <time>2021-10-21T08:07:09.000Z</time>
      </trkpt>
      <trkpt lat="47.34071" lon="-2.34564">
        <ele>42.400001525879</ele>
        <time>2021-10-21T08:07:14.000Z</time>
      </trkpt>
      <trkpt lat="47.34061" lon="-2.34547">
        <ele>42.400001525879</ele>
        <time>2021-10-21T08:07:18.000Z</time>
      </trkpt>
      <trkpt lat="47.34055" lon="-2.34527">
        <ele>42.400001525879</ele>
        <time>2021-10-21T08:07:21.000Z</time>
      </trkpt>
      <trkpt lat="47.34051" lon="-2.34513">
        <ele>42.400001525879</ele>
        <time>2021-10-21T08:07:23.000Z</time>
      </trkpt>
      <trkpt lat="47.34047" lon="-2.34498">
        <ele>42.400001525879</ele>
        <time>2021-10-21T08:07:25.000Z</time>
      </trkpt>
      <trkpt lat="47.34037" lon="-2.34471">
        <ele>42.400001525879</ele>
        <time>2021-10-21T08:07:29.000Z</time>
      </trkpt>
      <trkpt lat="47.34028" lon="-2.34444">
        <ele>42.400001525879</ele>
        <time>2021-10-21T08:07:33.000Z</time>
      </trkpt>
      <trkpt lat="47.34032" lon="-2.3443">
        <ele>42.400001525879</ele>
        <time>2021-10-21T08:07:35.000Z</time>
      </trkpt>
      <trkpt lat="47.34047" lon="-2.34424">
        <ele>42.400001525879</ele>
        <time>2021-10-21T08:07:38.000Z</time>
      </trkpt>
      <trkpt lat="47.34053" lon="-2.34423">
        <ele>42.400001525879</ele>
        <time>2021-10-21T08:07:39.000Z</time>
      </trkpt>
      <trkpt lat="47.34069" lon="-2.34418">
        <ele>42.400001525879</ele>
        <time>2021-10-21T08:07:42.000Z</time>
      </trkpt>
      <trkpt lat="47.34079" lon="-2.34413">
        <ele>42.400001525879</ele>
        <time>2021-10-21T08:07:44.000Z</time>
      </trkpt>
      <trkpt lat="47.34089" lon="-2.34405">
        <ele>42</ele>
        <time>2021-10-21T08:07:46.000Z</time>
      </trkpt>
      <trkpt lat="47.34093" lon="-2.34401">
        <ele>41.400001525879</ele>
        <time>2021-10-21T08:07:47.000Z</time>
      </trkpt>
      <trkpt lat="47.34097" lon="-2.34396">
        <ele>41</ele>
        <time>2021-10-21T08:07:48.000Z</time>
      </trkpt>
      <trkpt lat="47.34102" lon="-2.34391">
        <ele>40.599998474121</ele>
        <time>2021-10-21T08:07:49.000Z</time>
      </trkpt>
      <trkpt lat="47.34108" lon="-2.34387">
        <ele>40.200000762939</ele>
        <time>2021-10-21T08:07:50.000Z</time>
      </trkpt>
      <trkpt lat="47.34132" lon="-2.34365">
        <ele>40.200000762939</ele>
        <time>2021-10-21T08:07:55.000Z</time>
      </trkpt>
      <trkpt lat="47.34147" lon="-2.34342">
        <ele>40.200000762939</ele>
        <time>2021-10-21T08:07:59.000Z</time>
      </trkpt>
      <trkpt lat="47.34159" lon="-2.34327">
        <ele>40.200000762939</ele>
        <time>2021-10-21T08:08:02.000Z</time>
      </trkpt>
      <trkpt lat="47.34167" lon="-2.34316">
        <ele>40.200000762939</ele>
        <time>2021-10-21T08:08:04.000Z</time>
      </trkpt>
      <trkpt lat="47.3417" lon="-2.34309">
        <ele>40.200000762939</ele>
        <time>2021-10-21T08:08:05.000Z</time>
      </trkpt>
      <trkpt lat="47.34188" lon="-2.34268">
        <ele>40.200000762939</ele>
        <time>2021-10-21T08:08:10.000Z</time>
      </trkpt>
      <trkpt lat="47.34196" lon="-2.34253">
        <ele>40.200000762939</ele>
        <time>2021-10-21T08:08:12.000Z</time>
      </trkpt>
      <trkpt lat="47.34207" lon="-2.34239">
        <ele>40.200000762939</ele>
        <time>2021-10-21T08:08:14.000Z</time>
      </trkpt>
      <trkpt lat="47.34213" lon="-2.34233">
        <ele>39.799999237061</ele>
        <time>2021-10-21T08:08:15.000Z</time>
      </trkpt>
      <trkpt lat="47.34219" lon="-2.34227">
        <ele>39.400001525879</ele>
        <time>2021-10-21T08:08:16.000Z</time>
      </trkpt>
      <trkpt lat="47.34225" lon="-2.34221">
        <ele>39</ele>
        <time>2021-10-21T08:08:17.000Z</time>
      </trkpt>
      <trkpt lat="47.34232" lon="-2.34216">
        <ele>38.599998474121</ele>
        <time>2021-10-21T08:08:18.000Z</time>
      </trkpt>
      <trkpt lat="47.34238" lon="-2.34211">
        <ele>38</ele>
        <time>2021-10-21T08:08:19.000Z</time>
      </trkpt>
      <trkpt lat="47.34275" lon="-2.34179">
        <ele>37.599998474121</ele>
        <time>2021-10-21T08:08:25.000Z</time>
      </trkpt>
      <trkpt lat="47.34281" lon="-2.34174">
        <ele>37.200000762939</ele>
        <time>2021-10-21T08:08:26.000Z</time>
      </trkpt>
      <trkpt lat="47.34286" lon="-2.34169">
        <ele>36.799999237061</ele>
        <time>2021-10-21T08:08:27.000Z</time>
      </trkpt>
      <trkpt lat="47.34291" lon="-2.34164">
        <ele>36</ele>
        <time>2021-10-21T08:08:28.000Z</time>
      </trkpt>
      <trkpt lat="47.34313" lon="-2.3414">
        <ele>36</ele>
        <time>2021-10-21T08:08:33.000Z</time>
      </trkpt>
      <trkpt lat="47.34318" lon="-2.34136">
        <ele>36</ele>
        <time>2021-10-21T08:08:34.000Z</time>
      </trkpt>
      <trkpt lat="47.34322" lon="-2.34132">
        <ele>35.400001525879</ele>
        <time>2021-10-21T08:08:35.000Z</time>
      </trkpt>
      <trkpt lat="47.34326" lon="-2.34129">
        <ele>35</ele>
        <time>2021-10-21T08:08:36.000Z</time>
      </trkpt>
      <trkpt lat="47.3433" lon="-2.34126">
        <ele>34.599998474121</ele>
        <time>2021-10-21T08:08:37.000Z</time>
      </trkpt>
      <trkpt lat="47.34334" lon="-2.34123">
        <ele>34.200000762939</ele>
        <time>2021-10-21T08:08:38.000Z</time>
      </trkpt>
      <trkpt lat="47.34337" lon="-2.34121">
        <ele>33.799999237061</ele>
        <time>2021-10-21T08:08:39.000Z</time>
      </trkpt>
      <trkpt lat="47.34343" lon="-2.34116">
        <ele>33.799999237061</ele>
        <time>2021-10-21T08:08:42.000Z</time>
      </trkpt>
      <trkpt lat="47.34351" lon="-2.3411">
        <ele>33.799999237061</ele>
        <time>2021-10-21T08:08:48.000Z</time>
      </trkpt>
      <trkpt lat="47.34361" lon="-2.34102">
        <ele>33.799999237061</ele>
        <time>2021-10-21T08:08:53.000Z</time>
      </trkpt>
      <trkpt lat="47.34366" lon="-2.34097">
        <ele>33.400001525879</ele>
        <time>2021-10-21T08:08:56.000Z</time>
      </trkpt>
      <trkpt lat="47.34368" lon="-2.34095">
        <ele>33</ele>
        <time>2021-10-21T08:08:57.000Z</time>
      </trkpt>
      <trkpt lat="47.3437" lon="-2.34094">
        <ele>32.599998474121</ele>
        <time>2021-10-21T08:08:58.000Z</time>
      </trkpt>
      <trkpt lat="47.34373" lon="-2.34093">
        <ele>32.200000762939</ele>
        <time>2021-10-21T08:08:59.000Z</time>
      </trkpt>
      <trkpt lat="47.34374" lon="-2.34091">
        <ele>31.799999237061</ele>
        <time>2021-10-21T08:09:00.000Z</time>
      </trkpt>
      <trkpt lat="47.34386" lon="-2.34082">
        <ele>31.799999237061</ele>
        <time>2021-10-21T08:09:07.000Z</time>
      </trkpt>
      <trkpt lat="47.34391" lon="-2.34079">
        <ele>31.799999237061</ele>
        <time>2021-10-21T08:09:13.000Z</time>
      </trkpt>
      <trkpt lat="47.34391" lon="-2.34079">
        <ele>31.799999237061</ele>
        <time>2021-10-21T08:09:14.000Z</time>
      </trkpt>
      <trkpt lat="47.34395" lon="-2.34072">
        <ele>31.799999237061</ele>
        <time>2021-10-21T08:09:20.000Z</time>
      </trkpt>
      <trkpt lat="47.34395" lon="-2.34064">
        <ele>31.799999237061</ele>
        <time>2021-10-21T08:09:22.000Z</time>
      </trkpt>
      <trkpt lat="47.34395" lon="-2.34058">
        <ele>31.799999237061</ele>
        <time>2021-10-21T08:09:24.000Z</time>
      </trkpt>
      <trkpt lat="47.34393" lon="-2.34046">
        <ele>31.799999237061</ele>
        <time>2021-10-21T08:09:28.000Z</time>
      </trkpt>
      <trkpt lat="47.34392" lon="-2.34029">
        <ele>31.799999237061</ele>
        <time>2021-10-21T08:09:34.000Z</time>
      </trkpt>
      <trkpt lat="47.34393" lon="-2.34013">
        <ele>31.799999237061</ele>
        <time>2021-10-21T08:09:40.000Z</time>
      </trkpt>
      <trkpt lat="47.34391" lon="-2.33997">
        <ele>31.799999237061</ele>
        <time>2021-10-21T08:09:45.000Z</time>
      </trkpt>
      <trkpt lat="47.3439" lon="-2.33991">
        <ele>31.799999237061</ele>
        <time>2021-10-21T08:09:47.000Z</time>
      </trkpt>
      <trkpt lat="47.34391" lon="-2.33988">
        <ele>31.799999237061</ele>
        <time>2021-10-21T08:09:48.000Z</time>
      </trkpt>
      <trkpt lat="47.3439" lon="-2.33978">
        <ele>31.799999237061</ele>
        <time>2021-10-21T08:09:52.000Z</time>
      </trkpt>
      <trkpt lat="47.3439" lon="-2.3397">
        <ele>31.799999237061</ele>
        <time>2021-10-21T08:09:55.000Z</time>
      </trkpt>
      <trkpt lat="47.34391" lon="-2.33968">
        <ele>31.799999237061</ele>
        <time>2021-10-21T08:09:56.000Z</time>
      </trkpt>
      <trkpt lat="47.34403" lon="-2.33964">
        <ele>31.799999237061</ele>
        <time>2021-10-21T08:10:00.000Z</time>
      </trkpt>
      <trkpt lat="47.34413" lon="-2.33956">
        <ele>31.799999237061</ele>
        <time>2021-10-21T08:10:03.000Z</time>
      </trkpt>
      <trkpt lat="47.34417" lon="-2.33952">
        <ele>31.799999237061</ele>
        <time>2021-10-21T08:10:04.000Z</time>
      </trkpt>
      <trkpt lat="47.34445" lon="-2.33934">
        <ele>31.799999237061</ele>
        <time>2021-10-21T08:10:11.000Z</time>
      </trkpt>
      <trkpt lat="47.34467" lon="-2.33921">
        <ele>31.799999237061</ele>
        <time>2021-10-21T08:10:17.000Z</time>
      </trkpt>
      <trkpt lat="47.34498" lon="-2.33909">
        <ele>31.799999237061</ele>
        <time>2021-10-21T08:10:25.000Z</time>
      </trkpt>
      <trkpt lat="47.34523" lon="-2.33899">
        <ele>31.799999237061</ele>
        <time>2021-10-21T08:10:31.000Z</time>
      </trkpt>
      <trkpt lat="47.34527" lon="-2.33897">
        <ele>31.39999961853</ele>
        <time>2021-10-21T08:10:32.000Z</time>
      </trkpt>
      <trkpt lat="47.34532" lon="-2.33894">
        <ele>31</ele>
        <time>2021-10-21T08:10:33.000Z</time>
      </trkpt>
      <trkpt lat="47.34537" lon="-2.33893">
        <ele>30.60000038147</ele>
        <time>2021-10-21T08:10:34.000Z</time>
      </trkpt>
      <trkpt lat="47.34541" lon="-2.33891">
        <ele>30.200000762939</ele>
        <time>2021-10-21T08:10:35.000Z</time>
      </trkpt>
      <trkpt lat="47.34545" lon="-2.3389">
        <ele>29.799999237061</ele>
        <time>2021-10-21T08:10:36.000Z</time>
      </trkpt>
      <trkpt lat="47.34557" lon="-2.33878">
        <ele>29.799999237061</ele>
        <time>2021-10-21T08:10:41.000Z</time>
      </trkpt>
      <trkpt lat="47.34552" lon="-2.33856">
        <ele>29.799999237061</ele>
        <time>2021-10-21T08:10:44.000Z</time>
      </trkpt>
      <trkpt lat="47.34549" lon="-2.33839">
        <ele>29.799999237061</ele>
        <time>2021-10-21T08:10:46.000Z</time>
      </trkpt>
      <trkpt lat="47.34545" lon="-2.33815">
        <ele>29.799999237061</ele>
        <time>2021-10-21T08:10:49.000Z</time>
      </trkpt>
      <trkpt lat="47.34535" lon="-2.33759">
        <ele>29.799999237061</ele>
        <time>2021-10-21T08:10:56.000Z</time>
      </trkpt>
      <trkpt lat="47.34526" lon="-2.33713">
        <ele>29.799999237061</ele>
        <time>2021-10-21T08:11:03.000Z</time>
      </trkpt>
      <trkpt lat="47.34523" lon="-2.337">
        <ele>29.799999237061</ele>
        <time>2021-10-21T08:11:07.000Z</time>
      </trkpt>
      <trkpt lat="47.34517" lon="-2.33684">
        <ele>29.799999237061</ele>
        <time>2021-10-21T08:11:13.000Z</time>
      </trkpt>
      <trkpt lat="47.34515" lon="-2.33667">
        <ele>29.799999237061</ele>
        <time>2021-10-21T08:11:18.000Z</time>
      </trkpt>
      <trkpt lat="47.34511" lon="-2.33654">
        <ele>29.799999237061</ele>
        <time>2021-10-21T08:11:22.000Z</time>
      </trkpt>
      <trkpt lat="47.3451" lon="-2.33648">
        <ele>29.799999237061</ele>
        <time>2021-10-21T08:11:24.000Z</time>
      </trkpt>
      <trkpt lat="47.3451" lon="-2.33645">
        <ele>29.39999961853</ele>
        <time>2021-10-21T08:11:25.000Z</time>
      </trkpt>
      <trkpt lat="47.3451" lon="-2.33642">
        <ele>28.799999237061</ele>
        <time>2021-10-21T08:11:26.000Z</time>
      </trkpt>
      <trkpt lat="47.34509" lon="-2.33638">
        <ele>28.39999961853</ele>
        <time>2021-10-21T08:11:27.000Z</time>
      </trkpt>
      <trkpt lat="47.34508" lon="-2.33634">
        <ele>28</ele>
        <time>2021-10-21T08:11:28.000Z</time>
      </trkpt>
      <trkpt lat="47.34507" lon="-2.3363">
        <ele>27.60000038147</ele>
        <time>2021-10-21T08:11:29.000Z</time>
      </trkpt>
      <trkpt lat="47.34502" lon="-2.33608">
        <ele>27.60000038147</ele>
        <time>2021-10-21T08:11:34.000Z</time>
      </trkpt>
      <trkpt lat="47.34494" lon="-2.33582">
        <ele>27.60000038147</ele>
        <time>2021-10-21T08:11:41.000Z</time>
      </trkpt>
      <trkpt lat="47.34488" lon="-2.33566">
        <ele>27.60000038147</ele>
        <time>2021-10-21T08:11:45.000Z</time>
      </trkpt>
      <trkpt lat="47.34485" lon="-2.33541">
        <ele>27.60000038147</ele>
        <time>2021-10-21T08:11:51.000Z</time>
      </trkpt>
      <trkpt lat="47.34481" lon="-2.33512">
        <ele>27.60000038147</ele>
        <time>2021-10-21T08:11:58.000Z</time>
      </trkpt>
      <trkpt lat="47.3448" lon="-2.33485">
        <ele>27.60000038147</ele>
        <time>2021-10-21T08:12:04.000Z</time>
      </trkpt>
      <trkpt lat="47.34477" lon="-2.33468">
        <ele>27.200000762939</ele>
        <time>2021-10-21T08:12:08.000Z</time>
      </trkpt>
      <trkpt lat="47.34476" lon="-2.33465">
        <ele>26.39999961853</ele>
        <time>2021-10-21T08:12:09.000Z</time>
      </trkpt>
      <trkpt lat="47.34475" lon="-2.33462">
        <ele>26</ele>
        <time>2021-10-21T08:12:10.000Z</time>
      </trkpt>
      <trkpt lat="47.34475" lon="-2.33458">
        <ele>25.60000038147</ele>
        <time>2021-10-21T08:12:11.000Z</time>
      </trkpt>
      <trkpt lat="47.34474" lon="-2.33448">
        <ele>25.60000038147</ele>
        <time>2021-10-21T08:12:14.000Z</time>
      </trkpt>
      <trkpt lat="47.3447" lon="-2.33434">
        <ele>25.60000038147</ele>
        <time>2021-10-21T08:12:19.000Z</time>
      </trkpt>
      <trkpt lat="47.34468" lon="-2.33423">
        <ele>25.60000038147</ele>
        <time>2021-10-21T08:12:24.000Z</time>
      </trkpt>
      <trkpt lat="47.34466" lon="-2.33407">
        <ele>25.60000038147</ele>
        <time>2021-10-21T08:12:29.000Z</time>
      </trkpt>
      <trkpt lat="47.34466" lon="-2.33404">
        <ele>25.60000038147</ele>
        <time>2021-10-21T08:12:30.000Z</time>
      </trkpt>
      <trkpt lat="47.34466" lon="-2.33389">
        <ele>25.60000038147</ele>
        <time>2021-10-21T08:12:35.000Z</time>
      </trkpt>
      <trkpt lat="47.34463" lon="-2.33369">
        <ele>25.60000038147</ele>
        <time>2021-10-21T08:12:39.000Z</time>
      </trkpt>
      <trkpt lat="47.34463" lon="-2.33363">
        <ele>25.60000038147</ele>
        <time>2021-10-21T08:12:40.000Z</time>
      </trkpt>
      <trkpt lat="47.34461" lon="-2.33344">
        <ele>25.60000038147</ele>
        <time>2021-10-21T08:12:44.000Z</time>
      </trkpt>
      <trkpt lat="47.34459" lon="-2.33322">
        <ele>25.60000038147</ele>
        <time>2021-10-21T08:12:49.000Z</time>
      </trkpt>
      <trkpt lat="47.34453" lon="-2.33309">
        <ele>25.60000038147</ele>
        <time>2021-10-21T08:12:54.000Z</time>
      </trkpt>
      <trkpt lat="47.34439" lon="-2.33299">
        <ele>25.60000038147</ele>
        <time>2021-10-21T08:13:00.000Z</time>
      </trkpt>
      <trkpt lat="47.34431" lon="-2.33283">
        <ele>25.60000038147</ele>
        <time>2021-10-21T08:13:04.000Z</time>
      </trkpt>
      <trkpt lat="47.34425" lon="-2.33252">
        <ele>25.60000038147</ele>
        <time>2021-10-21T08:13:10.000Z</time>
      </trkpt>
      <trkpt lat="47.34421" lon="-2.33231">
        <ele>25.60000038147</ele>
        <time>2021-10-21T08:13:13.000Z</time>
      </trkpt>
      <trkpt lat="47.34421" lon="-2.33224">
        <ele>25.200000762939</ele>
        <time>2021-10-21T08:13:14.000Z</time>
      </trkpt>
      <trkpt lat="47.34419" lon="-2.33217">
        <ele>24.60000038147</ele>
        <time>2021-10-21T08:13:15.000Z</time>
      </trkpt>
      <trkpt lat="47.34417" lon="-2.33211">
        <ele>24.200000762939</ele>
        <time>2021-10-21T08:13:16.000Z</time>
      </trkpt>
      <trkpt lat="47.34415" lon="-2.33205">
        <ele>23.799999237061</ele>
        <time>2021-10-21T08:13:17.000Z</time>
      </trkpt>
      <trkpt lat="47.34413" lon="-2.33198">
        <ele>23.39999961853</ele>
        <time>2021-10-21T08:13:18.000Z</time>
      </trkpt>
      <trkpt lat="47.34411" lon="-2.33183">
        <ele>23.39999961853</ele>
        <time>2021-10-21T08:13:20.000Z</time>
      </trkpt>
      <trkpt lat="47.34407" lon="-2.33159">
        <ele>22.60000038147</ele>
        <time>2021-10-21T08:13:24.000Z</time>
      </trkpt>
      <trkpt lat="47.34406" lon="-2.33156">
        <ele>22.200000762939</ele>
        <time>2021-10-21T08:13:25.000Z</time>
      </trkpt>
      <trkpt lat="47.34405" lon="-2.33153">
        <ele>21.799999237061</ele>
        <time>2021-10-21T08:13:26.000Z</time>
      </trkpt>
      <trkpt lat="47.34403" lon="-2.3315">
        <ele>21.39999961853</ele>
        <time>2021-10-21T08:13:27.000Z</time>
      </trkpt>
      <trkpt lat="47.34398" lon="-2.33136">
        <ele>21.39999961853</ele>
        <time>2021-10-21T08:13:31.000Z</time>
      </trkpt>
      <trkpt lat="47.34393" lon="-2.33124">
        <ele>21.39999961853</ele>
        <time>2021-10-21T08:13:35.000Z</time>
      </trkpt>
      <trkpt lat="47.34391" lon="-2.33117">
        <ele>21.39999961853</ele>
        <time>2021-10-21T08:13:37.000Z</time>
      </trkpt>
      <trkpt lat="47.34386" lon="-2.33095">
        <ele>21.39999961853</ele>
        <time>2021-10-21T08:13:42.000Z</time>
      </trkpt>
      <trkpt lat="47.3438" lon="-2.33069">
        <ele>21.39999961853</ele>
        <time>2021-10-21T08:13:46.000Z</time>
      </trkpt>
      <trkpt lat="47.34373" lon="-2.33037">
        <ele>21.39999961853</ele>
        <time>2021-10-21T08:13:52.000Z</time>
      </trkpt>
      <trkpt lat="47.34363" lon="-2.32999">
        <ele>21.39999961853</ele>
        <time>2021-10-21T08:13:59.000Z</time>
      </trkpt>
      <trkpt lat="47.34354" lon="-2.32952">
        <ele>21.39999961853</ele>
        <time>2021-10-21T08:14:06.000Z</time>
      </trkpt>
      <trkpt lat="47.34351" lon="-2.32924">
        <ele>21.39999961853</ele>
        <time>2021-10-21T08:14:11.000Z</time>
      </trkpt>
      <trkpt lat="47.34362" lon="-2.32898">
        <ele>21.39999961853</ele>
        <time>2021-10-21T08:14:16.000Z</time>
      </trkpt>
      <trkpt lat="47.34384" lon="-2.32874">
        <ele>21.39999961853</ele>
        <time>2021-10-21T08:14:22.000Z</time>
      </trkpt>
      <trkpt lat="47.34397" lon="-2.32862">
        <ele>21.39999961853</ele>
        <time>2021-10-21T08:14:25.000Z</time>
      </trkpt>
      <trkpt lat="47.34405" lon="-2.32854">
        <ele>21.39999961853</ele>
        <time>2021-10-21T08:14:27.000Z</time>
      </trkpt>
      <trkpt lat="47.34414" lon="-2.32848">
        <ele>21.39999961853</ele>
        <time>2021-10-21T08:14:29.000Z</time>
      </trkpt>
      <trkpt lat="47.34429" lon="-2.3284">
        <ele>21.39999961853</ele>
        <time>2021-10-21T08:14:32.000Z</time>
      </trkpt>
      <trkpt lat="47.34448" lon="-2.3283">
        <ele>21.39999961853</ele>
        <time>2021-10-21T08:14:36.000Z</time>
      </trkpt>
      <trkpt lat="47.34453" lon="-2.32821">
        <ele>21.39999961853</ele>
        <time>2021-10-21T08:14:38.000Z</time>
      </trkpt>
      <trkpt lat="47.34454" lon="-2.32817">
        <ele>21.39999961853</ele>
        <time>2021-10-21T08:14:39.000Z</time>
      </trkpt>
      <trkpt lat="47.34453" lon="-2.32798">
        <ele>21.799999237061</ele>
        <time>2021-10-21T08:14:43.000Z</time>
      </trkpt>
      <trkpt lat="47.34452" lon="-2.32794">
        <ele>22.200000762939</ele>
        <time>2021-10-21T08:14:44.000Z</time>
      </trkpt>
      <trkpt lat="47.34451" lon="-2.32789">
        <ele>22.60000038147</ele>
        <time>2021-10-21T08:14:45.000Z</time>
      </trkpt>
      <trkpt lat="47.34451" lon="-2.32784">
        <ele>23</ele>
        <time>2021-10-21T08:14:46.000Z</time>
      </trkpt>
      <trkpt lat="47.34451" lon="-2.32779">
        <ele>23.39999961853</ele>
        <time>2021-10-21T08:14:47.000Z</time>
      </trkpt>
      <trkpt lat="47.34455" lon="-2.32764">
        <ele>23.39999961853</ele>
        <time>2021-10-21T08:14:50.000Z</time>
      </trkpt>
      <trkpt lat="47.34463" lon="-2.32755">
        <ele>23.799999237061</ele>
        <time>2021-10-21T08:14:53.000Z</time>
      </trkpt>
      <trkpt lat="47.34467" lon="-2.32752">
        <ele>24.200000762939</ele>
        <time>2021-10-21T08:14:54.000Z</time>
      </trkpt>
      <trkpt lat="47.34472" lon="-2.32748">
        <ele>24.799999237061</ele>
        <time>2021-10-21T08:14:55.000Z</time>
      </trkpt>
      <trkpt lat="47.34476" lon="-2.32745">
        <ele>25.200000762939</ele>
        <time>2021-10-21T08:14:56.000Z</time>
      </trkpt>
      <trkpt lat="47.3448" lon="-2.32743">
        <ele>25.60000038147</ele>
        <time>2021-10-21T08:14:57.000Z</time>
      </trkpt>
      <trkpt lat="47.34497" lon="-2.32731">
        <ele>25.60000038147</ele>
        <time>2021-10-21T08:15:01.000Z</time>
      </trkpt>
      <trkpt lat="47.34527" lon="-2.32711">
        <ele>25.60000038147</ele>
        <time>2021-10-21T08:15:07.000Z</time>
      </trkpt>
      <trkpt lat="47.34568" lon="-2.32679">
        <ele>25.60000038147</ele>
        <time>2021-10-21T08:15:15.000Z</time>
      </trkpt>
      <trkpt lat="47.34596" lon="-2.32653">
        <ele>25.200000762939</ele>
        <time>2021-10-21T08:15:20.000Z</time>
      </trkpt>
      <trkpt lat="47.34601" lon="-2.32646">
        <ele>24.60000038147</ele>
        <time>2021-10-21T08:15:21.000Z</time>
      </trkpt>
      <trkpt lat="47.34606" lon="-2.3264">
        <ele>24.200000762939</ele>
        <time>2021-10-21T08:15:22.000Z</time>
      </trkpt>
      <trkpt lat="47.34611" lon="-2.32634">
        <ele>23.799999237061</ele>
        <time>2021-10-21T08:15:23.000Z</time>
      </trkpt>
      <trkpt lat="47.34616" lon="-2.32628">
        <ele>23.39999961853</ele>
        <time>2021-10-21T08:15:24.000Z</time>
      </trkpt>
      <trkpt lat="47.34632" lon="-2.32604">
        <ele>23</ele>
        <time>2021-10-21T08:15:28.000Z</time>
      </trkpt>
      <trkpt lat="47.34637" lon="-2.32598">
        <ele>22.60000038147</ele>
        <time>2021-10-21T08:15:29.000Z</time>
      </trkpt>
      <trkpt lat="47.3464" lon="-2.32592">
        <ele>22</ele>
        <time>2021-10-21T08:15:30.000Z</time>
      </trkpt>
      <trkpt lat="47.34644" lon="-2.32586">
        <ele>21.60000038147</ele>
        <time>2021-10-21T08:15:31.000Z</time>
      </trkpt>
      <trkpt lat="47.34647" lon="-2.3258">
        <ele>21.200000762939</ele>
        <time>2021-10-21T08:15:32.000Z</time>
      </trkpt>
      <trkpt lat="47.34653" lon="-2.32567">
        <ele>21.200000762939</ele>
        <time>2021-10-21T08:15:34.000Z</time>
      </trkpt>
      <trkpt lat="47.3467" lon="-2.3253">
        <ele>21.200000762939</ele>
        <time>2021-10-21T08:15:40.000Z</time>
      </trkpt>
      <trkpt lat="47.34681" lon="-2.3252">
        <ele>21.200000762939</ele>
        <time>2021-10-21T08:15:43.000Z</time>
      </trkpt>
      <trkpt lat="47.347" lon="-2.32515">
        <ele>21.200000762939</ele>
        <time>2021-10-21T08:15:47.000Z</time>
      </trkpt>
      <trkpt lat="47.34709" lon="-2.32512">
        <ele>21.200000762939</ele>
        <time>2021-10-21T08:15:49.000Z</time>
      </trkpt>
      <trkpt lat="47.34728" lon="-2.32503">
        <ele>21.200000762939</ele>
        <time>2021-10-21T08:15:53.000Z</time>
      </trkpt>
      <trkpt lat="47.34738" lon="-2.32496">
        <ele>21.200000762939</ele>
        <time>2021-10-21T08:15:55.000Z</time>
      </trkpt>
      <trkpt lat="47.34747" lon="-2.3249">
        <ele>21.200000762939</ele>
        <time>2021-10-21T08:15:57.000Z</time>
      </trkpt>
      <trkpt lat="47.34761" lon="-2.3248">
        <ele>21.200000762939</ele>
        <time>2021-10-21T08:16:00.000Z</time>
      </trkpt>
      <trkpt lat="47.34768" lon="-2.32472">
        <ele>21.200000762939</ele>
        <time>2021-10-21T08:16:02.000Z</time>
      </trkpt>
      <trkpt lat="47.34788" lon="-2.32452">
        <ele>21.200000762939</ele>
        <time>2021-10-21T08:16:07.000Z</time>
      </trkpt>
      <trkpt lat="47.34791" lon="-2.32447">
        <ele>21.200000762939</ele>
        <time>2021-10-21T08:16:08.000Z</time>
      </trkpt>
      <trkpt lat="47.34811" lon="-2.32419">
        <ele>21.200000762939</ele>
        <time>2021-10-21T08:16:13.000Z</time>
      </trkpt>
      <trkpt lat="47.34819" lon="-2.32408">
        <ele>21.200000762939</ele>
        <time>2021-10-21T08:16:15.000Z</time>
      </trkpt>
      <trkpt lat="47.34827" lon="-2.32398">
        <ele>20.39999961853</ele>
        <time>2021-10-21T08:16:17.000Z</time>
      </trkpt>
      <trkpt lat="47.34832" lon="-2.32393">
        <ele>20</ele>
        <time>2021-10-21T08:16:18.000Z</time>
      </trkpt>
      <trkpt lat="47.34836" lon="-2.32387">
        <ele>19.60000038147</ele>
        <time>2021-10-21T08:16:19.000Z</time>
      </trkpt>
      <trkpt lat="47.3484" lon="-2.32382">
        <ele>19.200000762939</ele>
        <time>2021-10-21T08:16:20.000Z</time>
      </trkpt>
      <trkpt lat="47.34855" lon="-2.32363">
        <ele>19.200000762939</ele>
        <time>2021-10-21T08:16:24.000Z</time>
      </trkpt>
      <trkpt lat="47.34864" lon="-2.32347">
        <ele>19.200000762939</ele>
        <time>2021-10-21T08:16:27.000Z</time>
      </trkpt>
      <trkpt lat="47.34868" lon="-2.32334">
        <ele>19.200000762939</ele>
        <time>2021-10-21T08:16:29.000Z</time>
      </trkpt>
      <trkpt lat="47.34867" lon="-2.32319">
        <ele>19.200000762939</ele>
        <time>2021-10-21T08:16:32.000Z</time>
      </trkpt>
      <trkpt lat="47.34861" lon="-2.32307">
        <ele>19.200000762939</ele>
        <time>2021-10-21T08:16:35.000Z</time>
      </trkpt>
      <trkpt lat="47.34858" lon="-2.32303">
        <ele>19.200000762939</ele>
        <time>2021-10-21T08:16:36.000Z</time>
      </trkpt>
      <trkpt lat="47.34839" lon="-2.32282">
        <ele>19.200000762939</ele>
        <time>2021-10-21T08:16:41.000Z</time>
      </trkpt>
      <trkpt lat="47.34827" lon="-2.32269">
        <ele>19.200000762939</ele>
        <time>2021-10-21T08:16:46.000Z</time>
      </trkpt>
      <trkpt lat="47.34822" lon="-2.32267">
        <ele>19.200000762939</ele>
        <time>2021-10-21T08:16:52.000Z</time>
      </trkpt>
      <trkpt lat="47.3482" lon="-2.3226">
        <ele>19.200000762939</ele>
        <time>2021-10-21T08:16:57.000Z</time>
      </trkpt>
      <trkpt lat="47.34818" lon="-2.32254">
        <ele>19.200000762939</ele>
        <time>2021-10-21T08:16:59.000Z</time>
      </trkpt>
      <trkpt lat="47.34808" lon="-2.32238">
        <ele>19.200000762939</ele>
        <time>2021-10-21T08:17:03.000Z</time>
      </trkpt>
      <trkpt lat="47.34806" lon="-2.32233">
        <ele>19.200000762939</ele>
        <time>2021-10-21T08:17:04.000Z</time>
      </trkpt>
      <trkpt lat="47.34792" lon="-2.32211">
        <ele>19.200000762939</ele>
        <time>2021-10-21T08:17:09.000Z</time>
      </trkpt>
      <trkpt lat="47.34781" lon="-2.3219">
        <ele>19.200000762939</ele>
        <time>2021-10-21T08:17:14.000Z</time>
      </trkpt>
      <trkpt lat="47.34764" lon="-2.32158">
        <ele>19.200000762939</ele>
        <time>2021-10-21T08:17:21.000Z</time>
      </trkpt>
      <trkpt lat="47.3475" lon="-2.32131">
        <ele>19.200000762939</ele>
        <time>2021-10-21T08:17:27.000Z</time>
      </trkpt>
      <trkpt lat="47.3473" lon="-2.32115">
        <ele>19.200000762939</ele>
        <time>2021-10-21T08:17:33.000Z</time>
      </trkpt>
      <trkpt lat="47.34717" lon="-2.32122">
        <ele>19.200000762939</ele>
        <time>2021-10-21T08:17:37.000Z</time>
      </trkpt>
      <trkpt lat="47.34711" lon="-2.32128">
        <ele>19.200000762939</ele>
        <time>2021-10-21T08:17:41.000Z</time>
      </trkpt>
      <trkpt lat="47.34708" lon="-2.32131">
        <ele>19.200000762939</ele>
        <time>2021-10-21T08:17:46.000Z</time>
      </trkpt>
      <trkpt lat="47.34706" lon="-2.32132">
        <ele>19.200000762939</ele>
        <time>2021-10-21T08:17:50.000Z</time>
      </trkpt>
      <trkpt lat="47.34697" lon="-2.32139">
        <ele>19.200000762939</ele>
        <time>2021-10-21T08:17:54.000Z</time>
      </trkpt>
      <trkpt lat="47.34676" lon="-2.32159">
        <ele>19.200000762939</ele>
        <time>2021-10-21T08:18:01.000Z</time>
      </trkpt>
      <trkpt lat="47.34649" lon="-2.32181">
        <ele>19.200000762939</ele>
        <time>2021-10-21T08:18:09.000Z</time>
      </trkpt>
      <trkpt lat="47.34635" lon="-2.32193">
        <ele>19.200000762939</ele>
        <time>2021-10-21T08:18:13.000Z</time>
      </trkpt>
      <trkpt lat="47.34627" lon="-2.32197">
        <ele>19.60000038147</ele>
        <time>2021-10-21T08:18:15.000Z</time>
      </trkpt>
      <trkpt lat="47.34623" lon="-2.32199">
        <ele>20</ele>
        <time>2021-10-21T08:18:16.000Z</time>
      </trkpt>
      <trkpt lat="47.3462" lon="-2.32202">
        <ele>20.39999961853</ele>
        <time>2021-10-21T08:18:17.000Z</time>
      </trkpt>
      <trkpt lat="47.34616" lon="-2.32205">
        <ele>20.799999237061</ele>
        <time>2021-10-21T08:18:18.000Z</time>
      </trkpt>
      <trkpt lat="47.34613" lon="-2.32208">
        <ele>21.200000762939</ele>
        <time>2021-10-21T08:18:19.000Z</time>
      </trkpt>
      <trkpt lat="47.34606" lon="-2.32214">
        <ele>21.200000762939</ele>
        <time>2021-10-21T08:18:21.000Z</time>
      </trkpt>
      <trkpt lat="47.34596" lon="-2.32224">
        <ele>21.200000762939</ele>
        <time>2021-10-21T08:18:24.000Z</time>
      </trkpt>
      <trkpt lat="47.34586" lon="-2.32234">
        <ele>21.200000762939</ele>
        <time>2021-10-21T08:18:27.000Z</time>
      </trkpt>
      <trkpt lat="47.3456" lon="-2.32256">
        <ele>21.200000762939</ele>
        <time>2021-10-21T08:18:34.000Z</time>
      </trkpt>
      <trkpt lat="47.34541" lon="-2.32273">
        <ele>21.60000038147</ele>
        <time>2021-10-21T08:18:39.000Z</time>
      </trkpt>
      <trkpt lat="47.34537" lon="-2.32277">
        <ele>22.200000762939</ele>
        <time>2021-10-21T08:18:40.000Z</time>
      </trkpt>
      <trkpt lat="47.34532" lon="-2.3228">
        <ele>22.60000038147</ele>
        <time>2021-10-21T08:18:41.000Z</time>
      </trkpt>
      <trkpt lat="47.34528" lon="-2.32284">
        <ele>23</ele>
        <time>2021-10-21T08:18:42.000Z</time>
      </trkpt>
      <trkpt lat="47.34524" lon="-2.32287">
        <ele>23.39999961853</ele>
        <time>2021-10-21T08:18:43.000Z</time>
      </trkpt>
      <trkpt lat="47.34509" lon="-2.32302">
        <ele>23.39999961853</ele>
        <time>2021-10-21T08:18:47.000Z</time>
      </trkpt>
      <trkpt lat="47.34483" lon="-2.32328">
        <ele>23.39999961853</ele>
        <time>2021-10-21T08:18:54.000Z</time>
      </trkpt>
      <trkpt lat="47.34469" lon="-2.32344">
        <ele>23.799999237061</ele>
        <time>2021-10-21T08:18:58.000Z</time>
      </trkpt>
      <trkpt lat="47.34465" lon="-2.32348">
        <ele>24.200000762939</ele>
        <time>2021-10-21T08:18:59.000Z</time>
      </trkpt>
      <trkpt lat="47.34461" lon="-2.32352">
        <ele>24.60000038147</ele>
        <time>2021-10-21T08:19:00.000Z</time>
      </trkpt>
      <trkpt lat="47.34458" lon="-2.32356">
        <ele>25</ele>
        <time>2021-10-21T08:19:01.000Z</time>
      </trkpt>
      <trkpt lat="47.34454" lon="-2.3236">
        <ele>25.39999961853</ele>
        <time>2021-10-21T08:19:02.000Z</time>
      </trkpt>
      <trkpt lat="47.3445" lon="-2.32364">
        <ele>25.39999961853</ele>
        <time>2021-10-21T08:19:03.000Z</time>
      </trkpt>
      <trkpt lat="47.34419" lon="-2.32397">
        <ele>25.39999961853</ele>
        <time>2021-10-21T08:19:11.000Z</time>
      </trkpt>
      <trkpt lat="47.34395" lon="-2.32432">
        <ele>25.39999961853</ele>
        <time>2021-10-21T08:19:18.000Z</time>
      </trkpt>
      <trkpt lat="47.34374" lon="-2.32475">
        <ele>25.39999961853</ele>
        <time>2021-10-21T08:19:25.000Z</time>
      </trkpt>
      <trkpt lat="47.34349" lon="-2.32523">
        <ele>25.39999961853</ele>
        <time>2021-10-21T08:19:33.000Z</time>
      </trkpt>
      <trkpt lat="47.34337" lon="-2.32538">
        <ele>25.39999961853</ele>
        <time>2021-10-21T08:19:36.000Z</time>
      </trkpt>
      <trkpt lat="47.34329" lon="-2.32545">
        <ele>25.39999961853</ele>
        <time>2021-10-21T08:19:38.000Z</time>
      </trkpt>
      <trkpt lat="47.34324" lon="-2.32548">
        <ele>25.39999961853</ele>
        <time>2021-10-21T08:19:39.000Z</time>
      </trkpt>
      <trkpt lat="47.34296" lon="-2.32557">
        <ele>25.39999961853</ele>
        <time>2021-10-21T08:19:45.000Z</time>
      </trkpt>
      <trkpt lat="47.34268" lon="-2.32562">
        <ele>25.39999961853</ele>
        <time>2021-10-21T08:19:51.000Z</time>
      </trkpt>
      <trkpt lat="47.34224" lon="-2.32571">
        <ele>25.39999961853</ele>
        <time>2021-10-21T08:20:00.000Z</time>
      </trkpt>
      <trkpt lat="47.34205" lon="-2.32574">
        <ele>25.39999961853</ele>
        <time>2021-10-21T08:20:04.000Z</time>
      </trkpt>
      <trkpt lat="47.34191" lon="-2.32576">
        <ele>25.799999237061</ele>
        <time>2021-10-21T08:20:07.000Z</time>
      </trkpt>
      <trkpt lat="47.34187" lon="-2.32576">
        <ele>26.200000762939</ele>
        <time>2021-10-21T08:20:08.000Z</time>
      </trkpt>
      <trkpt lat="47.34182" lon="-2.32576">
        <ele>26.60000038147</ele>
        <time>2021-10-21T08:20:09.000Z</time>
      </trkpt>
      <trkpt lat="47.34178" lon="-2.32576">
        <ele>27</ele>
        <time>2021-10-21T08:20:10.000Z</time>
      </trkpt>
      <trkpt lat="47.34174" lon="-2.32577">
        <ele>27.39999961853</ele>
        <time>2021-10-21T08:20:11.000Z</time>
      </trkpt>
      <trkpt lat="47.34166" lon="-2.32576">
        <ele>27.39999961853</ele>
        <time>2021-10-21T08:20:13.000Z</time>
      </trkpt>
      <trkpt lat="47.3416" lon="-2.32571">
        <ele>27.39999961853</ele>
        <time>2021-10-21T08:20:15.000Z</time>
      </trkpt>
      <trkpt lat="47.34158" lon="-2.32566">
        <ele>27.39999961853</ele>
        <time>2021-10-21T08:20:16.000Z</time>
      </trkpt>
      <trkpt lat="47.34156" lon="-2.32547">
        <ele>27.39999961853</ele>
        <time>2021-10-21T08:20:19.000Z</time>
      </trkpt>
      <trkpt lat="47.34156" lon="-2.3254">
        <ele>27.39999961853</ele>
        <time>2021-10-21T08:20:20.000Z</time>
      </trkpt>
      <trkpt lat="47.3415" lon="-2.32479">
        <ele>27.39999961853</ele>
        <time>2021-10-21T08:20:28.000Z</time>
      </trkpt>
      <trkpt lat="47.34137" lon="-2.32433">
        <ele>27.39999961853</ele>
        <time>2021-10-21T08:20:34.000Z</time>
      </trkpt>
      <trkpt lat="47.34132" lon="-2.32417">
        <ele>27.39999961853</ele>
        <time>2021-10-21T08:20:36.000Z</time>
      </trkpt>
      <trkpt lat="47.34125" lon="-2.32393">
        <ele>27.39999961853</ele>
        <time>2021-10-21T08:20:39.000Z</time>
      </trkpt>
      <trkpt lat="47.34122" lon="-2.32385">
        <ele>27.39999961853</ele>
        <time>2021-10-21T08:20:40.000Z</time>
      </trkpt>
      <trkpt lat="47.34111" lon="-2.32347">
        <ele>27.39999961853</ele>
        <time>2021-10-21T08:20:45.000Z</time>
      </trkpt>
      <trkpt lat="47.34105" lon="-2.32323">
        <ele>27</ele>
        <time>2021-10-21T08:20:48.000Z</time>
      </trkpt>
      <trkpt lat="47.34103" lon="-2.32315">
        <ele>26.60000038147</ele>
        <time>2021-10-21T08:20:49.000Z</time>
      </trkpt>
      <trkpt lat="47.34101" lon="-2.32307">
        <ele>26.200000762939</ele>
        <time>2021-10-21T08:20:50.000Z</time>
      </trkpt>
      <trkpt lat="47.34098" lon="-2.32299">
        <ele>25.799999237061</ele>
        <time>2021-10-21T08:20:51.000Z</time>
      </trkpt>
      <trkpt lat="47.34096" lon="-2.3229">
        <ele>25.39999961853</ele>
        <time>2021-10-21T08:20:52.000Z</time>
      </trkpt>
      <trkpt lat="47.34085" lon="-2.32253">
        <ele>25.39999961853</ele>
        <time>2021-10-21T08:20:56.000Z</time>
      </trkpt>
      <trkpt lat="47.34081" lon="-2.32244">
        <ele>24.799999237061</ele>
        <time>2021-10-21T08:20:57.000Z</time>
      </trkpt>
      <trkpt lat="47.34077" lon="-2.32237">
        <ele>24.39999961853</ele>
        <time>2021-10-21T08:20:58.000Z</time>
      </trkpt>
      <trkpt lat="47.3407" lon="-2.3223">
        <ele>24</ele>
        <time>2021-10-21T08:20:59.000Z</time>
      </trkpt>
      <trkpt lat="47.34064" lon="-2.32225">
        <ele>23.60000038147</ele>
        <time>2021-10-21T08:21:00.000Z</time>
      </trkpt>
      <trkpt lat="47.34057" lon="-2.32222">
        <ele>23</ele>
        <time>2021-10-21T08:21:01.000Z</time>
      </trkpt>
      <trkpt lat="47.34037" lon="-2.32216">
        <ele>23</ele>
        <time>2021-10-21T08:21:04.000Z</time>
      </trkpt>
      <trkpt lat="47.3403" lon="-2.32216">
        <ele>23</ele>
        <time>2021-10-21T08:21:05.000Z</time>
      </trkpt>
      <trkpt lat="47.33989" lon="-2.32217">
        <ele>22.60000038147</ele>
        <time>2021-10-21T08:21:12.000Z</time>
      </trkpt>
      <trkpt lat="47.33983" lon="-2.32218">
        <ele>21.799999237061</ele>
        <time>2021-10-21T08:21:13.000Z</time>
      </trkpt>
      <trkpt lat="47.33978" lon="-2.32218">
        <ele>21.39999961853</ele>
        <time>2021-10-21T08:21:14.000Z</time>
      </trkpt>
      <trkpt lat="47.33973" lon="-2.32218">
        <ele>21</ele>
        <time>2021-10-21T08:21:15.000Z</time>
      </trkpt>
      <trkpt lat="47.33963" lon="-2.32215">
        <ele>21</ele>
        <time>2021-10-21T08:21:17.000Z</time>
      </trkpt>
      <trkpt lat="47.33959" lon="-2.32214">
        <ele>21</ele>
        <time>2021-10-21T08:21:18.000Z</time>
      </trkpt>
      <trkpt lat="47.33949" lon="-2.32205">
        <ele>21</ele>
        <time>2021-10-21T08:21:21.000Z</time>
      </trkpt>
      <trkpt lat="47.33945" lon="-2.32199">
        <ele>21</ele>
        <time>2021-10-21T08:21:23.000Z</time>
      </trkpt>
      <trkpt lat="47.33945" lon="-2.32198">
        <ele>21</ele>
        <time>2021-10-21T08:21:24.000Z</time>
      </trkpt>
      <trkpt lat="47.33942" lon="-2.322">
        <ele>18.799999237061</ele>
        <time>2021-10-21T08:35:35.000Z</time>
      </trkpt>
      <trkpt lat="47.33937" lon="-2.32199">
        <ele>18.799999237061</ele>
        <time>2021-10-21T08:35:38.000Z</time>
      </trkpt>
      <trkpt lat="47.3393" lon="-2.32201">
        <ele>18.799999237061</ele>
        <time>2021-10-21T08:35:41.000Z</time>
      </trkpt>
      <trkpt lat="47.33922" lon="-2.322">
        <ele>18.799999237061</ele>
        <time>2021-10-21T08:35:44.000Z</time>
      </trkpt>
      <trkpt lat="47.33908" lon="-2.32201">
        <ele>18.799999237061</ele>
        <time>2021-10-21T08:35:49.000Z</time>
      </trkpt>
      <trkpt lat="47.33893" lon="-2.322">
        <ele>18.799999237061</ele>
        <time>2021-10-21T08:35:54.000Z</time>
      </trkpt>
      <trkpt lat="47.3388" lon="-2.32199">
        <ele>18.799999237061</ele>
        <time>2021-10-21T08:36:00.000Z</time>
      </trkpt>
      <trkpt lat="47.33863" lon="-2.32202">
        <ele>18.799999237061</ele>
        <time>2021-10-21T08:36:07.000Z</time>
      </trkpt>
      <trkpt lat="47.33844" lon="-2.32203">
        <ele>18.799999237061</ele>
        <time>2021-10-21T08:36:13.000Z</time>
      </trkpt>
      <trkpt lat="47.33824" lon="-2.32206">
        <ele>18.799999237061</ele>
        <time>2021-10-21T08:36:19.000Z</time>
      </trkpt>
      <trkpt lat="47.33816" lon="-2.32208">
        <ele>19.200000762939</ele>
        <time>2021-10-21T08:36:21.000Z</time>
      </trkpt>
      <trkpt lat="47.33812" lon="-2.32208">
        <ele>19.60000038147</ele>
        <time>2021-10-21T08:36:22.000Z</time>
      </trkpt>
      <trkpt lat="47.33808" lon="-2.32209">
        <ele>20</ele>
        <time>2021-10-21T08:36:23.000Z</time>
      </trkpt>
      <trkpt lat="47.33804" lon="-2.3221">
        <ele>20.39999961853</ele>
        <time>2021-10-21T08:36:24.000Z</time>
      </trkpt>
      <trkpt lat="47.338" lon="-2.32211">
        <ele>21</ele>
        <time>2021-10-21T08:36:25.000Z</time>
      </trkpt>
      <trkpt lat="47.33796" lon="-2.32211">
        <ele>21</ele>
        <time>2021-10-21T08:36:26.000Z</time>
      </trkpt>
      <trkpt lat="47.33768" lon="-2.32218">
        <ele>21</ele>
        <time>2021-10-21T08:36:32.000Z</time>
      </trkpt>
      <trkpt lat="47.33755" lon="-2.32224">
        <ele>21</ele>
        <time>2021-10-21T08:36:35.000Z</time>
      </trkpt>
      <trkpt lat="47.33747" lon="-2.32228">
        <ele>21</ele>
        <time>2021-10-21T08:36:37.000Z</time>
      </trkpt>
      <trkpt lat="47.33729" lon="-2.3224">
        <ele>21</ele>
        <time>2021-10-21T08:36:41.000Z</time>
      </trkpt>
      <trkpt lat="47.3372" lon="-2.32244">
        <ele>21</ele>
        <time>2021-10-21T08:36:43.000Z</time>
      </trkpt>
      <trkpt lat="47.33688" lon="-2.32264">
        <ele>21</ele>
        <time>2021-10-21T08:36:50.000Z</time>
      </trkpt>
      <trkpt lat="47.33665" lon="-2.32276">
        <ele>21</ele>
        <time>2021-10-21T08:36:55.000Z</time>
      </trkpt>
      <trkpt lat="47.3366" lon="-2.32277">
        <ele>21</ele>
        <time>2021-10-21T08:36:56.000Z</time>
      </trkpt>
      <trkpt lat="47.33622" lon="-2.32288">
        <ele>21</ele>
        <time>2021-10-21T08:37:04.000Z</time>
      </trkpt>
      <trkpt lat="47.33596" lon="-2.32291">
        <ele>21</ele>
        <time>2021-10-21T08:37:09.000Z</time>
      </trkpt>
      <trkpt lat="47.33563" lon="-2.32301">
        <ele>21</ele>
        <time>2021-10-21T08:37:15.000Z</time>
      </trkpt>
      <trkpt lat="47.33546" lon="-2.32305">
        <ele>21</ele>
        <time>2021-10-21T08:37:18.000Z</time>
      </trkpt>
      <trkpt lat="47.33533" lon="-2.32304">
        <ele>21</ele>
        <time>2021-10-21T08:37:20.000Z</time>
      </trkpt>
      <trkpt lat="47.33506" lon="-2.32314">
        <ele>21</ele>
        <time>2021-10-21T08:37:24.000Z</time>
      </trkpt>
      <trkpt lat="47.33486" lon="-2.32324">
        <ele>20.39999961853</ele>
        <time>2021-10-21T08:37:27.000Z</time>
      </trkpt>
      <trkpt lat="47.3348" lon="-2.32328">
        <ele>20</ele>
        <time>2021-10-21T08:37:28.000Z</time>
      </trkpt>
      <trkpt lat="47.33473" lon="-2.32331">
        <ele>19.60000038147</ele>
        <time>2021-10-21T08:37:29.000Z</time>
      </trkpt>
      <trkpt lat="47.33466" lon="-2.32335">
        <ele>19.200000762939</ele>
        <time>2021-10-21T08:37:30.000Z</time>
      </trkpt>
      <trkpt lat="47.3346" lon="-2.32338">
        <ele>18.799999237061</ele>
        <time>2021-10-21T08:37:31.000Z</time>
      </trkpt>
      <trkpt lat="47.33427" lon="-2.32361">
        <ele>18.799999237061</ele>
        <time>2021-10-21T08:37:37.000Z</time>
      </trkpt>
      <trkpt lat="47.33397" lon="-2.32386">
        <ele>18.799999237061</ele>
        <time>2021-10-21T08:37:43.000Z</time>
      </trkpt>
      <trkpt lat="47.3337" lon="-2.32411">
        <ele>18.799999237061</ele>
        <time>2021-10-21T08:37:49.000Z</time>
      </trkpt>
      <trkpt lat="47.33365" lon="-2.32414">
        <ele>18.799999237061</ele>
        <time>2021-10-21T08:37:50.000Z</time>
      </trkpt>
      <trkpt lat="47.3335" lon="-2.32432">
        <ele>18.799999237061</ele>
        <time>2021-10-21T08:37:54.000Z</time>
      </trkpt>
      <trkpt lat="47.33336" lon="-2.32453">
        <ele>18.799999237061</ele>
        <time>2021-10-21T08:37:59.000Z</time>
      </trkpt>
      <trkpt lat="47.33325" lon="-2.32458">
        <ele>18.799999237061</ele>
        <time>2021-10-21T08:38:02.000Z</time>
      </trkpt>
      <trkpt lat="47.33321" lon="-2.3246">
        <ele>19.200000762939</ele>
        <time>2021-10-21T08:38:03.000Z</time>
      </trkpt>
      <trkpt lat="47.33317" lon="-2.32462">
        <ele>19.60000038147</ele>
        <time>2021-10-21T08:38:04.000Z</time>
      </trkpt>
      <trkpt lat="47.33314" lon="-2.32463">
        <ele>20</ele>
        <time>2021-10-21T08:38:05.000Z</time>
      </trkpt>
      <trkpt lat="47.3331" lon="-2.32465">
        <ele>20.799999237061</ele>
        <time>2021-10-21T08:38:06.000Z</time>
      </trkpt>
      <trkpt lat="47.33297" lon="-2.32472">
        <ele>20.799999237061</ele>
        <time>2021-10-21T08:38:09.000Z</time>
      </trkpt>
      <trkpt lat="47.33261" lon="-2.3249">
        <ele>20.799999237061</ele>
        <time>2021-10-21T08:38:17.000Z</time>
      </trkpt>
      <trkpt lat="47.33227" lon="-2.32506">
        <ele>20.799999237061</ele>
        <time>2021-10-21T08:38:24.000Z</time>
      </trkpt>
      <trkpt lat="47.33196" lon="-2.32519">
        <ele>20.799999237061</ele>
        <time>2021-10-21T08:38:30.000Z</time>
      </trkpt>
      <trkpt lat="47.3318" lon="-2.32528">
        <ele>20.799999237061</ele>
        <time>2021-10-21T08:38:33.000Z</time>
      </trkpt>
      <trkpt lat="47.33164" lon="-2.32538">
        <ele>20.799999237061</ele>
        <time>2021-10-21T08:38:36.000Z</time>
      </trkpt>
      <trkpt lat="47.33128" lon="-2.32562">
        <ele>20.799999237061</ele>
        <time>2021-10-21T08:38:42.000Z</time>
      </trkpt>
      <trkpt lat="47.331" lon="-2.32586">
        <ele>20.799999237061</ele>
        <time>2021-10-21T08:38:47.000Z</time>
      </trkpt>
      <trkpt lat="47.33057" lon="-2.3262">
        <ele>20.799999237061</ele>
        <time>2021-10-21T08:38:54.000Z</time>
      </trkpt>
      <trkpt lat="47.33051" lon="-2.32626">
        <ele>20</ele>
        <time>2021-10-21T08:38:55.000Z</time>
      </trkpt>
      <trkpt lat="47.33045" lon="-2.32631">
        <ele>19.60000038147</ele>
        <time>2021-10-21T08:38:56.000Z</time>
      </trkpt>
      <trkpt lat="47.33039" lon="-2.32636">
        <ele>19.200000762939</ele>
        <time>2021-10-21T08:38:57.000Z</time>
      </trkpt>
      <trkpt lat="47.33033" lon="-2.32639">
        <ele>18.799999237061</ele>
        <time>2021-10-21T08:38:58.000Z</time>
      </trkpt>
      <trkpt lat="47.33014" lon="-2.32637">
        <ele>18.799999237061</ele>
        <time>2021-10-21T08:39:01.000Z</time>
      </trkpt>
      <trkpt lat="47.3299" lon="-2.32634">
        <ele>18.799999237061</ele>
        <time>2021-10-21T08:39:05.000Z</time>
      </trkpt>
      <trkpt lat="47.32979" lon="-2.32642">
        <ele>18.799999237061</ele>
        <time>2021-10-21T08:39:07.000Z</time>
      </trkpt>
      <trkpt lat="47.32975" lon="-2.32644">
        <ele>18.799999237061</ele>
        <time>2021-10-21T08:39:08.000Z</time>
      </trkpt>
      <trkpt lat="47.32949" lon="-2.3265">
        <ele>18.799999237061</ele>
        <time>2021-10-21T08:39:13.000Z</time>
      </trkpt>
      <trkpt lat="47.32942" lon="-2.32651">
        <ele>18.799999237061</ele>
        <time>2021-10-21T08:39:14.000Z</time>
      </trkpt>
      <trkpt lat="47.32924" lon="-2.32645">
        <ele>18.799999237061</ele>
        <time>2021-10-21T08:39:17.000Z</time>
      </trkpt>
      <trkpt lat="47.32917" lon="-2.32625">
        <ele>18.799999237061</ele>
        <time>2021-10-21T08:39:20.000Z</time>
      </trkpt>
      <trkpt lat="47.32918" lon="-2.32609">
        <ele>18.799999237061</ele>
        <time>2021-10-21T08:39:22.000Z</time>
      </trkpt>
      <trkpt lat="47.32918" lon="-2.32591">
        <ele>18.799999237061</ele>
        <time>2021-10-21T08:39:24.000Z</time>
      </trkpt>
      <trkpt lat="47.32913" lon="-2.32526">
        <ele>18.799999237061</ele>
        <time>2021-10-21T08:39:31.000Z</time>
      </trkpt>
      <trkpt lat="47.329" lon="-2.32478">
        <ele>18.799999237061</ele>
        <time>2021-10-21T08:39:36.000Z</time>
      </trkpt>
      <trkpt lat="47.3288" lon="-2.32451">
        <ele>18.799999237061</ele>
        <time>2021-10-21T08:39:40.000Z</time>
      </trkpt>
      <trkpt lat="47.32862" lon="-2.32439">
        <ele>18.799999237061</ele>
        <time>2021-10-21T08:39:43.000Z</time>
      </trkpt>
      <trkpt lat="47.32856" lon="-2.32436">
        <ele>18.799999237061</ele>
        <time>2021-10-21T08:39:44.000Z</time>
      </trkpt>
      <trkpt lat="47.32821" lon="-2.32407">
        <ele>18.799999237061</ele>
        <time>2021-10-21T08:39:50.000Z</time>
      </trkpt>
      <trkpt lat="47.32787" lon="-2.32374">
        <ele>18.799999237061</ele>
        <time>2021-10-21T08:39:56.000Z</time>
      </trkpt>
      <trkpt lat="47.32753" lon="-2.32354">
        <ele>18.799999237061</ele>
        <time>2021-10-21T08:40:02.000Z</time>
      </trkpt>
      <trkpt lat="47.32729" lon="-2.32341">
        <ele>18.799999237061</ele>
        <time>2021-10-21T08:40:07.000Z</time>
      </trkpt>
      <trkpt lat="47.32699" lon="-2.32325">
        <ele>19.200000762939</ele>
        <time>2021-10-21T08:40:13.000Z</time>
      </trkpt>
      <trkpt lat="47.32695" lon="-2.32323">
        <ele>19.60000038147</ele>
        <time>2021-10-21T08:40:14.000Z</time>
      </trkpt>
      <trkpt lat="47.32689" lon="-2.32321">
        <ele>20</ele>
        <time>2021-10-21T08:40:15.000Z</time>
      </trkpt>
      <trkpt lat="47.32684" lon="-2.32319">
        <ele>20.39999961853</ele>
        <time>2021-10-21T08:40:16.000Z</time>
      </trkpt>
      <trkpt lat="47.32679" lon="-2.32317">
        <ele>20.799999237061</ele>
        <time>2021-10-21T08:40:17.000Z</time>
      </trkpt>
      <trkpt lat="47.32659" lon="-2.3231">
        <ele>20.799999237061</ele>
        <time>2021-10-21T08:40:21.000Z</time>
      </trkpt>
      <trkpt lat="47.32637" lon="-2.32306">
        <ele>20.799999237061</ele>
        <time>2021-10-21T08:40:25.000Z</time>
      </trkpt>
      <trkpt lat="47.32604" lon="-2.32306">
        <ele>20.799999237061</ele>
        <time>2021-10-21T08:40:31.000Z</time>
      </trkpt>
      <trkpt lat="47.32593" lon="-2.32309">
        <ele>21.200000762939</ele>
        <time>2021-10-21T08:40:33.000Z</time>
      </trkpt>
      <trkpt lat="47.32588" lon="-2.3231">
        <ele>22</ele>
        <time>2021-10-21T08:40:34.000Z</time>
      </trkpt>
      <trkpt lat="47.32582" lon="-2.32311">
        <ele>22.39999961853</ele>
        <time>2021-10-21T08:40:35.000Z</time>
      </trkpt>
      <trkpt lat="47.32577" lon="-2.32312">
        <ele>23</ele>
        <time>2021-10-21T08:40:36.000Z</time>
      </trkpt>
      <trkpt lat="47.32567" lon="-2.32313">
        <ele>23</ele>
        <time>2021-10-21T08:40:38.000Z</time>
      </trkpt>
      <trkpt lat="47.3255" lon="-2.32316">
        <ele>23</ele>
        <time>2021-10-21T08:40:42.000Z</time>
      </trkpt>
      <trkpt lat="47.32536" lon="-2.32314">
        <ele>23</ele>
        <time>2021-10-21T08:40:47.000Z</time>
      </trkpt>
      <trkpt lat="47.32535" lon="-2.3231">
        <ele>23</ele>
        <time>2021-10-21T08:40:49.000Z</time>
      </trkpt>
      <trkpt lat="47.32535" lon="-2.32304">
        <ele>23</ele>
        <time>2021-10-21T08:40:51.000Z</time>
      </trkpt>
      <trkpt lat="47.32539" lon="-2.32276">
        <ele>23</ele>
        <time>2021-10-21T08:40:57.000Z</time>
      </trkpt>
      <trkpt lat="47.32541" lon="-2.32268">
        <ele>22.39999961853</ele>
        <time>2021-10-21T08:40:58.000Z</time>
      </trkpt>
      <trkpt lat="47.32543" lon="-2.3226">
        <ele>21.60000038147</ele>
        <time>2021-10-21T08:40:59.000Z</time>
      </trkpt>
      <trkpt lat="47.32545" lon="-2.32251">
        <ele>21</ele>
        <time>2021-10-21T08:41:00.000Z</time>
      </trkpt>
      <trkpt lat="47.32548" lon="-2.32242">
        <ele>20.60000038147</ele>
        <time>2021-10-21T08:41:01.000Z</time>
      </trkpt>
      <trkpt lat="47.32553" lon="-2.32224">
        <ele>20.200000762939</ele>
        <time>2021-10-21T08:41:03.000Z</time>
      </trkpt>
      <trkpt lat="47.32556" lon="-2.32215">
        <ele>19.799999237061</ele>
        <time>2021-10-21T08:41:04.000Z</time>
      </trkpt>
      <trkpt lat="47.32559" lon="-2.32206">
        <ele>19.200000762939</ele>
        <time>2021-10-21T08:41:05.000Z</time>
      </trkpt>
      <trkpt lat="47.32562" lon="-2.32198">
        <ele>18.799999237061</ele>
        <time>2021-10-21T08:41:06.000Z</time>
      </trkpt>
      <trkpt lat="47.32565" lon="-2.32189">
        <ele>18.39999961853</ele>
        <time>2021-10-21T08:41:07.000Z</time>
      </trkpt>
      <trkpt lat="47.32567" lon="-2.32181">
        <ele>18.39999961853</ele>
        <time>2021-10-21T08:41:08.000Z</time>
      </trkpt>
      <trkpt lat="47.3258" lon="-2.32138">
        <ele>18.39999961853</ele>
        <time>2021-10-21T08:41:14.000Z</time>
      </trkpt>
      <trkpt lat="47.32583" lon="-2.3213">
        <ele>18.799999237061</ele>
        <time>2021-10-21T08:41:15.000Z</time>
      </trkpt>
      <trkpt lat="47.32584" lon="-2.32124">
        <ele>19.200000762939</ele>
        <time>2021-10-21T08:41:16.000Z</time>
      </trkpt>
      <trkpt lat="47.32585" lon="-2.32117">
        <ele>19.60000038147</ele>
        <time>2021-10-21T08:41:17.000Z</time>
      </trkpt>
      <trkpt lat="47.32586" lon="-2.32109">
        <ele>20</ele>
        <time>2021-10-21T08:41:18.000Z</time>
      </trkpt>
      <trkpt lat="47.32584" lon="-2.32102">
        <ele>20.39999961853</ele>
        <time>2021-10-21T08:41:19.000Z</time>
      </trkpt>
      <trkpt lat="47.32573" lon="-2.32095">
        <ele>20.39999961853</ele>
        <time>2021-10-21T08:41:22.000Z</time>
      </trkpt>
      <trkpt lat="47.32568" lon="-2.32095">
        <ele>21.39999961853</ele>
        <time>2021-10-21T08:41:23.000Z</time>
      </trkpt>
      <trkpt lat="47.32563" lon="-2.32096">
        <ele>22</ele>
        <time>2021-10-21T08:41:24.000Z</time>
      </trkpt>
      <trkpt lat="47.32558" lon="-2.32096">
        <ele>22.39999961853</ele>
        <time>2021-10-21T08:41:25.000Z</time>
      </trkpt>
      <trkpt lat="47.32552" lon="-2.32096">
        <ele>23</ele>
        <time>2021-10-21T08:41:26.000Z</time>
      </trkpt>
      <trkpt lat="47.32512" lon="-2.321">
        <ele>23</ele>
        <time>2021-10-21T08:41:34.000Z</time>
      </trkpt>
      <trkpt lat="47.32497" lon="-2.32095">
        <ele>23</ele>
        <time>2021-10-21T08:41:38.000Z</time>
      </trkpt>
      <trkpt lat="47.32496" lon="-2.3209">
        <ele>23</ele>
        <time>2021-10-21T08:41:39.000Z</time>
      </trkpt>
      <trkpt lat="47.32497" lon="-2.32067">
        <ele>23</ele>
        <time>2021-10-21T08:41:43.000Z</time>
      </trkpt>
      <trkpt lat="47.32497" lon="-2.32053">
        <ele>23</ele>
        <time>2021-10-21T08:41:45.000Z</time>
      </trkpt>
      <trkpt lat="47.32498" lon="-2.32023">
        <ele>23</ele>
        <time>2021-10-21T08:41:49.000Z</time>
      </trkpt>
      <trkpt lat="47.32502" lon="-2.31955">
        <ele>23</ele>
        <time>2021-10-21T08:41:57.000Z</time>
      </trkpt>
      <trkpt lat="47.32508" lon="-2.31902">
        <ele>23</ele>
        <time>2021-10-21T08:42:03.000Z</time>
      </trkpt>
      <trkpt lat="47.32515" lon="-2.31845">
        <ele>23</ele>
        <time>2021-10-21T08:42:09.000Z</time>
      </trkpt>
      <trkpt lat="47.32514" lon="-2.3179">
        <ele>23</ele>
        <time>2021-10-21T08:42:15.000Z</time>
      </trkpt>
      <trkpt lat="47.32513" lon="-2.31772">
        <ele>23.39999961853</ele>
        <time>2021-10-21T08:42:17.000Z</time>
      </trkpt>
      <trkpt lat="47.32513" lon="-2.31763">
        <ele>23.799999237061</ele>
        <time>2021-10-21T08:42:18.000Z</time>
      </trkpt>
      <trkpt lat="47.32512" lon="-2.31754">
        <ele>24.200000762939</ele>
        <time>2021-10-21T08:42:19.000Z</time>
      </trkpt>
      <trkpt lat="47.32511" lon="-2.31745">
        <ele>24.60000038147</ele>
        <time>2021-10-21T08:42:20.000Z</time>
      </trkpt>
      <trkpt lat="47.3251" lon="-2.31736">
        <ele>25</ele>
        <time>2021-10-21T08:42:21.000Z</time>
      </trkpt>
      <trkpt lat="47.32508" lon="-2.31718">
        <ele>25</ele>
        <time>2021-10-21T08:42:23.000Z</time>
      </trkpt>
      <trkpt lat="47.32506" lon="-2.31654">
        <ele>25</ele>
        <time>2021-10-21T08:42:30.000Z</time>
      </trkpt>
      <trkpt lat="47.32516" lon="-2.31634">
        <ele>25</ele>
        <time>2021-10-21T08:42:33.000Z</time>
      </trkpt>
      <trkpt lat="47.32534" lon="-2.31609">
        <ele>25</ele>
        <time>2021-10-21T08:42:37.000Z</time>
      </trkpt>
      <trkpt lat="47.32538" lon="-2.31604">
        <ele>25</ele>
        <time>2021-10-21T08:42:38.000Z</time>
      </trkpt>
      <trkpt lat="47.32555" lon="-2.31581">
        <ele>25</ele>
        <time>2021-10-21T08:42:42.000Z</time>
      </trkpt>
      <trkpt lat="47.32556" lon="-2.31574">
        <ele>25</ele>
        <time>2021-10-21T08:42:43.000Z</time>
      </trkpt>
      <trkpt lat="47.32555" lon="-2.31546">
        <ele>25</ele>
        <time>2021-10-21T08:42:47.000Z</time>
      </trkpt>
      <trkpt lat="47.32555" lon="-2.31515">
        <ele>25</ele>
        <time>2021-10-21T08:42:52.000Z</time>
      </trkpt>
      <trkpt lat="47.32556" lon="-2.3151">
        <ele>25</ele>
        <time>2021-10-21T08:42:53.000Z</time>
      </trkpt>
      <trkpt lat="47.32558" lon="-2.31488">
        <ele>25</ele>
        <time>2021-10-21T08:42:58.000Z</time>
      </trkpt>
      <trkpt lat="47.32557" lon="-2.31472">
        <ele>25</ele>
        <time>2021-10-21T08:43:04.000Z</time>
      </trkpt>
      <trkpt lat="47.32554" lon="-2.31451">
        <ele>25</ele>
        <time>2021-10-21T08:43:10.000Z</time>
      </trkpt>
      <trkpt lat="47.32549" lon="-2.31423">
        <ele>25</ele>
        <time>2021-10-21T08:43:16.000Z</time>
      </trkpt>
      <trkpt lat="47.32549" lon="-2.31392">
        <ele>25</ele>
        <time>2021-10-21T08:43:22.000Z</time>
      </trkpt>
      <trkpt lat="47.32549" lon="-2.31384">
        <ele>25</ele>
        <time>2021-10-21T08:43:23.000Z</time>
      </trkpt>
      <trkpt lat="47.3255" lon="-2.3136">
        <ele>25</ele>
        <time>2021-10-21T08:43:26.000Z</time>
      </trkpt>
      <trkpt lat="47.32552" lon="-2.31352">
        <ele>25</ele>
        <time>2021-10-21T08:43:27.000Z</time>
      </trkpt>
      <trkpt lat="47.32561" lon="-2.3132">
        <ele>25</ele>
        <time>2021-10-21T08:43:31.000Z</time>
      </trkpt>
      <trkpt lat="47.32566" lon="-2.31283">
        <ele>25</ele>
        <time>2021-10-21T08:43:35.000Z</time>
      </trkpt>
      <trkpt lat="47.32567" lon="-2.31255">
        <ele>25</ele>
        <time>2021-10-21T08:43:38.000Z</time>
      </trkpt>
      <trkpt lat="47.32568" lon="-2.31236">
        <ele>25</ele>
        <time>2021-10-21T08:43:40.000Z</time>
      </trkpt>
      <trkpt lat="47.32568" lon="-2.31217">
        <ele>25</ele>
        <time>2021-10-21T08:43:42.000Z</time>
      </trkpt>
      <trkpt lat="47.3256" lon="-2.31202">
        <ele>25</ele>
        <time>2021-10-21T08:43:44.000Z</time>
      </trkpt>
      <trkpt lat="47.32554" lon="-2.31185">
        <ele>25</ele>
        <time>2021-10-21T08:43:46.000Z</time>
      </trkpt>
      <trkpt lat="47.32554" lon="-2.31176">
        <ele>25</ele>
        <time>2021-10-21T08:43:47.000Z</time>
      </trkpt>
      <trkpt lat="47.32559" lon="-2.31149">
        <ele>25</ele>
        <time>2021-10-21T08:43:50.000Z</time>
      </trkpt>
      <trkpt lat="47.32565" lon="-2.31095">
        <ele>25</ele>
        <time>2021-10-21T08:43:56.000Z</time>
      </trkpt>
      <trkpt lat="47.32566" lon="-2.31051">
        <ele>25</ele>
        <time>2021-10-21T08:44:01.000Z</time>
      </trkpt>
      <trkpt lat="47.32559" lon="-2.31012">
        <ele>25</ele>
        <time>2021-10-21T08:44:06.000Z</time>
      </trkpt>
      <trkpt lat="47.32559" lon="-2.30994">
        <ele>25</ele>
        <time>2021-10-21T08:44:08.000Z</time>
      </trkpt>
      <trkpt lat="47.32559" lon="-2.30967">
        <ele>25</ele>
        <time>2021-10-21T08:44:11.000Z</time>
      </trkpt>
      <trkpt lat="47.32561" lon="-2.30902">
        <ele>25</ele>
        <time>2021-10-21T08:44:18.000Z</time>
      </trkpt>
      <trkpt lat="47.32561" lon="-2.30882">
        <ele>25</ele>
        <time>2021-10-21T08:44:20.000Z</time>
      </trkpt>
      <trkpt lat="47.32561" lon="-2.30851">
        <ele>25</ele>
        <time>2021-10-21T08:44:23.000Z</time>
      </trkpt>
      <trkpt lat="47.32557" lon="-2.3078">
        <ele>25</ele>
        <time>2021-10-21T08:44:30.000Z</time>
      </trkpt>
      <trkpt lat="47.32555" lon="-2.3077">
        <ele>25</ele>
        <time>2021-10-21T08:44:31.000Z</time>
      </trkpt>
      <trkpt lat="47.32549" lon="-2.30733">
        <ele>25</ele>
        <time>2021-10-21T08:44:35.000Z</time>
      </trkpt>
      <trkpt lat="47.32542" lon="-2.30687">
        <ele>25</ele>
        <time>2021-10-21T08:44:40.000Z</time>
      </trkpt>
      <trkpt lat="47.32535" lon="-2.30635">
        <ele>25</ele>
        <time>2021-10-21T08:44:46.000Z</time>
      </trkpt>
      <trkpt lat="47.32532" lon="-2.30618">
        <ele>25</ele>
        <time>2021-10-21T08:44:48.000Z</time>
      </trkpt>
      <trkpt lat="47.32528" lon="-2.30594">
        <ele>25</ele>
        <time>2021-10-21T08:44:51.000Z</time>
      </trkpt>
      <trkpt lat="47.32526" lon="-2.30577">
        <ele>25.39999961853</ele>
        <time>2021-10-21T08:44:53.000Z</time>
      </trkpt>
      <trkpt lat="47.32525" lon="-2.30568">
        <ele>25.799999237061</ele>
        <time>2021-10-21T08:44:54.000Z</time>
      </trkpt>
      <trkpt lat="47.32523" lon="-2.3056">
        <ele>26.200000762939</ele>
        <time>2021-10-21T08:44:55.000Z</time>
      </trkpt>
      <trkpt lat="47.32522" lon="-2.30551">
        <ele>26.799999237061</ele>
        <time>2021-10-21T08:44:56.000Z</time>
      </trkpt>
      <trkpt lat="47.3252" lon="-2.30542">
        <ele>27.200000762939</ele>
        <time>2021-10-21T08:44:57.000Z</time>
      </trkpt>
      <trkpt lat="47.32518" lon="-2.30524">
        <ele>27.200000762939</ele>
        <time>2021-10-21T08:44:59.000Z</time>
      </trkpt>
      <trkpt lat="47.32513" lon="-2.30496">
        <ele>27.200000762939</ele>
        <time>2021-10-21T08:45:02.000Z</time>
      </trkpt>
      <trkpt lat="47.32498" lon="-2.30428">
        <ele>27.200000762939</ele>
        <time>2021-10-21T08:45:10.000Z</time>
      </trkpt>
      <trkpt lat="47.32498" lon="-2.30421">
        <ele>27.200000762939</ele>
        <time>2021-10-21T08:45:11.000Z</time>
      </trkpt>
      <trkpt lat="47.32505" lon="-2.30412">
        <ele>27.200000762939</ele>
        <time>2021-10-21T08:45:13.000Z</time>
      </trkpt>
      <trkpt lat="47.3252" lon="-2.30406">
        <ele>27.200000762939</ele>
        <time>2021-10-21T08:45:16.000Z</time>
      </trkpt>
      <trkpt lat="47.32538" lon="-2.30396">
        <ele>27.200000762939</ele>
        <time>2021-10-21T08:45:20.000Z</time>
      </trkpt>
      <trkpt lat="47.32541" lon="-2.30392">
        <ele>27.200000762939</ele>
        <time>2021-10-21T08:45:21.000Z</time>
      </trkpt>
      <trkpt lat="47.3254" lon="-2.30372">
        <ele>27.200000762939</ele>
        <time>2021-10-21T08:45:24.000Z</time>
      </trkpt>
      <trkpt lat="47.32537" lon="-2.30359">
        <ele>27.200000762939</ele>
        <time>2021-10-21T08:45:26.000Z</time>
      </trkpt>
      <trkpt lat="47.3253" lon="-2.30323">
        <ele>27.200000762939</ele>
        <time>2021-10-21T08:45:31.000Z</time>
      </trkpt>
      <trkpt lat="47.32523" lon="-2.30295">
        <ele>27.60000038147</ele>
        <time>2021-10-21T08:45:35.000Z</time>
      </trkpt>
      <trkpt lat="47.32522" lon="-2.30288">
        <ele>28</ele>
        <time>2021-10-21T08:45:36.000Z</time>
      </trkpt>
      <trkpt lat="47.32521" lon="-2.30281">
        <ele>28.39999961853</ele>
        <time>2021-10-21T08:45:37.000Z</time>
      </trkpt>
      <trkpt lat="47.32519" lon="-2.30273">
        <ele>28.799999237061</ele>
        <time>2021-10-21T08:45:38.000Z</time>
      </trkpt>
      <trkpt lat="47.32518" lon="-2.30265">
        <ele>29.39999961853</ele>
        <time>2021-10-21T08:45:39.000Z</time>
      </trkpt>
      <trkpt lat="47.32513" lon="-2.30234">
        <ele>29.39999961853</ele>
        <time>2021-10-21T08:45:43.000Z</time>
      </trkpt>
      <trkpt lat="47.32508" lon="-2.30186">
        <ele>29.39999961853</ele>
        <time>2021-10-21T08:45:49.000Z</time>
      </trkpt>
      <trkpt lat="47.32503" lon="-2.30165">
        <ele>29.39999961853</ele>
        <time>2021-10-21T08:45:52.000Z</time>
      </trkpt>
      <trkpt lat="47.32502" lon="-2.30149">
        <ele>29.39999961853</ele>
        <time>2021-10-21T08:45:54.000Z</time>
      </trkpt>
      <trkpt lat="47.32495" lon="-2.30104">
        <ele>29.39999961853</ele>
        <time>2021-10-21T08:46:00.000Z</time>
      </trkpt>
      <trkpt lat="47.32494" lon="-2.30096">
        <ele>29.39999961853</ele>
        <time>2021-10-21T08:46:01.000Z</time>
      </trkpt>
      <trkpt lat="47.32494" lon="-2.30071">
        <ele>29.39999961853</ele>
        <time>2021-10-21T08:46:04.000Z</time>
      </trkpt>
      <trkpt lat="47.32494" lon="-2.30063">
        <ele>29.39999961853</ele>
        <time>2021-10-21T08:46:05.000Z</time>
      </trkpt>
      <trkpt lat="47.32484" lon="-2.30032">
        <ele>29.799999237061</ele>
        <time>2021-10-21T08:46:09.000Z</time>
      </trkpt>
      <trkpt lat="47.32481" lon="-2.30024">
        <ele>30.200000762939</ele>
        <time>2021-10-21T08:46:10.000Z</time>
      </trkpt>
      <trkpt lat="47.32478" lon="-2.30016">
        <ele>30.60000038147</ele>
        <time>2021-10-21T08:46:11.000Z</time>
      </trkpt>
      <trkpt lat="47.32476" lon="-2.30008">
        <ele>31</ele>
        <time>2021-10-21T08:46:12.000Z</time>
      </trkpt>
      <trkpt lat="47.32473" lon="-2.3">
        <ele>31.39999961853</ele>
        <time>2021-10-21T08:46:13.000Z</time>
      </trkpt>
      <trkpt lat="47.32465" lon="-2.29986">
        <ele>31.39999961853</ele>
        <time>2021-10-21T08:46:15.000Z</time>
      </trkpt>
      <trkpt lat="47.32445" lon="-2.29958">
        <ele>31.39999961853</ele>
        <time>2021-10-21T08:46:20.000Z</time>
      </trkpt>
      <trkpt lat="47.32443" lon="-2.29953">
        <ele>31.39999961853</ele>
        <time>2021-10-21T08:46:21.000Z</time>
      </trkpt>
      <trkpt lat="47.32447" lon="-2.29935">
        <ele>31.39999961853</ele>
        <time>2021-10-21T08:46:24.000Z</time>
      </trkpt>
      <trkpt lat="47.32448" lon="-2.29921">
        <ele>31.39999961853</ele>
        <time>2021-10-21T08:46:26.000Z</time>
      </trkpt>
      <trkpt lat="47.32447" lon="-2.29913">
        <ele>31.39999961853</ele>
        <time>2021-10-21T08:46:27.000Z</time>
      </trkpt>
      <trkpt lat="47.32445" lon="-2.29906">
        <ele>31.39999961853</ele>
        <time>2021-10-21T08:46:28.000Z</time>
      </trkpt>
      <trkpt lat="47.32442" lon="-2.29875">
        <ele>31.39999961853</ele>
        <time>2021-10-21T08:46:32.000Z</time>
      </trkpt>
      <trkpt lat="47.32451" lon="-2.29857">
        <ele>31.39999961853</ele>
        <time>2021-10-21T08:46:35.000Z</time>
      </trkpt>
      <trkpt lat="47.32455" lon="-2.29854">
        <ele>31.39999961853</ele>
        <time>2021-10-21T08:46:36.000Z</time>
      </trkpt>
      <trkpt lat="47.32468" lon="-2.29842">
        <ele>31.39999961853</ele>
        <time>2021-10-21T08:46:39.000Z</time>
      </trkpt>
      <trkpt lat="47.3249" lon="-2.29821">
        <ele>31.39999961853</ele>
        <time>2021-10-21T08:46:45.000Z</time>
      </trkpt>
      <trkpt lat="47.32512" lon="-2.29799">
        <ele>31.39999961853</ele>
        <time>2021-10-21T08:46:50.000Z</time>
      </trkpt>
      <trkpt lat="47.32555" lon="-2.29757">
        <ele>31.39999961853</ele>
        <time>2021-10-21T08:46:59.000Z</time>
      </trkpt>
      <trkpt lat="47.32564" lon="-2.29744">
        <ele>31.39999961853</ele>
        <time>2021-10-21T08:47:01.000Z</time>
      </trkpt>
      <trkpt lat="47.32579" lon="-2.29718">
        <ele>31.39999961853</ele>
        <time>2021-10-21T08:47:05.000Z</time>
      </trkpt>
      <trkpt lat="47.326" lon="-2.29682">
        <ele>31.39999961853</ele>
        <time>2021-10-21T08:47:10.000Z</time>
      </trkpt>
      <trkpt lat="47.32614" lon="-2.29657">
        <ele>30.799999237061</ele>
        <time>2021-10-21T08:47:13.000Z</time>
      </trkpt>
      <trkpt lat="47.32619" lon="-2.29649">
        <ele>30.39999961853</ele>
        <time>2021-10-21T08:47:14.000Z</time>
      </trkpt>
      <trkpt lat="47.32624" lon="-2.29638">
        <ele>30</ele>
        <time>2021-10-21T08:47:15.000Z</time>
      </trkpt>
      <trkpt lat="47.32628" lon="-2.29629">
        <ele>29.39999961853</ele>
        <time>2021-10-21T08:47:16.000Z</time>
      </trkpt>
      <trkpt lat="47.32633" lon="-2.29619">
        <ele>29</ele>
        <time>2021-10-21T08:47:17.000Z</time>
      </trkpt>
      <trkpt lat="47.32653" lon="-2.29575">
        <ele>28.60000038147</ele>
        <time>2021-10-21T08:47:21.000Z</time>
      </trkpt>
      <trkpt lat="47.32657" lon="-2.29563">
        <ele>28.200000762939</ele>
        <time>2021-10-21T08:47:22.000Z</time>
      </trkpt>
      <trkpt lat="47.32661" lon="-2.29551">
        <ele>27.799999237061</ele>
        <time>2021-10-21T08:47:23.000Z</time>
      </trkpt>
      <trkpt lat="47.32665" lon="-2.29539">
        <ele>27.39999961853</ele>
        <time>2021-10-21T08:47:24.000Z</time>
      </trkpt>
      <trkpt lat="47.32668" lon="-2.29527">
        <ele>26.799999237061</ele>
        <time>2021-10-21T08:47:25.000Z</time>
      </trkpt>
      <trkpt lat="47.3267" lon="-2.29515">
        <ele>26.799999237061</ele>
        <time>2021-10-21T08:47:26.000Z</time>
      </trkpt>
      <trkpt lat="47.32686" lon="-2.29457">
        <ele>26.799999237061</ele>
        <time>2021-10-21T08:47:31.000Z</time>
      </trkpt>
      <trkpt lat="47.3269" lon="-2.29446">
        <ele>26.39999961853</ele>
        <time>2021-10-21T08:47:32.000Z</time>
      </trkpt>
      <trkpt lat="47.32693" lon="-2.29436">
        <ele>26</ele>
        <time>2021-10-21T08:47:33.000Z</time>
      </trkpt>
      <trkpt lat="47.32697" lon="-2.29426">
        <ele>25.200000762939</ele>
        <time>2021-10-21T08:47:34.000Z</time>
      </trkpt>
      <trkpt lat="47.327" lon="-2.29415">
        <ele>24.799999237061</ele>
        <time>2021-10-21T08:47:35.000Z</time>
      </trkpt>
      <trkpt lat="47.32712" lon="-2.29384">
        <ele>24.799999237061</ele>
        <time>2021-10-21T08:47:38.000Z</time>
      </trkpt>
      <trkpt lat="47.32735" lon="-2.2932">
        <ele>24.799999237061</ele>
        <time>2021-10-21T08:47:44.000Z</time>
      </trkpt>
      <trkpt lat="47.32758" lon="-2.29274">
        <ele>24.799999237061</ele>
        <time>2021-10-21T08:47:49.000Z</time>
      </trkpt>
      <trkpt lat="47.32763" lon="-2.29266">
        <ele>24.39999961853</ele>
        <time>2021-10-21T08:47:50.000Z</time>
      </trkpt>
      <trkpt lat="47.32768" lon="-2.29258">
        <ele>24</ele>
        <time>2021-10-21T08:47:51.000Z</time>
      </trkpt>
      <trkpt lat="47.32773" lon="-2.29249">
        <ele>23.60000038147</ele>
        <time>2021-10-21T08:47:52.000Z</time>
      </trkpt>
      <trkpt lat="47.32778" lon="-2.2924">
        <ele>23</ele>
        <time>2021-10-21T08:47:53.000Z</time>
      </trkpt>
      <trkpt lat="47.32782" lon="-2.29232">
        <ele>22.60000038147</ele>
        <time>2021-10-21T08:47:54.000Z</time>
      </trkpt>
      <trkpt lat="47.32787" lon="-2.29224">
        <ele>22.60000038147</ele>
        <time>2021-10-21T08:47:55.000Z</time>
      </trkpt>
      <trkpt lat="47.32794" lon="-2.29211">
        <ele>22.60000038147</ele>
        <time>2021-10-21T08:47:57.000Z</time>
      </trkpt>
      <trkpt lat="47.32796" lon="-2.29206">
        <ele>22.60000038147</ele>
        <time>2021-10-21T08:47:58.000Z</time>
      </trkpt>
      <trkpt lat="47.32796" lon="-2.29187">
        <ele>22.60000038147</ele>
        <time>2021-10-21T08:48:01.000Z</time>
      </trkpt>
      <trkpt lat="47.32796" lon="-2.2918">
        <ele>22.60000038147</ele>
        <time>2021-10-21T08:48:02.000Z</time>
      </trkpt>
      <trkpt lat="47.328" lon="-2.29169">
        <ele>22.60000038147</ele>
        <time>2021-10-21T08:48:04.000Z</time>
      </trkpt>
      <trkpt lat="47.32813" lon="-2.29162">
        <ele>22.60000038147</ele>
        <time>2021-10-21T08:48:07.000Z</time>
      </trkpt>
      <trkpt lat="47.32819" lon="-2.29162">
        <ele>22.60000038147</ele>
        <time>2021-10-21T08:48:08.000Z</time>
      </trkpt>
      <trkpt lat="47.32846" lon="-2.29158">
        <ele>22.60000038147</ele>
        <time>2021-10-21T08:48:13.000Z</time>
      </trkpt>
      <trkpt lat="47.32884" lon="-2.29145">
        <ele>22.60000038147</ele>
        <time>2021-10-21T08:48:20.000Z</time>
      </trkpt>
      <trkpt lat="47.32922" lon="-2.29131">
        <ele>22.60000038147</ele>
        <time>2021-10-21T08:48:26.000Z</time>
      </trkpt>
      <trkpt lat="47.32968" lon="-2.29113">
        <ele>22.60000038147</ele>
        <time>2021-10-21T08:48:33.000Z</time>
      </trkpt>
      <trkpt lat="47.33014" lon="-2.29097">
        <ele>22.60000038147</ele>
        <time>2021-10-21T08:48:40.000Z</time>
      </trkpt>
      <trkpt lat="47.33063" lon="-2.29079">
        <ele>23</ele>
        <time>2021-10-21T08:48:48.000Z</time>
      </trkpt>
      <trkpt lat="47.33069" lon="-2.29078">
        <ele>23.60000038147</ele>
        <time>2021-10-21T08:48:49.000Z</time>
      </trkpt>
      <trkpt lat="47.33075" lon="-2.29075">
        <ele>24</ele>
        <time>2021-10-21T08:48:50.000Z</time>
      </trkpt>
      <trkpt lat="47.33081" lon="-2.29073">
        <ele>24.39999961853</ele>
        <time>2021-10-21T08:48:51.000Z</time>
      </trkpt>
      <trkpt lat="47.33087" lon="-2.29071">
        <ele>24.799999237061</ele>
        <time>2021-10-21T08:48:52.000Z</time>
      </trkpt>
      <trkpt lat="47.33124" lon="-2.29059">
        <ele>24.799999237061</ele>
        <time>2021-10-21T08:48:58.000Z</time>
      </trkpt>
      <trkpt lat="47.33164" lon="-2.29056">
        <ele>24.799999237061</ele>
        <time>2021-10-21T08:49:04.000Z</time>
      </trkpt>
      <trkpt lat="47.33206" lon="-2.29066">
        <ele>24.799999237061</ele>
        <time>2021-10-21T08:49:10.000Z</time>
      </trkpt>
      <trkpt lat="47.33235" lon="-2.29077">
        <ele>24.39999961853</ele>
        <time>2021-10-21T08:49:14.000Z</time>
      </trkpt>
      <trkpt lat="47.33243" lon="-2.2908">
        <ele>24</ele>
        <time>2021-10-21T08:49:15.000Z</time>
      </trkpt>
      <trkpt lat="47.33251" lon="-2.29083">
        <ele>23.60000038147</ele>
        <time>2021-10-21T08:49:16.000Z</time>
      </trkpt>
      <trkpt lat="47.33258" lon="-2.29085">
        <ele>23</ele>
        <time>2021-10-21T08:49:17.000Z</time>
      </trkpt>
      <trkpt lat="47.33266" lon="-2.29088">
        <ele>22.60000038147</ele>
        <time>2021-10-21T08:49:18.000Z</time>
      </trkpt>
      <trkpt lat="47.33312" lon="-2.291">
        <ele>22.60000038147</ele>
        <time>2021-10-21T08:49:24.000Z</time>
      </trkpt>
      <trkpt lat="47.3335" lon="-2.29099">
        <ele>22.60000038147</ele>
        <time>2021-10-21T08:49:29.000Z</time>
      </trkpt>
      <trkpt lat="47.33374" lon="-2.29095">
        <ele>22.200000762939</ele>
        <time>2021-10-21T08:49:32.000Z</time>
      </trkpt>
      <trkpt lat="47.33381" lon="-2.29093">
        <ele>21.799999237061</ele>
        <time>2021-10-21T08:49:33.000Z</time>
      </trkpt>
      <trkpt lat="47.33389" lon="-2.29091">
        <ele>21.39999961853</ele>
        <time>2021-10-21T08:49:34.000Z</time>
      </trkpt>
      <trkpt lat="47.33397" lon="-2.29089">
        <ele>21</ele>
        <time>2021-10-21T08:49:35.000Z</time>
      </trkpt>
      <trkpt lat="47.33405" lon="-2.29087">
        <ele>20.60000038147</ele>
        <time>2021-10-21T08:49:36.000Z</time>
      </trkpt>
      <trkpt lat="47.3345" lon="-2.29075">
        <ele>20.60000038147</ele>
        <time>2021-10-21T08:49:42.000Z</time>
      </trkpt>
      <trkpt lat="47.33503" lon="-2.29062">
        <ele>20.60000038147</ele>
        <time>2021-10-21T08:49:49.000Z</time>
      </trkpt>
      <trkpt lat="47.33561" lon="-2.29048">
        <ele>20.60000038147</ele>
        <time>2021-10-21T08:49:57.000Z</time>
      </trkpt>
      <trkpt lat="47.33568" lon="-2.29046">
        <ele>20.60000038147</ele>
        <time>2021-10-21T08:49:58.000Z</time>
      </trkpt>
      <trkpt lat="47.33606" lon="-2.29036">
        <ele>20.200000762939</ele>
        <time>2021-10-21T08:50:03.000Z</time>
      </trkpt>
      <trkpt lat="47.33614" lon="-2.29034">
        <ele>19.799999237061</ele>
        <time>2021-10-21T08:50:04.000Z</time>
      </trkpt>
      <trkpt lat="47.33622" lon="-2.29031">
        <ele>19.39999961853</ele>
        <time>2021-10-21T08:50:05.000Z</time>
      </trkpt>
      <trkpt lat="47.33629" lon="-2.29028">
        <ele>19</ele>
        <time>2021-10-21T08:50:06.000Z</time>
      </trkpt>
      <trkpt lat="47.33637" lon="-2.29024">
        <ele>18.60000038147</ele>
        <time>2021-10-21T08:50:07.000Z</time>
      </trkpt>
      <trkpt lat="47.33665" lon="-2.29003">
        <ele>18.60000038147</ele>
        <time>2021-10-21T08:50:11.000Z</time>
      </trkpt>
      <trkpt lat="47.33709" lon="-2.2896">
        <ele>18.60000038147</ele>
        <time>2021-10-21T08:50:18.000Z</time>
      </trkpt>
      <trkpt lat="47.33754" lon="-2.28917">
        <ele>18.60000038147</ele>
        <time>2021-10-21T08:50:25.000Z</time>
      </trkpt>
      <trkpt lat="47.33798" lon="-2.28873">
        <ele>18.60000038147</ele>
        <time>2021-10-21T08:50:32.000Z</time>
      </trkpt>
      <trkpt lat="47.33842" lon="-2.28831">
        <ele>18.60000038147</ele>
        <time>2021-10-21T08:50:39.000Z</time>
      </trkpt>
      <trkpt lat="47.33877" lon="-2.28797">
        <ele>18.60000038147</ele>
        <time>2021-10-21T08:50:45.000Z</time>
      </trkpt>
      <trkpt lat="47.33924" lon="-2.2875">
        <ele>18.60000038147</ele>
        <time>2021-10-21T08:50:53.000Z</time>
      </trkpt>
      <trkpt lat="47.33956" lon="-2.28707">
        <ele>18.60000038147</ele>
        <time>2021-10-21T08:51:00.000Z</time>
      </trkpt>
      <trkpt lat="47.33969" lon="-2.2869">
        <ele>18.200000762939</ele>
        <time>2021-10-21T08:51:03.000Z</time>
      </trkpt>
      <trkpt lat="47.33973" lon="-2.28684">
        <ele>17.799999237061</ele>
        <time>2021-10-21T08:51:04.000Z</time>
      </trkpt>
      <trkpt lat="47.33976" lon="-2.28678">
        <ele>17.39999961853</ele>
        <time>2021-10-21T08:51:05.000Z</time>
      </trkpt>
      <trkpt lat="47.33979" lon="-2.28671">
        <ele>17</ele>
        <time>2021-10-21T08:51:06.000Z</time>
      </trkpt>
      <trkpt lat="47.33983" lon="-2.28665">
        <ele>16.60000038147</ele>
        <time>2021-10-21T08:51:07.000Z</time>
      </trkpt>
      <trkpt lat="47.33998" lon="-2.2864">
        <ele>16.60000038147</ele>
        <time>2021-10-21T08:51:12.000Z</time>
      </trkpt>
      <trkpt lat="47.34005" lon="-2.28637">
        <ele>16.60000038147</ele>
        <time>2021-10-21T08:51:15.000Z</time>
      </trkpt>
      <trkpt lat="47.34004" lon="-2.28636">
        <ele>16.60000038147</ele>
        <time>2021-10-21T08:51:16.000Z</time>
      </trkpt>
      <trkpt lat="47.34004" lon="-2.28633">
        <ele>14.60000038147</ele>
        <time>2021-10-21T09:08:36.000Z</time>
      </trkpt>
      <trkpt lat="47.34002" lon="-2.28633">
        <ele>14.60000038147</ele>
        <time>2021-10-21T09:08:38.000Z</time>
      </trkpt>
      <trkpt lat="47.33996" lon="-2.28636">
        <ele>14.60000038147</ele>
        <time>2021-10-21T09:08:42.000Z</time>
      </trkpt>
      <trkpt lat="47.33994" lon="-2.28637">
        <ele>14.60000038147</ele>
        <time>2021-10-21T09:08:43.000Z</time>
      </trkpt>
      <trkpt lat="47.33982" lon="-2.28633">
        <ele>14.60000038147</ele>
        <time>2021-10-21T09:08:48.000Z</time>
      </trkpt>
      <trkpt lat="47.33967" lon="-2.28616">
        <ele>14.60000038147</ele>
        <time>2021-10-21T09:08:54.000Z</time>
      </trkpt>
      <trkpt lat="47.33949" lon="-2.28593">
        <ele>14.60000038147</ele>
        <time>2021-10-21T09:09:01.000Z</time>
      </trkpt>
      <trkpt lat="47.33926" lon="-2.28563">
        <ele>14.60000038147</ele>
        <time>2021-10-21T09:09:09.000Z</time>
      </trkpt>
      <trkpt lat="47.33904" lon="-2.28534">
        <ele>14.60000038147</ele>
        <time>2021-10-21T09:09:17.000Z</time>
      </trkpt>
      <trkpt lat="47.33877" lon="-2.28502">
        <ele>14.60000038147</ele>
        <time>2021-10-21T09:09:25.000Z</time>
      </trkpt>
      <trkpt lat="47.33858" lon="-2.28476">
        <ele>14.60000038147</ele>
        <time>2021-10-21T09:09:31.000Z</time>
      </trkpt>
      <trkpt lat="47.33838" lon="-2.28454">
        <ele>14.60000038147</ele>
        <time>2021-10-21T09:09:37.000Z</time>
      </trkpt>
      <trkpt lat="47.33823" lon="-2.28457">
        <ele>14.60000038147</ele>
        <time>2021-10-21T09:09:40.000Z</time>
      </trkpt>
      <trkpt lat="47.33819" lon="-2.28459">
        <ele>14.60000038147</ele>
        <time>2021-10-21T09:09:41.000Z</time>
      </trkpt>
      <trkpt lat="47.33815" lon="-2.28462">
        <ele>14.60000038147</ele>
        <time>2021-10-21T09:09:42.000Z</time>
      </trkpt>
      <trkpt lat="47.33802" lon="-2.28472">
        <ele>14.60000038147</ele>
        <time>2021-10-21T09:09:45.000Z</time>
      </trkpt>
      <trkpt lat="47.33798" lon="-2.28475">
        <ele>14.60000038147</ele>
        <time>2021-10-21T09:09:46.000Z</time>
      </trkpt>
      <trkpt lat="47.33784" lon="-2.28488">
        <ele>14.60000038147</ele>
        <time>2021-10-21T09:09:50.000Z</time>
      </trkpt>
      <trkpt lat="47.33758" lon="-2.2851">
        <ele>14.60000038147</ele>
        <time>2021-10-21T09:09:57.000Z</time>
      </trkpt>
      <trkpt lat="47.33732" lon="-2.28533">
        <ele>14.60000038147</ele>
        <time>2021-10-21T09:10:04.000Z</time>
      </trkpt>
      <trkpt lat="47.33714" lon="-2.28549">
        <ele>14.60000038147</ele>
        <time>2021-10-21T09:10:09.000Z</time>
      </trkpt>
      <trkpt lat="47.3369" lon="-2.28574">
        <ele>14.60000038147</ele>
        <time>2021-10-21T09:10:15.000Z</time>
      </trkpt>
      <trkpt lat="47.33659" lon="-2.28611">
        <ele>14.60000038147</ele>
        <time>2021-10-21T09:10:23.000Z</time>
      </trkpt>
      <trkpt lat="47.33626" lon="-2.28638">
        <ele>14.60000038147</ele>
        <time>2021-10-21T09:10:30.000Z</time>
      </trkpt>
      <trkpt lat="47.33597" lon="-2.28652">
        <ele>14.60000038147</ele>
        <time>2021-10-21T09:10:36.000Z</time>
      </trkpt>
      <trkpt lat="47.3356" lon="-2.28671">
        <ele>14.60000038147</ele>
        <time>2021-10-21T09:10:43.000Z</time>
      </trkpt>
      <trkpt lat="47.33527" lon="-2.28685">
        <ele>14.60000038147</ele>
        <time>2021-10-21T09:10:49.000Z</time>
      </trkpt>
      <trkpt lat="47.33512" lon="-2.28695">
        <ele>14.60000038147</ele>
        <time>2021-10-21T09:10:52.000Z</time>
      </trkpt>
      <trkpt lat="47.33504" lon="-2.28703">
        <ele>14.60000038147</ele>
        <time>2021-10-21T09:10:54.000Z</time>
      </trkpt>
      <trkpt lat="47.3349" lon="-2.28723">
        <ele>14.60000038147</ele>
        <time>2021-10-21T09:10:58.000Z</time>
      </trkpt>
      <trkpt lat="47.33484" lon="-2.28734">
        <ele>14.60000038147</ele>
        <time>2021-10-21T09:11:00.000Z</time>
      </trkpt>
      <trkpt lat="47.33467" lon="-2.28776">
        <ele>14.60000038147</ele>
        <time>2021-10-21T09:11:06.000Z</time>
      </trkpt>
      <trkpt lat="47.33456" lon="-2.288">
        <ele>14.60000038147</ele>
        <time>2021-10-21T09:11:10.000Z</time>
      </trkpt>
      <trkpt lat="47.33449" lon="-2.28812">
        <ele>14.60000038147</ele>
        <time>2021-10-21T09:11:12.000Z</time>
      </trkpt>
      <trkpt lat="47.33432" lon="-2.2884">
        <ele>15</ele>
        <time>2021-10-21T09:11:17.000Z</time>
      </trkpt>
      <trkpt lat="47.33428" lon="-2.28845">
        <ele>15.39999961853</ele>
        <time>2021-10-21T09:11:18.000Z</time>
      </trkpt>
      <trkpt lat="47.33424" lon="-2.2885">
        <ele>15.800000190735</ele>
        <time>2021-10-21T09:11:19.000Z</time>
      </trkpt>
      <trkpt lat="47.33419" lon="-2.28856">
        <ele>16.200000762939</ele>
        <time>2021-10-21T09:11:20.000Z</time>
      </trkpt>
      <trkpt lat="47.33414" lon="-2.2886">
        <ele>16.60000038147</ele>
        <time>2021-10-21T09:11:21.000Z</time>
      </trkpt>
      <trkpt lat="47.33404" lon="-2.28867">
        <ele>16.60000038147</ele>
        <time>2021-10-21T09:11:23.000Z</time>
      </trkpt>
      <trkpt lat="47.33393" lon="-2.28873">
        <ele>16.60000038147</ele>
        <time>2021-10-21T09:11:25.000Z</time>
      </trkpt>
      <trkpt lat="47.33345" lon="-2.28896">
        <ele>16.60000038147</ele>
        <time>2021-10-21T09:11:34.000Z</time>
      </trkpt>
      <trkpt lat="47.333" lon="-2.28922">
        <ele>16.60000038147</ele>
        <time>2021-10-21T09:11:43.000Z</time>
      </trkpt>
      <trkpt lat="47.33286" lon="-2.28931">
        <ele>17</ele>
        <time>2021-10-21T09:11:46.000Z</time>
      </trkpt>
      <trkpt lat="47.33281" lon="-2.28935">
        <ele>17.39999961853</ele>
        <time>2021-10-21T09:11:47.000Z</time>
      </trkpt>
      <trkpt lat="47.33277" lon="-2.28939">
        <ele>17.799999237061</ele>
        <time>2021-10-21T09:11:48.000Z</time>
      </trkpt>
      <trkpt lat="47.33273" lon="-2.28942">
        <ele>18.200000762939</ele>
        <time>2021-10-21T09:11:49.000Z</time>
      </trkpt>
      <trkpt lat="47.33268" lon="-2.28946">
        <ele>18.60000038147</ele>
        <time>2021-10-21T09:11:50.000Z</time>
      </trkpt>
      <trkpt lat="47.3325" lon="-2.28963">
        <ele>18.60000038147</ele>
        <time>2021-10-21T09:11:54.000Z</time>
      </trkpt>
      <trkpt lat="47.33247" lon="-2.28968">
        <ele>18.60000038147</ele>
        <time>2021-10-21T09:11:55.000Z</time>
      </trkpt>
      <trkpt lat="47.33242" lon="-2.28999">
        <ele>18.60000038147</ele>
        <time>2021-10-21T09:11:59.000Z</time>
      </trkpt>
      <trkpt lat="47.33242" lon="-2.29014">
        <ele>18.60000038147</ele>
        <time>2021-10-21T09:12:01.000Z</time>
      </trkpt>
      <trkpt lat="47.3324" lon="-2.29043">
        <ele>18.60000038147</ele>
        <time>2021-10-21T09:12:05.000Z</time>
      </trkpt>
      <trkpt lat="47.33238" lon="-2.29055">
        <ele>18.60000038147</ele>
        <time>2021-10-21T09:12:07.000Z</time>
      </trkpt>
      <trkpt lat="47.33233" lon="-2.2907">
        <ele>18.60000038147</ele>
        <time>2021-10-21T09:12:10.000Z</time>
      </trkpt>
      <trkpt lat="47.33222" lon="-2.29072">
        <ele>18.60000038147</ele>
        <time>2021-10-21T09:12:13.000Z</time>
      </trkpt>
      <trkpt lat="47.33201" lon="-2.29068">
        <ele>18.60000038147</ele>
        <time>2021-10-21T09:12:18.000Z</time>
      </trkpt>
      <trkpt lat="47.33167" lon="-2.2906">
        <ele>19</ele>
        <time>2021-10-21T09:12:26.000Z</time>
      </trkpt>
      <trkpt lat="47.33162" lon="-2.29059">
        <ele>19.60000038147</ele>
        <time>2021-10-21T09:12:27.000Z</time>
      </trkpt>
      <trkpt lat="47.33158" lon="-2.29059">
        <ele>20</ele>
        <time>2021-10-21T09:12:28.000Z</time>
      </trkpt>
      <trkpt lat="47.33153" lon="-2.29059">
        <ele>20.39999961853</ele>
        <time>2021-10-21T09:12:29.000Z</time>
      </trkpt>
      <trkpt lat="47.33148" lon="-2.29059">
        <ele>20.799999237061</ele>
        <time>2021-10-21T09:12:30.000Z</time>
      </trkpt>
      <trkpt lat="47.33139" lon="-2.2906">
        <ele>20.799999237061</ele>
        <time>2021-10-21T09:12:32.000Z</time>
      </trkpt>
      <trkpt lat="47.33134" lon="-2.29061">
        <ele>20.799999237061</ele>
        <time>2021-10-21T09:12:33.000Z</time>
      </trkpt>
      <trkpt lat="47.33099" lon="-2.29071">
        <ele>20.799999237061</ele>
        <time>2021-10-21T09:12:40.000Z</time>
      </trkpt>
      <trkpt lat="47.33063" lon="-2.29085">
        <ele>20.799999237061</ele>
        <time>2021-10-21T09:12:47.000Z</time>
      </trkpt>
      <trkpt lat="47.33019" lon="-2.29102">
        <ele>20.799999237061</ele>
        <time>2021-10-21T09:12:55.000Z</time>
      </trkpt>
      <trkpt lat="47.33008" lon="-2.29107">
        <ele>20.799999237061</ele>
        <time>2021-10-21T09:12:57.000Z</time>
      </trkpt>
      <trkpt lat="47.32985" lon="-2.29115">
        <ele>20.799999237061</ele>
        <time>2021-10-21T09:13:01.000Z</time>
      </trkpt>
      <trkpt lat="47.32943" lon="-2.29131">
        <ele>20.799999237061</ele>
        <time>2021-10-21T09:13:08.000Z</time>
      </trkpt>
      <trkpt lat="47.32901" lon="-2.29145">
        <ele>20.799999237061</ele>
        <time>2021-10-21T09:13:15.000Z</time>
      </trkpt>
      <trkpt lat="47.32859" lon="-2.2916">
        <ele>20.799999237061</ele>
        <time>2021-10-21T09:13:22.000Z</time>
      </trkpt>
      <trkpt lat="47.32853" lon="-2.29161">
        <ele>20.39999961853</ele>
        <time>2021-10-21T09:13:23.000Z</time>
      </trkpt>
      <trkpt lat="47.32847" lon="-2.29163">
        <ele>20</ele>
        <time>2021-10-21T09:13:24.000Z</time>
      </trkpt>
      <trkpt lat="47.32841" lon="-2.29164">
        <ele>19.60000038147</ele>
        <time>2021-10-21T09:13:25.000Z</time>
      </trkpt>
      <trkpt lat="47.32835" lon="-2.29165">
        <ele>19.200000762939</ele>
        <time>2021-10-21T09:13:26.000Z</time>
      </trkpt>
      <trkpt lat="47.3283" lon="-2.29167">
        <ele>18.799999237061</ele>
        <time>2021-10-21T09:13:27.000Z</time>
      </trkpt>
      <trkpt lat="47.32814" lon="-2.29168">
        <ele>18.799999237061</ele>
        <time>2021-10-21T09:13:30.000Z</time>
      </trkpt>
      <trkpt lat="47.32804" lon="-2.29169">
        <ele>18.799999237061</ele>
        <time>2021-10-21T09:13:32.000Z</time>
      </trkpt>
      <trkpt lat="47.32794" lon="-2.29179">
        <ele>18.799999237061</ele>
        <time>2021-10-21T09:13:34.000Z</time>
      </trkpt>
      <trkpt lat="47.32793" lon="-2.29193">
        <ele>18.799999237061</ele>
        <time>2021-10-21T09:13:36.000Z</time>
      </trkpt>
      <trkpt lat="47.32795" lon="-2.29207">
        <ele>18.799999237061</ele>
        <time>2021-10-21T09:13:38.000Z</time>
      </trkpt>
      <trkpt lat="47.32794" lon="-2.29213">
        <ele>18.799999237061</ele>
        <time>2021-10-21T09:13:39.000Z</time>
      </trkpt>
      <trkpt lat="47.32791" lon="-2.29219">
        <ele>18.799999237061</ele>
        <time>2021-10-21T09:13:40.000Z</time>
      </trkpt>
      <trkpt lat="47.32777" lon="-2.29245">
        <ele>18.799999237061</ele>
        <time>2021-10-21T09:13:44.000Z</time>
      </trkpt>
      <trkpt lat="47.32752" lon="-2.29291">
        <ele>18.799999237061</ele>
        <time>2021-10-21T09:13:51.000Z</time>
      </trkpt>
      <trkpt lat="47.32735" lon="-2.29331">
        <ele>18.799999237061</ele>
        <time>2021-10-21T09:13:57.000Z</time>
      </trkpt>
      <trkpt lat="47.32715" lon="-2.29385">
        <ele>18.799999237061</ele>
        <time>2021-10-21T09:14:05.000Z</time>
      </trkpt>
      <trkpt lat="47.32697" lon="-2.29433">
        <ele>18.799999237061</ele>
        <time>2021-10-21T09:14:12.000Z</time>
      </trkpt>
      <trkpt lat="47.32691" lon="-2.29445">
        <ele>18.799999237061</ele>
        <time>2021-10-21T09:14:14.000Z</time>
      </trkpt>
      <trkpt lat="47.32683" lon="-2.29465">
        <ele>19.200000762939</ele>
        <time>2021-10-21T09:14:17.000Z</time>
      </trkpt>
      <trkpt lat="47.32681" lon="-2.29471">
        <ele>19.60000038147</ele>
        <time>2021-10-21T09:14:18.000Z</time>
      </trkpt>
      <trkpt lat="47.32678" lon="-2.29478">
        <ele>20</ele>
        <time>2021-10-21T09:14:19.000Z</time>
      </trkpt>
      <trkpt lat="47.32676" lon="-2.29484">
        <ele>20.39999961853</ele>
        <time>2021-10-21T09:14:20.000Z</time>
      </trkpt>
      <trkpt lat="47.32675" lon="-2.2949">
        <ele>21</ele>
        <time>2021-10-21T09:14:21.000Z</time>
      </trkpt>
      <trkpt lat="47.32664" lon="-2.29539">
        <ele>21</ele>
        <time>2021-10-21T09:14:28.000Z</time>
      </trkpt>
      <trkpt lat="47.3266" lon="-2.2956">
        <ele>21</ele>
        <time>2021-10-21T09:14:31.000Z</time>
      </trkpt>
      <trkpt lat="47.32652" lon="-2.29589">
        <ele>21</ele>
        <time>2021-10-21T09:14:35.000Z</time>
      </trkpt>
      <trkpt lat="47.3265" lon="-2.29596">
        <ele>21.39999961853</ele>
        <time>2021-10-21T09:14:36.000Z</time>
      </trkpt>
      <trkpt lat="47.32648" lon="-2.29603">
        <ele>21.799999237061</ele>
        <time>2021-10-21T09:14:37.000Z</time>
      </trkpt>
      <trkpt lat="47.32645" lon="-2.29609">
        <ele>22.200000762939</ele>
        <time>2021-10-21T09:14:38.000Z</time>
      </trkpt>
      <trkpt lat="47.32643" lon="-2.29615">
        <ele>22.60000038147</ele>
        <time>2021-10-21T09:14:39.000Z</time>
      </trkpt>
      <trkpt lat="47.3264" lon="-2.2962">
        <ele>23</ele>
        <time>2021-10-21T09:14:40.000Z</time>
      </trkpt>
      <trkpt lat="47.32638" lon="-2.29626">
        <ele>23</ele>
        <time>2021-10-21T09:14:41.000Z</time>
      </trkpt>
      <trkpt lat="47.32621" lon="-2.29657">
        <ele>23.39999961853</ele>
        <time>2021-10-21T09:14:47.000Z</time>
      </trkpt>
      <trkpt lat="47.32618" lon="-2.29662">
        <ele>23.799999237061</ele>
        <time>2021-10-21T09:14:48.000Z</time>
      </trkpt>
      <trkpt lat="47.32616" lon="-2.29667">
        <ele>24.200000762939</ele>
        <time>2021-10-21T09:14:49.000Z</time>
      </trkpt>
      <trkpt lat="47.32613" lon="-2.29672">
        <ele>24.60000038147</ele>
        <time>2021-10-21T09:14:50.000Z</time>
      </trkpt>
      <trkpt lat="47.32611" lon="-2.29676">
        <ele>25</ele>
        <time>2021-10-21T09:14:51.000Z</time>
      </trkpt>
      <trkpt lat="47.32603" lon="-2.29691">
        <ele>25</ele>
        <time>2021-10-21T09:14:54.000Z</time>
      </trkpt>
      <trkpt lat="47.32582" lon="-2.29726">
        <ele>25.39999961853</ele>
        <time>2021-10-21T09:15:01.000Z</time>
      </trkpt>
      <trkpt lat="47.32579" lon="-2.29731">
        <ele>25.799999237061</ele>
        <time>2021-10-21T09:15:02.000Z</time>
      </trkpt>
      <trkpt lat="47.32575" lon="-2.29736">
        <ele>26.200000762939</ele>
        <time>2021-10-21T09:15:03.000Z</time>
      </trkpt>
      <trkpt lat="47.32572" lon="-2.29742">
        <ele>26.60000038147</ele>
        <time>2021-10-21T09:15:04.000Z</time>
      </trkpt>
      <trkpt lat="47.32569" lon="-2.29747">
        <ele>27</ele>
        <time>2021-10-21T09:15:05.000Z</time>
      </trkpt>
      <trkpt lat="47.32559" lon="-2.29762">
        <ele>27</ele>
        <time>2021-10-21T09:15:08.000Z</time>
      </trkpt>
      <trkpt lat="47.32541" lon="-2.2978">
        <ele>27</ele>
        <time>2021-10-21T09:15:13.000Z</time>
      </trkpt>
      <trkpt lat="47.32512" lon="-2.29807">
        <ele>27</ele>
        <time>2021-10-21T09:15:20.000Z</time>
      </trkpt>
      <trkpt lat="47.32482" lon="-2.29833">
        <ele>27</ele>
        <time>2021-10-21T09:15:27.000Z</time>
      </trkpt>
      <trkpt lat="47.32454" lon="-2.29857">
        <ele>27</ele>
        <time>2021-10-21T09:15:34.000Z</time>
      </trkpt>
      <trkpt lat="47.3245" lon="-2.29862">
        <ele>27</ele>
        <time>2021-10-21T09:15:35.000Z</time>
      </trkpt>
      <trkpt lat="47.32444" lon="-2.29883">
        <ele>27</ele>
        <time>2021-10-21T09:15:38.000Z</time>
      </trkpt>
      <trkpt lat="47.32446" lon="-2.29905">
        <ele>27</ele>
        <time>2021-10-21T09:15:41.000Z</time>
      </trkpt>
      <trkpt lat="47.32448" lon="-2.29912">
        <ele>27</ele>
        <time>2021-10-21T09:15:42.000Z</time>
      </trkpt>
      <trkpt lat="47.3245" lon="-2.29932">
        <ele>27</ele>
        <time>2021-10-21T09:15:45.000Z</time>
      </trkpt>
      <trkpt lat="47.32447" lon="-2.2995">
        <ele>27</ele>
        <time>2021-10-21T09:15:48.000Z</time>
      </trkpt>
      <trkpt lat="47.32451" lon="-2.29965">
        <ele>27</ele>
        <time>2021-10-21T09:15:51.000Z</time>
      </trkpt>
      <trkpt lat="47.32463" lon="-2.29984">
        <ele>27</ele>
        <time>2021-10-21T09:15:55.000Z</time>
      </trkpt>
      <trkpt lat="47.32466" lon="-2.29989">
        <ele>27</ele>
        <time>2021-10-21T09:15:56.000Z</time>
      </trkpt>
      <trkpt lat="47.32479" lon="-2.30011">
        <ele>27</ele>
        <time>2021-10-21T09:16:00.000Z</time>
      </trkpt>
      <trkpt lat="47.32481" lon="-2.30017">
        <ele>27</ele>
        <time>2021-10-21T09:16:01.000Z</time>
      </trkpt>
      <trkpt lat="47.32494" lon="-2.30064">
        <ele>27</ele>
        <time>2021-10-21T09:16:08.000Z</time>
      </trkpt>
      <trkpt lat="47.32496" lon="-2.30083">
        <ele>27</ele>
        <time>2021-10-21T09:16:11.000Z</time>
      </trkpt>
      <trkpt lat="47.32497" lon="-2.30096">
        <ele>27</ele>
        <time>2021-10-21T09:16:13.000Z</time>
      </trkpt>
      <trkpt lat="47.32502" lon="-2.30135">
        <ele>27</ele>
        <time>2021-10-21T09:16:19.000Z</time>
      </trkpt>
      <trkpt lat="47.32503" lon="-2.30141">
        <ele>27</ele>
        <time>2021-10-21T09:16:20.000Z</time>
      </trkpt>
      <trkpt lat="47.32504" lon="-2.30148">
        <ele>27.60000038147</ele>
        <time>2021-10-21T09:16:21.000Z</time>
      </trkpt>
      <trkpt lat="47.32505" lon="-2.30154">
        <ele>28</ele>
        <time>2021-10-21T09:16:22.000Z</time>
      </trkpt>
      <trkpt lat="47.32506" lon="-2.30161">
        <ele>28.39999961853</ele>
        <time>2021-10-21T09:16:23.000Z</time>
      </trkpt>
      <trkpt lat="47.32506" lon="-2.30169">
        <ele>29.200000762939</ele>
        <time>2021-10-21T09:16:24.000Z</time>
      </trkpt>
      <trkpt lat="47.32508" lon="-2.30175">
        <ele>29.200000762939</ele>
        <time>2021-10-21T09:16:25.000Z</time>
      </trkpt>
      <trkpt lat="47.32511" lon="-2.30196">
        <ele>29.200000762939</ele>
        <time>2021-10-21T09:16:28.000Z</time>
      </trkpt>
      <trkpt lat="47.32512" lon="-2.30203">
        <ele>29.200000762939</ele>
        <time>2021-10-21T09:16:29.000Z</time>
      </trkpt>
      <trkpt lat="47.32519" lon="-2.30248">
        <ele>29.200000762939</ele>
        <time>2021-10-21T09:16:35.000Z</time>
      </trkpt>
      <trkpt lat="47.3252" lon="-2.30256">
        <ele>28.60000038147</ele>
        <time>2021-10-21T09:16:36.000Z</time>
      </trkpt>
      <trkpt lat="47.32521" lon="-2.30263">
        <ele>28.200000762939</ele>
        <time>2021-10-21T09:16:37.000Z</time>
      </trkpt>
      <trkpt lat="47.32522" lon="-2.30271">
        <ele>27.799999237061</ele>
        <time>2021-10-21T09:16:38.000Z</time>
      </trkpt>
      <trkpt lat="47.32523" lon="-2.30278">
        <ele>27.39999961853</ele>
        <time>2021-10-21T09:16:39.000Z</time>
      </trkpt>
      <trkpt lat="47.32525" lon="-2.30285">
        <ele>27</ele>
        <time>2021-10-21T09:16:40.000Z</time>
      </trkpt>
      <trkpt lat="47.32526" lon="-2.30293">
        <ele>27</ele>
        <time>2021-10-21T09:16:41.000Z</time>
      </trkpt>
      <trkpt lat="47.32535" lon="-2.30336">
        <ele>27</ele>
        <time>2021-10-21T09:16:47.000Z</time>
      </trkpt>
      <trkpt lat="47.32537" lon="-2.30344">
        <ele>26.60000038147</ele>
        <time>2021-10-21T09:16:48.000Z</time>
      </trkpt>
      <trkpt lat="47.32538" lon="-2.30351">
        <ele>26</ele>
        <time>2021-10-21T09:16:49.000Z</time>
      </trkpt>
      <trkpt lat="47.32539" lon="-2.30359">
        <ele>25.60000038147</ele>
        <time>2021-10-21T09:16:50.000Z</time>
      </trkpt>
      <trkpt lat="47.32541" lon="-2.30367">
        <ele>25.200000762939</ele>
        <time>2021-10-21T09:16:51.000Z</time>
      </trkpt>
      <trkpt lat="47.32542" lon="-2.30374">
        <ele>24.799999237061</ele>
        <time>2021-10-21T09:16:52.000Z</time>
      </trkpt>
      <trkpt lat="47.32546" lon="-2.30388">
        <ele>24.799999237061</ele>
        <time>2021-10-21T09:16:54.000Z</time>
      </trkpt>
      <trkpt lat="47.32545" lon="-2.30396">
        <ele>24.799999237061</ele>
        <time>2021-10-21T09:16:55.000Z</time>
      </trkpt>
      <trkpt lat="47.32537" lon="-2.30404">
        <ele>24.799999237061</ele>
        <time>2021-10-21T09:16:57.000Z</time>
      </trkpt>
      <trkpt lat="47.32522" lon="-2.30409">
        <ele>24.799999237061</ele>
        <time>2021-10-21T09:17:00.000Z</time>
      </trkpt>
      <trkpt lat="47.32518" lon="-2.30411">
        <ele>24.799999237061</ele>
        <time>2021-10-21T09:17:01.000Z</time>
      </trkpt>
      <trkpt lat="47.32504" lon="-2.30418">
        <ele>24.799999237061</ele>
        <time>2021-10-21T09:17:04.000Z</time>
      </trkpt>
      <trkpt lat="47.325" lon="-2.30431">
        <ele>24.799999237061</ele>
        <time>2021-10-21T09:17:06.000Z</time>
      </trkpt>
      <trkpt lat="47.32504" lon="-2.30445">
        <ele>24.799999237061</ele>
        <time>2021-10-21T09:17:08.000Z</time>
      </trkpt>
      <trkpt lat="47.32506" lon="-2.30452">
        <ele>24.799999237061</ele>
        <time>2021-10-21T09:17:09.000Z</time>
      </trkpt>
      <trkpt lat="47.32517" lon="-2.30499">
        <ele>24.799999237061</ele>
        <time>2021-10-21T09:17:15.000Z</time>
      </trkpt>
      <trkpt lat="47.32525" lon="-2.30555">
        <ele>24.799999237061</ele>
        <time>2021-10-21T09:17:22.000Z</time>
      </trkpt>
      <trkpt lat="47.32533" lon="-2.3061">
        <ele>24.39999961853</ele>
        <time>2021-10-21T09:17:29.000Z</time>
      </trkpt>
      <trkpt lat="47.32535" lon="-2.30618">
        <ele>24</ele>
        <time>2021-10-21T09:17:30.000Z</time>
      </trkpt>
      <trkpt lat="47.32536" lon="-2.30627">
        <ele>23.60000038147</ele>
        <time>2021-10-21T09:17:31.000Z</time>
      </trkpt>
      <trkpt lat="47.32538" lon="-2.30634">
        <ele>23.200000762939</ele>
        <time>2021-10-21T09:17:32.000Z</time>
      </trkpt>
      <trkpt lat="47.3254" lon="-2.30642">
        <ele>22.60000038147</ele>
        <time>2021-10-21T09:17:33.000Z</time>
      </trkpt>
      <trkpt lat="47.32542" lon="-2.3065">
        <ele>22.60000038147</ele>
        <time>2021-10-21T09:17:34.000Z</time>
      </trkpt>
      <trkpt lat="47.32547" lon="-2.30687">
        <ele>22.60000038147</ele>
        <time>2021-10-21T09:17:39.000Z</time>
      </trkpt>
      <trkpt lat="47.32554" lon="-2.30744">
        <ele>22.60000038147</ele>
        <time>2021-10-21T09:17:46.000Z</time>
      </trkpt>
      <trkpt lat="47.32557" lon="-2.30758">
        <ele>22.60000038147</ele>
        <time>2021-10-21T09:17:48.000Z</time>
      </trkpt>
      <trkpt lat="47.3256" lon="-2.30773">
        <ele>22.60000038147</ele>
        <time>2021-10-21T09:17:50.000Z</time>
      </trkpt>
      <trkpt lat="47.32561" lon="-2.30781">
        <ele>22.60000038147</ele>
        <time>2021-10-21T09:17:51.000Z</time>
      </trkpt>
      <trkpt lat="47.32568" lon="-2.30835">
        <ele>22.60000038147</ele>
        <time>2021-10-21T09:17:58.000Z</time>
      </trkpt>
      <trkpt lat="47.32572" lon="-2.30898">
        <ele>22.60000038147</ele>
        <time>2021-10-21T09:18:06.000Z</time>
      </trkpt>
      <trkpt lat="47.32569" lon="-2.30928">
        <ele>22.60000038147</ele>
        <time>2021-10-21T09:18:10.000Z</time>
      </trkpt>
      <trkpt lat="47.32568" lon="-2.30961">
        <ele>22.60000038147</ele>
        <time>2021-10-21T09:18:15.000Z</time>
      </trkpt>
      <trkpt lat="47.32569" lon="-2.31014">
        <ele>22.60000038147</ele>
        <time>2021-10-21T09:18:22.000Z</time>
      </trkpt>
      <trkpt lat="47.3257" lon="-2.31021">
        <ele>22.60000038147</ele>
        <time>2021-10-21T09:18:23.000Z</time>
      </trkpt>
      <trkpt lat="47.32574" lon="-2.31041">
        <ele>22.60000038147</ele>
        <time>2021-10-21T09:18:26.000Z</time>
      </trkpt>
      <trkpt lat="47.32575" lon="-2.31047">
        <ele>22.60000038147</ele>
        <time>2021-10-21T09:18:27.000Z</time>
      </trkpt>
      <trkpt lat="47.3258" lon="-2.31086">
        <ele>22.60000038147</ele>
        <time>2021-10-21T09:18:32.000Z</time>
      </trkpt>
      <trkpt lat="47.32579" lon="-2.31094">
        <ele>22.60000038147</ele>
        <time>2021-10-21T09:18:33.000Z</time>
      </trkpt>
      <trkpt lat="47.32573" lon="-2.31128">
        <ele>22.60000038147</ele>
        <time>2021-10-21T09:18:37.000Z</time>
      </trkpt>
      <trkpt lat="47.3257" lon="-2.31152">
        <ele>22.200000762939</ele>
        <time>2021-10-21T09:18:40.000Z</time>
      </trkpt>
      <trkpt lat="47.32569" lon="-2.31159">
        <ele>21.799999237061</ele>
        <time>2021-10-21T09:18:41.000Z</time>
      </trkpt>
      <trkpt lat="47.32567" lon="-2.31167">
        <ele>21.39999961853</ele>
        <time>2021-10-21T09:18:42.000Z</time>
      </trkpt>
      <trkpt lat="47.32566" lon="-2.31175">
        <ele>21</ele>
        <time>2021-10-21T09:18:43.000Z</time>
      </trkpt>
      <trkpt lat="47.32565" lon="-2.31182">
        <ele>20.60000038147</ele>
        <time>2021-10-21T09:18:44.000Z</time>
      </trkpt>
      <trkpt lat="47.32566" lon="-2.3119">
        <ele>20.60000038147</ele>
        <time>2021-10-21T09:18:45.000Z</time>
      </trkpt>
      <trkpt lat="47.32575" lon="-2.31215">
        <ele>20.60000038147</ele>
        <time>2021-10-21T09:18:49.000Z</time>
      </trkpt>
      <trkpt lat="47.32577" lon="-2.31221">
        <ele>20.60000038147</ele>
        <time>2021-10-21T09:18:50.000Z</time>
      </trkpt>
      <trkpt lat="47.32576" lon="-2.31246">
        <ele>20.60000038147</ele>
        <time>2021-10-21T09:18:53.000Z</time>
      </trkpt>
      <trkpt lat="47.32576" lon="-2.31254">
        <ele>20.60000038147</ele>
        <time>2021-10-21T09:18:54.000Z</time>
      </trkpt>
      <trkpt lat="47.32572" lon="-2.31306">
        <ele>20.60000038147</ele>
        <time>2021-10-21T09:19:01.000Z</time>
      </trkpt>
      <trkpt lat="47.32571" lon="-2.31312">
        <ele>20.60000038147</ele>
        <time>2021-10-21T09:19:02.000Z</time>
      </trkpt>
      <trkpt lat="47.32563" lon="-2.31329">
        <ele>20.60000038147</ele>
        <time>2021-10-21T09:19:05.000Z</time>
      </trkpt>
      <trkpt lat="47.32561" lon="-2.31335">
        <ele>20.60000038147</ele>
        <time>2021-10-21T09:19:06.000Z</time>
      </trkpt>
      <trkpt lat="47.32557" lon="-2.31355">
        <ele>20.60000038147</ele>
        <time>2021-10-21T09:19:09.000Z</time>
      </trkpt>
      <trkpt lat="47.32557" lon="-2.31362">
        <ele>20.60000038147</ele>
        <time>2021-10-21T09:19:10.000Z</time>
      </trkpt>
      <trkpt lat="47.32554" lon="-2.31394">
        <ele>20.60000038147</ele>
        <time>2021-10-21T09:19:16.000Z</time>
      </trkpt>
      <trkpt lat="47.32554" lon="-2.31395">
        <ele>20.60000038147</ele>
        <time>2021-10-21T09:19:17.000Z</time>
      </trkpt>
      <trkpt lat="47.32553" lon="-2.31399">
        <ele>20.60000038147</ele>
        <time>2021-10-21T09:19:28.000Z</time>
      </trkpt>
      <trkpt lat="47.32551" lon="-2.31404">
        <ele>20.60000038147</ele>
        <time>2021-10-21T09:19:30.000Z</time>
      </trkpt>
      <trkpt lat="47.32551" lon="-2.31412">
        <ele>20.60000038147</ele>
        <time>2021-10-21T09:19:32.000Z</time>
      </trkpt>
      <trkpt lat="47.32554" lon="-2.3142">
        <ele>20.60000038147</ele>
        <time>2021-10-21T09:19:34.000Z</time>
      </trkpt>
      <trkpt lat="47.32558" lon="-2.31443">
        <ele>20.60000038147</ele>
        <time>2021-10-21T09:19:38.000Z</time>
      </trkpt>
      <trkpt lat="47.32562" lon="-2.31467">
        <ele>20.60000038147</ele>
        <time>2021-10-21T09:19:42.000Z</time>
      </trkpt>
      <trkpt lat="47.32562" lon="-2.3148">
        <ele>20.60000038147</ele>
        <time>2021-10-21T09:19:44.000Z</time>
      </trkpt>
      <trkpt lat="47.32561" lon="-2.31506">
        <ele>20.60000038147</ele>
        <time>2021-10-21T09:19:48.000Z</time>
      </trkpt>
      <trkpt lat="47.32559" lon="-2.31521">
        <ele>20.60000038147</ele>
        <time>2021-10-21T09:19:50.000Z</time>
      </trkpt>
      <trkpt lat="47.32559" lon="-2.31529">
        <ele>20.60000038147</ele>
        <time>2021-10-21T09:19:51.000Z</time>
      </trkpt>
      <trkpt lat="47.3256" lon="-2.31567">
        <ele>20.60000038147</ele>
        <time>2021-10-21T09:19:56.000Z</time>
      </trkpt>
      <trkpt lat="47.32558" lon="-2.31587">
        <ele>20.60000038147</ele>
        <time>2021-10-21T09:19:59.000Z</time>
      </trkpt>
      <trkpt lat="47.32555" lon="-2.31592">
        <ele>20.60000038147</ele>
        <time>2021-10-21T09:20:00.000Z</time>
      </trkpt>
      <trkpt lat="47.32544" lon="-2.31605">
        <ele>20.60000038147</ele>
        <time>2021-10-21T09:20:03.000Z</time>
      </trkpt>
      <trkpt lat="47.32537" lon="-2.31615">
        <ele>20.60000038147</ele>
        <time>2021-10-21T09:20:05.000Z</time>
      </trkpt>
      <trkpt lat="47.32519" lon="-2.3164">
        <ele>20.60000038147</ele>
        <time>2021-10-21T09:20:10.000Z</time>
      </trkpt>
      <trkpt lat="47.32516" lon="-2.31645">
        <ele>20.60000038147</ele>
        <time>2021-10-21T09:20:11.000Z</time>
      </trkpt>
      <trkpt lat="47.32513" lon="-2.3165">
        <ele>20.60000038147</ele>
        <time>2021-10-21T09:20:12.000Z</time>
      </trkpt>
      <trkpt lat="47.32509" lon="-2.31671">
        <ele>20.60000038147</ele>
        <time>2021-10-21T09:20:15.000Z</time>
      </trkpt>
      <trkpt lat="47.32509" lon="-2.31692">
        <ele>20.60000038147</ele>
        <time>2021-10-21T09:20:18.000Z</time>
      </trkpt>
      <trkpt lat="47.32511" lon="-2.31712">
        <ele>20.60000038147</ele>
        <time>2021-10-21T09:20:21.000Z</time>
      </trkpt>
      <trkpt lat="47.32515" lon="-2.31766">
        <ele>20.60000038147</ele>
        <time>2021-10-21T09:20:28.000Z</time>
      </trkpt>
      <trkpt lat="47.32518" lon="-2.31806">
        <ele>20.60000038147</ele>
        <time>2021-10-21T09:20:33.000Z</time>
      </trkpt>
      <trkpt lat="47.3252" lon="-2.31848">
        <ele>20.60000038147</ele>
        <time>2021-10-21T09:20:38.000Z</time>
      </trkpt>
      <trkpt lat="47.3252" lon="-2.31857">
        <ele>20.60000038147</ele>
        <time>2021-10-21T09:20:39.000Z</time>
      </trkpt>
      <trkpt lat="47.32516" lon="-2.31907">
        <ele>20.60000038147</ele>
        <time>2021-10-21T09:20:45.000Z</time>
      </trkpt>
      <trkpt lat="47.3251" lon="-2.31955">
        <ele>20.60000038147</ele>
        <time>2021-10-21T09:20:51.000Z</time>
      </trkpt>
      <trkpt lat="47.32507" lon="-2.32009">
        <ele>20.60000038147</ele>
        <time>2021-10-21T09:20:58.000Z</time>
      </trkpt>
      <trkpt lat="47.32505" lon="-2.32051">
        <ele>20.60000038147</ele>
        <time>2021-10-21T09:21:04.000Z</time>
      </trkpt>
      <trkpt lat="47.32502" lon="-2.32085">
        <ele>20.60000038147</ele>
        <time>2021-10-21T09:21:10.000Z</time>
      </trkpt>
      <trkpt lat="47.32501" lon="-2.32094">
        <ele>20.60000038147</ele>
        <time>2021-10-21T09:21:14.000Z</time>
      </trkpt>
      <trkpt lat="47.32492" lon="-2.32099">
        <ele>20.60000038147</ele>
        <time>2021-10-21T09:21:17.000Z</time>
      </trkpt>
      <trkpt lat="47.32464" lon="-2.32102">
        <ele>20.60000038147</ele>
        <time>2021-10-21T09:21:23.000Z</time>
      </trkpt>
      <trkpt lat="47.32425" lon="-2.32105">
        <ele>20.60000038147</ele>
        <time>2021-10-21T09:21:30.000Z</time>
      </trkpt>
      <trkpt lat="47.32394" lon="-2.32107">
        <ele>20.60000038147</ele>
        <time>2021-10-21T09:21:36.000Z</time>
      </trkpt>
      <trkpt lat="47.32362" lon="-2.32108">
        <ele>20.60000038147</ele>
        <time>2021-10-21T09:21:43.000Z</time>
      </trkpt>
      <trkpt lat="47.32329" lon="-2.32104">
        <ele>20.60000038147</ele>
        <time>2021-10-21T09:21:50.000Z</time>
      </trkpt>
      <trkpt lat="47.32305" lon="-2.321">
        <ele>20.60000038147</ele>
        <time>2021-10-21T09:21:55.000Z</time>
      </trkpt>
      <trkpt lat="47.32295" lon="-2.321">
        <ele>20.60000038147</ele>
        <time>2021-10-21T09:21:57.000Z</time>
      </trkpt>
      <trkpt lat="47.3227" lon="-2.32103">
        <ele>20.60000038147</ele>
        <time>2021-10-21T09:22:02.000Z</time>
      </trkpt>
      <trkpt lat="47.32261" lon="-2.32104">
        <ele>20.60000038147</ele>
        <time>2021-10-21T09:22:04.000Z</time>
      </trkpt>
      <trkpt lat="47.32242" lon="-2.32105">
        <ele>20.60000038147</ele>
        <time>2021-10-21T09:22:08.000Z</time>
      </trkpt>
      <trkpt lat="47.32224" lon="-2.3211">
        <ele>20.60000038147</ele>
        <time>2021-10-21T09:22:12.000Z</time>
      </trkpt>
      <trkpt lat="47.3222" lon="-2.32112">
        <ele>20.200000762939</ele>
        <time>2021-10-21T09:22:13.000Z</time>
      </trkpt>
      <trkpt lat="47.32216" lon="-2.32114">
        <ele>19.799999237061</ele>
        <time>2021-10-21T09:22:14.000Z</time>
      </trkpt>
      <trkpt lat="47.32213" lon="-2.32115">
        <ele>19.39999961853</ele>
        <time>2021-10-21T09:22:15.000Z</time>
      </trkpt>
      <trkpt lat="47.32211" lon="-2.32117">
        <ele>19</ele>
        <time>2021-10-21T09:22:16.000Z</time>
      </trkpt>
      <trkpt lat="47.32208" lon="-2.32118">
        <ele>18.60000038147</ele>
        <time>2021-10-21T09:22:17.000Z</time>
      </trkpt>
      <trkpt lat="47.32202" lon="-2.32119">
        <ele>18.60000038147</ele>
        <time>2021-10-21T09:22:19.000Z</time>
      </trkpt>
      <trkpt lat="47.32187" lon="-2.32127">
        <ele>18.60000038147</ele>
        <time>2021-10-21T09:22:23.000Z</time>
      </trkpt>
      <trkpt lat="47.3215" lon="-2.32158">
        <ele>18.60000038147</ele>
        <time>2021-10-21T09:22:31.000Z</time>
      </trkpt>
      <trkpt lat="47.32119" lon="-2.32179">
        <ele>18.60000038147</ele>
        <time>2021-10-21T09:22:37.000Z</time>
      </trkpt>
      <trkpt lat="47.32082" lon="-2.32186">
        <ele>19</ele>
        <time>2021-10-21T09:22:44.000Z</time>
      </trkpt>
      <trkpt lat="47.32077" lon="-2.32187">
        <ele>19.39999961853</ele>
        <time>2021-10-21T09:22:45.000Z</time>
      </trkpt>
      <trkpt lat="47.32072" lon="-2.32186">
        <ele>19.799999237061</ele>
        <time>2021-10-21T09:22:46.000Z</time>
      </trkpt>
      <trkpt lat="47.32067" lon="-2.32186">
        <ele>20.200000762939</ele>
        <time>2021-10-21T09:22:47.000Z</time>
      </trkpt>
      <trkpt lat="47.32062" lon="-2.32187">
        <ele>20.799999237061</ele>
        <time>2021-10-21T09:22:48.000Z</time>
      </trkpt>
      <trkpt lat="47.32048" lon="-2.32187">
        <ele>20.799999237061</ele>
        <time>2021-10-21T09:22:51.000Z</time>
      </trkpt>
      <trkpt lat="47.32028" lon="-2.3219">
        <ele>20.799999237061</ele>
        <time>2021-10-21T09:22:55.000Z</time>
      </trkpt>
      <trkpt lat="47.32024" lon="-2.32191">
        <ele>20.799999237061</ele>
        <time>2021-10-21T09:22:56.000Z</time>
      </trkpt>
      <trkpt lat="47.32019" lon="-2.32193">
        <ele>20.799999237061</ele>
        <time>2021-10-21T09:22:57.000Z</time>
      </trkpt>
      <trkpt lat="47.32007" lon="-2.32203">
        <ele>20.799999237061</ele>
        <time>2021-10-21T09:23:00.000Z</time>
      </trkpt>
      <trkpt lat="47.3197" lon="-2.32245">
        <ele>20.799999237061</ele>
        <time>2021-10-21T09:23:11.000Z</time>
      </trkpt>
      <trkpt lat="47.31966" lon="-2.32252">
        <ele>21.200000762939</ele>
        <time>2021-10-21T09:23:13.000Z</time>
      </trkpt>
      <trkpt lat="47.31964" lon="-2.32256">
        <ele>21.60000038147</ele>
        <time>2021-10-21T09:23:14.000Z</time>
      </trkpt>
      <trkpt lat="47.31962" lon="-2.32259">
        <ele>22</ele>
        <time>2021-10-21T09:23:15.000Z</time>
      </trkpt>
      <trkpt lat="47.3196" lon="-2.32262">
        <ele>22.39999961853</ele>
        <time>2021-10-21T09:23:16.000Z</time>
      </trkpt>
      <trkpt lat="47.31957" lon="-2.32265">
        <ele>22.799999237061</ele>
        <time>2021-10-21T09:23:17.000Z</time>
      </trkpt>
      <trkpt lat="47.31955" lon="-2.32265">
        <ele>23.200000762939</ele>
        <time>2021-10-21T09:23:18.000Z</time>
      </trkpt>
      <trkpt lat="47.31953" lon="-2.32264">
        <ele>23.799999237061</ele>
        <time>2021-10-21T09:23:19.000Z</time>
      </trkpt>
      <trkpt lat="47.31952" lon="-2.32261">
        <ele>24.200000762939</ele>
        <time>2021-10-21T09:23:20.000Z</time>
      </trkpt>
      <trkpt lat="47.31952" lon="-2.32258">
        <ele>24.60000038147</ele>
        <time>2021-10-21T09:23:21.000Z</time>
      </trkpt>
      <trkpt lat="47.31952" lon="-2.32253">
        <ele>26</ele>
        <time>2021-10-21T09:23:22.000Z</time>
      </trkpt>
      <trkpt lat="47.31952" lon="-2.32249">
        <ele>26.60000038147</ele>
        <time>2021-10-21T09:23:23.000Z</time>
      </trkpt>
      <trkpt lat="47.31954" lon="-2.32244">
        <ele>27.39999961853</ele>
        <time>2021-10-21T09:23:24.000Z</time>
      </trkpt>
      <trkpt lat="47.31955" lon="-2.3224">
        <ele>28</ele>
        <time>2021-10-21T09:23:25.000Z</time>
      </trkpt>
      <trkpt lat="47.31958" lon="-2.32221">
        <ele>28</ele>
        <time>2021-10-21T09:23:29.000Z</time>
      </trkpt>
      <trkpt lat="47.31956" lon="-2.32217">
        <ele>28</ele>
        <time>2021-10-21T09:23:30.000Z</time>
      </trkpt>
      <trkpt lat="47.31944" lon="-2.32211">
        <ele>28</ele>
        <time>2021-10-21T09:23:34.000Z</time>
      </trkpt>
      <trkpt lat="47.31941" lon="-2.3221">
        <ele>28</ele>
        <time>2021-10-21T09:23:35.000Z</time>
      </trkpt>
      <trkpt lat="47.31933" lon="-2.32209">
        <ele>28.39999961853</ele>
        <time>2021-10-21T09:23:38.000Z</time>
      </trkpt>
      <trkpt lat="47.3193" lon="-2.32208">
        <ele>28.799999237061</ele>
        <time>2021-10-21T09:23:39.000Z</time>
      </trkpt>
      <trkpt lat="47.31927" lon="-2.32208">
        <ele>29.200000762939</ele>
        <time>2021-10-21T09:23:40.000Z</time>
      </trkpt>
      <trkpt lat="47.31924" lon="-2.32207">
        <ele>29.60000038147</ele>
        <time>2021-10-21T09:23:41.000Z</time>
      </trkpt>
      <trkpt lat="47.31921" lon="-2.32206">
        <ele>30</ele>
        <time>2021-10-21T09:23:42.000Z</time>
      </trkpt>
      <trkpt lat="47.31908" lon="-2.32204">
        <ele>30</ele>
        <time>2021-10-21T09:23:47.000Z</time>
      </trkpt>
      <trkpt lat="47.31893" lon="-2.32206">
        <ele>30</ele>
        <time>2021-10-21T09:23:53.000Z</time>
      </trkpt>
      <trkpt lat="47.31888" lon="-2.32208">
        <ele>30.60000038147</ele>
        <time>2021-10-21T09:23:55.000Z</time>
      </trkpt>
      <trkpt lat="47.31885" lon="-2.32209">
        <ele>31</ele>
        <time>2021-10-21T09:23:56.000Z</time>
      </trkpt>
      <trkpt lat="47.31882" lon="-2.3221">
        <ele>31.60000038147</ele>
        <time>2021-10-21T09:23:57.000Z</time>
      </trkpt>
      <trkpt lat="47.31879" lon="-2.32211">
        <ele>32</ele>
        <time>2021-10-21T09:23:58.000Z</time>
      </trkpt>
      <trkpt lat="47.31876" lon="-2.32211">
        <ele>32.400001525879</ele>
        <time>2021-10-21T09:23:59.000Z</time>
      </trkpt>
      <trkpt lat="47.3186" lon="-2.32215">
        <ele>32.400001525879</ele>
        <time>2021-10-21T09:24:05.000Z</time>
      </trkpt>
      <trkpt lat="47.31847" lon="-2.32217">
        <ele>33</ele>
        <time>2021-10-21T09:24:10.000Z</time>
      </trkpt>
      <trkpt lat="47.31845" lon="-2.32217">
        <ele>33.400001525879</ele>
        <time>2021-10-21T09:24:11.000Z</time>
      </trkpt>
      <trkpt lat="47.31843" lon="-2.32218">
        <ele>34.200000762939</ele>
        <time>2021-10-21T09:24:12.000Z</time>
      </trkpt>
      <trkpt lat="47.3184" lon="-2.32219">
        <ele>34.599998474121</ele>
        <time>2021-10-21T09:24:13.000Z</time>
      </trkpt>
      <trkpt lat="47.31828" lon="-2.32223">
        <ele>35</ele>
        <time>2021-10-21T09:24:18.000Z</time>
      </trkpt>
      <trkpt lat="47.31826" lon="-2.32223">
        <ele>35.400001525879</ele>
        <time>2021-10-21T09:24:19.000Z</time>
      </trkpt>
      <trkpt lat="47.31823" lon="-2.32224">
        <ele>35.799999237061</ele>
        <time>2021-10-21T09:24:20.000Z</time>
      </trkpt>
      <trkpt lat="47.3182" lon="-2.32224">
        <ele>36.200000762939</ele>
        <time>2021-10-21T09:24:21.000Z</time>
      </trkpt>
      <trkpt lat="47.31817" lon="-2.32224">
        <ele>36.599998474121</ele>
        <time>2021-10-21T09:24:22.000Z</time>
      </trkpt>
      <trkpt lat="47.31809" lon="-2.32225">
        <ele>36.599998474121</ele>
        <time>2021-10-21T09:24:25.000Z</time>
      </trkpt>
      <trkpt lat="47.31801" lon="-2.32226">
        <ele>37</ele>
        <time>2021-10-21T09:24:28.000Z</time>
      </trkpt>
      <trkpt lat="47.31798" lon="-2.32226">
        <ele>37.400001525879</ele>
        <time>2021-10-21T09:24:29.000Z</time>
      </trkpt>
      <trkpt lat="47.31795" lon="-2.32226">
        <ele>37.799999237061</ele>
        <time>2021-10-21T09:24:30.000Z</time>
      </trkpt>
      <trkpt lat="47.31793" lon="-2.32226">
        <ele>38.200000762939</ele>
        <time>2021-10-21T09:24:31.000Z</time>
      </trkpt>
      <trkpt lat="47.3179" lon="-2.32227">
        <ele>38.599998474121</ele>
        <time>2021-10-21T09:24:32.000Z</time>
      </trkpt>
      <trkpt lat="47.31779" lon="-2.32228">
        <ele>38.200000762939</ele>
        <time>2021-10-21T09:24:36.000Z</time>
      </trkpt>
      <trkpt lat="47.31777" lon="-2.32228">
        <ele>37.400001525879</ele>
        <time>2021-10-21T09:24:37.000Z</time>
      </trkpt>
      <trkpt lat="47.31774" lon="-2.32229">
        <ele>37</ele>
        <time>2021-10-21T09:24:38.000Z</time>
      </trkpt>
      <trkpt lat="47.31772" lon="-2.32229">
        <ele>36.400001525879</ele>
        <time>2021-10-21T09:24:39.000Z</time>
      </trkpt>
      <trkpt lat="47.31769" lon="-2.32229">
        <ele>37</ele>
        <time>2021-10-21T09:24:40.000Z</time>
      </trkpt>
      <trkpt lat="47.31766" lon="-2.3223">
        <ele>37.599998474121</ele>
        <time>2021-10-21T09:24:41.000Z</time>
      </trkpt>
      <trkpt lat="47.31764" lon="-2.3223">
        <ele>38</ele>
        <time>2021-10-21T09:24:42.000Z</time>
      </trkpt>
      <trkpt lat="47.31761" lon="-2.3223">
        <ele>38.599998474121</ele>
        <time>2021-10-21T09:24:43.000Z</time>
      </trkpt>
      <trkpt lat="47.31758" lon="-2.32231">
        <ele>39</ele>
        <time>2021-10-21T09:24:44.000Z</time>
      </trkpt>
      <trkpt lat="47.31756" lon="-2.32233">
        <ele>39</ele>
        <time>2021-10-21T09:24:45.000Z</time>
      </trkpt>
      <trkpt lat="47.31755" lon="-2.32245">
        <ele>39</ele>
        <time>2021-10-21T09:24:48.000Z</time>
      </trkpt>
      <trkpt lat="47.31757" lon="-2.32255">
        <ele>39</ele>
        <time>2021-10-21T09:24:50.000Z</time>
      </trkpt>
      <trkpt lat="47.31763" lon="-2.32275">
        <ele>39</ele>
        <time>2021-10-21T09:24:54.000Z</time>
      </trkpt>
      <trkpt lat="47.31769" lon="-2.32307">
        <ele>39</ele>
        <time>2021-10-21T09:24:59.000Z</time>
      </trkpt>
      <trkpt lat="47.31775" lon="-2.32354">
        <ele>39</ele>
        <time>2021-10-21T09:25:06.000Z</time>
      </trkpt>
      <trkpt lat="47.31778" lon="-2.32373">
        <ele>39</ele>
        <time>2021-10-21T09:25:09.000Z</time>
      </trkpt>
      <trkpt lat="47.31782" lon="-2.32393">
        <ele>39</ele>
        <time>2021-10-21T09:25:12.000Z</time>
      </trkpt>
      <trkpt lat="47.31787" lon="-2.32415">
        <ele>38.599998474121</ele>
        <time>2021-10-21T09:25:15.000Z</time>
      </trkpt>
      <trkpt lat="47.31788" lon="-2.32422">
        <ele>38.200000762939</ele>
        <time>2021-10-21T09:25:16.000Z</time>
      </trkpt>
      <trkpt lat="47.3179" lon="-2.3243">
        <ele>37.599998474121</ele>
        <time>2021-10-21T09:25:17.000Z</time>
      </trkpt>
      <trkpt lat="47.31791" lon="-2.32437">
        <ele>37.200000762939</ele>
        <time>2021-10-21T09:25:18.000Z</time>
      </trkpt>
      <trkpt lat="47.31792" lon="-2.32445">
        <ele>36.799999237061</ele>
        <time>2021-10-21T09:25:19.000Z</time>
      </trkpt>
      <trkpt lat="47.31797" lon="-2.32474">
        <ele>36.400001525879</ele>
        <time>2021-10-21T09:25:23.000Z</time>
      </trkpt>
      <trkpt lat="47.31799" lon="-2.32482">
        <ele>36</ele>
        <time>2021-10-21T09:25:24.000Z</time>
      </trkpt>
      <trkpt lat="47.31802" lon="-2.32491">
        <ele>35.599998474121</ele>
        <time>2021-10-21T09:25:25.000Z</time>
      </trkpt>
      <trkpt lat="47.31804" lon="-2.32499">
        <ele>34.799999237061</ele>
        <time>2021-10-21T09:25:26.000Z</time>
      </trkpt>
      <trkpt lat="47.31806" lon="-2.32508">
        <ele>34.400001525879</ele>
        <time>2021-10-21T09:25:27.000Z</time>
      </trkpt>
      <trkpt lat="47.31809" lon="-2.32516">
        <ele>34</ele>
        <time>2021-10-21T09:25:28.000Z</time>
      </trkpt>
      <trkpt lat="47.31811" lon="-2.32525">
        <ele>33.400001525879</ele>
        <time>2021-10-21T09:25:29.000Z</time>
      </trkpt>
      <trkpt lat="47.31813" lon="-2.32534">
        <ele>33</ele>
        <time>2021-10-21T09:25:30.000Z</time>
      </trkpt>
      <trkpt lat="47.31815" lon="-2.32544">
        <ele>32.599998474121</ele>
        <time>2021-10-21T09:25:31.000Z</time>
      </trkpt>
      <trkpt lat="47.31818" lon="-2.32553">
        <ele>32.599998474121</ele>
        <time>2021-10-21T09:25:32.000Z</time>
      </trkpt>
      <trkpt lat="47.31822" lon="-2.32571">
        <ele>32.200000762939</ele>
        <time>2021-10-21T09:25:34.000Z</time>
      </trkpt>
      <trkpt lat="47.31824" lon="-2.3258">
        <ele>31.799999237061</ele>
        <time>2021-10-21T09:25:35.000Z</time>
      </trkpt>
      <trkpt lat="47.31826" lon="-2.32589">
        <ele>31.39999961853</ele>
        <time>2021-10-21T09:25:36.000Z</time>
      </trkpt>
      <trkpt lat="47.31828" lon="-2.32598">
        <ele>31</ele>
        <time>2021-10-21T09:25:37.000Z</time>
      </trkpt>
      <trkpt lat="47.31831" lon="-2.32607">
        <ele>30.60000038147</ele>
        <time>2021-10-21T09:25:38.000Z</time>
      </trkpt>
      <trkpt lat="47.31833" lon="-2.32616">
        <ele>30.60000038147</ele>
        <time>2021-10-21T09:25:39.000Z</time>
      </trkpt>
      <trkpt lat="47.31846" lon="-2.32667">
        <ele>30.60000038147</ele>
        <time>2021-10-21T09:25:45.000Z</time>
      </trkpt>
      <trkpt lat="47.31849" lon="-2.32674">
        <ele>30</ele>
        <time>2021-10-21T09:25:46.000Z</time>
      </trkpt>
      <trkpt lat="47.31853" lon="-2.32681">
        <ele>29.60000038147</ele>
        <time>2021-10-21T09:25:47.000Z</time>
      </trkpt>
      <trkpt lat="47.31856" lon="-2.32688">
        <ele>29.200000762939</ele>
        <time>2021-10-21T09:25:48.000Z</time>
      </trkpt>
      <trkpt lat="47.31859" lon="-2.32695">
        <ele>28.799999237061</ele>
        <time>2021-10-21T09:25:49.000Z</time>
      </trkpt>
      <trkpt lat="47.31861" lon="-2.32702">
        <ele>28.39999961853</ele>
        <time>2021-10-21T09:25:50.000Z</time>
      </trkpt>
      <trkpt lat="47.31864" lon="-2.32708">
        <ele>28.39999961853</ele>
        <time>2021-10-21T09:25:51.000Z</time>
      </trkpt>
      <trkpt lat="47.31882" lon="-2.32757">
        <ele>28.39999961853</ele>
        <time>2021-10-21T09:25:58.000Z</time>
      </trkpt>
      <trkpt lat="47.31885" lon="-2.32772">
        <ele>28.39999961853</ele>
        <time>2021-10-21T09:26:00.000Z</time>
      </trkpt>
      <trkpt lat="47.31885" lon="-2.32788">
        <ele>28.39999961853</ele>
        <time>2021-10-21T09:26:02.000Z</time>
      </trkpt>
      <trkpt lat="47.31886" lon="-2.32814">
        <ele>28</ele>
        <time>2021-10-21T09:26:05.000Z</time>
      </trkpt>
      <trkpt lat="47.31887" lon="-2.32822">
        <ele>27.60000038147</ele>
        <time>2021-10-21T09:26:06.000Z</time>
      </trkpt>
      <trkpt lat="47.31887" lon="-2.32831">
        <ele>27.200000762939</ele>
        <time>2021-10-21T09:26:07.000Z</time>
      </trkpt>
      <trkpt lat="47.31887" lon="-2.32838">
        <ele>26.799999237061</ele>
        <time>2021-10-21T09:26:08.000Z</time>
      </trkpt>
      <trkpt lat="47.31887" lon="-2.32846">
        <ele>26.39999961853</ele>
        <time>2021-10-21T09:26:09.000Z</time>
      </trkpt>
      <trkpt lat="47.31886" lon="-2.32899">
        <ele>26.39999961853</ele>
        <time>2021-10-21T09:26:16.000Z</time>
      </trkpt>
      <trkpt lat="47.31889" lon="-2.32941">
        <ele>26.39999961853</ele>
        <time>2021-10-21T09:26:22.000Z</time>
      </trkpt>
      <trkpt lat="47.31882" lon="-2.33001">
        <ele>26.39999961853</ele>
        <time>2021-10-21T09:26:29.000Z</time>
      </trkpt>
      <trkpt lat="47.31885" lon="-2.33034">
        <ele>26.39999961853</ele>
        <time>2021-10-21T09:26:33.000Z</time>
      </trkpt>
      <trkpt lat="47.31883" lon="-2.33058">
        <ele>26.39999961853</ele>
        <time>2021-10-21T09:26:36.000Z</time>
      </trkpt>
      <trkpt lat="47.31883" lon="-2.33073">
        <ele>26.39999961853</ele>
        <time>2021-10-21T09:26:38.000Z</time>
      </trkpt>
      <trkpt lat="47.31883" lon="-2.33079">
        <ele>26.39999961853</ele>
        <time>2021-10-21T09:26:39.000Z</time>
      </trkpt>
      <trkpt lat="47.31881" lon="-2.33123">
        <ele>26.39999961853</ele>
        <time>2021-10-21T09:26:46.000Z</time>
      </trkpt>
      <trkpt lat="47.31875" lon="-2.33157">
        <ele>26.39999961853</ele>
        <time>2021-10-21T09:26:53.000Z</time>
      </trkpt>
      <trkpt lat="47.31875" lon="-2.33163">
        <ele>26.799999237061</ele>
        <time>2021-10-21T09:26:54.000Z</time>
      </trkpt>
      <trkpt lat="47.31875" lon="-2.33168">
        <ele>27.200000762939</ele>
        <time>2021-10-21T09:26:55.000Z</time>
      </trkpt>
      <trkpt lat="47.31875" lon="-2.33174">
        <ele>27.60000038147</ele>
        <time>2021-10-21T09:26:56.000Z</time>
      </trkpt>
      <trkpt lat="47.31874" lon="-2.33179">
        <ele>28</ele>
        <time>2021-10-21T09:26:57.000Z</time>
      </trkpt>
      <trkpt lat="47.31874" lon="-2.33184">
        <ele>28.39999961853</ele>
        <time>2021-10-21T09:26:58.000Z</time>
      </trkpt>
      <trkpt lat="47.31873" lon="-2.33189">
        <ele>28.39999961853</ele>
        <time>2021-10-21T09:26:59.000Z</time>
      </trkpt>
      <trkpt lat="47.31868" lon="-2.33222">
        <ele>28.39999961853</ele>
        <time>2021-10-21T09:27:05.000Z</time>
      </trkpt>
      <trkpt lat="47.31863" lon="-2.33243">
        <ele>28.799999237061</ele>
        <time>2021-10-21T09:27:09.000Z</time>
      </trkpt>
      <trkpt lat="47.31861" lon="-2.33248">
        <ele>29.200000762939</ele>
        <time>2021-10-21T09:27:10.000Z</time>
      </trkpt>
      <trkpt lat="47.31859" lon="-2.33252">
        <ele>29.60000038147</ele>
        <time>2021-10-21T09:27:11.000Z</time>
      </trkpt>
      <trkpt lat="47.31857" lon="-2.33257">
        <ele>30</ele>
        <time>2021-10-21T09:27:12.000Z</time>
      </trkpt>
      <trkpt lat="47.31855" lon="-2.33261">
        <ele>30.39999961853</ele>
        <time>2021-10-21T09:27:13.000Z</time>
      </trkpt>
      <trkpt lat="47.31843" lon="-2.3328">
        <ele>30.39999961853</ele>
        <time>2021-10-21T09:27:18.000Z</time>
      </trkpt>
      <trkpt lat="47.31828" lon="-2.33294">
        <ele>30.39999961853</ele>
        <time>2021-10-21T09:27:23.000Z</time>
      </trkpt>
      <trkpt lat="47.31815" lon="-2.33305">
        <ele>31.200000762939</ele>
        <time>2021-10-21T09:27:28.000Z</time>
      </trkpt>
      <trkpt lat="47.31813" lon="-2.33308">
        <ele>31.60000038147</ele>
        <time>2021-10-21T09:27:29.000Z</time>
      </trkpt>
      <trkpt lat="47.3181" lon="-2.33311">
        <ele>32.200000762939</ele>
        <time>2021-10-21T09:27:30.000Z</time>
      </trkpt>
      <trkpt lat="47.31807" lon="-2.33313">
        <ele>32.599998474121</ele>
        <time>2021-10-21T09:27:31.000Z</time>
      </trkpt>
      <trkpt lat="47.31793" lon="-2.33322">
        <ele>32.599998474121</ele>
        <time>2021-10-21T09:27:36.000Z</time>
      </trkpt>
      <trkpt lat="47.31791" lon="-2.33324">
        <ele>33</ele>
        <time>2021-10-21T09:27:37.000Z</time>
      </trkpt>
      <trkpt lat="47.31786" lon="-2.33327">
        <ele>33.400001525879</ele>
        <time>2021-10-21T09:27:38.000Z</time>
      </trkpt>
      <trkpt lat="47.31783" lon="-2.33329">
        <ele>33.799999237061</ele>
        <time>2021-10-21T09:27:39.000Z</time>
      </trkpt>
      <trkpt lat="47.31779" lon="-2.3333">
        <ele>34.200000762939</ele>
        <time>2021-10-21T09:27:40.000Z</time>
      </trkpt>
      <trkpt lat="47.31775" lon="-2.33329">
        <ele>34.599998474121</ele>
        <time>2021-10-21T09:27:41.000Z</time>
      </trkpt>
      <trkpt lat="47.31765" lon="-2.33322">
        <ele>35</ele>
        <time>2021-10-21T09:27:45.000Z</time>
      </trkpt>
      <trkpt lat="47.31763" lon="-2.33319">
        <ele>35.400001525879</ele>
        <time>2021-10-21T09:27:46.000Z</time>
      </trkpt>
      <trkpt lat="47.31762" lon="-2.33316">
        <ele>35.799999237061</ele>
        <time>2021-10-21T09:27:47.000Z</time>
      </trkpt>
      <trkpt lat="47.3176" lon="-2.33313">
        <ele>36.200000762939</ele>
        <time>2021-10-21T09:27:48.000Z</time>
      </trkpt>
      <trkpt lat="47.31759" lon="-2.33309">
        <ele>36.599998474121</ele>
        <time>2021-10-21T09:27:49.000Z</time>
      </trkpt>
      <trkpt lat="47.31754" lon="-2.33296">
        <ele>36.599998474121</ele>
        <time>2021-10-21T09:27:53.000Z</time>
      </trkpt>
      <trkpt lat="47.31747" lon="-2.33268">
        <ele>36.599998474121</ele>
        <time>2021-10-21T09:27:59.000Z</time>
      </trkpt>
      <trkpt lat="47.31744" lon="-2.33255">
        <ele>36.599998474121</ele>
        <time>2021-10-21T09:28:02.000Z</time>
      </trkpt>
      <trkpt lat="47.31739" lon="-2.33251">
        <ele>36.599998474121</ele>
        <time>2021-10-21T09:28:04.000Z</time>
      </trkpt>
      <trkpt lat="47.3173" lon="-2.33253">
        <ele>36.599998474121</ele>
        <time>2021-10-21T09:28:07.000Z</time>
      </trkpt>
      <trkpt lat="47.31724" lon="-2.33257">
        <ele>36.599998474121</ele>
        <time>2021-10-21T09:28:09.000Z</time>
      </trkpt>
      <trkpt lat="47.31721" lon="-2.33258">
        <ele>37</ele>
        <time>2021-10-21T09:28:10.000Z</time>
      </trkpt>
      <trkpt lat="47.31718" lon="-2.33259">
        <ele>37.400001525879</ele>
        <time>2021-10-21T09:28:11.000Z</time>
      </trkpt>
      <trkpt lat="47.31715" lon="-2.33261">
        <ele>38</ele>
        <time>2021-10-21T09:28:12.000Z</time>
      </trkpt>
      <trkpt lat="47.31712" lon="-2.33261">
        <ele>38.400001525879</ele>
        <time>2021-10-21T09:28:13.000Z</time>
      </trkpt>
      <trkpt lat="47.31709" lon="-2.33261">
        <ele>38.799999237061</ele>
        <time>2021-10-21T09:28:14.000Z</time>
      </trkpt>
      <trkpt lat="47.31704" lon="-2.33262">
        <ele>38.799999237061</ele>
        <time>2021-10-21T09:28:16.000Z</time>
      </trkpt>
      <trkpt lat="47.31701" lon="-2.33263">
        <ele>39.599998474121</ele>
        <time>2021-10-21T09:28:17.000Z</time>
      </trkpt>
      <trkpt lat="47.31698" lon="-2.33265">
        <ele>40</ele>
        <time>2021-10-21T09:28:18.000Z</time>
      </trkpt>
      <trkpt lat="47.31695" lon="-2.33267">
        <ele>40.400001525879</ele>
        <time>2021-10-21T09:28:19.000Z</time>
      </trkpt>
      <trkpt lat="47.31691" lon="-2.33269">
        <ele>40.799999237061</ele>
        <time>2021-10-21T09:28:20.000Z</time>
      </trkpt>
      <trkpt lat="47.31685" lon="-2.33271">
        <ele>40.799999237061</ele>
        <time>2021-10-21T09:28:22.000Z</time>
      </trkpt>
      <trkpt lat="47.31663" lon="-2.33282">
        <ele>40.799999237061</ele>
        <time>2021-10-21T09:28:28.000Z</time>
      </trkpt>
      <trkpt lat="47.3164" lon="-2.33295">
        <ele>40.799999237061</ele>
        <time>2021-10-21T09:28:35.000Z</time>
      </trkpt>
      <trkpt lat="47.31617" lon="-2.33306">
        <ele>41.799999237061</ele>
        <time>2021-10-21T09:28:42.000Z</time>
      </trkpt>
      <trkpt lat="47.31613" lon="-2.33308">
        <ele>42.200000762939</ele>
        <time>2021-10-21T09:28:43.000Z</time>
      </trkpt>
      <trkpt lat="47.3161" lon="-2.33311">
        <ele>42.599998474121</ele>
        <time>2021-10-21T09:28:44.000Z</time>
      </trkpt>
      <trkpt lat="47.31606" lon="-2.33314">
        <ele>43</ele>
        <time>2021-10-21T09:28:45.000Z</time>
      </trkpt>
      <trkpt lat="47.31587" lon="-2.33324">
        <ele>43</ele>
        <time>2021-10-21T09:28:50.000Z</time>
      </trkpt>
      <trkpt lat="47.31561" lon="-2.33335">
        <ele>43</ele>
        <time>2021-10-21T09:28:56.000Z</time>
      </trkpt>
      <trkpt lat="47.31526" lon="-2.33351">
        <ele>43</ele>
        <time>2021-10-21T09:29:04.000Z</time>
      </trkpt>
      <trkpt lat="47.31493" lon="-2.33371">
        <ele>43</ele>
        <time>2021-10-21T09:29:13.000Z</time>
      </trkpt>
      <trkpt lat="47.31479" lon="-2.33367">
        <ele>43</ele>
        <time>2021-10-21T09:29:17.000Z</time>
      </trkpt>
      <trkpt lat="47.31471" lon="-2.3335">
        <ele>43</ele>
        <time>2021-10-21T09:29:21.000Z</time>
      </trkpt>
      <trkpt lat="47.31467" lon="-2.3334">
        <ele>43</ele>
        <time>2021-10-21T09:29:23.000Z</time>
      </trkpt>
      <trkpt lat="47.31456" lon="-2.33316">
        <ele>43</ele>
        <time>2021-10-21T09:29:27.000Z</time>
      </trkpt>
      <trkpt lat="47.31438" lon="-2.33289">
        <ele>43</ele>
        <time>2021-10-21T09:29:32.000Z</time>
      </trkpt>
      <trkpt lat="47.31406" lon="-2.3326">
        <ele>43</ele>
        <time>2021-10-21T09:29:39.000Z</time>
      </trkpt>
      <trkpt lat="47.31372" lon="-2.33235">
        <ele>43</ele>
        <time>2021-10-21T09:29:46.000Z</time>
      </trkpt>
      <trkpt lat="47.31345" lon="-2.33217">
        <ele>42.599998474121</ele>
        <time>2021-10-21T09:29:51.000Z</time>
      </trkpt>
      <trkpt lat="47.3134" lon="-2.33212">
        <ele>42.200000762939</ele>
        <time>2021-10-21T09:29:52.000Z</time>
      </trkpt>
      <trkpt lat="47.31334" lon="-2.33207">
        <ele>41.799999237061</ele>
        <time>2021-10-21T09:29:53.000Z</time>
      </trkpt>
      <trkpt lat="47.31329" lon="-2.33202">
        <ele>41.400001525879</ele>
        <time>2021-10-21T09:29:54.000Z</time>
      </trkpt>
      <trkpt lat="47.31323" lon="-2.33197">
        <ele>41</ele>
        <time>2021-10-21T09:29:55.000Z</time>
      </trkpt>
      <trkpt lat="47.31285" lon="-2.33165">
        <ele>41</ele>
        <time>2021-10-21T09:30:02.000Z</time>
      </trkpt>
      <trkpt lat="47.31269" lon="-2.33158">
        <ele>40.599998474121</ele>
        <time>2021-10-21T09:30:05.000Z</time>
      </trkpt>
      <trkpt lat="47.31263" lon="-2.33156">
        <ele>40.200000762939</ele>
        <time>2021-10-21T09:30:06.000Z</time>
      </trkpt>
      <trkpt lat="47.31257" lon="-2.33155">
        <ele>39.799999237061</ele>
        <time>2021-10-21T09:30:07.000Z</time>
      </trkpt>
      <trkpt lat="47.31251" lon="-2.33153">
        <ele>39.400001525879</ele>
        <time>2021-10-21T09:30:08.000Z</time>
      </trkpt>
      <trkpt lat="47.31244" lon="-2.33152">
        <ele>39</ele>
        <time>2021-10-21T09:30:09.000Z</time>
      </trkpt>
      <trkpt lat="47.31213" lon="-2.33152">
        <ele>39</ele>
        <time>2021-10-21T09:30:14.000Z</time>
      </trkpt>
      <trkpt lat="47.31195" lon="-2.33159">
        <ele>39</ele>
        <time>2021-10-21T09:30:18.000Z</time>
      </trkpt>
      <trkpt lat="47.3118" lon="-2.33169">
        <ele>39</ele>
        <time>2021-10-21T09:30:22.000Z</time>
      </trkpt>
      <trkpt lat="47.3117" lon="-2.33175">
        <ele>39</ele>
        <time>2021-10-21T09:30:24.000Z</time>
      </trkpt>
      <trkpt lat="47.3115" lon="-2.33187">
        <ele>39</ele>
        <time>2021-10-21T09:30:28.000Z</time>
      </trkpt>
      <trkpt lat="47.31145" lon="-2.3319">
        <ele>39</ele>
        <time>2021-10-21T09:30:29.000Z</time>
      </trkpt>
      <trkpt lat="47.31114" lon="-2.3321">
        <ele>39</ele>
        <time>2021-10-21T09:30:35.000Z</time>
      </trkpt>
      <trkpt lat="47.31111" lon="-2.33216">
        <ele>39</ele>
        <time>2021-10-21T09:30:36.000Z</time>
      </trkpt>
      <trkpt lat="47.31108" lon="-2.33223">
        <ele>39.400001525879</ele>
        <time>2021-10-21T09:30:37.000Z</time>
      </trkpt>
      <trkpt lat="47.31107" lon="-2.3323">
        <ele>40</ele>
        <time>2021-10-21T09:30:38.000Z</time>
      </trkpt>
      <trkpt lat="47.31106" lon="-2.33238">
        <ele>40.400001525879</ele>
        <time>2021-10-21T09:30:39.000Z</time>
      </trkpt>
      <trkpt lat="47.31106" lon="-2.33246">
        <ele>40.799999237061</ele>
        <time>2021-10-21T09:30:40.000Z</time>
      </trkpt>
      <trkpt lat="47.31105" lon="-2.33253">
        <ele>41.400001525879</ele>
        <time>2021-10-21T09:30:41.000Z</time>
      </trkpt>
      <trkpt lat="47.31104" lon="-2.33283">
        <ele>41.400001525879</ele>
        <time>2021-10-21T09:30:45.000Z</time>
      </trkpt>
      <trkpt lat="47.31102" lon="-2.33333">
        <ele>41.400001525879</ele>
        <time>2021-10-21T09:30:52.000Z</time>
      </trkpt>
      <trkpt lat="47.31102" lon="-2.33372">
        <ele>41.400001525879</ele>
        <time>2021-10-21T09:30:59.000Z</time>
      </trkpt>
      <trkpt lat="47.31104" lon="-2.33409">
        <ele>41.400001525879</ele>
        <time>2021-10-21T09:31:06.000Z</time>
      </trkpt>
      <trkpt lat="47.31104" lon="-2.33451">
        <ele>41.400001525879</ele>
        <time>2021-10-21T09:31:14.000Z</time>
      </trkpt>
      <trkpt lat="47.31106" lon="-2.33479">
        <ele>41.799999237061</ele>
        <time>2021-10-21T09:31:19.000Z</time>
      </trkpt>
      <trkpt lat="47.31107" lon="-2.33484">
        <ele>42.200000762939</ele>
        <time>2021-10-21T09:31:20.000Z</time>
      </trkpt>
      <trkpt lat="47.31107" lon="-2.33489">
        <ele>42.799999237061</ele>
        <time>2021-10-21T09:31:21.000Z</time>
      </trkpt>
      <trkpt lat="47.31108" lon="-2.33494">
        <ele>43.200000762939</ele>
        <time>2021-10-21T09:31:22.000Z</time>
      </trkpt>
      <trkpt lat="47.31109" lon="-2.33499">
        <ele>43.599998474121</ele>
        <time>2021-10-21T09:31:23.000Z</time>
      </trkpt>
      <trkpt lat="47.31113" lon="-2.33524">
        <ele>43.599998474121</ele>
        <time>2021-10-21T09:31:28.000Z</time>
      </trkpt>
      <trkpt lat="47.31115" lon="-2.33548">
        <ele>43.599998474121</ele>
        <time>2021-10-21T09:31:33.000Z</time>
      </trkpt>
      <trkpt lat="47.31116" lon="-2.33587">
        <ele>43.599998474121</ele>
        <time>2021-10-21T09:31:39.000Z</time>
      </trkpt>
      <trkpt lat="47.31113" lon="-2.33638">
        <ele>43.599998474121</ele>
        <time>2021-10-21T09:31:46.000Z</time>
      </trkpt>
      <trkpt lat="47.31105" lon="-2.33698">
        <ele>43.599998474121</ele>
        <time>2021-10-21T09:31:55.000Z</time>
      </trkpt>
      <trkpt lat="47.31094" lon="-2.33751">
        <ele>43.599998474121</ele>
        <time>2021-10-21T09:32:03.000Z</time>
      </trkpt>
      <trkpt lat="47.31086" lon="-2.33776">
        <ele>43.599998474121</ele>
        <time>2021-10-21T09:32:07.000Z</time>
      </trkpt>
      <trkpt lat="47.31078" lon="-2.33794">
        <ele>43.599998474121</ele>
        <time>2021-10-21T09:32:10.000Z</time>
      </trkpt>
      <trkpt lat="47.31075" lon="-2.338">
        <ele>43.599998474121</ele>
        <time>2021-10-21T09:32:11.000Z</time>
      </trkpt>
      <trkpt lat="47.31069" lon="-2.33826">
        <ele>43.599998474121</ele>
        <time>2021-10-21T09:32:15.000Z</time>
      </trkpt>
      <trkpt lat="47.31065" lon="-2.33874">
        <ele>43.599998474121</ele>
        <time>2021-10-21T09:32:22.000Z</time>
      </trkpt>
      <trkpt lat="47.31064" lon="-2.33928">
        <ele>43.599998474121</ele>
        <time>2021-10-21T09:32:30.000Z</time>
      </trkpt>
      <trkpt lat="47.31064" lon="-2.33983">
        <ele>43.599998474121</ele>
        <time>2021-10-21T09:32:38.000Z</time>
      </trkpt>
      <trkpt lat="47.31068" lon="-2.34046">
        <ele>43.599998474121</ele>
        <time>2021-10-21T09:32:47.000Z</time>
      </trkpt>
      <trkpt lat="47.3108" lon="-2.34095">
        <ele>43.599998474121</ele>
        <time>2021-10-21T09:32:54.000Z</time>
      </trkpt>
      <trkpt lat="47.31083" lon="-2.34101">
        <ele>43.599998474121</ele>
        <time>2021-10-21T09:32:55.000Z</time>
      </trkpt>
      <trkpt lat="47.31099" lon="-2.34133">
        <ele>43.599998474121</ele>
        <time>2021-10-21T09:33:00.000Z</time>
      </trkpt>
      <trkpt lat="47.31103" lon="-2.3414">
        <ele>43.200000762939</ele>
        <time>2021-10-21T09:33:01.000Z</time>
      </trkpt>
      <trkpt lat="47.31107" lon="-2.34148">
        <ele>42.799999237061</ele>
        <time>2021-10-21T09:33:02.000Z</time>
      </trkpt>
      <trkpt lat="47.31111" lon="-2.34155">
        <ele>42.400001525879</ele>
        <time>2021-10-21T09:33:03.000Z</time>
      </trkpt>
      <trkpt lat="47.31115" lon="-2.34164">
        <ele>42</ele>
        <time>2021-10-21T09:33:04.000Z</time>
      </trkpt>
      <trkpt lat="47.3112" lon="-2.34172">
        <ele>41.599998474121</ele>
        <time>2021-10-21T09:33:05.000Z</time>
      </trkpt>
      <trkpt lat="47.31125" lon="-2.34181">
        <ele>41.200000762939</ele>
        <time>2021-10-21T09:33:06.000Z</time>
      </trkpt>
      <trkpt lat="47.3113" lon="-2.3419">
        <ele>40.799999237061</ele>
        <time>2021-10-21T09:33:07.000Z</time>
      </trkpt>
      <trkpt lat="47.31134" lon="-2.34198">
        <ele>40.200000762939</ele>
        <time>2021-10-21T09:33:08.000Z</time>
      </trkpt>
      <trkpt lat="47.3114" lon="-2.34208">
        <ele>39.799999237061</ele>
        <time>2021-10-21T09:33:09.000Z</time>
      </trkpt>
      <trkpt lat="47.31145" lon="-2.34217">
        <ele>39.400001525879</ele>
        <time>2021-10-21T09:33:10.000Z</time>
      </trkpt>
      <trkpt lat="47.3115" lon="-2.34227">
        <ele>39</ele>
        <time>2021-10-21T09:33:11.000Z</time>
      </trkpt>
      <trkpt lat="47.31155" lon="-2.34237">
        <ele>38.599998474121</ele>
        <time>2021-10-21T09:33:12.000Z</time>
      </trkpt>
      <trkpt lat="47.3116" lon="-2.34247">
        <ele>38</ele>
        <time>2021-10-21T09:33:13.000Z</time>
      </trkpt>
      <trkpt lat="47.31165" lon="-2.34256">
        <ele>37.200000762939</ele>
        <time>2021-10-21T09:33:14.000Z</time>
      </trkpt>
      <trkpt lat="47.31191" lon="-2.34313">
        <ele>37.200000762939</ele>
        <time>2021-10-21T09:33:20.000Z</time>
      </trkpt>
      <trkpt lat="47.31195" lon="-2.34321">
        <ele>36.799999237061</ele>
        <time>2021-10-21T09:33:21.000Z</time>
      </trkpt>
      <trkpt lat="47.312" lon="-2.34327">
        <ele>36.400001525879</ele>
        <time>2021-10-21T09:33:22.000Z</time>
      </trkpt>
      <trkpt lat="47.31205" lon="-2.34333">
        <ele>36</ele>
        <time>2021-10-21T09:33:23.000Z</time>
      </trkpt>
      <trkpt lat="47.3121" lon="-2.34338">
        <ele>35.599998474121</ele>
        <time>2021-10-21T09:33:24.000Z</time>
      </trkpt>
      <trkpt lat="47.31215" lon="-2.34342">
        <ele>35.200000762939</ele>
        <time>2021-10-21T09:33:25.000Z</time>
      </trkpt>
      <trkpt lat="47.31231" lon="-2.34349">
        <ele>35.200000762939</ele>
        <time>2021-10-21T09:33:28.000Z</time>
      </trkpt>
      <trkpt lat="47.31251" lon="-2.34357">
        <ele>35.200000762939</ele>
        <time>2021-10-21T09:33:32.000Z</time>
      </trkpt>
      <trkpt lat="47.31258" lon="-2.34367">
        <ele>35.200000762939</ele>
        <time>2021-10-21T09:33:34.000Z</time>
      </trkpt>
      <trkpt lat="47.3127" lon="-2.34403">
        <ele>35.599998474121</ele>
        <time>2021-10-21T09:33:39.000Z</time>
      </trkpt>
      <trkpt lat="47.3127" lon="-2.34411">
        <ele>36</ele>
        <time>2021-10-21T09:33:40.000Z</time>
      </trkpt>
      <trkpt lat="47.31271" lon="-2.34419">
        <ele>36.400001525879</ele>
        <time>2021-10-21T09:33:41.000Z</time>
      </trkpt>
      <trkpt lat="47.31271" lon="-2.34426">
        <ele>36.799999237061</ele>
        <time>2021-10-21T09:33:42.000Z</time>
      </trkpt>
      <trkpt lat="47.31272" lon="-2.34433">
        <ele>37.200000762939</ele>
        <time>2021-10-21T09:33:43.000Z</time>
      </trkpt>
      <trkpt lat="47.31272" lon="-2.34448">
        <ele>37.200000762939</ele>
        <time>2021-10-21T09:33:45.000Z</time>
      </trkpt>
      <trkpt lat="47.31276" lon="-2.34477">
        <ele>37.599998474121</ele>
        <time>2021-10-21T09:33:49.000Z</time>
      </trkpt>
      <trkpt lat="47.31277" lon="-2.34484">
        <ele>38</ele>
        <time>2021-10-21T09:33:50.000Z</time>
      </trkpt>
      <trkpt lat="47.31278" lon="-2.34491">
        <ele>38.599998474121</ele>
        <time>2021-10-21T09:33:51.000Z</time>
      </trkpt>
      <trkpt lat="47.31279" lon="-2.34498">
        <ele>39</ele>
        <time>2021-10-21T09:33:52.000Z</time>
      </trkpt>
      <trkpt lat="47.3128" lon="-2.34505">
        <ele>39.400001525879</ele>
        <time>2021-10-21T09:33:53.000Z</time>
      </trkpt>
      <trkpt lat="47.31284" lon="-2.34547">
        <ele>39.799999237061</ele>
        <time>2021-10-21T09:33:59.000Z</time>
      </trkpt>
      <trkpt lat="47.31284" lon="-2.34554">
        <ele>40.200000762939</ele>
        <time>2021-10-21T09:34:00.000Z</time>
      </trkpt>
      <trkpt lat="47.31285" lon="-2.3456">
        <ele>40.599998474121</ele>
        <time>2021-10-21T09:34:01.000Z</time>
      </trkpt>
      <trkpt lat="47.31286" lon="-2.34567">
        <ele>41</ele>
        <time>2021-10-21T09:34:02.000Z</time>
      </trkpt>
      <trkpt lat="47.31286" lon="-2.34574">
        <ele>41.400001525879</ele>
        <time>2021-10-21T09:34:03.000Z</time>
      </trkpt>
      <trkpt lat="47.3129" lon="-2.34604">
        <ele>41.400001525879</ele>
        <time>2021-10-21T09:34:08.000Z</time>
      </trkpt>
      <trkpt lat="47.31293" lon="-2.34625">
        <ele>41.799999237061</ele>
        <time>2021-10-21T09:34:12.000Z</time>
      </trkpt>
      <trkpt lat="47.31294" lon="-2.34631">
        <ele>42.200000762939</ele>
        <time>2021-10-21T09:34:13.000Z</time>
      </trkpt>
      <trkpt lat="47.31294" lon="-2.34636">
        <ele>42.799999237061</ele>
        <time>2021-10-21T09:34:14.000Z</time>
      </trkpt>
      <trkpt lat="47.31295" lon="-2.3464">
        <ele>43.200000762939</ele>
        <time>2021-10-21T09:34:15.000Z</time>
      </trkpt>
      <trkpt lat="47.31295" lon="-2.34645">
        <ele>43.599998474121</ele>
        <time>2021-10-21T09:34:16.000Z</time>
      </trkpt>
      <trkpt lat="47.31296" lon="-2.3465">
        <ele>43.599998474121</ele>
        <time>2021-10-21T09:34:17.000Z</time>
      </trkpt>
      <trkpt lat="47.31297" lon="-2.34663">
        <ele>43.599998474121</ele>
        <time>2021-10-21T09:34:20.000Z</time>
      </trkpt>
      <trkpt lat="47.31295" lon="-2.34673">
        <ele>43.599998474121</ele>
        <time>2021-10-21T09:34:22.000Z</time>
      </trkpt>
      <trkpt lat="47.31284" lon="-2.34687">
        <ele>43.599998474121</ele>
        <time>2021-10-21T09:34:26.000Z</time>
      </trkpt>
      <trkpt lat="47.31279" lon="-2.34699">
        <ele>44</ele>
        <time>2021-10-21T09:34:29.000Z</time>
      </trkpt>
      <trkpt lat="47.31279" lon="-2.34705">
        <ele>44.400001525879</ele>
        <time>2021-10-21T09:34:30.000Z</time>
      </trkpt>
      <trkpt lat="47.31279" lon="-2.3471">
        <ele>45</ele>
        <time>2021-10-21T09:34:31.000Z</time>
      </trkpt>
      <trkpt lat="47.3128" lon="-2.34716">
        <ele>45.400001525879</ele>
        <time>2021-10-21T09:34:32.000Z</time>
      </trkpt>
      <trkpt lat="47.31281" lon="-2.34722">
        <ele>45.799999237061</ele>
        <time>2021-10-21T09:34:33.000Z</time>
      </trkpt>
      <trkpt lat="47.31282" lon="-2.34741">
        <ele>45.799999237061</ele>
        <time>2021-10-21T09:34:36.000Z</time>
      </trkpt>
      <trkpt lat="47.31283" lon="-2.34753">
        <ele>45.799999237061</ele>
        <time>2021-10-21T09:34:38.000Z</time>
      </trkpt>
      <trkpt lat="47.31287" lon="-2.34776">
        <ele>45.799999237061</ele>
        <time>2021-10-21T09:34:43.000Z</time>
      </trkpt>
      <trkpt lat="47.31295" lon="-2.3482">
        <ele>45.799999237061</ele>
        <time>2021-10-21T09:34:50.000Z</time>
      </trkpt>
      <trkpt lat="47.31311" lon="-2.34886">
        <ele>45.799999237061</ele>
        <time>2021-10-21T09:35:00.000Z</time>
      </trkpt>
      <trkpt lat="47.31329" lon="-2.3494">
        <ele>45.799999237061</ele>
        <time>2021-10-21T09:35:08.000Z</time>
      </trkpt>
      <trkpt lat="47.31339" lon="-2.3499">
        <ele>45.799999237061</ele>
        <time>2021-10-21T09:35:15.000Z</time>
      </trkpt>
      <trkpt lat="47.31344" lon="-2.35045">
        <ele>45.799999237061</ele>
        <time>2021-10-21T09:35:22.000Z</time>
      </trkpt>
      <trkpt lat="47.31344" lon="-2.35109">
        <ele>45.799999237061</ele>
        <time>2021-10-21T09:35:30.000Z</time>
      </trkpt>
      <trkpt lat="47.31342" lon="-2.35171">
        <ele>45.799999237061</ele>
        <time>2021-10-21T09:35:38.000Z</time>
      </trkpt>
      <trkpt lat="47.3134" lon="-2.35235">
        <ele>45.799999237061</ele>
        <time>2021-10-21T09:35:46.000Z</time>
      </trkpt>
      <trkpt lat="47.31339" lon="-2.35291">
        <ele>45.799999237061</ele>
        <time>2021-10-21T09:35:53.000Z</time>
      </trkpt>
      <trkpt lat="47.31336" lon="-2.35362">
        <ele>45.799999237061</ele>
        <time>2021-10-21T09:36:02.000Z</time>
      </trkpt>
      <trkpt lat="47.31335" lon="-2.35404">
        <ele>45.799999237061</ele>
        <time>2021-10-21T09:36:08.000Z</time>
      </trkpt>
      <trkpt lat="47.31336" lon="-2.35425">
        <ele>45.799999237061</ele>
        <time>2021-10-21T09:36:11.000Z</time>
      </trkpt>
      <trkpt lat="47.31337" lon="-2.35445">
        <ele>45.799999237061</ele>
        <time>2021-10-21T09:36:14.000Z</time>
      </trkpt>
      <trkpt lat="47.31334" lon="-2.35488">
        <ele>45.799999237061</ele>
        <time>2021-10-21T09:36:20.000Z</time>
      </trkpt>
      <trkpt lat="47.31332" lon="-2.35528">
        <ele>45.799999237061</ele>
        <time>2021-10-21T09:36:26.000Z</time>
      </trkpt>
      <trkpt lat="47.3133" lon="-2.35542">
        <ele>45.799999237061</ele>
        <time>2021-10-21T09:36:28.000Z</time>
      </trkpt>
      <trkpt lat="47.31327" lon="-2.35571">
        <ele>45.799999237061</ele>
        <time>2021-10-21T09:36:32.000Z</time>
      </trkpt>
      <trkpt lat="47.3133" lon="-2.35626">
        <ele>45.799999237061</ele>
        <time>2021-10-21T09:36:40.000Z</time>
      </trkpt>
      <trkpt lat="47.31333" lon="-2.35671">
        <ele>45.799999237061</ele>
        <time>2021-10-21T09:36:47.000Z</time>
      </trkpt>
      <trkpt lat="47.31333" lon="-2.3571">
        <ele>46.200000762939</ele>
        <time>2021-10-21T09:36:53.000Z</time>
      </trkpt>
      <trkpt lat="47.31333" lon="-2.35717">
        <ele>46.599998474121</ele>
        <time>2021-10-21T09:36:54.000Z</time>
      </trkpt>
      <trkpt lat="47.31333" lon="-2.35722">
        <ele>47</ele>
        <time>2021-10-21T09:36:55.000Z</time>
      </trkpt>
      <trkpt lat="47.31333" lon="-2.35728">
        <ele>47.400001525879</ele>
        <time>2021-10-21T09:36:56.000Z</time>
      </trkpt>
      <trkpt lat="47.31333" lon="-2.35734">
        <ele>47.799999237061</ele>
        <time>2021-10-21T09:36:57.000Z</time>
      </trkpt>
      <trkpt lat="47.31333" lon="-2.35747">
        <ele>47.799999237061</ele>
        <time>2021-10-21T09:36:59.000Z</time>
      </trkpt>
      <trkpt lat="47.31333" lon="-2.35761">
        <ele>47.799999237061</ele>
        <time>2021-10-21T09:37:01.000Z</time>
      </trkpt>
      <trkpt lat="47.31335" lon="-2.35782">
        <ele>47.799999237061</ele>
        <time>2021-10-21T09:37:04.000Z</time>
      </trkpt>
      <trkpt lat="47.31339" lon="-2.35825">
        <ele>47.799999237061</ele>
        <time>2021-10-21T09:37:10.000Z</time>
      </trkpt>
      <trkpt lat="47.3134" lon="-2.35839">
        <ele>47.799999237061</ele>
        <time>2021-10-21T09:37:12.000Z</time>
      </trkpt>
      <trkpt lat="47.31344" lon="-2.35863">
        <ele>47.799999237061</ele>
        <time>2021-10-21T09:37:15.000Z</time>
      </trkpt>
      <trkpt lat="47.31346" lon="-2.35871">
        <ele>47.799999237061</ele>
        <time>2021-10-21T09:37:16.000Z</time>
      </trkpt>
      <trkpt lat="47.31349" lon="-2.35879">
        <ele>47.400001525879</ele>
        <time>2021-10-21T09:37:17.000Z</time>
      </trkpt>
      <trkpt lat="47.31352" lon="-2.35886">
        <ele>47</ele>
        <time>2021-10-21T09:37:18.000Z</time>
      </trkpt>
      <trkpt lat="47.31356" lon="-2.35893">
        <ele>46.599998474121</ele>
        <time>2021-10-21T09:37:19.000Z</time>
      </trkpt>
      <trkpt lat="47.31359" lon="-2.359">
        <ele>46</ele>
        <time>2021-10-21T09:37:20.000Z</time>
      </trkpt>
      <trkpt lat="47.31363" lon="-2.35907">
        <ele>45.599998474121</ele>
        <time>2021-10-21T09:37:21.000Z</time>
      </trkpt>
      <trkpt lat="47.3137" lon="-2.35919">
        <ele>45.599998474121</ele>
        <time>2021-10-21T09:37:23.000Z</time>
      </trkpt>
      <trkpt lat="47.31373" lon="-2.35926">
        <ele>45.599998474121</ele>
        <time>2021-10-21T09:37:24.000Z</time>
      </trkpt>
      <trkpt lat="47.31394" lon="-2.35961">
        <ele>45.599998474121</ele>
        <time>2021-10-21T09:37:30.000Z</time>
      </trkpt>
      <trkpt lat="47.31396" lon="-2.35966">
        <ele>45.599998474121</ele>
        <time>2021-10-21T09:37:31.000Z</time>
      </trkpt>
      <trkpt lat="47.31405" lon="-2.35987">
        <ele>45.599998474121</ele>
        <time>2021-10-21T09:37:35.000Z</time>
      </trkpt>
      <trkpt lat="47.31415" lon="-2.36012">
        <ele>45.599998474121</ele>
        <time>2021-10-21T09:37:41.000Z</time>
      </trkpt>
      <trkpt lat="47.31425" lon="-2.36044">
        <ele>46.200000762939</ele>
        <time>2021-10-21T09:37:47.000Z</time>
      </trkpt>
      <trkpt lat="47.31426" lon="-2.36049">
        <ele>46.599998474121</ele>
        <time>2021-10-21T09:37:48.000Z</time>
      </trkpt>
      <trkpt lat="47.31428" lon="-2.36055">
        <ele>47</ele>
        <time>2021-10-21T09:37:49.000Z</time>
      </trkpt>
      <trkpt lat="47.3143" lon="-2.3606">
        <ele>47.400001525879</ele>
        <time>2021-10-21T09:37:50.000Z</time>
      </trkpt>
      <trkpt lat="47.31432" lon="-2.36064">
        <ele>47.799999237061</ele>
        <time>2021-10-21T09:37:51.000Z</time>
      </trkpt>
      <trkpt lat="47.31434" lon="-2.36069">
        <ele>47.799999237061</ele>
        <time>2021-10-21T09:37:52.000Z</time>
      </trkpt>
      <trkpt lat="47.31444" lon="-2.36097">
        <ele>47.799999237061</ele>
        <time>2021-10-21T09:37:58.000Z</time>
      </trkpt>
      <trkpt lat="47.31454" lon="-2.36133">
        <ele>47.799999237061</ele>
        <time>2021-10-21T09:38:05.000Z</time>
      </trkpt>
      <trkpt lat="47.31463" lon="-2.3617">
        <ele>47.799999237061</ele>
        <time>2021-10-21T09:38:13.000Z</time>
      </trkpt>
      <trkpt lat="47.31465" lon="-2.36179">
        <ele>48.200000762939</ele>
        <time>2021-10-21T09:38:15.000Z</time>
      </trkpt>
      <trkpt lat="47.31465" lon="-2.36184">
        <ele>48.799999237061</ele>
        <time>2021-10-21T09:38:16.000Z</time>
      </trkpt>
      <trkpt lat="47.31465" lon="-2.36185">
        <ele>49.200000762939</ele>
        <time>2021-10-21T09:38:17.000Z</time>
      </trkpt>
      <trkpt lat="47.31465" lon="-2.36186">
        <ele>49.599998474121</ele>
        <time>2021-10-21T09:38:18.000Z</time>
      </trkpt>
      <trkpt lat="47.31464" lon="-2.36187">
        <ele>50</ele>
        <time>2021-10-21T09:38:19.000Z</time>
      </trkpt>
      <trkpt lat="47.31464" lon="-2.36187">
        <ele>50</ele>
        <time>2021-10-21T09:38:21.000Z</time>
      </trkpt>
      <trkpt lat="47.31464" lon="-2.36192">
        <ele>50</ele>
        <time>2021-10-21T09:38:30.000Z</time>
      </trkpt>
      <trkpt lat="47.3147" lon="-2.36212">
        <ele>50</ele>
        <time>2021-10-21T09:38:35.000Z</time>
      </trkpt>
      <trkpt lat="47.31478" lon="-2.36247">
        <ele>50</ele>
        <time>2021-10-21T09:38:40.000Z</time>
      </trkpt>
      <trkpt lat="47.31489" lon="-2.36292">
        <ele>49.400001525879</ele>
        <time>2021-10-21T09:38:46.000Z</time>
      </trkpt>
      <trkpt lat="47.3149" lon="-2.363">
        <ele>49</ele>
        <time>2021-10-21T09:38:47.000Z</time>
      </trkpt>
      <trkpt lat="47.31492" lon="-2.36309">
        <ele>48.599998474121</ele>
        <time>2021-10-21T09:38:48.000Z</time>
      </trkpt>
      <trkpt lat="47.31493" lon="-2.36318">
        <ele>48.200000762939</ele>
        <time>2021-10-21T09:38:49.000Z</time>
      </trkpt>
      <trkpt lat="47.31494" lon="-2.36327">
        <ele>47.599998474121</ele>
        <time>2021-10-21T09:38:50.000Z</time>
      </trkpt>
      <trkpt lat="47.31494" lon="-2.36336">
        <ele>47.599998474121</ele>
        <time>2021-10-21T09:38:51.000Z</time>
      </trkpt>
      <trkpt lat="47.31494" lon="-2.36372">
        <ele>47.599998474121</ele>
        <time>2021-10-21T09:38:55.000Z</time>
      </trkpt>
      <trkpt lat="47.31495" lon="-2.36381">
        <ele>47.599998474121</ele>
        <time>2021-10-21T09:38:56.000Z</time>
      </trkpt>
      <trkpt lat="47.31495" lon="-2.3639">
        <ele>47.200000762939</ele>
        <time>2021-10-21T09:38:57.000Z</time>
      </trkpt>
      <trkpt lat="47.31495" lon="-2.364">
        <ele>46.799999237061</ele>
        <time>2021-10-21T09:38:58.000Z</time>
      </trkpt>
      <trkpt lat="47.31496" lon="-2.3641">
        <ele>46.400001525879</ele>
        <time>2021-10-21T09:38:59.000Z</time>
      </trkpt>
      <trkpt lat="47.31496" lon="-2.36419">
        <ele>46</ele>
        <time>2021-10-21T09:39:00.000Z</time>
      </trkpt>
      <trkpt lat="47.31497" lon="-2.3643">
        <ele>45.599998474121</ele>
        <time>2021-10-21T09:39:01.000Z</time>
      </trkpt>
      <trkpt lat="47.31497" lon="-2.36439">
        <ele>45.200000762939</ele>
        <time>2021-10-21T09:39:02.000Z</time>
      </trkpt>
      <trkpt lat="47.31497" lon="-2.36449">
        <ele>44.799999237061</ele>
        <time>2021-10-21T09:39:03.000Z</time>
      </trkpt>
      <trkpt lat="47.31497" lon="-2.36459">
        <ele>44.400001525879</ele>
        <time>2021-10-21T09:39:04.000Z</time>
      </trkpt>
      <trkpt lat="47.31498" lon="-2.36468">
        <ele>44</ele>
        <time>2021-10-21T09:39:05.000Z</time>
      </trkpt>
      <trkpt lat="47.31499" lon="-2.36476">
        <ele>43.400001525879</ele>
        <time>2021-10-21T09:39:06.000Z</time>
      </trkpt>
      <trkpt lat="47.31501" lon="-2.36494">
        <ele>43.400001525879</ele>
        <time>2021-10-21T09:39:08.000Z</time>
      </trkpt>
      <trkpt lat="47.31503" lon="-2.36527">
        <ele>43.400001525879</ele>
        <time>2021-10-21T09:39:12.000Z</time>
      </trkpt>
      <trkpt lat="47.31504" lon="-2.3655">
        <ele>43.400001525879</ele>
        <time>2021-10-21T09:39:15.000Z</time>
      </trkpt>
      <trkpt lat="47.31506" lon="-2.36564">
        <ele>43.400001525879</ele>
        <time>2021-10-21T09:39:17.000Z</time>
      </trkpt>
      <trkpt lat="47.31506" lon="-2.36572">
        <ele>43</ele>
        <time>2021-10-21T09:39:18.000Z</time>
      </trkpt>
      <trkpt lat="47.31505" lon="-2.36579">
        <ele>42.599998474121</ele>
        <time>2021-10-21T09:39:19.000Z</time>
      </trkpt>
      <trkpt lat="47.31503" lon="-2.36586">
        <ele>42.200000762939</ele>
        <time>2021-10-21T09:39:20.000Z</time>
      </trkpt>
      <trkpt lat="47.31503" lon="-2.36592">
        <ele>41.799999237061</ele>
        <time>2021-10-21T09:39:21.000Z</time>
      </trkpt>
      <trkpt lat="47.31503" lon="-2.36599">
        <ele>41.400001525879</ele>
        <time>2021-10-21T09:39:22.000Z</time>
      </trkpt>
      <trkpt lat="47.31503" lon="-2.36606">
        <ele>41.400001525879</ele>
        <time>2021-10-21T09:39:23.000Z</time>
      </trkpt>
      <trkpt lat="47.31504" lon="-2.36612">
        <ele>41.400001525879</ele>
        <time>2021-10-21T09:39:24.000Z</time>
      </trkpt>
      <trkpt lat="47.3151" lon="-2.36636">
        <ele>41.400001525879</ele>
        <time>2021-10-21T09:39:28.000Z</time>
      </trkpt>
      <trkpt lat="47.31518" lon="-2.36664">
        <ele>41.400001525879</ele>
        <time>2021-10-21T09:39:33.000Z</time>
      </trkpt>
      <trkpt lat="47.31521" lon="-2.36676">
        <ele>41.400001525879</ele>
        <time>2021-10-21T09:39:35.000Z</time>
      </trkpt>
      <trkpt lat="47.3153" lon="-2.36718">
        <ele>41.400001525879</ele>
        <time>2021-10-21T09:39:42.000Z</time>
      </trkpt>
      <trkpt lat="47.31541" lon="-2.36766">
        <ele>42.200000762939</ele>
        <time>2021-10-21T09:39:50.000Z</time>
      </trkpt>
      <trkpt lat="47.31542" lon="-2.36771">
        <ele>42.599998474121</ele>
        <time>2021-10-21T09:39:51.000Z</time>
      </trkpt>
      <trkpt lat="47.31543" lon="-2.36777">
        <ele>43</ele>
        <time>2021-10-21T09:39:52.000Z</time>
      </trkpt>
      <trkpt lat="47.31544" lon="-2.36783">
        <ele>43.400001525879</ele>
        <time>2021-10-21T09:39:53.000Z</time>
      </trkpt>
      <trkpt lat="47.31552" lon="-2.36812">
        <ele>43.400001525879</ele>
        <time>2021-10-21T09:39:59.000Z</time>
      </trkpt>
      <trkpt lat="47.31554" lon="-2.36821">
        <ele>44</ele>
        <time>2021-10-21T09:40:01.000Z</time>
      </trkpt>
      <trkpt lat="47.31555" lon="-2.36826">
        <ele>44.400001525879</ele>
        <time>2021-10-21T09:40:02.000Z</time>
      </trkpt>
      <trkpt lat="47.31556" lon="-2.3683">
        <ele>44.799999237061</ele>
        <time>2021-10-21T09:40:03.000Z</time>
      </trkpt>
      <trkpt lat="47.31557" lon="-2.36835">
        <ele>45.200000762939</ele>
        <time>2021-10-21T09:40:04.000Z</time>
      </trkpt>
      <trkpt lat="47.31559" lon="-2.3684">
        <ele>45.599998474121</ele>
        <time>2021-10-21T09:40:05.000Z</time>
      </trkpt>
      <trkpt lat="47.31568" lon="-2.36877">
        <ele>45.599998474121</ele>
        <time>2021-10-21T09:40:13.000Z</time>
      </trkpt>
      <trkpt lat="47.3157" lon="-2.36886">
        <ele>46</ele>
        <time>2021-10-21T09:40:15.000Z</time>
      </trkpt>
      <trkpt lat="47.31571" lon="-2.3689">
        <ele>46.599998474121</ele>
        <time>2021-10-21T09:40:16.000Z</time>
      </trkpt>
      <trkpt lat="47.31573" lon="-2.36895">
        <ele>47</ele>
        <time>2021-10-21T09:40:17.000Z</time>
      </trkpt>
      <trkpt lat="47.31574" lon="-2.369">
        <ele>47.400001525879</ele>
        <time>2021-10-21T09:40:18.000Z</time>
      </trkpt>
      <trkpt lat="47.31575" lon="-2.36904">
        <ele>47.799999237061</ele>
        <time>2021-10-21T09:40:19.000Z</time>
      </trkpt>
      <trkpt lat="47.31577" lon="-2.36909">
        <ele>47.799999237061</ele>
        <time>2021-10-21T09:40:20.000Z</time>
      </trkpt>
      <trkpt lat="47.31587" lon="-2.36941">
        <ele>47.799999237061</ele>
        <time>2021-10-21T09:40:27.000Z</time>
      </trkpt>
      <trkpt lat="47.31588" lon="-2.36945">
        <ele>48.200000762939</ele>
        <time>2021-10-21T09:40:28.000Z</time>
      </trkpt>
      <trkpt lat="47.3159" lon="-2.36949">
        <ele>48.599998474121</ele>
        <time>2021-10-21T09:40:29.000Z</time>
      </trkpt>
      <trkpt lat="47.31591" lon="-2.36954">
        <ele>49</ele>
        <time>2021-10-21T09:40:30.000Z</time>
      </trkpt>
      <trkpt lat="47.31592" lon="-2.36958">
        <ele>49.400001525879</ele>
        <time>2021-10-21T09:40:31.000Z</time>
      </trkpt>
      <trkpt lat="47.31594" lon="-2.36963">
        <ele>49.799999237061</ele>
        <time>2021-10-21T09:40:32.000Z</time>
      </trkpt>
      <trkpt lat="47.31597" lon="-2.36972">
        <ele>49.799999237061</ele>
        <time>2021-10-21T09:40:34.000Z</time>
      </trkpt>
      <trkpt lat="47.31607" lon="-2.37002">
        <ele>50.200000762939</ele>
        <time>2021-10-21T09:40:41.000Z</time>
      </trkpt>
      <trkpt lat="47.31609" lon="-2.37006">
        <ele>50.599998474121</ele>
        <time>2021-10-21T09:40:42.000Z</time>
      </trkpt>
      <trkpt lat="47.3161" lon="-2.37011">
        <ele>51</ele>
        <time>2021-10-21T09:40:43.000Z</time>
      </trkpt>
      <trkpt lat="47.31611" lon="-2.37015">
        <ele>51.400001525879</ele>
        <time>2021-10-21T09:40:44.000Z</time>
      </trkpt>
      <trkpt lat="47.31613" lon="-2.3702">
        <ele>51.799999237061</ele>
        <time>2021-10-21T09:40:45.000Z</time>
      </trkpt>
      <trkpt lat="47.31618" lon="-2.37037">
        <ele>51.799999237061</ele>
        <time>2021-10-21T09:40:49.000Z</time>
      </trkpt>
      <trkpt lat="47.31629" lon="-2.37061">
        <ele>51.799999237061</ele>
        <time>2021-10-21T09:40:55.000Z</time>
      </trkpt>
      <trkpt lat="47.31646" lon="-2.37091">
        <ele>51.799999237061</ele>
        <time>2021-10-21T09:41:03.000Z</time>
      </trkpt>
      <trkpt lat="47.31659" lon="-2.3712">
        <ele>52.200000762939</ele>
        <time>2021-10-21T09:41:10.000Z</time>
      </trkpt>
      <trkpt lat="47.31661" lon="-2.37124">
        <ele>52.599998474121</ele>
        <time>2021-10-21T09:41:11.000Z</time>
      </trkpt>
      <trkpt lat="47.31663" lon="-2.37128">
        <ele>53</ele>
        <time>2021-10-21T09:41:12.000Z</time>
      </trkpt>
      <trkpt lat="47.31665" lon="-2.37133">
        <ele>53.400001525879</ele>
        <time>2021-10-21T09:41:13.000Z</time>
      </trkpt>
      <trkpt lat="47.31667" lon="-2.37137">
        <ele>53.799999237061</ele>
        <time>2021-10-21T09:41:14.000Z</time>
      </trkpt>
      <trkpt lat="47.31676" lon="-2.37155">
        <ele>53.799999237061</ele>
        <time>2021-10-21T09:41:18.000Z</time>
      </trkpt>
      <trkpt lat="47.31691" lon="-2.37188">
        <ele>53.799999237061</ele>
        <time>2021-10-21T09:41:25.000Z</time>
      </trkpt>
      <trkpt lat="47.31691" lon="-2.37207">
        <ele>53.799999237061</ele>
        <time>2021-10-21T09:41:28.000Z</time>
      </trkpt>
      <trkpt lat="47.3169" lon="-2.37213">
        <ele>53.799999237061</ele>
        <time>2021-10-21T09:41:29.000Z</time>
      </trkpt>
      <trkpt lat="47.31678" lon="-2.37239">
        <ele>53.799999237061</ele>
        <time>2021-10-21T09:41:34.000Z</time>
      </trkpt>
      <trkpt lat="47.3166" lon="-2.37256">
        <ele>53.799999237061</ele>
        <time>2021-10-21T09:41:39.000Z</time>
      </trkpt>
      <trkpt lat="47.31639" lon="-2.37276">
        <ele>53.799999237061</ele>
        <time>2021-10-21T09:41:45.000Z</time>
      </trkpt>
      <trkpt lat="47.31628" lon="-2.37288">
        <ele>53.799999237061</ele>
        <time>2021-10-21T09:41:48.000Z</time>
      </trkpt>
      <trkpt lat="47.31622" lon="-2.37306">
        <ele>53.799999237061</ele>
        <time>2021-10-21T09:41:51.000Z</time>
      </trkpt>
      <trkpt lat="47.31623" lon="-2.37334">
        <ele>53.799999237061</ele>
        <time>2021-10-21T09:41:55.000Z</time>
      </trkpt>
      <trkpt lat="47.31629" lon="-2.3736">
        <ele>53.799999237061</ele>
        <time>2021-10-21T09:41:59.000Z</time>
      </trkpt>
      <trkpt lat="47.31632" lon="-2.3738">
        <ele>53.799999237061</ele>
        <time>2021-10-21T09:42:02.000Z</time>
      </trkpt>
      <trkpt lat="47.31637" lon="-2.37433">
        <ele>53.799999237061</ele>
        <time>2021-10-21T09:42:10.000Z</time>
      </trkpt>
      <trkpt lat="47.31638" lon="-2.37492">
        <ele>53.799999237061</ele>
        <time>2021-10-21T09:42:18.000Z</time>
      </trkpt>
      <trkpt lat="47.31636" lon="-2.37505">
        <ele>53.400001525879</ele>
        <time>2021-10-21T09:42:20.000Z</time>
      </trkpt>
      <trkpt lat="47.31635" lon="-2.37511">
        <ele>53</ele>
        <time>2021-10-21T09:42:21.000Z</time>
      </trkpt>
      <trkpt lat="47.31633" lon="-2.37518">
        <ele>52.599998474121</ele>
        <time>2021-10-21T09:42:22.000Z</time>
      </trkpt>
      <trkpt lat="47.31631" lon="-2.37524">
        <ele>52.200000762939</ele>
        <time>2021-10-21T09:42:23.000Z</time>
      </trkpt>
      <trkpt lat="47.31628" lon="-2.3753">
        <ele>51.799999237061</ele>
        <time>2021-10-21T09:42:24.000Z</time>
      </trkpt>
      <trkpt lat="47.31617" lon="-2.37569">
        <ele>51.799999237061</ele>
        <time>2021-10-21T09:42:30.000Z</time>
      </trkpt>
      <trkpt lat="47.31616" lon="-2.37576">
        <ele>51.799999237061</ele>
        <time>2021-10-21T09:42:31.000Z</time>
      </trkpt>
      <trkpt lat="47.31615" lon="-2.37601">
        <ele>51.799999237061</ele>
        <time>2021-10-21T09:42:35.000Z</time>
      </trkpt>
      <trkpt lat="47.31615" lon="-2.37632">
        <ele>51.799999237061</ele>
        <time>2021-10-21T09:42:40.000Z</time>
      </trkpt>
      <trkpt lat="47.31612" lon="-2.37651">
        <ele>51.799999237061</ele>
        <time>2021-10-21T09:42:43.000Z</time>
      </trkpt>
      <trkpt lat="47.316" lon="-2.37674">
        <ele>51.799999237061</ele>
        <time>2021-10-21T09:42:47.000Z</time>
      </trkpt>
      <trkpt lat="47.31596" lon="-2.37679">
        <ele>51.400001525879</ele>
        <time>2021-10-21T09:42:48.000Z</time>
      </trkpt>
      <trkpt lat="47.31592" lon="-2.37683">
        <ele>51</ele>
        <time>2021-10-21T09:42:49.000Z</time>
      </trkpt>
      <trkpt lat="47.31588" lon="-2.37689">
        <ele>50.599998474121</ele>
        <time>2021-10-21T09:42:50.000Z</time>
      </trkpt>
      <trkpt lat="47.31584" lon="-2.37694">
        <ele>50</ele>
        <time>2021-10-21T09:42:51.000Z</time>
      </trkpt>
      <trkpt lat="47.3158" lon="-2.377">
        <ele>49.599998474121</ele>
        <time>2021-10-21T09:42:52.000Z</time>
      </trkpt>
      <trkpt lat="47.31552" lon="-2.37752">
        <ele>49.599998474121</ele>
        <time>2021-10-21T09:43:00.000Z</time>
      </trkpt>
      <trkpt lat="47.31542" lon="-2.37795">
        <ele>49.599998474121</ele>
        <time>2021-10-21T09:43:06.000Z</time>
      </trkpt>
      <trkpt lat="47.31528" lon="-2.37863">
        <ele>49.599998474121</ele>
        <time>2021-10-21T09:43:15.000Z</time>
      </trkpt>
      <trkpt lat="47.3151" lon="-2.37915">
        <ele>49.599998474121</ele>
        <time>2021-10-21T09:43:22.000Z</time>
      </trkpt>
      <trkpt lat="47.31489" lon="-2.37963">
        <ele>49.599998474121</ele>
        <time>2021-10-21T09:43:28.000Z</time>
      </trkpt>
      <trkpt lat="47.31461" lon="-2.38012">
        <ele>49.599998474121</ele>
        <time>2021-10-21T09:43:35.000Z</time>
      </trkpt>
      <trkpt lat="47.31431" lon="-2.38051">
        <ele>49.599998474121</ele>
        <time>2021-10-21T09:43:42.000Z</time>
      </trkpt>
      <trkpt lat="47.31413" lon="-2.3807">
        <ele>49.599998474121</ele>
        <time>2021-10-21T09:43:46.000Z</time>
      </trkpt>
      <trkpt lat="47.314" lon="-2.38082">
        <ele>49.599998474121</ele>
        <time>2021-10-21T09:43:49.000Z</time>
      </trkpt>
      <trkpt lat="47.31364" lon="-2.38109">
        <ele>49.599998474121</ele>
        <time>2021-10-21T09:43:57.000Z</time>
      </trkpt>
      <trkpt lat="47.31328" lon="-2.38139">
        <ele>49.599998474121</ele>
        <time>2021-10-21T09:44:05.000Z</time>
      </trkpt>
      <trkpt lat="47.31302" lon="-2.38162">
        <ele>49.599998474121</ele>
        <time>2021-10-21T09:44:11.000Z</time>
      </trkpt>
      <trkpt lat="47.3129" lon="-2.38172">
        <ele>50.200000762939</ele>
        <time>2021-10-21T09:44:15.000Z</time>
      </trkpt>
      <trkpt lat="47.31287" lon="-2.38175">
        <ele>50.599998474121</ele>
        <time>2021-10-21T09:44:16.000Z</time>
      </trkpt>
      <trkpt lat="47.31284" lon="-2.38178">
        <ele>51</ele>
        <time>2021-10-21T09:44:17.000Z</time>
      </trkpt>
      <trkpt lat="47.31281" lon="-2.38181">
        <ele>51.400001525879</ele>
        <time>2021-10-21T09:44:18.000Z</time>
      </trkpt>
      <trkpt lat="47.31278" lon="-2.38184">
        <ele>52</ele>
        <time>2021-10-21T09:44:19.000Z</time>
      </trkpt>
      <trkpt lat="47.3127" lon="-2.3819">
        <ele>52</ele>
        <time>2021-10-21T09:44:22.000Z</time>
      </trkpt>
      <trkpt lat="47.31251" lon="-2.38207">
        <ele>52</ele>
        <time>2021-10-21T09:44:29.000Z</time>
      </trkpt>
      <trkpt lat="47.31228" lon="-2.38226">
        <ele>52</ele>
        <time>2021-10-21T09:44:36.000Z</time>
      </trkpt>
      <trkpt lat="47.31221" lon="-2.38231">
        <ele>52.400001525879</ele>
        <time>2021-10-21T09:44:38.000Z</time>
      </trkpt>
      <trkpt lat="47.31218" lon="-2.38234">
        <ele>52.799999237061</ele>
        <time>2021-10-21T09:44:39.000Z</time>
      </trkpt>
      <trkpt lat="47.31214" lon="-2.38237">
        <ele>53.200000762939</ele>
        <time>2021-10-21T09:44:40.000Z</time>
      </trkpt>
      <trkpt lat="47.31211" lon="-2.3824">
        <ele>53.599998474121</ele>
        <time>2021-10-21T09:44:41.000Z</time>
      </trkpt>
      <trkpt lat="47.31208" lon="-2.38242">
        <ele>54</ele>
        <time>2021-10-21T09:44:42.000Z</time>
      </trkpt>
      <trkpt lat="47.31202" lon="-2.38247">
        <ele>54</ele>
        <time>2021-10-21T09:44:44.000Z</time>
      </trkpt>
      <trkpt lat="47.31175" lon="-2.38269">
        <ele>54</ele>
        <time>2021-10-21T09:44:53.000Z</time>
      </trkpt>
      <trkpt lat="47.31147" lon="-2.38291">
        <ele>54</ele>
        <time>2021-10-21T09:45:01.000Z</time>
      </trkpt>
      <trkpt lat="47.31131" lon="-2.38303">
        <ele>54.400001525879</ele>
        <time>2021-10-21T09:45:06.000Z</time>
      </trkpt>
      <trkpt lat="47.31128" lon="-2.38306">
        <ele>54.799999237061</ele>
        <time>2021-10-21T09:45:07.000Z</time>
      </trkpt>
      <trkpt lat="47.31124" lon="-2.38309">
        <ele>55.200000762939</ele>
        <time>2021-10-21T09:45:08.000Z</time>
      </trkpt>
      <trkpt lat="47.31121" lon="-2.38311">
        <ele>55.599998474121</ele>
        <time>2021-10-21T09:45:09.000Z</time>
      </trkpt>
      <trkpt lat="47.31118" lon="-2.38314">
        <ele>56.200000762939</ele>
        <time>2021-10-21T09:45:10.000Z</time>
      </trkpt>
      <trkpt lat="47.3109" lon="-2.38336">
        <ele>56.200000762939</ele>
        <time>2021-10-21T09:45:18.000Z</time>
      </trkpt>
      <trkpt lat="47.31065" lon="-2.38363">
        <ele>56.200000762939</ele>
        <time>2021-10-21T09:45:25.000Z</time>
      </trkpt>
      <trkpt lat="47.31038" lon="-2.38396">
        <ele>56.200000762939</ele>
        <time>2021-10-21T09:45:33.000Z</time>
      </trkpt>
      <trkpt lat="47.31012" lon="-2.38431">
        <ele>56.200000762939</ele>
        <time>2021-10-21T09:45:41.000Z</time>
      </trkpt>
      <trkpt lat="47.31" lon="-2.38451">
        <ele>56.599998474121</ele>
        <time>2021-10-21T09:45:45.000Z</time>
      </trkpt>
      <trkpt lat="47.30997" lon="-2.38456">
        <ele>57</ele>
        <time>2021-10-21T09:45:46.000Z</time>
      </trkpt>
      <trkpt lat="47.30994" lon="-2.38462">
        <ele>57.400001525879</ele>
        <time>2021-10-21T09:45:47.000Z</time>
      </trkpt>
      <trkpt lat="47.30991" lon="-2.38467">
        <ele>58</ele>
        <time>2021-10-21T09:45:48.000Z</time>
      </trkpt>
      <trkpt lat="47.30988" lon="-2.38473">
        <ele>58.400001525879</ele>
        <time>2021-10-21T09:45:49.000Z</time>
      </trkpt>
      <trkpt lat="47.30972" lon="-2.38497">
        <ele>58.400001525879</ele>
        <time>2021-10-21T09:45:54.000Z</time>
      </trkpt>
      <trkpt lat="47.30947" lon="-2.38527">
        <ele>58.400001525879</ele>
        <time>2021-10-21T09:46:01.000Z</time>
      </trkpt>
      <trkpt lat="47.30915" lon="-2.38548">
        <ele>58.400001525879</ele>
        <time>2021-10-21T09:46:08.000Z</time>
      </trkpt>
      <trkpt lat="47.30874" lon="-2.38564">
        <ele>58.400001525879</ele>
        <time>2021-10-21T09:46:17.000Z</time>
      </trkpt>
      <trkpt lat="47.30846" lon="-2.38576">
        <ele>58.400001525879</ele>
        <time>2021-10-21T09:46:23.000Z</time>
      </trkpt>
      <trkpt lat="47.30817" lon="-2.38587">
        <ele>58.400001525879</ele>
        <time>2021-10-21T09:46:30.000Z</time>
      </trkpt>
      <trkpt lat="47.30794" lon="-2.38597">
        <ele>58.400001525879</ele>
        <time>2021-10-21T09:46:35.000Z</time>
      </trkpt>
      <trkpt lat="47.3077" lon="-2.38605">
        <ele>58.400001525879</ele>
        <time>2021-10-21T09:46:41.000Z</time>
      </trkpt>
      <trkpt lat="47.30749" lon="-2.38615">
        <ele>58.400001525879</ele>
        <time>2021-10-21T09:46:48.000Z</time>
      </trkpt>
      <trkpt lat="47.30746" lon="-2.38614">
        <ele>58.400001525879</ele>
        <time>2021-10-21T09:46:49.000Z</time>
      </trkpt>
      <trkpt lat="47.30742" lon="-2.38607">
        <ele>58.400001525879</ele>
        <time>2021-10-21T09:46:51.000Z</time>
      </trkpt>
      <trkpt lat="47.30735" lon="-2.38585">
        <ele>58.400001525879</ele>
        <time>2021-10-21T09:46:55.000Z</time>
      </trkpt>
      <trkpt lat="47.30728" lon="-2.38565">
        <ele>58.400001525879</ele>
        <time>2021-10-21T09:46:58.000Z</time>
      </trkpt>
      <trkpt lat="47.30722" lon="-2.38544">
        <ele>58.400001525879</ele>
        <time>2021-10-21T09:47:01.000Z</time>
      </trkpt>
      <trkpt lat="47.30702" lon="-2.38479">
        <ele>58.400001525879</ele>
        <time>2021-10-21T09:47:10.000Z</time>
      </trkpt>
      <trkpt lat="47.30689" lon="-2.38429">
        <ele>58.400001525879</ele>
        <time>2021-10-21T09:47:17.000Z</time>
      </trkpt>
      <trkpt lat="47.30677" lon="-2.38382">
        <ele>58.400001525879</ele>
        <time>2021-10-21T09:47:24.000Z</time>
      </trkpt>
      <trkpt lat="47.30665" lon="-2.38327">
        <ele>58.400001525879</ele>
        <time>2021-10-21T09:47:32.000Z</time>
      </trkpt>
      <trkpt lat="47.30652" lon="-2.38277">
        <ele>58.400001525879</ele>
        <time>2021-10-21T09:47:39.000Z</time>
      </trkpt>
      <trkpt lat="47.30646" lon="-2.38254">
        <ele>58</ele>
        <time>2021-10-21T09:47:42.000Z</time>
      </trkpt>
      <trkpt lat="47.30644" lon="-2.38247">
        <ele>57.599998474121</ele>
        <time>2021-10-21T09:47:43.000Z</time>
      </trkpt>
      <trkpt lat="47.30642" lon="-2.3824">
        <ele>57.200000762939</ele>
        <time>2021-10-21T09:47:44.000Z</time>
      </trkpt>
      <trkpt lat="47.3064" lon="-2.38233">
        <ele>56.799999237061</ele>
        <time>2021-10-21T09:47:45.000Z</time>
      </trkpt>
      <trkpt lat="47.30638" lon="-2.38225">
        <ele>56.400001525879</ele>
        <time>2021-10-21T09:47:46.000Z</time>
      </trkpt>
      <trkpt lat="47.30636" lon="-2.38217">
        <ele>56.400001525879</ele>
        <time>2021-10-21T09:47:47.000Z</time>
      </trkpt>
      <trkpt lat="47.3062" lon="-2.38159">
        <ele>56.400001525879</ele>
        <time>2021-10-21T09:47:55.000Z</time>
      </trkpt>
      <trkpt lat="47.30603" lon="-2.38099">
        <ele>56.400001525879</ele>
        <time>2021-10-21T09:48:04.000Z</time>
      </trkpt>
      <trkpt lat="47.30597" lon="-2.38079">
        <ele>55.799999237061</ele>
        <time>2021-10-21T09:48:07.000Z</time>
      </trkpt>
      <trkpt lat="47.30596" lon="-2.38072">
        <ele>55.400001525879</ele>
        <time>2021-10-21T09:48:08.000Z</time>
      </trkpt>
      <trkpt lat="47.30594" lon="-2.38065">
        <ele>55</ele>
        <time>2021-10-21T09:48:09.000Z</time>
      </trkpt>
      <trkpt lat="47.30592" lon="-2.38058">
        <ele>54.599998474121</ele>
        <time>2021-10-21T09:48:10.000Z</time>
      </trkpt>
      <trkpt lat="47.3059" lon="-2.38052">
        <ele>54.200000762939</ele>
        <time>2021-10-21T09:48:11.000Z</time>
      </trkpt>
      <trkpt lat="47.30588" lon="-2.38045">
        <ele>54.200000762939</ele>
        <time>2021-10-21T09:48:12.000Z</time>
      </trkpt>
      <trkpt lat="47.3058" lon="-2.37999">
        <ele>54.200000762939</ele>
        <time>2021-10-21T09:48:19.000Z</time>
      </trkpt>
      <trkpt lat="47.3058" lon="-2.37991">
        <ele>54.200000762939</ele>
        <time>2021-10-21T09:48:20.000Z</time>
      </trkpt>
      <trkpt lat="47.30584" lon="-2.3796">
        <ele>54.200000762939</ele>
        <time>2021-10-21T09:48:25.000Z</time>
      </trkpt>
      <trkpt lat="47.3058" lon="-2.37953">
        <ele>54.200000762939</ele>
        <time>2021-10-21T09:48:27.000Z</time>
      </trkpt>
      <trkpt lat="47.30575" lon="-2.37954">
        <ele>54.200000762939</ele>
        <time>2021-10-21T09:48:28.000Z</time>
      </trkpt>
      <trkpt lat="47.30565" lon="-2.37961">
        <ele>53.799999237061</ele>
        <time>2021-10-21T09:48:30.000Z</time>
      </trkpt>
      <trkpt lat="47.30559" lon="-2.37966">
        <ele>53.400001525879</ele>
        <time>2021-10-21T09:48:31.000Z</time>
      </trkpt>
      <trkpt lat="47.30553" lon="-2.3797">
        <ele>53</ele>
        <time>2021-10-21T09:48:32.000Z</time>
      </trkpt>
      <trkpt lat="47.30546" lon="-2.37974">
        <ele>52.599998474121</ele>
        <time>2021-10-21T09:48:33.000Z</time>
      </trkpt>
      <trkpt lat="47.3054" lon="-2.37979">
        <ele>52.200000762939</ele>
        <time>2021-10-21T09:48:34.000Z</time>
      </trkpt>
      <trkpt lat="47.30527" lon="-2.37989">
        <ele>52.200000762939</ele>
        <time>2021-10-21T09:48:36.000Z</time>
      </trkpt>
      <trkpt lat="47.30521" lon="-2.37991">
        <ele>51.799999237061</ele>
        <time>2021-10-21T09:48:37.000Z</time>
      </trkpt>
      <trkpt lat="47.30516" lon="-2.37993">
        <ele>51.200000762939</ele>
        <time>2021-10-21T09:48:38.000Z</time>
      </trkpt>
      <trkpt lat="47.30513" lon="-2.37995">
        <ele>50.799999237061</ele>
        <time>2021-10-21T09:48:39.000Z</time>
      </trkpt>
      <trkpt lat="47.30511" lon="-2.37996">
        <ele>50.400001525879</ele>
        <time>2021-10-21T09:48:40.000Z</time>
      </trkpt>
      <trkpt lat="47.30509" lon="-2.37998">
        <ele>50</ele>
        <time>2021-10-21T09:48:41.000Z</time>
      </trkpt>
      <trkpt lat="47.30506" lon="-2.38001">
        <ele>50</ele>
        <time>2021-10-21T09:48:43.000Z</time>
      </trkpt>
      <trkpt lat="47.30498" lon="-2.38012">
        <ele>50</ele>
        <time>2021-10-21T09:48:48.000Z</time>
      </trkpt>
      <trkpt lat="47.30497" lon="-2.38013">
        <ele>50.400001525879</ele>
        <time>2021-10-21T09:48:49.000Z</time>
      </trkpt>
      <trkpt lat="47.30497" lon="-2.38013">
        <ele>50.799999237061</ele>
        <time>2021-10-21T09:48:50.000Z</time>
      </trkpt>
      <trkpt lat="47.30496" lon="-2.38013">
        <ele>51.200000762939</ele>
        <time>2021-10-21T09:48:51.000Z</time>
      </trkpt>
      <trkpt lat="47.30496" lon="-2.38012">
        <ele>52</ele>
        <time>2021-10-21T09:48:52.000Z</time>
      </trkpt>
      <trkpt lat="47.30493" lon="-2.38011">
        <ele>52</ele>
        <time>2021-10-21T09:48:57.000Z</time>
      </trkpt>
      <trkpt lat="47.30491" lon="-2.3801">
        <ele>52.400001525879</ele>
        <time>2021-10-21T09:48:58.000Z</time>
      </trkpt>
      <trkpt lat="47.30488" lon="-2.38008">
        <ele>53</ele>
        <time>2021-10-21T09:48:59.000Z</time>
      </trkpt>
      <trkpt lat="47.30486" lon="-2.38005">
        <ele>53.400001525879</ele>
        <time>2021-10-21T09:49:00.000Z</time>
      </trkpt>
      <trkpt lat="47.30484" lon="-2.38001">
        <ele>53.799999237061</ele>
        <time>2021-10-21T09:49:01.000Z</time>
      </trkpt>
      <trkpt lat="47.30482" lon="-2.37996">
        <ele>54.200000762939</ele>
        <time>2021-10-21T09:49:02.000Z</time>
      </trkpt>
      <trkpt lat="47.30473" lon="-2.37975">
        <ele>54.200000762939</ele>
        <time>2021-10-21T09:49:07.000Z</time>
      </trkpt>
      <trkpt lat="47.30462" lon="-2.37953">
        <ele>54.200000762939</ele>
        <time>2021-10-21T09:49:13.000Z</time>
      </trkpt>
      <trkpt lat="47.30451" lon="-2.37924">
        <ele>54.200000762939</ele>
        <time>2021-10-21T09:49:21.000Z</time>
      </trkpt>
      <trkpt lat="47.30442" lon="-2.37897">
        <ele>54.200000762939</ele>
        <time>2021-10-21T09:49:28.000Z</time>
      </trkpt>
      <trkpt lat="47.30433" lon="-2.37863">
        <ele>54.200000762939</ele>
        <time>2021-10-21T09:49:35.000Z</time>
      </trkpt>
      <trkpt lat="47.30428" lon="-2.37844">
        <ele>54.200000762939</ele>
        <time>2021-10-21T09:49:38.000Z</time>
      </trkpt>
      <trkpt lat="47.30425" lon="-2.37824">
        <ele>54.200000762939</ele>
        <time>2021-10-21T09:49:41.000Z</time>
      </trkpt>
      <trkpt lat="47.30415" lon="-2.37769">
        <ele>54.200000762939</ele>
        <time>2021-10-21T09:49:49.000Z</time>
      </trkpt>
      <trkpt lat="47.30409" lon="-2.37723">
        <ele>53.799999237061</ele>
        <time>2021-10-21T09:49:55.000Z</time>
      </trkpt>
      <trkpt lat="47.30408" lon="-2.37715">
        <ele>53.400001525879</ele>
        <time>2021-10-21T09:49:56.000Z</time>
      </trkpt>
      <trkpt lat="47.30408" lon="-2.37708">
        <ele>53</ele>
        <time>2021-10-21T09:49:57.000Z</time>
      </trkpt>
      <trkpt lat="47.30407" lon="-2.377">
        <ele>52.599998474121</ele>
        <time>2021-10-21T09:49:58.000Z</time>
      </trkpt>
      <trkpt lat="47.30406" lon="-2.37692">
        <ele>52.200000762939</ele>
        <time>2021-10-21T09:49:59.000Z</time>
      </trkpt>
      <trkpt lat="47.304" lon="-2.37646">
        <ele>52.200000762939</ele>
        <time>2021-10-21T09:50:05.000Z</time>
      </trkpt>
      <trkpt lat="47.30391" lon="-2.3758">
        <ele>52.200000762939</ele>
        <time>2021-10-21T09:50:13.000Z</time>
      </trkpt>
      <trkpt lat="47.30378" lon="-2.37528">
        <ele>52.200000762939</ele>
        <time>2021-10-21T09:50:20.000Z</time>
      </trkpt>
      <trkpt lat="47.30366" lon="-2.37493">
        <ele>52.200000762939</ele>
        <time>2021-10-21T09:50:25.000Z</time>
      </trkpt>
      <trkpt lat="47.30348" lon="-2.37451">
        <ele>52.599998474121</ele>
        <time>2021-10-21T09:50:31.000Z</time>
      </trkpt>
      <trkpt lat="47.30345" lon="-2.37444">
        <ele>53.200000762939</ele>
        <time>2021-10-21T09:50:32.000Z</time>
      </trkpt>
      <trkpt lat="47.30342" lon="-2.37437">
        <ele>53.599998474121</ele>
        <time>2021-10-21T09:50:33.000Z</time>
      </trkpt>
      <trkpt lat="47.30339" lon="-2.37431">
        <ele>54</ele>
        <time>2021-10-21T09:50:34.000Z</time>
      </trkpt>
      <trkpt lat="47.30335" lon="-2.37425">
        <ele>54.400001525879</ele>
        <time>2021-10-21T09:50:35.000Z</time>
      </trkpt>
      <trkpt lat="47.30329" lon="-2.37413">
        <ele>54.400001525879</ele>
        <time>2021-10-21T09:50:37.000Z</time>
      </trkpt>
      <trkpt lat="47.30325" lon="-2.37407">
        <ele>54.400001525879</ele>
        <time>2021-10-21T09:50:38.000Z</time>
      </trkpt>
      <trkpt lat="47.30305" lon="-2.37375">
        <ele>54.799999237061</ele>
        <time>2021-10-21T09:50:44.000Z</time>
      </trkpt>
      <trkpt lat="47.30302" lon="-2.37369">
        <ele>55.200000762939</ele>
        <time>2021-10-21T09:50:45.000Z</time>
      </trkpt>
      <trkpt lat="47.30298" lon="-2.37365">
        <ele>55.599998474121</ele>
        <time>2021-10-21T09:50:46.000Z</time>
      </trkpt>
      <trkpt lat="47.30295" lon="-2.37359">
        <ele>56</ele>
        <time>2021-10-21T09:50:47.000Z</time>
      </trkpt>
      <trkpt lat="47.30292" lon="-2.37354">
        <ele>56.400001525879</ele>
        <time>2021-10-21T09:50:48.000Z</time>
      </trkpt>
      <trkpt lat="47.30288" lon="-2.3735">
        <ele>56.400001525879</ele>
        <time>2021-10-21T09:50:49.000Z</time>
      </trkpt>
      <trkpt lat="47.30282" lon="-2.3734">
        <ele>56.400001525879</ele>
        <time>2021-10-21T09:50:51.000Z</time>
      </trkpt>
      <trkpt lat="47.30278" lon="-2.37336">
        <ele>56.400001525879</ele>
        <time>2021-10-21T09:50:52.000Z</time>
      </trkpt>
      <trkpt lat="47.30265" lon="-2.37317">
        <ele>56.799999237061</ele>
        <time>2021-10-21T09:50:56.000Z</time>
      </trkpt>
      <trkpt lat="47.30262" lon="-2.37313">
        <ele>57.400001525879</ele>
        <time>2021-10-21T09:50:57.000Z</time>
      </trkpt>
      <trkpt lat="47.30258" lon="-2.37308">
        <ele>57.799999237061</ele>
        <time>2021-10-21T09:50:58.000Z</time>
      </trkpt>
      <trkpt lat="47.30255" lon="-2.37304">
        <ele>58.200000762939</ele>
        <time>2021-10-21T09:50:59.000Z</time>
      </trkpt>
      <trkpt lat="47.30252" lon="-2.37298">
        <ele>58.599998474121</ele>
        <time>2021-10-21T09:51:00.000Z</time>
      </trkpt>
      <trkpt lat="47.30247" lon="-2.37288">
        <ele>58.599998474121</ele>
        <time>2021-10-21T09:51:02.000Z</time>
      </trkpt>
      <trkpt lat="47.30237" lon="-2.37275">
        <ele>58.599998474121</ele>
        <time>2021-10-21T09:51:05.000Z</time>
      </trkpt>
      <trkpt lat="47.3023" lon="-2.37267">
        <ele>59</ele>
        <time>2021-10-21T09:51:07.000Z</time>
      </trkpt>
      <trkpt lat="47.30228" lon="-2.37263">
        <ele>59.400001525879</ele>
        <time>2021-10-21T09:51:08.000Z</time>
      </trkpt>
      <trkpt lat="47.30225" lon="-2.37258">
        <ele>59.799999237061</ele>
        <time>2021-10-21T09:51:09.000Z</time>
      </trkpt>
      <trkpt lat="47.30222" lon="-2.37253">
        <ele>60.200000762939</ele>
        <time>2021-10-21T09:51:10.000Z</time>
      </trkpt>
      <trkpt lat="47.30219" lon="-2.37249">
        <ele>60.799999237061</ele>
        <time>2021-10-21T09:51:11.000Z</time>
      </trkpt>
      <trkpt lat="47.30204" lon="-2.37231">
        <ele>60.799999237061</ele>
        <time>2021-10-21T09:51:16.000Z</time>
      </trkpt>
      <trkpt lat="47.30192" lon="-2.37215">
        <ele>60.799999237061</ele>
        <time>2021-10-21T09:51:20.000Z</time>
      </trkpt>
      <trkpt lat="47.30182" lon="-2.37203">
        <ele>60.799999237061</ele>
        <time>2021-10-21T09:51:23.000Z</time>
      </trkpt>
      <trkpt lat="47.3015" lon="-2.37167">
        <ele>60.799999237061</ele>
        <time>2021-10-21T09:51:31.000Z</time>
      </trkpt>
      <trkpt lat="47.30116" lon="-2.37131">
        <ele>60.799999237061</ele>
        <time>2021-10-21T09:51:38.000Z</time>
      </trkpt>
      <trkpt lat="47.30081" lon="-2.37098">
        <ele>60.200000762939</ele>
        <time>2021-10-21T09:51:44.000Z</time>
      </trkpt>
      <trkpt lat="47.30075" lon="-2.37093">
        <ele>59.799999237061</ele>
        <time>2021-10-21T09:51:45.000Z</time>
      </trkpt>
      <trkpt lat="47.30069" lon="-2.37087">
        <ele>59</ele>
        <time>2021-10-21T09:51:46.000Z</time>
      </trkpt>
      <trkpt lat="47.30063" lon="-2.37081">
        <ele>58.599998474121</ele>
        <time>2021-10-21T09:51:47.000Z</time>
      </trkpt>
      <trkpt lat="47.30044" lon="-2.37065">
        <ele>58.200000762939</ele>
        <time>2021-10-21T09:51:50.000Z</time>
      </trkpt>
      <trkpt lat="47.30038" lon="-2.3706">
        <ele>57.799999237061</ele>
        <time>2021-10-21T09:51:51.000Z</time>
      </trkpt>
      <trkpt lat="47.30031" lon="-2.37055">
        <ele>57.400001525879</ele>
        <time>2021-10-21T09:51:52.000Z</time>
      </trkpt>
      <trkpt lat="47.30025" lon="-2.37049">
        <ele>56.799999237061</ele>
        <time>2021-10-21T09:51:53.000Z</time>
      </trkpt>
      <trkpt lat="47.30018" lon="-2.37044">
        <ele>56.400001525879</ele>
        <time>2021-10-21T09:51:54.000Z</time>
      </trkpt>
      <trkpt lat="47.29983" lon="-2.37022">
        <ele>56</ele>
        <time>2021-10-21T09:51:59.000Z</time>
      </trkpt>
      <trkpt lat="47.29977" lon="-2.37018">
        <ele>55.599998474121</ele>
        <time>2021-10-21T09:52:00.000Z</time>
      </trkpt>
      <trkpt lat="47.2997" lon="-2.37014">
        <ele>55</ele>
        <time>2021-10-21T09:52:01.000Z</time>
      </trkpt>
      <trkpt lat="47.29964" lon="-2.37011">
        <ele>54.599998474121</ele>
        <time>2021-10-21T09:52:02.000Z</time>
      </trkpt>
      <trkpt lat="47.29958" lon="-2.37008">
        <ele>54.200000762939</ele>
        <time>2021-10-21T09:52:03.000Z</time>
      </trkpt>
      <trkpt lat="47.29946" lon="-2.37002">
        <ele>54.200000762939</ele>
        <time>2021-10-21T09:52:05.000Z</time>
      </trkpt>
      <trkpt lat="47.29916" lon="-2.36982">
        <ele>54.200000762939</ele>
        <time>2021-10-21T09:52:11.000Z</time>
      </trkpt>
      <trkpt lat="47.29905" lon="-2.36975">
        <ele>53.799999237061</ele>
        <time>2021-10-21T09:52:13.000Z</time>
      </trkpt>
      <trkpt lat="47.299" lon="-2.36973">
        <ele>53.400001525879</ele>
        <time>2021-10-21T09:52:14.000Z</time>
      </trkpt>
      <trkpt lat="47.29894" lon="-2.36972">
        <ele>53</ele>
        <time>2021-10-21T09:52:15.000Z</time>
      </trkpt>
      <trkpt lat="47.29889" lon="-2.36972">
        <ele>52.599998474121</ele>
        <time>2021-10-21T09:52:16.000Z</time>
      </trkpt>
      <trkpt lat="47.29884" lon="-2.36971">
        <ele>52</ele>
        <time>2021-10-21T09:52:17.000Z</time>
      </trkpt>
      <trkpt lat="47.29874" lon="-2.36971">
        <ele>52</ele>
        <time>2021-10-21T09:52:19.000Z</time>
      </trkpt>
      <trkpt lat="47.2987" lon="-2.36966">
        <ele>52</ele>
        <time>2021-10-21T09:52:20.000Z</time>
      </trkpt>
      <trkpt lat="47.29866" lon="-2.36944">
        <ele>52</ele>
        <time>2021-10-21T09:52:23.000Z</time>
      </trkpt>
      <trkpt lat="47.2985" lon="-2.36908">
        <ele>52</ele>
        <time>2021-10-21T09:52:28.000Z</time>
      </trkpt>
      <trkpt lat="47.2983" lon="-2.36862">
        <ele>52</ele>
        <time>2021-10-21T09:52:34.000Z</time>
      </trkpt>
      <trkpt lat="47.29808" lon="-2.36814">
        <ele>51.599998474121</ele>
        <time>2021-10-21T09:52:40.000Z</time>
      </trkpt>
      <trkpt lat="47.29803" lon="-2.36806">
        <ele>51.200000762939</ele>
        <time>2021-10-21T09:52:41.000Z</time>
      </trkpt>
      <trkpt lat="47.29799" lon="-2.36798">
        <ele>50.799999237061</ele>
        <time>2021-10-21T09:52:42.000Z</time>
      </trkpt>
      <trkpt lat="47.29795" lon="-2.36791">
        <ele>50.400001525879</ele>
        <time>2021-10-21T09:52:43.000Z</time>
      </trkpt>
      <trkpt lat="47.29791" lon="-2.36784">
        <ele>50</ele>
        <time>2021-10-21T09:52:44.000Z</time>
      </trkpt>
      <trkpt lat="47.29783" lon="-2.36768">
        <ele>50</ele>
        <time>2021-10-21T09:52:46.000Z</time>
      </trkpt>
      <trkpt lat="47.29773" lon="-2.36747">
        <ele>50</ele>
        <time>2021-10-21T09:52:49.000Z</time>
      </trkpt>
      <trkpt lat="47.29768" lon="-2.36732">
        <ele>49.599998474121</ele>
        <time>2021-10-21T09:52:51.000Z</time>
      </trkpt>
      <trkpt lat="47.29765" lon="-2.36725">
        <ele>49.200000762939</ele>
        <time>2021-10-21T09:52:52.000Z</time>
      </trkpt>
      <trkpt lat="47.29763" lon="-2.36717">
        <ele>48.599998474121</ele>
        <time>2021-10-21T09:52:53.000Z</time>
      </trkpt>
      <trkpt lat="47.29761" lon="-2.36711">
        <ele>48.200000762939</ele>
        <time>2021-10-21T09:52:54.000Z</time>
      </trkpt>
      <trkpt lat="47.29759" lon="-2.36705">
        <ele>47.799999237061</ele>
        <time>2021-10-21T09:52:55.000Z</time>
      </trkpt>
      <trkpt lat="47.29755" lon="-2.36693">
        <ele>47.799999237061</ele>
        <time>2021-10-21T09:52:57.000Z</time>
      </trkpt>
      <trkpt lat="47.29742" lon="-2.36653">
        <ele>47.799999237061</ele>
        <time>2021-10-21T09:53:03.000Z</time>
      </trkpt>
      <trkpt lat="47.29735" lon="-2.36633">
        <ele>47.400001525879</ele>
        <time>2021-10-21T09:53:06.000Z</time>
      </trkpt>
      <trkpt lat="47.29733" lon="-2.36626">
        <ele>47</ele>
        <time>2021-10-21T09:53:07.000Z</time>
      </trkpt>
      <trkpt lat="47.29731" lon="-2.36618">
        <ele>46.599998474121</ele>
        <time>2021-10-21T09:53:08.000Z</time>
      </trkpt>
      <trkpt lat="47.29729" lon="-2.36611">
        <ele>46.200000762939</ele>
        <time>2021-10-21T09:53:09.000Z</time>
      </trkpt>
      <trkpt lat="47.29726" lon="-2.36603">
        <ele>45.799999237061</ele>
        <time>2021-10-21T09:53:10.000Z</time>
      </trkpt>
      <trkpt lat="47.2972" lon="-2.36587">
        <ele>45.400001525879</ele>
        <time>2021-10-21T09:53:12.000Z</time>
      </trkpt>
      <trkpt lat="47.29717" lon="-2.36578">
        <ele>45</ele>
        <time>2021-10-21T09:53:13.000Z</time>
      </trkpt>
      <trkpt lat="47.29713" lon="-2.36569">
        <ele>44.599998474121</ele>
        <time>2021-10-21T09:53:14.000Z</time>
      </trkpt>
      <trkpt lat="47.29709" lon="-2.36561">
        <ele>44.200000762939</ele>
        <time>2021-10-21T09:53:15.000Z</time>
      </trkpt>
      <trkpt lat="47.29705" lon="-2.36552">
        <ele>43.799999237061</ele>
        <time>2021-10-21T09:53:16.000Z</time>
      </trkpt>
      <trkpt lat="47.29697" lon="-2.36533">
        <ele>43.799999237061</ele>
        <time>2021-10-21T09:53:18.000Z</time>
      </trkpt>
      <trkpt lat="47.29691" lon="-2.36512">
        <ele>43.400001525879</ele>
        <time>2021-10-21T09:53:20.000Z</time>
      </trkpt>
      <trkpt lat="47.29687" lon="-2.36502">
        <ele>43</ele>
        <time>2021-10-21T09:53:21.000Z</time>
      </trkpt>
      <trkpt lat="47.29683" lon="-2.36491">
        <ele>42.400001525879</ele>
        <time>2021-10-21T09:53:22.000Z</time>
      </trkpt>
      <trkpt lat="47.29679" lon="-2.3648">
        <ele>42</ele>
        <time>2021-10-21T09:53:23.000Z</time>
      </trkpt>
      <trkpt lat="47.29675" lon="-2.3647">
        <ele>41.599998474121</ele>
        <time>2021-10-21T09:53:24.000Z</time>
      </trkpt>
      <trkpt lat="47.29671" lon="-2.36459">
        <ele>41.599998474121</ele>
        <time>2021-10-21T09:53:25.000Z</time>
      </trkpt>
      <trkpt lat="47.29662" lon="-2.36437">
        <ele>41.200000762939</ele>
        <time>2021-10-21T09:53:27.000Z</time>
      </trkpt>
      <trkpt lat="47.29658" lon="-2.36426">
        <ele>40.799999237061</ele>
        <time>2021-10-21T09:53:28.000Z</time>
      </trkpt>
      <trkpt lat="47.29654" lon="-2.36416">
        <ele>40.400001525879</ele>
        <time>2021-10-21T09:53:29.000Z</time>
      </trkpt>
      <trkpt lat="47.29649" lon="-2.36405">
        <ele>40</ele>
        <time>2021-10-21T09:53:30.000Z</time>
      </trkpt>
      <trkpt lat="47.29645" lon="-2.36395">
        <ele>39.599998474121</ele>
        <time>2021-10-21T09:53:31.000Z</time>
      </trkpt>
      <trkpt lat="47.29636" lon="-2.36377">
        <ele>39.599998474121</ele>
        <time>2021-10-21T09:53:33.000Z</time>
      </trkpt>
      <trkpt lat="47.29611" lon="-2.36328">
        <ele>39.599998474121</ele>
        <time>2021-10-21T09:53:39.000Z</time>
      </trkpt>
      <trkpt lat="47.29582" lon="-2.36267">
        <ele>39.599998474121</ele>
        <time>2021-10-21T09:53:47.000Z</time>
      </trkpt>
      <trkpt lat="47.2956" lon="-2.3622">
        <ele>39.599998474121</ele>
        <time>2021-10-21T09:53:54.000Z</time>
      </trkpt>
      <trkpt lat="47.29547" lon="-2.36195">
        <ele>40</ele>
        <time>2021-10-21T09:53:58.000Z</time>
      </trkpt>
      <trkpt lat="47.29544" lon="-2.36189">
        <ele>40.400001525879</ele>
        <time>2021-10-21T09:53:59.000Z</time>
      </trkpt>
      <trkpt lat="47.2954" lon="-2.36185">
        <ele>40.799999237061</ele>
        <time>2021-10-21T09:54:00.000Z</time>
      </trkpt>
      <trkpt lat="47.29536" lon="-2.36182">
        <ele>41.200000762939</ele>
        <time>2021-10-21T09:54:01.000Z</time>
      </trkpt>
      <trkpt lat="47.29531" lon="-2.36179">
        <ele>41.799999237061</ele>
        <time>2021-10-21T09:54:02.000Z</time>
      </trkpt>
      <trkpt lat="47.29528" lon="-2.36173">
        <ele>41.799999237061</ele>
        <time>2021-10-21T09:54:03.000Z</time>
      </trkpt>
      <trkpt lat="47.29525" lon="-2.36158">
        <ele>41.799999237061</ele>
        <time>2021-10-21T09:54:05.000Z</time>
      </trkpt>
      <trkpt lat="47.29523" lon="-2.3615">
        <ele>41.799999237061</ele>
        <time>2021-10-21T09:54:06.000Z</time>
      </trkpt>
      <trkpt lat="47.29513" lon="-2.36123">
        <ele>41.799999237061</ele>
        <time>2021-10-21T09:54:10.000Z</time>
      </trkpt>
      <trkpt lat="47.29491" lon="-2.36069">
        <ele>41.799999237061</ele>
        <time>2021-10-21T09:54:18.000Z</time>
      </trkpt>
      <trkpt lat="47.29477" lon="-2.3603">
        <ele>41.799999237061</ele>
        <time>2021-10-21T09:54:24.000Z</time>
      </trkpt>
      <trkpt lat="47.29468" lon="-2.36003">
        <ele>41.799999237061</ele>
        <time>2021-10-21T09:54:28.000Z</time>
      </trkpt>
      <trkpt lat="47.29463" lon="-2.35991">
        <ele>41.799999237061</ele>
        <time>2021-10-21T09:54:30.000Z</time>
      </trkpt>
      <trkpt lat="47.29455" lon="-2.35963">
        <ele>41.799999237061</ele>
        <time>2021-10-21T09:54:34.000Z</time>
      </trkpt>
      <trkpt lat="47.29451" lon="-2.35949">
        <ele>42.200000762939</ele>
        <time>2021-10-21T09:54:36.000Z</time>
      </trkpt>
      <trkpt lat="47.29449" lon="-2.35942">
        <ele>42.599998474121</ele>
        <time>2021-10-21T09:54:37.000Z</time>
      </trkpt>
      <trkpt lat="47.29447" lon="-2.35936">
        <ele>43</ele>
        <time>2021-10-21T09:54:38.000Z</time>
      </trkpt>
      <trkpt lat="47.29444" lon="-2.3593">
        <ele>43.799999237061</ele>
        <time>2021-10-21T09:54:39.000Z</time>
      </trkpt>
      <trkpt lat="47.29442" lon="-2.35924">
        <ele>43.799999237061</ele>
        <time>2021-10-21T09:54:40.000Z</time>
      </trkpt>
      <trkpt lat="47.29439" lon="-2.35919">
        <ele>43.799999237061</ele>
        <time>2021-10-21T09:54:41.000Z</time>
      </trkpt>
      <trkpt lat="47.29431" lon="-2.35902">
        <ele>43.799999237061</ele>
        <time>2021-10-21T09:54:44.000Z</time>
      </trkpt>
      <trkpt lat="47.29428" lon="-2.35896">
        <ele>43.799999237061</ele>
        <time>2021-10-21T09:54:45.000Z</time>
      </trkpt>
      <trkpt lat="47.29414" lon="-2.35879">
        <ele>43.799999237061</ele>
        <time>2021-10-21T09:54:49.000Z</time>
      </trkpt>
      <trkpt lat="47.29411" lon="-2.35875">
        <ele>43.799999237061</ele>
        <time>2021-10-21T09:54:50.000Z</time>
      </trkpt>
      <trkpt lat="47.29395" lon="-2.35858">
        <ele>43.799999237061</ele>
        <time>2021-10-21T09:54:55.000Z</time>
      </trkpt>
      <trkpt lat="47.2937" lon="-2.35832">
        <ele>43.799999237061</ele>
        <time>2021-10-21T09:55:02.000Z</time>
      </trkpt>
      <trkpt lat="47.29344" lon="-2.35811">
        <ele>43.799999237061</ele>
        <time>2021-10-21T09:55:08.000Z</time>
      </trkpt>
      <trkpt lat="47.2931" lon="-2.35782">
        <ele>43.799999237061</ele>
        <time>2021-10-21T09:55:16.000Z</time>
      </trkpt>
      <trkpt lat="47.29306" lon="-2.35778">
        <ele>43.799999237061</ele>
        <time>2021-10-21T09:55:17.000Z</time>
      </trkpt>
      <trkpt lat="47.29278" lon="-2.35754">
        <ele>43.799999237061</ele>
        <time>2021-10-21T09:55:24.000Z</time>
      </trkpt>
      <trkpt lat="47.29258" lon="-2.35736">
        <ele>43.799999237061</ele>
        <time>2021-10-21T09:55:29.000Z</time>
      </trkpt>
      <trkpt lat="47.29255" lon="-2.35737">
        <ele>43.799999237061</ele>
        <time>2021-10-21T09:55:30.000Z</time>
      </trkpt>
      <trkpt lat="47.29245" lon="-2.35749">
        <ele>43.799999237061</ele>
        <time>2021-10-21T09:55:33.000Z</time>
      </trkpt>
      <trkpt lat="47.29242" lon="-2.35754">
        <ele>43.799999237061</ele>
        <time>2021-10-21T09:55:34.000Z</time>
      </trkpt>
      <trkpt lat="47.29217" lon="-2.35785">
        <ele>43.799999237061</ele>
        <time>2021-10-21T09:55:41.000Z</time>
      </trkpt>
      <trkpt lat="47.29197" lon="-2.35803">
        <ele>43.799999237061</ele>
        <time>2021-10-21T09:55:46.000Z</time>
      </trkpt>
      <trkpt lat="47.29187" lon="-2.35806">
        <ele>43.799999237061</ele>
        <time>2021-10-21T09:55:48.000Z</time>
      </trkpt>
      <trkpt lat="47.29182" lon="-2.35809">
        <ele>43.799999237061</ele>
        <time>2021-10-21T09:55:49.000Z</time>
      </trkpt>
      <trkpt lat="47.29169" lon="-2.35819">
        <ele>43.799999237061</ele>
        <time>2021-10-21T09:55:52.000Z</time>
      </trkpt>
      <trkpt lat="47.29165" lon="-2.35824">
        <ele>43.799999237061</ele>
        <time>2021-10-21T09:55:53.000Z</time>
      </trkpt>
      <trkpt lat="47.29161" lon="-2.35829">
        <ele>43.799999237061</ele>
        <time>2021-10-21T09:55:54.000Z</time>
      </trkpt>
      <trkpt lat="47.29143" lon="-2.35846">
        <ele>43.799999237061</ele>
        <time>2021-10-21T09:55:58.000Z</time>
      </trkpt>
      <trkpt lat="47.29113" lon="-2.35878">
        <ele>43.799999237061</ele>
        <time>2021-10-21T09:56:05.000Z</time>
      </trkpt>
      <trkpt lat="47.29086" lon="-2.35911">
        <ele>43.799999237061</ele>
        <time>2021-10-21T09:56:12.000Z</time>
      </trkpt>
      <trkpt lat="47.2905" lon="-2.35951">
        <ele>43.799999237061</ele>
        <time>2021-10-21T09:56:21.000Z</time>
      </trkpt>
      <trkpt lat="47.29023" lon="-2.35982">
        <ele>43.799999237061</ele>
        <time>2021-10-21T09:56:28.000Z</time>
      </trkpt>
      <trkpt lat="47.28994" lon="-2.36012">
        <ele>43.799999237061</ele>
        <time>2021-10-21T09:56:35.000Z</time>
      </trkpt>
      <trkpt lat="47.28956" lon="-2.36045">
        <ele>43.799999237061</ele>
        <time>2021-10-21T09:56:44.000Z</time>
      </trkpt>
      <trkpt lat="47.28952" lon="-2.36048">
        <ele>44.200000762939</ele>
        <time>2021-10-21T09:56:45.000Z</time>
      </trkpt>
      <trkpt lat="47.28948" lon="-2.36051">
        <ele>44.599998474121</ele>
        <time>2021-10-21T09:56:46.000Z</time>
      </trkpt>
      <trkpt lat="47.28944" lon="-2.36054">
        <ele>45</ele>
        <time>2021-10-21T09:56:47.000Z</time>
      </trkpt>
      <trkpt lat="47.28939" lon="-2.36057">
        <ele>45.400001525879</ele>
        <time>2021-10-21T09:56:48.000Z</time>
      </trkpt>
      <trkpt lat="47.28934" lon="-2.3606">
        <ele>45.799999237061</ele>
        <time>2021-10-21T09:56:49.000Z</time>
      </trkpt>
      <trkpt lat="47.28925" lon="-2.36067">
        <ele>45.799999237061</ele>
        <time>2021-10-21T09:56:51.000Z</time>
      </trkpt>
      <trkpt lat="47.28895" lon="-2.36092">
        <ele>45.799999237061</ele>
        <time>2021-10-21T09:56:58.000Z</time>
      </trkpt>
      <trkpt lat="47.28882" lon="-2.36104">
        <ele>45.400001525879</ele>
        <time>2021-10-21T09:57:01.000Z</time>
      </trkpt>
      <trkpt lat="47.28878" lon="-2.36107">
        <ele>45</ele>
        <time>2021-10-21T09:57:02.000Z</time>
      </trkpt>
      <trkpt lat="47.28874" lon="-2.36111">
        <ele>44.599998474121</ele>
        <time>2021-10-21T09:57:03.000Z</time>
      </trkpt>
      <trkpt lat="47.2887" lon="-2.36115">
        <ele>44.200000762939</ele>
        <time>2021-10-21T09:57:04.000Z</time>
      </trkpt>
      <trkpt lat="47.28865" lon="-2.3612">
        <ele>43.599998474121</ele>
        <time>2021-10-21T09:57:05.000Z</time>
      </trkpt>
      <trkpt lat="47.28861" lon="-2.36124">
        <ele>43.599998474121</ele>
        <time>2021-10-21T09:57:06.000Z</time>
      </trkpt>
      <trkpt lat="47.28831" lon="-2.36162">
        <ele>43.599998474121</ele>
        <time>2021-10-21T09:57:14.000Z</time>
      </trkpt>
      <trkpt lat="47.28824" lon="-2.36172">
        <ele>43.599998474121</ele>
        <time>2021-10-21T09:57:16.000Z</time>
      </trkpt>
      <trkpt lat="47.28812" lon="-2.36183">
        <ele>43.599998474121</ele>
        <time>2021-10-21T09:57:19.000Z</time>
      </trkpt>
      <trkpt lat="47.28808" lon="-2.36186">
        <ele>43.599998474121</ele>
        <time>2021-10-21T09:57:20.000Z</time>
      </trkpt>
      <trkpt lat="47.28774" lon="-2.3621">
        <ele>43.599998474121</ele>
        <time>2021-10-21T09:57:28.000Z</time>
      </trkpt>
      <trkpt lat="47.28765" lon="-2.36216">
        <ele>43.599998474121</ele>
        <time>2021-10-21T09:57:30.000Z</time>
      </trkpt>
      <trkpt lat="47.28758" lon="-2.36216">
        <ele>43.599998474121</ele>
        <time>2021-10-21T09:57:32.000Z</time>
      </trkpt>
      <trkpt lat="47.2875" lon="-2.36203">
        <ele>43.599998474121</ele>
        <time>2021-10-21T09:57:35.000Z</time>
      </trkpt>
      <trkpt lat="47.28745" lon="-2.36183">
        <ele>43.599998474121</ele>
        <time>2021-10-21T09:57:38.000Z</time>
      </trkpt>
      <trkpt lat="47.28742" lon="-2.36168">
        <ele>43.599998474121</ele>
        <time>2021-10-21T09:57:40.000Z</time>
      </trkpt>
      <trkpt lat="47.28736" lon="-2.36139">
        <ele>43.599998474121</ele>
        <time>2021-10-21T09:57:44.000Z</time>
      </trkpt>
      <trkpt lat="47.28731" lon="-2.3612">
        <ele>43.599998474121</ele>
        <time>2021-10-21T09:57:47.000Z</time>
      </trkpt>
      <trkpt lat="47.28712" lon="-2.36063">
        <ele>43.599998474121</ele>
        <time>2021-10-21T09:57:56.000Z</time>
      </trkpt>
      <trkpt lat="47.28696" lon="-2.36017">
        <ele>43.599998474121</ele>
        <time>2021-10-21T09:58:03.000Z</time>
      </trkpt>
      <trkpt lat="47.2868" lon="-2.35982">
        <ele>43.599998474121</ele>
        <time>2021-10-21T09:58:09.000Z</time>
      </trkpt>
      <trkpt lat="47.28671" lon="-2.35963">
        <ele>43.599998474121</ele>
        <time>2021-10-21T09:58:13.000Z</time>
      </trkpt>
      <trkpt lat="47.28667" lon="-2.35962">
        <ele>43.599998474121</ele>
        <time>2021-10-21T09:58:14.000Z</time>
      </trkpt>
      <trkpt lat="47.2864" lon="-2.35962">
        <ele>43.599998474121</ele>
        <time>2021-10-21T09:58:20.000Z</time>
      </trkpt>
      <trkpt lat="47.28617" lon="-2.35956">
        <ele>43.599998474121</ele>
        <time>2021-10-21T09:58:26.000Z</time>
      </trkpt>
      <trkpt lat="47.28601" lon="-2.35939">
        <ele>43.599998474121</ele>
        <time>2021-10-21T09:58:31.000Z</time>
      </trkpt>
      <trkpt lat="47.28591" lon="-2.35924">
        <ele>43.599998474121</ele>
        <time>2021-10-21T09:58:34.000Z</time>
      </trkpt>
      <trkpt lat="47.28583" lon="-2.35907">
        <ele>43.599998474121</ele>
        <time>2021-10-21T09:58:37.000Z</time>
      </trkpt>
      <trkpt lat="47.28571" lon="-2.35877">
        <ele>43.200000762939</ele>
        <time>2021-10-21T09:58:42.000Z</time>
      </trkpt>
      <trkpt lat="47.28568" lon="-2.35871">
        <ele>42.799999237061</ele>
        <time>2021-10-21T09:58:43.000Z</time>
      </trkpt>
      <trkpt lat="47.28565" lon="-2.35865">
        <ele>42.400001525879</ele>
        <time>2021-10-21T09:58:44.000Z</time>
      </trkpt>
      <trkpt lat="47.28561" lon="-2.3586">
        <ele>42</ele>
        <time>2021-10-21T09:58:45.000Z</time>
      </trkpt>
      <trkpt lat="47.28557" lon="-2.35855">
        <ele>41.599998474121</ele>
        <time>2021-10-21T09:58:46.000Z</time>
      </trkpt>
      <trkpt lat="47.28548" lon="-2.35847">
        <ele>41.599998474121</ele>
        <time>2021-10-21T09:58:48.000Z</time>
      </trkpt>
      <trkpt lat="47.28522" lon="-2.35833">
        <ele>41.599998474121</ele>
        <time>2021-10-21T09:58:53.000Z</time>
      </trkpt>
      <trkpt lat="47.28484" lon="-2.3582">
        <ele>41.599998474121</ele>
        <time>2021-10-21T09:59:00.000Z</time>
      </trkpt>
      <trkpt lat="47.28453" lon="-2.35807">
        <ele>41.599998474121</ele>
        <time>2021-10-21T09:59:06.000Z</time>
      </trkpt>
      <trkpt lat="47.28414" lon="-2.35792">
        <ele>41.599998474121</ele>
        <time>2021-10-21T09:59:13.000Z</time>
      </trkpt>
      <trkpt lat="47.28397" lon="-2.35787">
        <ele>41.200000762939</ele>
        <time>2021-10-21T09:59:16.000Z</time>
      </trkpt>
      <trkpt lat="47.28391" lon="-2.35785">
        <ele>40.799999237061</ele>
        <time>2021-10-21T09:59:17.000Z</time>
      </trkpt>
      <trkpt lat="47.28386" lon="-2.35783">
        <ele>40.400001525879</ele>
        <time>2021-10-21T09:59:18.000Z</time>
      </trkpt>
      <trkpt lat="47.2838" lon="-2.35781">
        <ele>40</ele>
        <time>2021-10-21T09:59:19.000Z</time>
      </trkpt>
      <trkpt lat="47.28374" lon="-2.35778">
        <ele>39.599998474121</ele>
        <time>2021-10-21T09:59:20.000Z</time>
      </trkpt>
      <trkpt lat="47.28335" lon="-2.35758">
        <ele>39.599998474121</ele>
        <time>2021-10-21T09:59:27.000Z</time>
      </trkpt>
      <trkpt lat="47.28303" lon="-2.35732">
        <ele>39.599998474121</ele>
        <time>2021-10-21T09:59:33.000Z</time>
      </trkpt>
      <trkpt lat="47.28286" lon="-2.35715">
        <ele>39.200000762939</ele>
        <time>2021-10-21T09:59:36.000Z</time>
      </trkpt>
      <trkpt lat="47.2828" lon="-2.35708">
        <ele>38.799999237061</ele>
        <time>2021-10-21T09:59:37.000Z</time>
      </trkpt>
      <trkpt lat="47.28275" lon="-2.35702">
        <ele>38.400001525879</ele>
        <time>2021-10-21T09:59:38.000Z</time>
      </trkpt>
      <trkpt lat="47.28269" lon="-2.35695">
        <ele>38</ele>
        <time>2021-10-21T09:59:39.000Z</time>
      </trkpt>
      <trkpt lat="47.28264" lon="-2.35688">
        <ele>37.599998474121</ele>
        <time>2021-10-21T09:59:40.000Z</time>
      </trkpt>
      <trkpt lat="47.28238" lon="-2.35653">
        <ele>37.200000762939</ele>
        <time>2021-10-21T09:59:45.000Z</time>
      </trkpt>
      <trkpt lat="47.28232" lon="-2.35645">
        <ele>36.599998474121</ele>
        <time>2021-10-21T09:59:46.000Z</time>
      </trkpt>
      <trkpt lat="47.28227" lon="-2.35639">
        <ele>36.200000762939</ele>
        <time>2021-10-21T09:59:47.000Z</time>
      </trkpt>
      <trkpt lat="47.28222" lon="-2.35632">
        <ele>35.799999237061</ele>
        <time>2021-10-21T09:59:48.000Z</time>
      </trkpt>
      <trkpt lat="47.28217" lon="-2.35625">
        <ele>35.400001525879</ele>
        <time>2021-10-21T09:59:49.000Z</time>
      </trkpt>
      <trkpt lat="47.28202" lon="-2.35604">
        <ele>35.400001525879</ele>
        <time>2021-10-21T09:59:52.000Z</time>
      </trkpt>
      <trkpt lat="47.28174" lon="-2.35576">
        <ele>35.400001525879</ele>
        <time>2021-10-21T09:59:57.000Z</time>
      </trkpt>
      <trkpt lat="47.28163" lon="-2.35569">
        <ele>35.400001525879</ele>
        <time>2021-10-21T09:59:59.000Z</time>
      </trkpt>
      <trkpt lat="47.28158" lon="-2.35567">
        <ele>34.599998474121</ele>
        <time>2021-10-21T10:00:00.000Z</time>
      </trkpt>
      <trkpt lat="47.28152" lon="-2.35565">
        <ele>34.200000762939</ele>
        <time>2021-10-21T10:00:01.000Z</time>
      </trkpt>
      <trkpt lat="47.28146" lon="-2.35563">
        <ele>33.799999237061</ele>
        <time>2021-10-21T10:00:02.000Z</time>
      </trkpt>
      <trkpt lat="47.2814" lon="-2.35562">
        <ele>33.400001525879</ele>
        <time>2021-10-21T10:00:03.000Z</time>
      </trkpt>
      <trkpt lat="47.28128" lon="-2.3556">
        <ele>33.400001525879</ele>
        <time>2021-10-21T10:00:05.000Z</time>
      </trkpt>
      <trkpt lat="47.28108" lon="-2.35559">
        <ele>33.400001525879</ele>
        <time>2021-10-21T10:00:08.000Z</time>
      </trkpt>
      <trkpt lat="47.28059" lon="-2.35558">
        <ele>33</ele>
        <time>2021-10-21T10:00:15.000Z</time>
      </trkpt>
      <trkpt lat="47.28053" lon="-2.35558">
        <ele>32.400001525879</ele>
        <time>2021-10-21T10:00:16.000Z</time>
      </trkpt>
      <trkpt lat="47.28046" lon="-2.35558">
        <ele>32</ele>
        <time>2021-10-21T10:00:17.000Z</time>
      </trkpt>
      <trkpt lat="47.28039" lon="-2.35558">
        <ele>31.60000038147</ele>
        <time>2021-10-21T10:00:18.000Z</time>
      </trkpt>
      <trkpt lat="47.28033" lon="-2.35558">
        <ele>31</ele>
        <time>2021-10-21T10:00:19.000Z</time>
      </trkpt>
      <trkpt lat="47.2802" lon="-2.35559">
        <ele>31</ele>
        <time>2021-10-21T10:00:21.000Z</time>
      </trkpt>
      <trkpt lat="47.28006" lon="-2.35561">
        <ele>30.60000038147</ele>
        <time>2021-10-21T10:00:23.000Z</time>
      </trkpt>
      <trkpt lat="47.27994" lon="-2.35565">
        <ele>29.799999237061</ele>
        <time>2021-10-21T10:00:25.000Z</time>
      </trkpt>
      <trkpt lat="47.27987" lon="-2.35568">
        <ele>29.39999961853</ele>
        <time>2021-10-21T10:00:26.000Z</time>
      </trkpt>
      <trkpt lat="47.27981" lon="-2.3557">
        <ele>29</ele>
        <time>2021-10-21T10:00:27.000Z</time>
      </trkpt>
      <trkpt lat="47.27942" lon="-2.35584">
        <ele>29</ele>
        <time>2021-10-21T10:00:33.000Z</time>
      </trkpt>
      <trkpt lat="47.27905" lon="-2.35594">
        <ele>28.60000038147</ele>
        <time>2021-10-21T10:00:39.000Z</time>
      </trkpt>
      <trkpt lat="47.27899" lon="-2.35595">
        <ele>28.200000762939</ele>
        <time>2021-10-21T10:00:40.000Z</time>
      </trkpt>
      <trkpt lat="47.27894" lon="-2.35597">
        <ele>27.799999237061</ele>
        <time>2021-10-21T10:00:41.000Z</time>
      </trkpt>
      <trkpt lat="47.27887" lon="-2.35598">
        <ele>27.200000762939</ele>
        <time>2021-10-21T10:00:42.000Z</time>
      </trkpt>
      <trkpt lat="47.27881" lon="-2.356">
        <ele>26.799999237061</ele>
        <time>2021-10-21T10:00:43.000Z</time>
      </trkpt>
      <trkpt lat="47.27855" lon="-2.35607">
        <ele>26.799999237061</ele>
        <time>2021-10-21T10:00:47.000Z</time>
      </trkpt>
      <trkpt lat="47.27841" lon="-2.3561">
        <ele>26.39999961853</ele>
        <time>2021-10-21T10:00:49.000Z</time>
      </trkpt>
      <trkpt lat="47.27834" lon="-2.35612">
        <ele>26</ele>
        <time>2021-10-21T10:00:50.000Z</time>
      </trkpt>
      <trkpt lat="47.27828" lon="-2.35614">
        <ele>25.60000038147</ele>
        <time>2021-10-21T10:00:51.000Z</time>
      </trkpt>
      <trkpt lat="47.27821" lon="-2.35616">
        <ele>25.200000762939</ele>
        <time>2021-10-21T10:00:52.000Z</time>
      </trkpt>
      <trkpt lat="47.27815" lon="-2.35617">
        <ele>24.799999237061</ele>
        <time>2021-10-21T10:00:53.000Z</time>
      </trkpt>
      <trkpt lat="47.27809" lon="-2.35619">
        <ele>24.799999237061</ele>
        <time>2021-10-21T10:00:54.000Z</time>
      </trkpt>
      <trkpt lat="47.27791" lon="-2.35627">
        <ele>24.799999237061</ele>
        <time>2021-10-21T10:00:57.000Z</time>
      </trkpt>
      <trkpt lat="47.27779" lon="-2.35635">
        <ele>24.799999237061</ele>
        <time>2021-10-21T10:00:59.000Z</time>
      </trkpt>
      <trkpt lat="47.27756" lon="-2.35659">
        <ele>24.799999237061</ele>
        <time>2021-10-21T10:01:03.000Z</time>
      </trkpt>
      <trkpt lat="47.27751" lon="-2.35665">
        <ele>24.39999961853</ele>
        <time>2021-10-21T10:01:04.000Z</time>
      </trkpt>
      <trkpt lat="47.27746" lon="-2.35672">
        <ele>23.799999237061</ele>
        <time>2021-10-21T10:01:05.000Z</time>
      </trkpt>
      <trkpt lat="47.27742" lon="-2.35678">
        <ele>23.39999961853</ele>
        <time>2021-10-21T10:01:06.000Z</time>
      </trkpt>
      <trkpt lat="47.27738" lon="-2.35685">
        <ele>23</ele>
        <time>2021-10-21T10:01:07.000Z</time>
      </trkpt>
      <trkpt lat="47.27735" lon="-2.35691">
        <ele>22.60000038147</ele>
        <time>2021-10-21T10:01:08.000Z</time>
      </trkpt>
      <trkpt lat="47.27731" lon="-2.35698">
        <ele>22.60000038147</ele>
        <time>2021-10-21T10:01:09.000Z</time>
      </trkpt>
      <trkpt lat="47.27718" lon="-2.35714">
        <ele>22.60000038147</ele>
        <time>2021-10-21T10:01:12.000Z</time>
      </trkpt>
      <trkpt lat="47.27709" lon="-2.35722">
        <ele>22.200000762939</ele>
        <time>2021-10-21T10:01:14.000Z</time>
      </trkpt>
      <trkpt lat="47.27704" lon="-2.35726">
        <ele>21.799999237061</ele>
        <time>2021-10-21T10:01:15.000Z</time>
      </trkpt>
      <trkpt lat="47.27699" lon="-2.3573">
        <ele>21.39999961853</ele>
        <time>2021-10-21T10:01:16.000Z</time>
      </trkpt>
      <trkpt lat="47.27694" lon="-2.35734">
        <ele>21</ele>
        <time>2021-10-21T10:01:17.000Z</time>
      </trkpt>
      <trkpt lat="47.2769" lon="-2.35738">
        <ele>20.60000038147</ele>
        <time>2021-10-21T10:01:18.000Z</time>
      </trkpt>
      <trkpt lat="47.27678" lon="-2.35748">
        <ele>20.60000038147</ele>
        <time>2021-10-21T10:01:21.000Z</time>
      </trkpt>
      <trkpt lat="47.27665" lon="-2.35738">
        <ele>20.60000038147</ele>
        <time>2021-10-21T10:01:24.000Z</time>
      </trkpt>
      <trkpt lat="47.27661" lon="-2.35733">
        <ele>20.200000762939</ele>
        <time>2021-10-21T10:01:25.000Z</time>
      </trkpt>
      <trkpt lat="47.27656" lon="-2.35729">
        <ele>19.60000038147</ele>
        <time>2021-10-21T10:01:26.000Z</time>
      </trkpt>
      <trkpt lat="47.27651" lon="-2.35726">
        <ele>19.200000762939</ele>
        <time>2021-10-21T10:01:27.000Z</time>
      </trkpt>
      <trkpt lat="47.27645" lon="-2.35724">
        <ele>18.799999237061</ele>
        <time>2021-10-21T10:01:28.000Z</time>
      </trkpt>
      <trkpt lat="47.27639" lon="-2.35722">
        <ele>18.39999961853</ele>
        <time>2021-10-21T10:01:29.000Z</time>
      </trkpt>
      <trkpt lat="47.27602" lon="-2.35712">
        <ele>18.39999961853</ele>
        <time>2021-10-21T10:01:35.000Z</time>
      </trkpt>
      <trkpt lat="47.27569" lon="-2.35702">
        <ele>17.799999237061</ele>
        <time>2021-10-21T10:01:41.000Z</time>
      </trkpt>
      <trkpt lat="47.27563" lon="-2.357">
        <ele>17.39999961853</ele>
        <time>2021-10-21T10:01:42.000Z</time>
      </trkpt>
      <trkpt lat="47.27557" lon="-2.35699">
        <ele>16.799999237061</ele>
        <time>2021-10-21T10:01:43.000Z</time>
      </trkpt>
      <trkpt lat="47.27551" lon="-2.35699">
        <ele>16.39999961853</ele>
        <time>2021-10-21T10:01:44.000Z</time>
      </trkpt>
      <trkpt lat="47.27545" lon="-2.35698">
        <ele>15.800000190735</ele>
        <time>2021-10-21T10:01:45.000Z</time>
      </trkpt>
      <trkpt lat="47.2754" lon="-2.35696">
        <ele>15.800000190735</ele>
        <time>2021-10-21T10:01:46.000Z</time>
      </trkpt>
      <trkpt lat="47.27496" lon="-2.35685">
        <ele>15.800000190735</ele>
        <time>2021-10-21T10:01:53.000Z</time>
      </trkpt>
      <trkpt lat="47.27466" lon="-2.35678">
        <ele>15.800000190735</ele>
        <time>2021-10-21T10:01:58.000Z</time>
      </trkpt>
      <trkpt lat="47.27447" lon="-2.35673">
        <ele>15.800000190735</ele>
        <time>2021-10-21T10:02:01.000Z</time>
      </trkpt>
      <trkpt lat="47.27416" lon="-2.35666">
        <ele>15.800000190735</ele>
        <time>2021-10-21T10:02:06.000Z</time>
      </trkpt>
      <trkpt lat="47.27409" lon="-2.35666">
        <ele>15.800000190735</ele>
        <time>2021-10-21T10:02:07.000Z</time>
      </trkpt>
      <trkpt lat="47.27382" lon="-2.35679">
        <ele>15.800000190735</ele>
        <time>2021-10-21T10:02:11.000Z</time>
      </trkpt>
      <trkpt lat="47.27343" lon="-2.35711">
        <ele>15.800000190735</ele>
        <time>2021-10-21T10:02:18.000Z</time>
      </trkpt>
      <trkpt lat="47.27331" lon="-2.3572">
        <ele>15.39999961853</ele>
        <time>2021-10-21T10:02:21.000Z</time>
      </trkpt>
      <trkpt lat="47.27329" lon="-2.35722">
        <ele>14.800000190735</ele>
        <time>2021-10-21T10:02:22.000Z</time>
      </trkpt>
      <trkpt lat="47.27327" lon="-2.35724">
        <ele>14.39999961853</ele>
        <time>2021-10-21T10:02:23.000Z</time>
      </trkpt>
      <trkpt lat="47.27326" lon="-2.35726">
        <ele>13.800000190735</ele>
        <time>2021-10-21T10:02:24.000Z</time>
      </trkpt>
      <trkpt lat="47.27325" lon="-2.35728">
        <ele>13.39999961853</ele>
        <time>2021-10-21T10:02:25.000Z</time>
      </trkpt>
      <trkpt lat="47.27323" lon="-2.35731">
        <ele>12.800000190735</ele>
        <time>2021-10-21T10:02:26.000Z</time>
      </trkpt>
      <trkpt lat="47.27321" lon="-2.35734">
        <ele>12.199999809265</ele>
        <time>2021-10-21T10:02:27.000Z</time>
      </trkpt>
      <trkpt lat="47.27318" lon="-2.35738">
        <ele>11.199999809265</ele>
        <time>2021-10-21T10:02:28.000Z</time>
      </trkpt>
      <trkpt lat="47.27312" lon="-2.35741">
        <ele>11.199999809265</ele>
        <time>2021-10-21T10:02:30.000Z</time>
      </trkpt>
      <trkpt lat="47.27309" lon="-2.35738">
        <ele>11.199999809265</ele>
        <time>2021-10-21T10:02:31.000Z</time>
      </trkpt>
      <trkpt lat="47.27299" lon="-2.35717">
        <ele>11.199999809265</ele>
        <time>2021-10-21T10:02:35.000Z</time>
      </trkpt>
      <trkpt lat="47.27297" lon="-2.35711">
        <ele>11.199999809265</ele>
        <time>2021-10-21T10:02:36.000Z</time>
      </trkpt>
      <trkpt lat="47.27276" lon="-2.35665">
        <ele>11.199999809265</ele>
        <time>2021-10-21T10:02:44.000Z</time>
      </trkpt>
      <trkpt lat="47.27266" lon="-2.35643">
        <ele>11.60000038147</ele>
        <time>2021-10-21T10:02:48.000Z</time>
      </trkpt>
      <trkpt lat="47.27264" lon="-2.35638">
        <ele>12</ele>
        <time>2021-10-21T10:02:49.000Z</time>
      </trkpt>
      <trkpt lat="47.27261" lon="-2.35633">
        <ele>12.39999961853</ele>
        <time>2021-10-21T10:02:50.000Z</time>
      </trkpt>
      <trkpt lat="47.27259" lon="-2.35627">
        <ele>12.800000190735</ele>
        <time>2021-10-21T10:02:51.000Z</time>
      </trkpt>
      <trkpt lat="47.27256" lon="-2.35622">
        <ele>13.199999809265</ele>
        <time>2021-10-21T10:02:52.000Z</time>
      </trkpt>
      <trkpt lat="47.2724" lon="-2.35585">
        <ele>13.199999809265</ele>
        <time>2021-10-21T10:02:58.000Z</time>
      </trkpt>
      <trkpt lat="47.27215" lon="-2.35529">
        <ele>13.199999809265</ele>
        <time>2021-10-21T10:03:07.000Z</time>
      </trkpt>
      <trkpt lat="47.27185" lon="-2.35468">
        <ele>13.199999809265</ele>
        <time>2021-10-21T10:03:16.000Z</time>
      </trkpt>
      <trkpt lat="47.27151" lon="-2.35403">
        <ele>13.199999809265</ele>
        <time>2021-10-21T10:03:25.000Z</time>
      </trkpt>
      <trkpt lat="47.27119" lon="-2.35346">
        <ele>13.199999809265</ele>
        <time>2021-10-21T10:03:33.000Z</time>
      </trkpt>
      <trkpt lat="47.27084" lon="-2.3529">
        <ele>13.199999809265</ele>
        <time>2021-10-21T10:03:41.000Z</time>
      </trkpt>
      <trkpt lat="47.27058" lon="-2.35251">
        <ele>13.199999809265</ele>
        <time>2021-10-21T10:03:47.000Z</time>
      </trkpt>
      <trkpt lat="47.27018" lon="-2.3519">
        <ele>13.199999809265</ele>
        <time>2021-10-21T10:03:56.000Z</time>
      </trkpt>
      <trkpt lat="47.26983" lon="-2.35136">
        <ele>13.199999809265</ele>
        <time>2021-10-21T10:04:04.000Z</time>
      </trkpt>
      <trkpt lat="47.26959" lon="-2.35099">
        <ele>13.199999809265</ele>
        <time>2021-10-21T10:04:10.000Z</time>
      </trkpt>
      <trkpt lat="47.26934" lon="-2.3506">
        <ele>13.199999809265</ele>
        <time>2021-10-21T10:04:16.000Z</time>
      </trkpt>
      <trkpt lat="47.26901" lon="-2.3501">
        <ele>13.199999809265</ele>
        <time>2021-10-21T10:04:24.000Z</time>
      </trkpt>
      <trkpt lat="47.26872" lon="-2.34966">
        <ele>13.199999809265</ele>
        <time>2021-10-21T10:04:31.000Z</time>
      </trkpt>
      <trkpt lat="47.26833" lon="-2.34907">
        <ele>13.199999809265</ele>
        <time>2021-10-21T10:04:40.000Z</time>
      </trkpt>
      <trkpt lat="47.26807" lon="-2.34868">
        <ele>13.199999809265</ele>
        <time>2021-10-21T10:04:47.000Z</time>
      </trkpt>
      <trkpt lat="47.26781" lon="-2.3483">
        <ele>13.199999809265</ele>
        <time>2021-10-21T10:04:54.000Z</time>
      </trkpt>
      <trkpt lat="47.26769" lon="-2.34814">
        <ele>13.199999809265</ele>
        <time>2021-10-21T10:04:57.000Z</time>
      </trkpt>
      <trkpt lat="47.26761" lon="-2.34804">
        <ele>13.199999809265</ele>
        <time>2021-10-21T10:04:59.000Z</time>
      </trkpt>
      <trkpt lat="47.26757" lon="-2.34798">
        <ele>13.199999809265</ele>
        <time>2021-10-21T10:05:00.000Z</time>
      </trkpt>
      <trkpt lat="47.26723" lon="-2.34755">
        <ele>13.199999809265</ele>
        <time>2021-10-21T10:05:08.000Z</time>
      </trkpt>
      <trkpt lat="47.26689" lon="-2.34714">
        <ele>13.199999809265</ele>
        <time>2021-10-21T10:05:16.000Z</time>
      </trkpt>
      <trkpt lat="47.26653" lon="-2.34669">
        <ele>13.199999809265</ele>
        <time>2021-10-21T10:05:24.000Z</time>
      </trkpt>
      <trkpt lat="47.26613" lon="-2.3462">
        <ele>13.199999809265</ele>
        <time>2021-10-21T10:05:33.000Z</time>
      </trkpt>
      <trkpt lat="47.26609" lon="-2.34615">
        <ele>13.199999809265</ele>
        <time>2021-10-21T10:05:34.000Z</time>
      </trkpt>
      <trkpt lat="47.26591" lon="-2.34594">
        <ele>13.199999809265</ele>
        <time>2021-10-21T10:05:38.000Z</time>
      </trkpt>
      <trkpt lat="47.2656" lon="-2.3456">
        <ele>13.199999809265</ele>
        <time>2021-10-21T10:05:45.000Z</time>
      </trkpt>
      <trkpt lat="47.26531" lon="-2.34532">
        <ele>13.199999809265</ele>
        <time>2021-10-21T10:05:51.000Z</time>
      </trkpt>
      <trkpt lat="47.26485" lon="-2.34498">
        <ele>13.199999809265</ele>
        <time>2021-10-21T10:05:59.000Z</time>
      </trkpt>
      <trkpt lat="47.26446" lon="-2.3447">
        <ele>13.199999809265</ele>
        <time>2021-10-21T10:06:06.000Z</time>
      </trkpt>
      <trkpt lat="47.26414" lon="-2.34446">
        <ele>13.199999809265</ele>
        <time>2021-10-21T10:06:12.000Z</time>
      </trkpt>
      <trkpt lat="47.26376" lon="-2.34415">
        <ele>13.199999809265</ele>
        <time>2021-10-21T10:06:20.000Z</time>
      </trkpt>
      <trkpt lat="47.26344" lon="-2.34387">
        <ele>13.199999809265</ele>
        <time>2021-10-21T10:06:27.000Z</time>
      </trkpt>
      <trkpt lat="47.26339" lon="-2.34384">
        <ele>13.199999809265</ele>
        <time>2021-10-21T10:06:28.000Z</time>
      </trkpt>
      <trkpt lat="47.26324" lon="-2.34377">
        <ele>13.199999809265</ele>
        <time>2021-10-21T10:06:31.000Z</time>
      </trkpt>
      <trkpt lat="47.26315" lon="-2.34361">
        <ele>13.199999809265</ele>
        <time>2021-10-21T10:06:34.000Z</time>
      </trkpt>
      <trkpt lat="47.26312" lon="-2.34357">
        <ele>13.199999809265</ele>
        <time>2021-10-21T10:06:35.000Z</time>
      </trkpt>
      <trkpt lat="47.263" lon="-2.34346">
        <ele>13.199999809265</ele>
        <time>2021-10-21T10:06:38.000Z</time>
      </trkpt>
      <trkpt lat="47.26278" lon="-2.34321">
        <ele>13.199999809265</ele>
        <time>2021-10-21T10:06:44.000Z</time>
      </trkpt>
      <trkpt lat="47.26244" lon="-2.34287">
        <ele>13.199999809265</ele>
        <time>2021-10-21T10:06:53.000Z</time>
      </trkpt>
      <trkpt lat="47.2621" lon="-2.3425">
        <ele>13.199999809265</ele>
        <time>2021-10-21T10:07:02.000Z</time>
      </trkpt>
      <trkpt lat="47.26181" lon="-2.3422">
        <ele>13.199999809265</ele>
        <time>2021-10-21T10:07:11.000Z</time>
      </trkpt>
      <trkpt lat="47.26149" lon="-2.34189">
        <ele>13.199999809265</ele>
        <time>2021-10-21T10:07:21.000Z</time>
      </trkpt>
      <trkpt lat="47.26134" lon="-2.34184">
        <ele>13.199999809265</ele>
        <time>2021-10-21T10:07:25.000Z</time>
      </trkpt>
      <trkpt lat="47.26122" lon="-2.34169">
        <ele>13.199999809265</ele>
        <time>2021-10-21T10:07:29.000Z</time>
      </trkpt>
      <trkpt lat="47.26106" lon="-2.34158">
        <ele>13.199999809265</ele>
        <time>2021-10-21T10:07:33.000Z</time>
      </trkpt>
      <trkpt lat="47.2607" lon="-2.3414">
        <ele>13.199999809265</ele>
        <time>2021-10-21T10:07:41.000Z</time>
      </trkpt>
      <trkpt lat="47.26036" lon="-2.34123">
        <ele>13.199999809265</ele>
        <time>2021-10-21T10:07:48.000Z</time>
      </trkpt>
      <trkpt lat="47.26002" lon="-2.34106">
        <ele>13.199999809265</ele>
        <time>2021-10-21T10:07:55.000Z</time>
      </trkpt>
      <trkpt lat="47.25962" lon="-2.34086">
        <ele>13.199999809265</ele>
        <time>2021-10-21T10:08:03.000Z</time>
      </trkpt>
      <trkpt lat="47.25937" lon="-2.34076">
        <ele>13.199999809265</ele>
        <time>2021-10-21T10:08:08.000Z</time>
      </trkpt>
      <trkpt lat="47.25927" lon="-2.34073">
        <ele>13.199999809265</ele>
        <time>2021-10-21T10:08:10.000Z</time>
      </trkpt>
      <trkpt lat="47.25916" lon="-2.34072">
        <ele>13.199999809265</ele>
        <time>2021-10-21T10:08:12.000Z</time>
      </trkpt>
      <trkpt lat="47.25911" lon="-2.34071">
        <ele>13.199999809265</ele>
        <time>2021-10-21T10:08:13.000Z</time>
      </trkpt>
      <trkpt lat="47.25903" lon="-2.34063">
        <ele>13.199999809265</ele>
        <time>2021-10-21T10:08:15.000Z</time>
      </trkpt>
      <trkpt lat="47.25898" lon="-2.34041">
        <ele>13.199999809265</ele>
        <time>2021-10-21T10:08:18.000Z</time>
      </trkpt>
      <trkpt lat="47.25904" lon="-2.3402">
        <ele>13.199999809265</ele>
        <time>2021-10-21T10:08:21.000Z</time>
      </trkpt>
      <trkpt lat="47.25908" lon="-2.34006">
        <ele>13.199999809265</ele>
        <time>2021-10-21T10:08:23.000Z</time>
      </trkpt>
      <trkpt lat="47.25916" lon="-2.33976">
        <ele>13.199999809265</ele>
        <time>2021-10-21T10:08:27.000Z</time>
      </trkpt>
      <trkpt lat="47.25934" lon="-2.33937">
        <ele>13.199999809265</ele>
        <time>2021-10-21T10:08:33.000Z</time>
      </trkpt>
      <trkpt lat="47.25946" lon="-2.33917">
        <ele>13.199999809265</ele>
        <time>2021-10-21T10:08:38.000Z</time>
      </trkpt>
      <trkpt lat="47.2595" lon="-2.339">
        <ele>13.199999809265</ele>
        <time>2021-10-21T10:08:43.000Z</time>
      </trkpt>
      <trkpt lat="47.25955" lon="-2.33889">
        <ele>13.199999809265</ele>
        <time>2021-10-21T10:08:45.000Z</time>
      </trkpt>
      <trkpt lat="47.25961" lon="-2.3387">
        <ele>13.199999809265</ele>
        <time>2021-10-21T10:08:48.000Z</time>
      </trkpt>
      <trkpt lat="47.25963" lon="-2.33862">
        <ele>13.199999809265</ele>
        <time>2021-10-21T10:08:49.000Z</time>
      </trkpt>
      <trkpt lat="47.25974" lon="-2.33817">
        <ele>13.199999809265</ele>
        <time>2021-10-21T10:08:55.000Z</time>
      </trkpt>
      <trkpt lat="47.25989" lon="-2.33765">
        <ele>13.199999809265</ele>
        <time>2021-10-21T10:09:02.000Z</time>
      </trkpt>
      <trkpt lat="47.26008" lon="-2.3371">
        <ele>13.199999809265</ele>
        <time>2021-10-21T10:09:09.000Z</time>
      </trkpt>
      <trkpt lat="47.2602" lon="-2.33673">
        <ele>13.199999809265</ele>
        <time>2021-10-21T10:09:14.000Z</time>
      </trkpt>
      <trkpt lat="47.26024" lon="-2.33663">
        <ele>13.199999809265</ele>
        <time>2021-10-21T10:09:16.000Z</time>
      </trkpt>
      <trkpt lat="47.26034" lon="-2.33662">
        <ele>13.199999809265</ele>
        <time>2021-10-21T10:09:19.000Z</time>
      </trkpt>
      <trkpt lat="47.26038" lon="-2.33663">
        <ele>13.199999809265</ele>
        <time>2021-10-21T10:09:20.000Z</time>
      </trkpt>
      <trkpt lat="47.26047" lon="-2.33664">
        <ele>13.199999809265</ele>
        <time>2021-10-21T10:09:22.000Z</time>
      </trkpt>
      <trkpt lat="47.26055" lon="-2.33656">
        <ele>13.199999809265</ele>
        <time>2021-10-21T10:09:24.000Z</time>
      </trkpt>
      <trkpt lat="47.26065" lon="-2.33628">
        <ele>13.199999809265</ele>
        <time>2021-10-21T10:09:28.000Z</time>
      </trkpt>
      <trkpt lat="47.26082" lon="-2.33579">
        <ele>13.199999809265</ele>
        <time>2021-10-21T10:09:34.000Z</time>
      </trkpt>
      <trkpt lat="47.26105" lon="-2.33517">
        <ele>13.199999809265</ele>
        <time>2021-10-21T10:09:42.000Z</time>
      </trkpt>
      <trkpt lat="47.26122" lon="-2.33473">
        <ele>13.199999809265</ele>
        <time>2021-10-21T10:09:49.000Z</time>
      </trkpt>
      <trkpt lat="47.26133" lon="-2.33443">
        <ele>13.199999809265</ele>
        <time>2021-10-21T10:09:55.000Z</time>
      </trkpt>
      <trkpt lat="47.26135" lon="-2.33432">
        <ele>13.199999809265</ele>
        <time>2021-10-21T10:09:57.000Z</time>
      </trkpt>
      <trkpt lat="47.26133" lon="-2.33426">
        <ele>13.199999809265</ele>
        <time>2021-10-21T10:09:58.000Z</time>
      </trkpt>
      <trkpt lat="47.26119" lon="-2.33407">
        <ele>13.199999809265</ele>
        <time>2021-10-21T10:10:02.000Z</time>
      </trkpt>
      <trkpt lat="47.26115" lon="-2.33403">
        <ele>13.199999809265</ele>
        <time>2021-10-21T10:10:03.000Z</time>
      </trkpt>
      <trkpt lat="47.26111" lon="-2.33398">
        <ele>13.199999809265</ele>
        <time>2021-10-21T10:10:04.000Z</time>
      </trkpt>
      <trkpt lat="47.26104" lon="-2.33388">
        <ele>13.199999809265</ele>
        <time>2021-10-21T10:10:06.000Z</time>
      </trkpt>
      <trkpt lat="47.261" lon="-2.33382">
        <ele>13.199999809265</ele>
        <time>2021-10-21T10:10:07.000Z</time>
      </trkpt>
      <trkpt lat="47.26087" lon="-2.3337">
        <ele>13.199999809265</ele>
        <time>2021-10-21T10:10:10.000Z</time>
      </trkpt>
      <trkpt lat="47.26083" lon="-2.33366">
        <ele>13.199999809265</ele>
        <time>2021-10-21T10:10:11.000Z</time>
      </trkpt>
      <trkpt lat="47.26079" lon="-2.33359">
        <ele>13.199999809265</ele>
        <time>2021-10-21T10:10:12.000Z</time>
      </trkpt>
      <trkpt lat="47.26072" lon="-2.33337">
        <ele>13.199999809265</ele>
        <time>2021-10-21T10:10:15.000Z</time>
      </trkpt>
      <trkpt lat="47.26069" lon="-2.33329">
        <ele>13.199999809265</ele>
        <time>2021-10-21T10:10:16.000Z</time>
      </trkpt>
      <trkpt lat="47.26046" lon="-2.33261">
        <ele>13.199999809265</ele>
        <time>2021-10-21T10:10:25.000Z</time>
      </trkpt>
      <trkpt lat="47.2604" lon="-2.33245">
        <ele>12.800000190735</ele>
        <time>2021-10-21T10:10:27.000Z</time>
      </trkpt>
      <trkpt lat="47.26038" lon="-2.33236">
        <ele>12.39999961853</ele>
        <time>2021-10-21T10:10:28.000Z</time>
      </trkpt>
      <trkpt lat="47.26035" lon="-2.33228">
        <ele>12</ele>
        <time>2021-10-21T10:10:29.000Z</time>
      </trkpt>
      <trkpt lat="47.26032" lon="-2.3322">
        <ele>11.60000038147</ele>
        <time>2021-10-21T10:10:30.000Z</time>
      </trkpt>
      <trkpt lat="47.26029" lon="-2.33212">
        <ele>11.199999809265</ele>
        <time>2021-10-21T10:10:31.000Z</time>
      </trkpt>
      <trkpt lat="47.26024" lon="-2.33197">
        <ele>11.199999809265</ele>
        <time>2021-10-21T10:10:33.000Z</time>
      </trkpt>
      <trkpt lat="47.26002" lon="-2.33138">
        <ele>11.199999809265</ele>
        <time>2021-10-21T10:10:41.000Z</time>
      </trkpt>
      <trkpt lat="47.25989" lon="-2.33092">
        <ele>11.199999809265</ele>
        <time>2021-10-21T10:10:47.000Z</time>
      </trkpt>
      <trkpt lat="47.25986" lon="-2.33084">
        <ele>11.199999809265</ele>
        <time>2021-10-21T10:10:48.000Z</time>
      </trkpt>
      <trkpt lat="47.25976" lon="-2.33063">
        <ele>11.199999809265</ele>
        <time>2021-10-21T10:10:51.000Z</time>
      </trkpt>
      <trkpt lat="47.25973" lon="-2.33056">
        <ele>11.199999809265</ele>
        <time>2021-10-21T10:10:52.000Z</time>
      </trkpt>
      <trkpt lat="47.25962" lon="-2.33024">
        <ele>11.199999809265</ele>
        <time>2021-10-21T10:10:56.000Z</time>
      </trkpt>
      <trkpt lat="47.2594" lon="-2.32963">
        <ele>11.199999809265</ele>
        <time>2021-10-21T10:11:04.000Z</time>
      </trkpt>
      <trkpt lat="47.25924" lon="-2.32915">
        <ele>11.199999809265</ele>
        <time>2021-10-21T10:11:10.000Z</time>
      </trkpt>
      <trkpt lat="47.25902" lon="-2.32859">
        <ele>11.199999809265</ele>
        <time>2021-10-21T10:11:17.000Z</time>
      </trkpt>
      <trkpt lat="47.25877" lon="-2.32786">
        <ele>11.199999809265</ele>
        <time>2021-10-21T10:11:26.000Z</time>
      </trkpt>
      <trkpt lat="47.25863" lon="-2.32736">
        <ele>11.199999809265</ele>
        <time>2021-10-21T10:11:33.000Z</time>
      </trkpt>
      <trkpt lat="47.25861" lon="-2.32723">
        <ele>11.199999809265</ele>
        <time>2021-10-21T10:11:35.000Z</time>
      </trkpt>
      <trkpt lat="47.25861" lon="-2.32711">
        <ele>11.199999809265</ele>
        <time>2021-10-21T10:11:37.000Z</time>
      </trkpt>
      <trkpt lat="47.25853" lon="-2.327">
        <ele>11.199999809265</ele>
        <time>2021-10-21T10:11:40.000Z</time>
      </trkpt>
      <trkpt lat="47.25847" lon="-2.32679">
        <ele>11.199999809265</ele>
        <time>2021-10-21T10:11:44.000Z</time>
      </trkpt>
      <trkpt lat="47.25833" lon="-2.3263">
        <ele>11.199999809265</ele>
        <time>2021-10-21T10:11:51.000Z</time>
      </trkpt>
      <trkpt lat="47.2582" lon="-2.32575">
        <ele>11.199999809265</ele>
        <time>2021-10-21T10:11:58.000Z</time>
      </trkpt>
      <trkpt lat="47.25805" lon="-2.32514">
        <ele>11.199999809265</ele>
        <time>2021-10-21T10:12:06.000Z</time>
      </trkpt>
      <trkpt lat="47.25798" lon="-2.32479">
        <ele>11.199999809265</ele>
        <time>2021-10-21T10:12:12.000Z</time>
      </trkpt>
      <trkpt lat="47.25798" lon="-2.32476">
        <ele>11.199999809265</ele>
        <time>2021-10-21T10:12:16.000Z</time>
      </trkpt>
      <trkpt lat="47.25798" lon="-2.32475">
        <ele>11.199999809265</ele>
        <time>2021-10-21T10:12:59.000Z</time>
      </trkpt>
      <trkpt lat="47.25801" lon="-2.32466">
        <ele>11.199999809265</ele>
        <time>2021-10-21T10:13:02.000Z</time>
      </trkpt>
      <trkpt lat="47.25813" lon="-2.32455">
        <ele>11.199999809265</ele>
        <time>2021-10-21T10:13:07.000Z</time>
      </trkpt>
      <trkpt lat="47.25829" lon="-2.32463">
        <ele>11.199999809265</ele>
        <time>2021-10-21T10:13:11.000Z</time>
      </trkpt>
      <trkpt lat="47.25859" lon="-2.32471">
        <ele>11.199999809265</ele>
        <time>2021-10-21T10:13:18.000Z</time>
      </trkpt>
      <trkpt lat="47.25889" lon="-2.32464">
        <ele>11.199999809265</ele>
        <time>2021-10-21T10:13:25.000Z</time>
      </trkpt>
      <trkpt lat="47.25904" lon="-2.32447">
        <ele>11.199999809265</ele>
        <time>2021-10-21T10:13:29.000Z</time>
      </trkpt>
      <trkpt lat="47.25917" lon="-2.32434">
        <ele>11.199999809265</ele>
        <time>2021-10-21T10:13:32.000Z</time>
      </trkpt>
      <trkpt lat="47.25925" lon="-2.32423">
        <ele>11.199999809265</ele>
        <time>2021-10-21T10:13:34.000Z</time>
      </trkpt>
      <trkpt lat="47.25957" lon="-2.32383">
        <ele>11.199999809265</ele>
        <time>2021-10-21T10:13:42.000Z</time>
      </trkpt>
      <trkpt lat="47.25993" lon="-2.32338">
        <ele>11.199999809265</ele>
        <time>2021-10-21T10:13:51.000Z</time>
      </trkpt>
      <trkpt lat="47.2602" lon="-2.32304">
        <ele>11.199999809265</ele>
        <time>2021-10-21T10:13:58.000Z</time>
      </trkpt>
      <trkpt lat="47.26046" lon="-2.32272">
        <ele>11.199999809265</ele>
        <time>2021-10-21T10:14:05.000Z</time>
      </trkpt>
      <trkpt lat="47.26075" lon="-2.3224">
        <ele>11.199999809265</ele>
        <time>2021-10-21T10:14:13.000Z</time>
      </trkpt>
      <trkpt lat="47.26096" lon="-2.32206">
        <ele>11.199999809265</ele>
        <time>2021-10-21T10:14:20.000Z</time>
      </trkpt>
      <trkpt lat="47.26101" lon="-2.32194">
        <ele>11.199999809265</ele>
        <time>2021-10-21T10:14:22.000Z</time>
      </trkpt>
      <trkpt lat="47.26121" lon="-2.32147">
        <ele>11.199999809265</ele>
        <time>2021-10-21T10:14:30.000Z</time>
      </trkpt>
      <trkpt lat="47.26128" lon="-2.3213">
        <ele>11.199999809265</ele>
        <time>2021-10-21T10:14:33.000Z</time>
      </trkpt>
      <trkpt lat="47.26133" lon="-2.32112">
        <ele>11.199999809265</ele>
        <time>2021-10-21T10:14:36.000Z</time>
      </trkpt>
      <trkpt lat="47.26141" lon="-2.32079">
        <ele>11.199999809265</ele>
        <time>2021-10-21T10:14:42.000Z</time>
      </trkpt>
      <trkpt lat="47.26152" lon="-2.32041">
        <ele>11.199999809265</ele>
        <time>2021-10-21T10:14:49.000Z</time>
      </trkpt>
      <trkpt lat="47.26165" lon="-2.32025">
        <ele>11.199999809265</ele>
        <time>2021-10-21T10:14:53.000Z</time>
      </trkpt>
      <trkpt lat="47.26168" lon="-2.32024">
        <ele>11.199999809265</ele>
        <time>2021-10-21T10:14:54.000Z</time>
      </trkpt>
      <trkpt lat="47.26184" lon="-2.32024">
        <ele>11.199999809265</ele>
        <time>2021-10-21T10:14:59.000Z</time>
      </trkpt>
      <trkpt lat="47.26186" lon="-2.32024">
        <ele>11.199999809265</ele>
        <time>2021-10-21T10:15:00.000Z</time>
      </trkpt>
      <trkpt lat="47.26188" lon="-2.32025">
        <ele>11.199999809265</ele>
        <time>2021-10-21T10:15:02.000Z</time>
      </trkpt>
      <trkpt lat="47.26194" lon="-2.32023">
        <ele>11.199999809265</ele>
        <time>2021-10-21T10:15:18.000Z</time>
      </trkpt>
      <trkpt lat="47.26196" lon="-2.32008">
        <ele>11.199999809265</ele>
        <time>2021-10-21T10:15:22.000Z</time>
      </trkpt>
      <trkpt lat="47.26198" lon="-2.32006">
        <ele>11.199999809265</ele>
        <time>2021-10-21T10:15:23.000Z</time>
      </trkpt>
      <trkpt lat="47.26203" lon="-2.32001">
        <ele>11.199999809265</ele>
        <time>2021-10-21T10:15:26.000Z</time>
      </trkpt>
      <trkpt lat="47.26207" lon="-2.31996">
        <ele>11.199999809265</ele>
        <time>2021-10-21T10:15:28.000Z</time>
      </trkpt>
      <trkpt lat="47.2622" lon="-2.31977">
        <ele>11.199999809265</ele>
        <time>2021-10-21T10:15:34.000Z</time>
      </trkpt>
      <trkpt lat="47.2624" lon="-2.3196">
        <ele>11.199999809265</ele>
        <time>2021-10-21T10:15:39.000Z</time>
      </trkpt>
      <trkpt lat="47.26251" lon="-2.31944">
        <ele>11.199999809265</ele>
        <time>2021-10-21T10:15:44.000Z</time>
      </trkpt>
      <trkpt lat="47.26265" lon="-2.31921">
        <ele>11.199999809265</ele>
        <time>2021-10-21T10:15:51.000Z</time>
      </trkpt>
      <trkpt lat="47.26286" lon="-2.31897">
        <ele>11.199999809265</ele>
        <time>2021-10-21T10:15:58.000Z</time>
      </trkpt>
      <trkpt lat="47.26297" lon="-2.31894">
        <ele>11.199999809265</ele>
        <time>2021-10-21T10:16:02.000Z</time>
      </trkpt>
      <trkpt lat="47.26298" lon="-2.31897">
        <ele>11.199999809265</ele>
        <time>2021-10-21T10:16:03.000Z</time>
      </trkpt>
      <trkpt lat="47.263" lon="-2.31907">
        <ele>11.199999809265</ele>
        <time>2021-10-21T10:16:06.000Z</time>
      </trkpt>
      <trkpt lat="47.26301" lon="-2.31917">
        <ele>11.199999809265</ele>
        <time>2021-10-21T10:16:09.000Z</time>
      </trkpt>
      <trkpt lat="47.26304" lon="-2.31928">
        <ele>11.199999809265</ele>
        <time>2021-10-21T10:16:15.000Z</time>
      </trkpt>
      <trkpt lat="47.26302" lon="-2.31921">
        <ele>11.199999809265</ele>
        <time>2021-10-21T10:16:26.000Z</time>
      </trkpt>
      <trkpt lat="47.26301" lon="-2.31914">
        <ele>11.199999809265</ele>
        <time>2021-10-21T10:16:28.000Z</time>
      </trkpt>
      <trkpt lat="47.263" lon="-2.31888">
        <ele>11.199999809265</ele>
        <time>2021-10-21T10:16:34.000Z</time>
      </trkpt>
      <trkpt lat="47.263" lon="-2.31854">
        <ele>11.199999809265</ele>
        <time>2021-10-21T10:16:40.000Z</time>
      </trkpt>
      <trkpt lat="47.26302" lon="-2.31822">
        <ele>11.199999809265</ele>
        <time>2021-10-21T10:16:47.000Z</time>
      </trkpt>
      <trkpt lat="47.26304" lon="-2.31791">
        <ele>11.199999809265</ele>
        <time>2021-10-21T10:16:53.000Z</time>
      </trkpt>
      <trkpt lat="47.26301" lon="-2.31761">
        <ele>11.199999809265</ele>
        <time>2021-10-21T10:16:59.000Z</time>
      </trkpt>
      <trkpt lat="47.263" lon="-2.31725">
        <ele>11.199999809265</ele>
        <time>2021-10-21T10:17:06.000Z</time>
      </trkpt>
      <trkpt lat="47.26306" lon="-2.31717">
        <ele>11.199999809265</ele>
        <time>2021-10-21T10:17:08.000Z</time>
      </trkpt>
      <trkpt lat="47.26309" lon="-2.31715">
        <ele>11.199999809265</ele>
        <time>2021-10-21T10:17:09.000Z</time>
      </trkpt>
      <trkpt lat="47.26312" lon="-2.31714">
        <ele>11.60000038147</ele>
        <time>2021-10-21T10:17:10.000Z</time>
      </trkpt>
      <trkpt lat="47.26316" lon="-2.31713">
        <ele>12</ele>
        <time>2021-10-21T10:17:11.000Z</time>
      </trkpt>
      <trkpt lat="47.26319" lon="-2.31711">
        <ele>12.39999961853</ele>
        <time>2021-10-21T10:17:12.000Z</time>
      </trkpt>
      <trkpt lat="47.26323" lon="-2.3171">
        <ele>12.800000190735</ele>
        <time>2021-10-21T10:17:13.000Z</time>
      </trkpt>
      <trkpt lat="47.26326" lon="-2.31708">
        <ele>13.199999809265</ele>
        <time>2021-10-21T10:17:14.000Z</time>
      </trkpt>
      <trkpt lat="47.26329" lon="-2.31707">
        <ele>13.199999809265</ele>
        <time>2021-10-21T10:17:15.000Z</time>
      </trkpt>
      <trkpt lat="47.26335" lon="-2.31697">
        <ele>13.199999809265</ele>
        <time>2021-10-21T10:17:18.000Z</time>
      </trkpt>
      <trkpt lat="47.26336" lon="-2.31692">
        <ele>13.199999809265</ele>
        <time>2021-10-21T10:17:19.000Z</time>
      </trkpt>
      <trkpt lat="47.26345" lon="-2.31684">
        <ele>13.199999809265</ele>
        <time>2021-10-21T10:17:23.000Z</time>
      </trkpt>
      <trkpt lat="47.26348" lon="-2.31683">
        <ele>13.199999809265</ele>
        <time>2021-10-21T10:17:24.000Z</time>
      </trkpt>
      <trkpt lat="47.2635" lon="-2.31681">
        <ele>13.800000190735</ele>
        <time>2021-10-21T10:17:25.000Z</time>
      </trkpt>
      <trkpt lat="47.26353" lon="-2.3168">
        <ele>14.199999809265</ele>
        <time>2021-10-21T10:17:26.000Z</time>
      </trkpt>
      <trkpt lat="47.26355" lon="-2.31679">
        <ele>14.60000038147</ele>
        <time>2021-10-21T10:17:27.000Z</time>
      </trkpt>
      <trkpt lat="47.26358" lon="-2.31677">
        <ele>15</ele>
        <time>2021-10-21T10:17:28.000Z</time>
      </trkpt>
      <trkpt lat="47.26361" lon="-2.31675">
        <ele>15.39999961853</ele>
        <time>2021-10-21T10:17:29.000Z</time>
      </trkpt>
      <trkpt lat="47.26364" lon="-2.31674">
        <ele>15.39999961853</ele>
        <time>2021-10-21T10:17:30.000Z</time>
      </trkpt>
      <trkpt lat="47.26385" lon="-2.31664">
        <ele>15.39999961853</ele>
        <time>2021-10-21T10:17:37.000Z</time>
      </trkpt>
      <trkpt lat="47.264" lon="-2.31656">
        <ele>15.39999961853</ele>
        <time>2021-10-21T10:17:43.000Z</time>
      </trkpt>
      <trkpt lat="47.26406" lon="-2.31647">
        <ele>15.39999961853</ele>
        <time>2021-10-21T10:17:47.000Z</time>
      </trkpt>
      <trkpt lat="47.26407" lon="-2.31643">
        <ele>15.39999961853</ele>
        <time>2021-10-21T10:17:48.000Z</time>
      </trkpt>
      <trkpt lat="47.26407" lon="-2.31635">
        <ele>15.800000190735</ele>
        <time>2021-10-21T10:17:50.000Z</time>
      </trkpt>
      <trkpt lat="47.26407" lon="-2.3163">
        <ele>16.200000762939</ele>
        <time>2021-10-21T10:17:51.000Z</time>
      </trkpt>
      <trkpt lat="47.26407" lon="-2.31625">
        <ele>16.60000038147</ele>
        <time>2021-10-21T10:17:52.000Z</time>
      </trkpt>
      <trkpt lat="47.26408" lon="-2.3162">
        <ele>17.200000762939</ele>
        <time>2021-10-21T10:17:53.000Z</time>
      </trkpt>
      <trkpt lat="47.26408" lon="-2.31615">
        <ele>17.60000038147</ele>
        <time>2021-10-21T10:17:54.000Z</time>
      </trkpt>
      <trkpt lat="47.26409" lon="-2.31586">
        <ele>17.60000038147</ele>
        <time>2021-10-21T10:18:00.000Z</time>
      </trkpt>
      <trkpt lat="47.26409" lon="-2.31564">
        <ele>17.60000038147</ele>
        <time>2021-10-21T10:18:05.000Z</time>
      </trkpt>
      <trkpt lat="47.26411" lon="-2.31552">
        <ele>17.60000038147</ele>
        <time>2021-10-21T10:18:09.000Z</time>
      </trkpt>
      <trkpt lat="47.26413" lon="-2.31553">
        <ele>17.60000038147</ele>
        <time>2021-10-21T10:18:10.000Z</time>
      </trkpt>
      <trkpt lat="47.26417" lon="-2.31553">
        <ele>17.60000038147</ele>
        <time>2021-10-21T10:18:14.000Z</time>
      </trkpt>
    </trkseg>
  </trk>
</gpx>